<?xml version="1.0" encoding="UTF-8" standalone="no" ?>
<gpx xmlns="http://www.topografix.com/GPX/1/1" xmlns:xsi="http://www.w3.org/2001/XMLSchema-instance" xsi:schemaLocation="http://www.topografix.com/GPX/1/1 http://www.topografix.com/GPX/1/1/gpx.xsd" version="1.1" creator="VisuGPX - https://www.visugpx.com">
  <metadata>
    <name>Etape 3: Saint-Florent-sur-Cher&amp;gt; Selles-sur-Cher</name>
    <desc><![CDATA[Etape 3: Saint-Florent-sur-Cher> Selles-sur-Cher
Vendredi 15 juin]]></desc>
  </metadata>
  <trk>
    <name><![CDATA[20180610204123-Cu6mR]]></name>
    <trkseg>
      <trkpt lat="47.01961" lon="2.29851">
        <ele>157</ele>
        <time>2018-04-17T08:58:58Z</time>
      </trkpt>
      <trkpt lat="47.01961" lon="2.29851">
        <ele>157</ele>
        <time>2018-04-17T08:59:08Z</time>
      </trkpt>
      <trkpt lat="47.01961" lon="2.29851">
        <ele>157</ele>
        <time>2018-04-17T08:59:20Z</time>
      </trkpt>
      <trkpt lat="47.01964" lon="2.29843">
        <ele>157</ele>
        <time>2018-04-17T08:59:25Z</time>
      </trkpt>
      <trkpt lat="47.01977" lon="2.2983">
        <ele>158</ele>
        <time>2018-04-17T08:59:29Z</time>
      </trkpt>
      <trkpt lat="47.01988" lon="2.29834">
        <ele>157</ele>
        <time>2018-04-17T08:59:32Z</time>
      </trkpt>
      <trkpt lat="47.01992" lon="2.29838">
        <ele>157</ele>
        <time>2018-04-17T08:59:33Z</time>
      </trkpt>
      <trkpt lat="47.02012" lon="2.29855">
        <ele>156</ele>
        <time>2018-04-17T08:59:38Z</time>
      </trkpt>
      <trkpt lat="47.02033" lon="2.29877">
        <ele>156</ele>
        <time>2018-04-17T08:59:44Z</time>
      </trkpt>
      <trkpt lat="47.02037" lon="2.29878">
        <ele>156</ele>
        <time>2018-04-17T08:59:45Z</time>
      </trkpt>
      <trkpt lat="47.0205" lon="2.29871">
        <ele>156</ele>
        <time>2018-04-17T08:59:49Z</time>
      </trkpt>
      <trkpt lat="47.02054" lon="2.29864">
        <ele>156</ele>
        <time>2018-04-17T08:59:51Z</time>
      </trkpt>
      <trkpt lat="47.02058" lon="2.29856">
        <ele>156</ele>
        <time>2018-04-17T08:59:54Z</time>
      </trkpt>
      <trkpt lat="47.02062" lon="2.29848">
        <ele>156</ele>
        <time>2018-04-17T09:00:00Z</time>
      </trkpt>
      <trkpt lat="47.02068" lon="2.29838">
        <ele>155</ele>
        <time>2018-04-17T09:00:06Z</time>
      </trkpt>
      <trkpt lat="47.02084" lon="2.29812">
        <ele>155</ele>
        <time>2018-04-17T09:00:16Z</time>
      </trkpt>
      <trkpt lat="47.021" lon="2.29786">
        <ele>156</ele>
        <time>2018-04-17T09:00:24Z</time>
      </trkpt>
      <trkpt lat="47.02117" lon="2.29762">
        <ele>156</ele>
        <time>2018-04-17T09:00:31Z</time>
      </trkpt>
      <trkpt lat="47.02126" lon="2.29749">
        <ele>157</ele>
        <time>2018-04-17T09:00:34Z</time>
      </trkpt>
      <trkpt lat="47.02137" lon="2.29732">
        <ele>157</ele>
        <time>2018-04-17T09:00:38Z</time>
      </trkpt>
      <trkpt lat="47.02146" lon="2.2972">
        <ele>157</ele>
        <time>2018-04-17T09:00:41Z</time>
      </trkpt>
      <trkpt lat="47.02157" lon="2.29706">
        <ele>157</ele>
        <time>2018-04-17T09:00:44Z</time>
      </trkpt>
      <trkpt lat="47.02161" lon="2.29701">
        <ele>157</ele>
        <time>2018-04-17T09:00:45Z</time>
      </trkpt>
      <trkpt lat="47.02183" lon="2.29675">
        <ele>155</ele>
        <time>2018-04-17T09:00:50Z</time>
      </trkpt>
      <trkpt lat="47.02193" lon="2.29666">
        <ele>155</ele>
        <time>2018-04-17T09:00:52Z</time>
      </trkpt>
      <trkpt lat="47.02217" lon="2.29651">
        <ele>154</ele>
        <time>2018-04-17T09:00:56Z</time>
      </trkpt>
      <trkpt lat="47.02228" lon="2.29643">
        <ele>153</ele>
        <time>2018-04-17T09:00:58Z</time>
      </trkpt>
      <trkpt lat="47.02245" lon="2.29631">
        <ele>153</ele>
        <time>2018-04-17T09:01:01Z</time>
      </trkpt>
      <trkpt lat="47.0225" lon="2.29615">
        <ele>153</ele>
        <time>2018-04-17T09:01:03Z</time>
      </trkpt>
      <trkpt lat="47.02251" lon="2.29583">
        <ele>152</ele>
        <time>2018-04-17T09:01:07Z</time>
      </trkpt>
      <trkpt lat="47.02248" lon="2.29542">
        <ele>152</ele>
        <time>2018-04-17T09:01:12Z</time>
      </trkpt>
      <trkpt lat="47.02244" lon="2.29528">
        <ele>152</ele>
        <time>2018-04-17T09:01:14Z</time>
      </trkpt>
      <trkpt lat="47.02239" lon="2.29511">
        <ele>151</ele>
        <time>2018-04-17T09:01:17Z</time>
      </trkpt>
      <trkpt lat="47.02234" lon="2.295">
        <ele>150</ele>
        <time>2018-04-17T09:01:19Z</time>
      </trkpt>
      <trkpt lat="47.02229" lon="2.2949">
        <ele>151</ele>
        <time>2018-04-17T09:01:21Z</time>
      </trkpt>
      <trkpt lat="47.0222" lon="2.29473">
        <ele>151</ele>
        <time>2018-04-17T09:01:25Z</time>
      </trkpt>
      <trkpt lat="47.02216" lon="2.29463">
        <ele>151</ele>
        <time>2018-04-17T09:01:29Z</time>
      </trkpt>
      <trkpt lat="47.02217" lon="2.29464">
        <ele>151</ele>
        <time>2018-04-17T09:01:30Z</time>
      </trkpt>
      <trkpt lat="47.02216" lon="2.29463">
        <ele>151</ele>
        <time>2018-04-17T09:01:42Z</time>
      </trkpt>
      <trkpt lat="47.02216" lon="2.29463">
        <ele>151</ele>
        <time>2018-04-17T09:01:54Z</time>
      </trkpt>
      <trkpt lat="47.02216" lon="2.29463">
        <ele>151</ele>
        <time>2018-04-17T09:02:10Z</time>
      </trkpt>
      <trkpt lat="47.02216" lon="2.29463">
        <ele>151</ele>
        <time>2018-04-17T09:02:25Z</time>
      </trkpt>
      <trkpt lat="47.02216" lon="2.29463">
        <ele>151</ele>
        <time>2018-04-17T09:02:35Z</time>
      </trkpt>
      <trkpt lat="47.02216" lon="2.29463">
        <ele>151</ele>
        <time>2018-04-17T09:02:47Z</time>
      </trkpt>
      <trkpt lat="47.02217" lon="2.2946">
        <ele>151</ele>
        <time>2018-04-17T09:02:51Z</time>
      </trkpt>
      <trkpt lat="47.02218" lon="2.29457">
        <ele>151</ele>
        <time>2018-04-17T09:02:53Z</time>
      </trkpt>
      <trkpt lat="47.02221" lon="2.29452">
        <ele>150</ele>
        <time>2018-04-17T09:02:56Z</time>
      </trkpt>
      <trkpt lat="47.02223" lon="2.29446">
        <ele>150</ele>
        <time>2018-04-17T09:02:58Z</time>
      </trkpt>
      <trkpt lat="47.02226" lon="2.29423">
        <ele>150</ele>
        <time>2018-04-17T09:03:03Z</time>
      </trkpt>
      <trkpt lat="47.02229" lon="2.29412">
        <ele>148</ele>
        <time>2018-04-17T09:03:05Z</time>
      </trkpt>
      <trkpt lat="47.02234" lon="2.29401">
        <ele>148</ele>
        <time>2018-04-17T09:03:07Z</time>
      </trkpt>
      <trkpt lat="47.02238" lon="2.29396">
        <ele>148</ele>
        <time>2018-04-17T09:03:08Z</time>
      </trkpt>
      <trkpt lat="47.02247" lon="2.29388">
        <ele>148</ele>
        <time>2018-04-17T09:03:10Z</time>
      </trkpt>
      <trkpt lat="47.02251" lon="2.29385">
        <ele>148</ele>
        <time>2018-04-17T09:03:11Z</time>
      </trkpt>
      <trkpt lat="47.02265" lon="2.29376">
        <ele>148</ele>
        <time>2018-04-17T09:03:14Z</time>
      </trkpt>
      <trkpt lat="47.02278" lon="2.2937">
        <ele>148</ele>
        <time>2018-04-17T09:03:17Z</time>
      </trkpt>
      <trkpt lat="47.02285" lon="2.29369">
        <ele>148</ele>
        <time>2018-04-17T09:03:19Z</time>
      </trkpt>
      <trkpt lat="47.02302" lon="2.29375">
        <ele>148</ele>
        <time>2018-04-17T09:03:24Z</time>
      </trkpt>
      <trkpt lat="47.02316" lon="2.29374">
        <ele>148</ele>
        <time>2018-04-17T09:03:29Z</time>
      </trkpt>
      <trkpt lat="47.02318" lon="2.29371">
        <ele>148</ele>
        <time>2018-04-17T09:03:30Z</time>
      </trkpt>
      <trkpt lat="47.02321" lon="2.29364">
        <ele>148</ele>
        <time>2018-04-17T09:03:34Z</time>
      </trkpt>
      <trkpt lat="47.02323" lon="2.2936">
        <ele>148</ele>
        <time>2018-04-17T09:03:37Z</time>
      </trkpt>
      <trkpt lat="47.02323" lon="2.29359">
        <ele>148</ele>
        <time>2018-04-17T09:03:40Z</time>
      </trkpt>
      <trkpt lat="47.02324" lon="2.29359">
        <ele>148</ele>
        <time>2018-04-17T09:03:49Z</time>
      </trkpt>
      <trkpt lat="47.02324" lon="2.29359">
        <ele>148</ele>
        <time>2018-04-17T09:04:02Z</time>
      </trkpt>
      <trkpt lat="47.02325" lon="2.29358">
        <ele>148</ele>
        <time>2018-04-17T09:04:06Z</time>
      </trkpt>
      <trkpt lat="47.02325" lon="2.29359">
        <ele>148</ele>
        <time>2018-04-17T09:04:07Z</time>
      </trkpt>
      <trkpt lat="47.02327" lon="2.29357">
        <ele>148</ele>
        <time>2018-04-17T09:04:14Z</time>
      </trkpt>
      <trkpt lat="47.02337" lon="2.29342">
        <ele>149</ele>
        <time>2018-04-17T09:04:19Z</time>
      </trkpt>
      <trkpt lat="47.02351" lon="2.29315">
        <ele>147</ele>
        <time>2018-04-17T09:04:25Z</time>
      </trkpt>
      <trkpt lat="47.02355" lon="2.29303">
        <ele>146</ele>
        <time>2018-04-17T09:04:30Z</time>
      </trkpt>
      <trkpt lat="47.02355" lon="2.29302">
        <ele>146</ele>
        <time>2018-04-17T09:04:32Z</time>
      </trkpt>
      <trkpt lat="47.02355" lon="2.29302">
        <ele>146</ele>
        <time>2018-04-17T09:04:40Z</time>
      </trkpt>
      <trkpt lat="47.02355" lon="2.29302">
        <ele>146</ele>
        <time>2018-04-17T09:04:51Z</time>
      </trkpt>
      <trkpt lat="47.02355" lon="2.29302">
        <ele>146</ele>
        <time>2018-04-17T09:05:01Z</time>
      </trkpt>
      <trkpt lat="47.02355" lon="2.29302">
        <ele>146</ele>
        <time>2018-04-17T09:05:16Z</time>
      </trkpt>
      <trkpt lat="47.02355" lon="2.29302">
        <ele>146</ele>
        <time>2018-04-17T09:05:29Z</time>
      </trkpt>
      <trkpt lat="47.02355" lon="2.29302">
        <ele>146</ele>
        <time>2018-04-17T09:05:46Z</time>
      </trkpt>
      <trkpt lat="47.02355" lon="2.29302">
        <ele>146</ele>
        <time>2018-04-17T09:06:08Z</time>
      </trkpt>
      <trkpt lat="47.02355" lon="2.29302">
        <ele>146</ele>
        <time>2018-04-17T09:06:28Z</time>
      </trkpt>
      <trkpt lat="47.02355" lon="2.29303">
        <ele>146</ele>
        <time>2018-04-17T09:06:45Z</time>
      </trkpt>
      <trkpt lat="47.02355" lon="2.29303">
        <ele>146</ele>
        <time>2018-04-17T09:06:59Z</time>
      </trkpt>
      <trkpt lat="47.02355" lon="2.29303">
        <ele>146</ele>
        <time>2018-04-17T09:07:17Z</time>
      </trkpt>
      <trkpt lat="47.02355" lon="2.29303">
        <ele>146</ele>
        <time>2018-04-17T09:07:27Z</time>
      </trkpt>
      <trkpt lat="47.02355" lon="2.29303">
        <ele>146</ele>
        <time>2018-04-17T09:07:42Z</time>
      </trkpt>
      <trkpt lat="47.02354" lon="2.29303">
        <ele>146</ele>
        <time>2018-04-17T09:07:59Z</time>
      </trkpt>
      <trkpt lat="47.02354" lon="2.29303">
        <ele>146</ele>
        <time>2018-04-17T09:08:12Z</time>
      </trkpt>
      <trkpt lat="47.02354" lon="2.29303">
        <ele>146</ele>
        <time>2018-04-17T09:08:25Z</time>
      </trkpt>
      <trkpt lat="47.02354" lon="2.29303">
        <ele>146</ele>
        <time>2018-04-17T09:08:38Z</time>
      </trkpt>
      <trkpt lat="47.02354" lon="2.29303">
        <ele>146</ele>
        <time>2018-04-17T09:08:53Z</time>
      </trkpt>
      <trkpt lat="47.02354" lon="2.29303">
        <ele>146</ele>
        <time>2018-04-17T09:09:11Z</time>
      </trkpt>
      <trkpt lat="47.02354" lon="2.29303">
        <ele>146</ele>
        <time>2018-04-17T09:09:27Z</time>
      </trkpt>
      <trkpt lat="47.02354" lon="2.29303">
        <ele>146</ele>
        <time>2018-04-17T09:09:29Z</time>
      </trkpt>
      <trkpt lat="47.02354" lon="2.29303">
        <ele>146</ele>
        <time>2018-04-17T09:09:43Z</time>
      </trkpt>
      <trkpt lat="47.02354" lon="2.29303">
        <ele>146</ele>
        <time>2018-04-17T09:09:57Z</time>
      </trkpt>
      <trkpt lat="47.02354" lon="2.29302">
        <ele>146</ele>
        <time>2018-04-17T09:10:11Z</time>
      </trkpt>
      <trkpt lat="47.02354" lon="2.29302">
        <ele>146</ele>
        <time>2018-04-17T09:10:24Z</time>
      </trkpt>
      <trkpt lat="47.02354" lon="2.29302">
        <ele>146</ele>
        <time>2018-04-17T09:10:38Z</time>
      </trkpt>
      <trkpt lat="47.02353" lon="2.29302">
        <ele>146</ele>
        <time>2018-04-17T09:10:56Z</time>
      </trkpt>
      <trkpt lat="47.02353" lon="2.29302">
        <ele>146</ele>
        <time>2018-04-17T09:11:08Z</time>
      </trkpt>
      <trkpt lat="47.02353" lon="2.29302">
        <ele>146</ele>
        <time>2018-04-17T09:11:24Z</time>
      </trkpt>
      <trkpt lat="47.02353" lon="2.29302">
        <ele>146</ele>
        <time>2018-04-17T09:11:37Z</time>
      </trkpt>
      <trkpt lat="47.02353" lon="2.29302">
        <ele>146</ele>
        <time>2018-04-17T09:11:52Z</time>
      </trkpt>
      <trkpt lat="47.02353" lon="2.29302">
        <ele>146</ele>
        <time>2018-04-17T09:12:05Z</time>
      </trkpt>
      <trkpt lat="47.02353" lon="2.29303">
        <ele>146</ele>
        <time>2018-04-17T09:12:22Z</time>
      </trkpt>
      <trkpt lat="47.02353" lon="2.29303">
        <ele>146</ele>
        <time>2018-04-17T09:12:38Z</time>
      </trkpt>
      <trkpt lat="47.02353" lon="2.29303">
        <ele>146</ele>
        <time>2018-04-17T09:12:43Z</time>
      </trkpt>
      <trkpt lat="47.02353" lon="2.29303">
        <ele>146</ele>
        <time>2018-04-17T09:12:51Z</time>
      </trkpt>
      <trkpt lat="47.02353" lon="2.29303">
        <ele>146</ele>
        <time>2018-04-17T09:13:07Z</time>
      </trkpt>
      <trkpt lat="47.02353" lon="2.29303">
        <ele>146</ele>
        <time>2018-04-17T09:13:22Z</time>
      </trkpt>
      <trkpt lat="47.02353" lon="2.29301">
        <ele>146</ele>
        <time>2018-04-17T09:13:39Z</time>
      </trkpt>
      <trkpt lat="47.02359" lon="2.29289">
        <ele>146</ele>
        <time>2018-04-17T09:13:45Z</time>
      </trkpt>
      <trkpt lat="47.02366" lon="2.29271">
        <ele>145</ele>
        <time>2018-04-17T09:13:50Z</time>
      </trkpt>
      <trkpt lat="47.02368" lon="2.29266">
        <ele>145</ele>
        <time>2018-04-17T09:13:51Z</time>
      </trkpt>
      <trkpt lat="47.02373" lon="2.29255">
        <ele>145</ele>
        <time>2018-04-17T09:13:53Z</time>
      </trkpt>
      <trkpt lat="47.02381" lon="2.29235">
        <ele>143</ele>
        <time>2018-04-17T09:13:56Z</time>
      </trkpt>
      <trkpt lat="47.02399" lon="2.29201">
        <ele>144</ele>
        <time>2018-04-17T09:14:01Z</time>
      </trkpt>
      <trkpt lat="47.02406" lon="2.2919">
        <ele>144</ele>
        <time>2018-04-17T09:14:03Z</time>
      </trkpt>
      <trkpt lat="47.02414" lon="2.29176">
        <ele>144</ele>
        <time>2018-04-17T09:14:06Z</time>
      </trkpt>
      <trkpt lat="47.02418" lon="2.29169">
        <ele>145</ele>
        <time>2018-04-17T09:14:08Z</time>
      </trkpt>
      <trkpt lat="47.0242" lon="2.29165">
        <ele>146</ele>
        <time>2018-04-17T09:14:09Z</time>
      </trkpt>
      <trkpt lat="47.02425" lon="2.29154">
        <ele>147</ele>
        <time>2018-04-17T09:14:12Z</time>
      </trkpt>
      <trkpt lat="47.02428" lon="2.29147">
        <ele>147</ele>
        <time>2018-04-17T09:14:14Z</time>
      </trkpt>
      <trkpt lat="47.02433" lon="2.29136">
        <ele>148</ele>
        <time>2018-04-17T09:14:17Z</time>
      </trkpt>
      <trkpt lat="47.02442" lon="2.29118">
        <ele>148</ele>
        <time>2018-04-17T09:14:22Z</time>
      </trkpt>
      <trkpt lat="47.02444" lon="2.29115">
        <ele>148</ele>
        <time>2018-04-17T09:14:23Z</time>
      </trkpt>
      <trkpt lat="47.02453" lon="2.29099">
        <ele>149</ele>
        <time>2018-04-17T09:14:28Z</time>
      </trkpt>
      <trkpt lat="47.02459" lon="2.2909">
        <ele>149</ele>
        <time>2018-04-17T09:14:31Z</time>
      </trkpt>
      <trkpt lat="47.0248" lon="2.29064">
        <ele>150</ele>
        <time>2018-04-17T09:14:40Z</time>
      </trkpt>
      <trkpt lat="47.02489" lon="2.29054">
        <ele>150</ele>
        <time>2018-04-17T09:14:44Z</time>
      </trkpt>
      <trkpt lat="47.02501" lon="2.29041">
        <ele>151</ele>
        <time>2018-04-17T09:14:49Z</time>
      </trkpt>
      <trkpt lat="47.0252" lon="2.29019">
        <ele>150</ele>
        <time>2018-04-17T09:14:57Z</time>
      </trkpt>
      <trkpt lat="47.02531" lon="2.29">
        <ele>150</ele>
        <time>2018-04-17T09:15:04Z</time>
      </trkpt>
      <trkpt lat="47.02543" lon="2.28979">
        <ele>149</ele>
        <time>2018-04-17T09:15:11Z</time>
      </trkpt>
      <trkpt lat="47.02561" lon="2.28948">
        <ele>149</ele>
        <time>2018-04-17T09:15:18Z</time>
      </trkpt>
      <trkpt lat="47.02572" lon="2.2893">
        <ele>149</ele>
        <time>2018-04-17T09:15:22Z</time>
      </trkpt>
      <trkpt lat="47.02583" lon="2.28911">
        <ele>148</ele>
        <time>2018-04-17T09:15:26Z</time>
      </trkpt>
      <trkpt lat="47.0259" lon="2.28901">
        <ele>147</ele>
        <time>2018-04-17T09:15:28Z</time>
      </trkpt>
      <trkpt lat="47.02608" lon="2.28868">
        <ele>146</ele>
        <time>2018-04-17T09:15:34Z</time>
      </trkpt>
      <trkpt lat="47.02621" lon="2.28844">
        <ele>146</ele>
        <time>2018-04-17T09:15:38Z</time>
      </trkpt>
      <trkpt lat="47.02636" lon="2.28818">
        <ele>144</ele>
        <time>2018-04-17T09:15:42Z</time>
      </trkpt>
      <trkpt lat="47.02643" lon="2.28804">
        <ele>144</ele>
        <time>2018-04-17T09:15:44Z</time>
      </trkpt>
      <trkpt lat="47.02659" lon="2.28774">
        <ele>143</ele>
        <time>2018-04-17T09:15:48Z</time>
      </trkpt>
      <trkpt lat="47.02675" lon="2.28744">
        <ele>142</ele>
        <time>2018-04-17T09:15:52Z</time>
      </trkpt>
      <trkpt lat="47.02692" lon="2.28714">
        <ele>142</ele>
        <time>2018-04-17T09:15:56Z</time>
      </trkpt>
      <trkpt lat="47.02711" lon="2.28678">
        <ele>142</ele>
        <time>2018-04-17T09:16:01Z</time>
      </trkpt>
      <trkpt lat="47.02732" lon="2.28638">
        <ele>142</ele>
        <time>2018-04-17T09:16:07Z</time>
      </trkpt>
      <trkpt lat="47.02742" lon="2.2862">
        <ele>143</ele>
        <time>2018-04-17T09:16:10Z</time>
      </trkpt>
      <trkpt lat="47.02753" lon="2.28597">
        <ele>142</ele>
        <time>2018-04-17T09:16:14Z</time>
      </trkpt>
      <trkpt lat="47.02761" lon="2.28581">
        <ele>142</ele>
        <time>2018-04-17T09:16:17Z</time>
      </trkpt>
      <trkpt lat="47.02769" lon="2.28563">
        <ele>142</ele>
        <time>2018-04-17T09:16:20Z</time>
      </trkpt>
      <trkpt lat="47.02775" lon="2.2855">
        <ele>142</ele>
        <time>2018-04-17T09:16:22Z</time>
      </trkpt>
      <trkpt lat="47.02778" lon="2.28543">
        <ele>141</ele>
        <time>2018-04-17T09:16:23Z</time>
      </trkpt>
      <trkpt lat="47.02792" lon="2.28514">
        <ele>141</ele>
        <time>2018-04-17T09:16:27Z</time>
      </trkpt>
      <trkpt lat="47.028" lon="2.28499">
        <ele>141</ele>
        <time>2018-04-17T09:16:29Z</time>
      </trkpt>
      <trkpt lat="47.02808" lon="2.28484">
        <ele>140</ele>
        <time>2018-04-17T09:16:31Z</time>
      </trkpt>
      <trkpt lat="47.02818" lon="2.28469">
        <ele>140</ele>
        <time>2018-04-17T09:16:33Z</time>
      </trkpt>
      <trkpt lat="47.02836" lon="2.28437">
        <ele>139</ele>
        <time>2018-04-17T09:16:37Z</time>
      </trkpt>
      <trkpt lat="47.02842" lon="2.28419">
        <ele>139</ele>
        <time>2018-04-17T09:16:39Z</time>
      </trkpt>
      <trkpt lat="47.02844" lon="2.284">
        <ele>138</ele>
        <time>2018-04-17T09:16:41Z</time>
      </trkpt>
      <trkpt lat="47.02837" lon="2.28367">
        <ele>138</ele>
        <time>2018-04-17T09:16:45Z</time>
      </trkpt>
      <trkpt lat="47.02835" lon="2.2836">
        <ele>138</ele>
        <time>2018-04-17T09:16:46Z</time>
      </trkpt>
      <trkpt lat="47.02829" lon="2.28346">
        <ele>140</ele>
        <time>2018-04-17T09:16:48Z</time>
      </trkpt>
      <trkpt lat="47.02822" lon="2.28326">
        <ele>141</ele>
        <time>2018-04-17T09:16:51Z</time>
      </trkpt>
      <trkpt lat="47.02815" lon="2.28292">
        <ele>141</ele>
        <time>2018-04-17T09:16:56Z</time>
      </trkpt>
      <trkpt lat="47.02814" lon="2.28286">
        <ele>141</ele>
        <time>2018-04-17T09:16:57Z</time>
      </trkpt>
      <trkpt lat="47.02814" lon="2.28272">
        <ele>142</ele>
        <time>2018-04-17T09:16:59Z</time>
      </trkpt>
      <trkpt lat="47.02816" lon="2.28239">
        <ele>142</ele>
        <time>2018-04-17T09:17:04Z</time>
      </trkpt>
      <trkpt lat="47.02816" lon="2.28232">
        <ele>142</ele>
        <time>2018-04-17T09:17:05Z</time>
      </trkpt>
      <trkpt lat="47.02817" lon="2.28207">
        <ele>143</ele>
        <time>2018-04-17T09:17:09Z</time>
      </trkpt>
      <trkpt lat="47.02818" lon="2.28183">
        <ele>143</ele>
        <time>2018-04-17T09:17:13Z</time>
      </trkpt>
      <trkpt lat="47.02822" lon="2.28149">
        <ele>144</ele>
        <time>2018-04-17T09:17:18Z</time>
      </trkpt>
      <trkpt lat="47.02826" lon="2.28136">
        <ele>144</ele>
        <time>2018-04-17T09:17:20Z</time>
      </trkpt>
      <trkpt lat="47.02845" lon="2.28085">
        <ele>143</ele>
        <time>2018-04-17T09:17:28Z</time>
      </trkpt>
      <trkpt lat="47.02856" lon="2.28059">
        <ele>142</ele>
        <time>2018-04-17T09:17:32Z</time>
      </trkpt>
      <trkpt lat="47.0286" lon="2.28046">
        <ele>142</ele>
        <time>2018-04-17T09:17:34Z</time>
      </trkpt>
      <trkpt lat="47.02865" lon="2.28032">
        <ele>142</ele>
        <time>2018-04-17T09:17:36Z</time>
      </trkpt>
      <trkpt lat="47.02879" lon="2.27998">
        <ele>144</ele>
        <time>2018-04-17T09:17:41Z</time>
      </trkpt>
      <trkpt lat="47.02893" lon="2.27967">
        <ele>144</ele>
        <time>2018-04-17T09:17:46Z</time>
      </trkpt>
      <trkpt lat="47.02899" lon="2.27956">
        <ele>144</ele>
        <time>2018-04-17T09:17:48Z</time>
      </trkpt>
      <trkpt lat="47.02902" lon="2.2795">
        <ele>144</ele>
        <time>2018-04-17T09:17:49Z</time>
      </trkpt>
      <trkpt lat="47.0292" lon="2.27935">
        <ele>143</ele>
        <time>2018-04-17T09:17:53Z</time>
      </trkpt>
      <trkpt lat="47.0294" lon="2.27928">
        <ele>143</ele>
        <time>2018-04-17T09:17:57Z</time>
      </trkpt>
      <trkpt lat="47.02945" lon="2.27927">
        <ele>143</ele>
        <time>2018-04-17T09:17:58Z</time>
      </trkpt>
      <trkpt lat="47.02986" lon="2.27914">
        <ele>143</ele>
        <time>2018-04-17T09:18:07Z</time>
      </trkpt>
      <trkpt lat="47.03018" lon="2.27901">
        <ele>143</ele>
        <time>2018-04-17T09:18:14Z</time>
      </trkpt>
      <trkpt lat="47.0305" lon="2.27891">
        <ele>142</ele>
        <time>2018-04-17T09:18:19Z</time>
      </trkpt>
      <trkpt lat="47.03066" lon="2.27874">
        <ele>142</ele>
        <time>2018-04-17T09:18:23Z</time>
      </trkpt>
      <trkpt lat="47.03069" lon="2.2787">
        <ele>142</ele>
        <time>2018-04-17T09:18:24Z</time>
      </trkpt>
      <trkpt lat="47.03079" lon="2.27858">
        <ele>142</ele>
        <time>2018-04-17T09:18:28Z</time>
      </trkpt>
      <trkpt lat="47.03086" lon="2.27849">
        <ele>142</ele>
        <time>2018-04-17T09:18:32Z</time>
      </trkpt>
      <trkpt lat="47.03088" lon="2.27847">
        <ele>142</ele>
        <time>2018-04-17T09:18:34Z</time>
      </trkpt>
      <trkpt lat="47.03089" lon="2.27847">
        <ele>142</ele>
        <time>2018-04-17T09:18:35Z</time>
      </trkpt>
      <trkpt lat="47.03091" lon="2.27847">
        <ele>142</ele>
        <time>2018-04-17T09:18:38Z</time>
      </trkpt>
      <trkpt lat="47.0309" lon="2.27847">
        <ele>142</ele>
        <time>2018-04-17T09:18:39Z</time>
      </trkpt>
      <trkpt lat="47.03091" lon="2.27847">
        <ele>142</ele>
        <time>2018-04-17T09:18:45Z</time>
      </trkpt>
      <trkpt lat="47.03091" lon="2.27846">
        <ele>142</ele>
        <time>2018-04-17T09:18:52Z</time>
      </trkpt>
      <trkpt lat="47.03091" lon="2.27846">
        <ele>142</ele>
        <time>2018-04-17T09:19:06Z</time>
      </trkpt>
      <trkpt lat="47.03089" lon="2.27847">
        <ele>142</ele>
        <time>2018-04-17T09:19:09Z</time>
      </trkpt>
      <trkpt lat="47.03086" lon="2.27851">
        <ele>142</ele>
        <time>2018-04-17T09:19:12Z</time>
      </trkpt>
      <trkpt lat="47.0308" lon="2.27857">
        <ele>142</ele>
        <time>2018-04-17T09:19:16Z</time>
      </trkpt>
      <trkpt lat="47.03079" lon="2.27857">
        <ele>142</ele>
        <time>2018-04-17T09:19:17Z</time>
      </trkpt>
      <trkpt lat="47.03077" lon="2.27858">
        <ele>142</ele>
        <time>2018-04-17T09:19:18Z</time>
      </trkpt>
      <trkpt lat="47.03065" lon="2.27868">
        <ele>142</ele>
        <time>2018-04-17T09:19:24Z</time>
      </trkpt>
      <trkpt lat="47.03058" lon="2.27886">
        <ele>142</ele>
        <time>2018-04-17T09:19:31Z</time>
      </trkpt>
      <trkpt lat="47.03064" lon="2.27893">
        <ele>142</ele>
        <time>2018-04-17T09:19:36Z</time>
      </trkpt>
      <trkpt lat="47.03067" lon="2.27894">
        <ele>142</ele>
        <time>2018-04-17T09:19:37Z</time>
      </trkpt>
      <trkpt lat="47.03081" lon="2.279">
        <ele>142</ele>
        <time>2018-04-17T09:19:41Z</time>
      </trkpt>
      <trkpt lat="47.03089" lon="2.27904">
        <ele>142</ele>
        <time>2018-04-17T09:19:43Z</time>
      </trkpt>
      <trkpt lat="47.03107" lon="2.27912">
        <ele>142</ele>
        <time>2018-04-17T09:19:47Z</time>
      </trkpt>
      <trkpt lat="47.03142" lon="2.2793">
        <ele>141</ele>
        <time>2018-04-17T09:19:54Z</time>
      </trkpt>
      <trkpt lat="47.03152" lon="2.27935">
        <ele>141</ele>
        <time>2018-04-17T09:19:56Z</time>
      </trkpt>
      <trkpt lat="47.03176" lon="2.27954">
        <ele>139</ele>
        <time>2018-04-17T09:20:02Z</time>
      </trkpt>
      <trkpt lat="47.03186" lon="2.27968">
        <ele>139</ele>
        <time>2018-04-17T09:20:05Z</time>
      </trkpt>
      <trkpt lat="47.03198" lon="2.27988">
        <ele>139</ele>
        <time>2018-04-17T09:20:09Z</time>
      </trkpt>
      <trkpt lat="47.03201" lon="2.27993">
        <ele>139</ele>
        <time>2018-04-17T09:20:10Z</time>
      </trkpt>
      <trkpt lat="47.03211" lon="2.2801">
        <ele>137</ele>
        <time>2018-04-17T09:20:13Z</time>
      </trkpt>
      <trkpt lat="47.03223" lon="2.28022">
        <ele>137</ele>
        <time>2018-04-17T09:20:16Z</time>
      </trkpt>
      <trkpt lat="47.03231" lon="2.28023">
        <ele>137</ele>
        <time>2018-04-17T09:20:18Z</time>
      </trkpt>
      <trkpt lat="47.03235" lon="2.28019">
        <ele>137</ele>
        <time>2018-04-17T09:20:19Z</time>
      </trkpt>
      <trkpt lat="47.03243" lon="2.28013">
        <ele>136</ele>
        <time>2018-04-17T09:20:21Z</time>
      </trkpt>
      <trkpt lat="47.03252" lon="2.28004">
        <ele>136</ele>
        <time>2018-04-17T09:20:24Z</time>
      </trkpt>
      <trkpt lat="47.03271" lon="2.27995">
        <ele>135</ele>
        <time>2018-04-17T09:20:31Z</time>
      </trkpt>
      <trkpt lat="47.03283" lon="2.27998">
        <ele>135</ele>
        <time>2018-04-17T09:20:34Z</time>
      </trkpt>
      <trkpt lat="47.03293" lon="2.28003">
        <ele>135</ele>
        <time>2018-04-17T09:20:36Z</time>
      </trkpt>
      <trkpt lat="47.03302" lon="2.28009">
        <ele>135</ele>
        <time>2018-04-17T09:20:38Z</time>
      </trkpt>
      <trkpt lat="47.03324" lon="2.28017">
        <ele>134</ele>
        <time>2018-04-17T09:20:43Z</time>
      </trkpt>
      <trkpt lat="47.03334" lon="2.28011">
        <ele>134</ele>
        <time>2018-04-17T09:20:47Z</time>
      </trkpt>
      <trkpt lat="47.0334" lon="2.27998">
        <ele>133</ele>
        <time>2018-04-17T09:20:51Z</time>
      </trkpt>
      <trkpt lat="47.03341" lon="2.27994">
        <ele>133</ele>
        <time>2018-04-17T09:20:52Z</time>
      </trkpt>
      <trkpt lat="47.03345" lon="2.27967">
        <ele>133</ele>
        <time>2018-04-17T09:20:57Z</time>
      </trkpt>
      <trkpt lat="47.03347" lon="2.27958">
        <ele>133</ele>
        <time>2018-04-17T09:21:00Z</time>
      </trkpt>
      <trkpt lat="47.03348" lon="2.27956">
        <ele>133</ele>
        <time>2018-04-17T09:21:01Z</time>
      </trkpt>
      <trkpt lat="47.03358" lon="2.2795">
        <ele>133</ele>
        <time>2018-04-17T09:21:05Z</time>
      </trkpt>
      <trkpt lat="47.03369" lon="2.27931">
        <ele>133</ele>
        <time>2018-04-17T09:21:09Z</time>
      </trkpt>
      <trkpt lat="47.03385" lon="2.27885">
        <ele>133</ele>
        <time>2018-04-17T09:21:16Z</time>
      </trkpt>
      <trkpt lat="47.03386" lon="2.2787">
        <ele>133</ele>
        <time>2018-04-17T09:21:18Z</time>
      </trkpt>
      <trkpt lat="47.03386" lon="2.27849">
        <ele>133</ele>
        <time>2018-04-17T09:21:21Z</time>
      </trkpt>
      <trkpt lat="47.03386" lon="2.2783">
        <ele>134</ele>
        <time>2018-04-17T09:21:26Z</time>
      </trkpt>
      <trkpt lat="47.03392" lon="2.27809">
        <ele>134</ele>
        <time>2018-04-17T09:21:32Z</time>
      </trkpt>
      <trkpt lat="47.03399" lon="2.2779">
        <ele>134</ele>
        <time>2018-04-17T09:21:38Z</time>
      </trkpt>
      <trkpt lat="47.03399" lon="2.27788">
        <ele>134</ele>
        <time>2018-04-17T09:21:42Z</time>
      </trkpt>
      <trkpt lat="47.03399" lon="2.27788">
        <ele>134</ele>
        <time>2018-04-17T09:21:58Z</time>
      </trkpt>
      <trkpt lat="47.03399" lon="2.27788">
        <ele>134</ele>
        <time>2018-04-17T09:22:12Z</time>
      </trkpt>
      <trkpt lat="47.03399" lon="2.27788">
        <ele>134</ele>
        <time>2018-04-17T09:22:15Z</time>
      </trkpt>
      <trkpt lat="47.03399" lon="2.27789">
        <ele>134</ele>
        <time>2018-04-17T09:22:28Z</time>
      </trkpt>
      <trkpt lat="47.03399" lon="2.27789">
        <ele>134</ele>
        <time>2018-04-17T09:22:44Z</time>
      </trkpt>
      <trkpt lat="47.03399" lon="2.27789">
        <ele>134</ele>
        <time>2018-04-17T09:22:50Z</time>
      </trkpt>
      <trkpt lat="47.03399" lon="2.27788">
        <ele>134</ele>
        <time>2018-04-17T09:23:01Z</time>
      </trkpt>
      <trkpt lat="47.03399" lon="2.27789">
        <ele>134</ele>
        <time>2018-04-17T09:23:13Z</time>
      </trkpt>
      <trkpt lat="47.03399" lon="2.27789">
        <ele>134</ele>
        <time>2018-04-17T09:23:28Z</time>
      </trkpt>
      <trkpt lat="47.034" lon="2.27788">
        <ele>134</ele>
        <time>2018-04-17T09:23:35Z</time>
      </trkpt>
      <trkpt lat="47.03402" lon="2.27785">
        <ele>134</ele>
        <time>2018-04-17T09:23:37Z</time>
      </trkpt>
      <trkpt lat="47.03403" lon="2.27781">
        <ele>134</ele>
        <time>2018-04-17T09:23:38Z</time>
      </trkpt>
      <trkpt lat="47.03403" lon="2.27763">
        <ele>134</ele>
        <time>2018-04-17T09:23:42Z</time>
      </trkpt>
      <trkpt lat="47.03401" lon="2.27754">
        <ele>134</ele>
        <time>2018-04-17T09:23:46Z</time>
      </trkpt>
      <trkpt lat="47.03399" lon="2.27741">
        <ele>134</ele>
        <time>2018-04-17T09:23:54Z</time>
      </trkpt>
      <trkpt lat="47.03398" lon="2.27741">
        <ele>134</ele>
        <time>2018-04-17T09:24:00Z</time>
      </trkpt>
      <trkpt lat="47.03398" lon="2.27741">
        <ele>134</ele>
        <time>2018-04-17T09:24:04Z</time>
      </trkpt>
      <trkpt lat="47.03398" lon="2.27741">
        <ele>134</ele>
        <time>2018-04-17T09:24:10Z</time>
      </trkpt>
      <trkpt lat="47.03399" lon="2.27741">
        <ele>134</ele>
        <time>2018-04-17T09:24:23Z</time>
      </trkpt>
      <trkpt lat="47.03398" lon="2.27741">
        <ele>134</ele>
        <time>2018-04-17T09:24:31Z</time>
      </trkpt>
      <trkpt lat="47.03399" lon="2.27739">
        <ele>134</ele>
        <time>2018-04-17T09:24:32Z</time>
      </trkpt>
      <trkpt lat="47.03403" lon="2.27728">
        <ele>134</ele>
        <time>2018-04-17T09:24:35Z</time>
      </trkpt>
      <trkpt lat="47.03404" lon="2.27723">
        <ele>134</ele>
        <time>2018-04-17T09:24:36Z</time>
      </trkpt>
      <trkpt lat="47.03409" lon="2.27705">
        <ele>134</ele>
        <time>2018-04-17T09:24:39Z</time>
      </trkpt>
      <trkpt lat="47.03411" lon="2.27691">
        <ele>133</ele>
        <time>2018-04-17T09:24:41Z</time>
      </trkpt>
      <trkpt lat="47.03413" lon="2.27685">
        <ele>133</ele>
        <time>2018-04-17T09:24:42Z</time>
      </trkpt>
      <trkpt lat="47.03418" lon="2.27671">
        <ele>133</ele>
        <time>2018-04-17T09:24:45Z</time>
      </trkpt>
      <trkpt lat="47.03416" lon="2.27662">
        <ele>133</ele>
        <time>2018-04-17T09:24:48Z</time>
      </trkpt>
      <trkpt lat="47.03414" lon="2.2766">
        <ele>133</ele>
        <time>2018-04-17T09:24:49Z</time>
      </trkpt>
      <trkpt lat="47.03396" lon="2.27643">
        <ele>134</ele>
        <time>2018-04-17T09:24:55Z</time>
      </trkpt>
      <trkpt lat="47.03376" lon="2.2763">
        <ele>135</ele>
        <time>2018-04-17T09:25:01Z</time>
      </trkpt>
      <trkpt lat="47.03359" lon="2.2762">
        <ele>135</ele>
        <time>2018-04-17T09:25:06Z</time>
      </trkpt>
      <trkpt lat="47.03342" lon="2.27611">
        <ele>135</ele>
        <time>2018-04-17T09:25:11Z</time>
      </trkpt>
      <trkpt lat="47.03334" lon="2.27607">
        <ele>136</ele>
        <time>2018-04-17T09:25:14Z</time>
      </trkpt>
      <trkpt lat="47.03326" lon="2.27603">
        <ele>136</ele>
        <time>2018-04-17T09:25:17Z</time>
      </trkpt>
      <trkpt lat="47.03318" lon="2.27593">
        <ele>137</ele>
        <time>2018-04-17T09:25:21Z</time>
      </trkpt>
      <trkpt lat="47.03316" lon="2.27593">
        <ele>137</ele>
        <time>2018-04-17T09:25:22Z</time>
      </trkpt>
      <trkpt lat="47.0331" lon="2.27591">
        <ele>137</ele>
        <time>2018-04-17T09:25:25Z</time>
      </trkpt>
      <trkpt lat="47.03309" lon="2.27589">
        <ele>137</ele>
        <time>2018-04-17T09:25:26Z</time>
      </trkpt>
      <trkpt lat="47.03299" lon="2.2758">
        <ele>138</ele>
        <time>2018-04-17T09:25:30Z</time>
      </trkpt>
      <trkpt lat="47.03279" lon="2.27562">
        <ele>138</ele>
        <time>2018-04-17T09:25:37Z</time>
      </trkpt>
      <trkpt lat="47.03259" lon="2.27544">
        <ele>138</ele>
        <time>2018-04-17T09:25:44Z</time>
      </trkpt>
      <trkpt lat="47.03248" lon="2.27534">
        <ele>139</ele>
        <time>2018-04-17T09:25:49Z</time>
      </trkpt>
      <trkpt lat="47.03242" lon="2.27527">
        <ele>139</ele>
        <time>2018-04-17T09:25:52Z</time>
      </trkpt>
      <trkpt lat="47.03227" lon="2.27513">
        <ele>139</ele>
        <time>2018-04-17T09:25:57Z</time>
      </trkpt>
      <trkpt lat="47.03202" lon="2.27493">
        <ele>139</ele>
        <time>2018-04-17T09:26:04Z</time>
      </trkpt>
      <trkpt lat="47.0318" lon="2.27478">
        <ele>139</ele>
        <time>2018-04-17T09:26:10Z</time>
      </trkpt>
      <trkpt lat="47.03157" lon="2.27455">
        <ele>139</ele>
        <time>2018-04-17T09:26:18Z</time>
      </trkpt>
      <trkpt lat="47.03147" lon="2.27446">
        <ele>139</ele>
        <time>2018-04-17T09:26:22Z</time>
      </trkpt>
      <trkpt lat="47.03126" lon="2.27435">
        <ele>139</ele>
        <time>2018-04-17T09:26:28Z</time>
      </trkpt>
      <trkpt lat="47.03114" lon="2.27429">
        <ele>139</ele>
        <time>2018-04-17T09:26:31Z</time>
      </trkpt>
      <trkpt lat="47.0311" lon="2.27426">
        <ele>139</ele>
        <time>2018-04-17T09:26:32Z</time>
      </trkpt>
      <trkpt lat="47.03103" lon="2.2742">
        <ele>140</ele>
        <time>2018-04-17T09:26:34Z</time>
      </trkpt>
      <trkpt lat="47.03085" lon="2.27397">
        <ele>141</ele>
        <time>2018-04-17T09:26:40Z</time>
      </trkpt>
      <trkpt lat="47.03065" lon="2.27374">
        <ele>143</ele>
        <time>2018-04-17T09:26:47Z</time>
      </trkpt>
      <trkpt lat="47.03053" lon="2.27358">
        <ele>143</ele>
        <time>2018-04-17T09:26:52Z</time>
      </trkpt>
      <trkpt lat="47.03048" lon="2.27351">
        <ele>144</ele>
        <time>2018-04-17T09:26:54Z</time>
      </trkpt>
      <trkpt lat="47.03038" lon="2.27342">
        <ele>144</ele>
        <time>2018-04-17T09:26:58Z</time>
      </trkpt>
      <trkpt lat="47.03036" lon="2.2734">
        <ele>144</ele>
        <time>2018-04-17T09:26:59Z</time>
      </trkpt>
      <trkpt lat="47.03024" lon="2.27328">
        <ele>145</ele>
        <time>2018-04-17T09:27:05Z</time>
      </trkpt>
      <trkpt lat="47.03013" lon="2.27311">
        <ele>145</ele>
        <time>2018-04-17T09:27:11Z</time>
      </trkpt>
      <trkpt lat="47.03006" lon="2.27297">
        <ele>145</ele>
        <time>2018-04-17T09:27:15Z</time>
      </trkpt>
      <trkpt lat="47.02996" lon="2.27279">
        <ele>146</ele>
        <time>2018-04-17T09:27:20Z</time>
      </trkpt>
      <trkpt lat="47.02987" lon="2.27263">
        <ele>147</ele>
        <time>2018-04-17T09:27:25Z</time>
      </trkpt>
      <trkpt lat="47.02983" lon="2.27256">
        <ele>147</ele>
        <time>2018-04-17T09:27:27Z</time>
      </trkpt>
      <trkpt lat="47.02972" lon="2.27244">
        <ele>147</ele>
        <time>2018-04-17T09:27:31Z</time>
      </trkpt>
      <trkpt lat="47.0296" lon="2.27238">
        <ele>146</ele>
        <time>2018-04-17T09:27:35Z</time>
      </trkpt>
      <trkpt lat="47.02948" lon="2.27233">
        <ele>146</ele>
        <time>2018-04-17T09:27:39Z</time>
      </trkpt>
      <trkpt lat="47.02946" lon="2.27232">
        <ele>146</ele>
        <time>2018-04-17T09:27:40Z</time>
      </trkpt>
      <trkpt lat="47.02941" lon="2.27229">
        <ele>146</ele>
        <time>2018-04-17T09:27:43Z</time>
      </trkpt>
      <trkpt lat="47.0294" lon="2.27229">
        <ele>146</ele>
        <time>2018-04-17T09:27:44Z</time>
      </trkpt>
      <trkpt lat="47.02932" lon="2.27225">
        <ele>146</ele>
        <time>2018-04-17T09:27:47Z</time>
      </trkpt>
      <trkpt lat="47.02929" lon="2.27223">
        <ele>146</ele>
        <time>2018-04-17T09:27:48Z</time>
      </trkpt>
      <trkpt lat="47.02906" lon="2.27201">
        <ele>145</ele>
        <time>2018-04-17T09:27:56Z</time>
      </trkpt>
      <trkpt lat="47.02883" lon="2.27179">
        <ele>145</ele>
        <time>2018-04-17T09:28:04Z</time>
      </trkpt>
      <trkpt lat="47.02858" lon="2.27153">
        <ele>144</ele>
        <time>2018-04-17T09:28:12Z</time>
      </trkpt>
      <trkpt lat="47.02844" lon="2.27133">
        <ele>144</ele>
        <time>2018-04-17T09:28:17Z</time>
      </trkpt>
      <trkpt lat="47.0284" lon="2.27122">
        <ele>145</ele>
        <time>2018-04-17T09:28:19Z</time>
      </trkpt>
      <trkpt lat="47.02834" lon="2.271">
        <ele>145</ele>
        <time>2018-04-17T09:28:23Z</time>
      </trkpt>
      <trkpt lat="47.02831" lon="2.27084">
        <ele>145</ele>
        <time>2018-04-17T09:28:26Z</time>
      </trkpt>
      <trkpt lat="47.02821" lon="2.27045">
        <ele>146</ele>
        <time>2018-04-17T09:28:34Z</time>
      </trkpt>
      <trkpt lat="47.02807" lon="2.27019">
        <ele>146</ele>
        <time>2018-04-17T09:28:41Z</time>
      </trkpt>
      <trkpt lat="47.02803" lon="2.27012">
        <ele>146</ele>
        <time>2018-04-17T09:28:44Z</time>
      </trkpt>
      <trkpt lat="47.02803" lon="2.2701">
        <ele>146</ele>
        <time>2018-04-17T09:28:45Z</time>
      </trkpt>
      <trkpt lat="47.02802" lon="2.27004">
        <ele>146</ele>
        <time>2018-04-17T09:28:49Z</time>
      </trkpt>
      <trkpt lat="47.02802" lon="2.26999">
        <ele>147</ele>
        <time>2018-04-17T09:28:52Z</time>
      </trkpt>
      <trkpt lat="47.02801" lon="2.26989">
        <ele>147</ele>
        <time>2018-04-17T09:28:57Z</time>
      </trkpt>
      <trkpt lat="47.02797" lon="2.26967">
        <ele>147</ele>
        <time>2018-04-17T09:29:02Z</time>
      </trkpt>
      <trkpt lat="47.02791" lon="2.26939">
        <ele>148</ele>
        <time>2018-04-17T09:29:07Z</time>
      </trkpt>
      <trkpt lat="47.02787" lon="2.26928">
        <ele>148</ele>
        <time>2018-04-17T09:29:09Z</time>
      </trkpt>
      <trkpt lat="47.02774" lon="2.26904">
        <ele>148</ele>
        <time>2018-04-17T09:29:14Z</time>
      </trkpt>
      <trkpt lat="47.02757" lon="2.26885">
        <ele>148</ele>
        <time>2018-04-17T09:29:20Z</time>
      </trkpt>
      <trkpt lat="47.02744" lon="2.26876">
        <ele>147</ele>
        <time>2018-04-17T09:29:24Z</time>
      </trkpt>
      <trkpt lat="47.02732" lon="2.2686">
        <ele>147</ele>
        <time>2018-04-17T09:29:29Z</time>
      </trkpt>
      <trkpt lat="47.02723" lon="2.26838">
        <ele>147</ele>
        <time>2018-04-17T09:29:34Z</time>
      </trkpt>
      <trkpt lat="47.02718" lon="2.26813">
        <ele>148</ele>
        <time>2018-04-17T09:29:40Z</time>
      </trkpt>
      <trkpt lat="47.02713" lon="2.26786">
        <ele>148</ele>
        <time>2018-04-17T09:29:45Z</time>
      </trkpt>
      <trkpt lat="47.02712" lon="2.26767">
        <ele>148</ele>
        <time>2018-04-17T09:29:48Z</time>
      </trkpt>
      <trkpt lat="47.0271" lon="2.26743">
        <ele>148</ele>
        <time>2018-04-17T09:29:52Z</time>
      </trkpt>
      <trkpt lat="47.02708" lon="2.267">
        <ele>147</ele>
        <time>2018-04-17T09:29:59Z</time>
      </trkpt>
      <trkpt lat="47.02708" lon="2.26676">
        <ele>147</ele>
        <time>2018-04-17T09:30:03Z</time>
      </trkpt>
      <trkpt lat="47.02705" lon="2.2666">
        <ele>146</ele>
        <time>2018-04-17T09:30:06Z</time>
      </trkpt>
      <trkpt lat="47.02698" lon="2.26627">
        <ele>146</ele>
        <time>2018-04-17T09:30:13Z</time>
      </trkpt>
      <trkpt lat="47.02694" lon="2.26591">
        <ele>145</ele>
        <time>2018-04-17T09:30:20Z</time>
      </trkpt>
      <trkpt lat="47.02696" lon="2.26545">
        <ele>144</ele>
        <time>2018-04-17T09:30:28Z</time>
      </trkpt>
      <trkpt lat="47.02697" lon="2.26497">
        <ele>143</ele>
        <time>2018-04-17T09:30:35Z</time>
      </trkpt>
      <trkpt lat="47.02699" lon="2.26468">
        <ele>143</ele>
        <time>2018-04-17T09:30:39Z</time>
      </trkpt>
      <trkpt lat="47.02702" lon="2.26453">
        <ele>144</ele>
        <time>2018-04-17T09:30:41Z</time>
      </trkpt>
      <trkpt lat="47.02704" lon="2.26445">
        <ele>144</ele>
        <time>2018-04-17T09:30:42Z</time>
      </trkpt>
      <trkpt lat="47.02709" lon="2.26425">
        <ele>144</ele>
        <time>2018-04-17T09:30:45Z</time>
      </trkpt>
      <trkpt lat="47.02709" lon="2.26413">
        <ele>144</ele>
        <time>2018-04-17T09:30:47Z</time>
      </trkpt>
      <trkpt lat="47.02707" lon="2.264">
        <ele>144</ele>
        <time>2018-04-17T09:30:49Z</time>
      </trkpt>
      <trkpt lat="47.02707" lon="2.26393">
        <ele>144</ele>
        <time>2018-04-17T09:30:50Z</time>
      </trkpt>
      <trkpt lat="47.02707" lon="2.26379">
        <ele>144</ele>
        <time>2018-04-17T09:30:52Z</time>
      </trkpt>
      <trkpt lat="47.02706" lon="2.26358">
        <ele>145</ele>
        <time>2018-04-17T09:30:55Z</time>
      </trkpt>
      <trkpt lat="47.02706" lon="2.26344">
        <ele>145</ele>
        <time>2018-04-17T09:30:57Z</time>
      </trkpt>
      <trkpt lat="47.02706" lon="2.26337">
        <ele>145</ele>
        <time>2018-04-17T09:30:58Z</time>
      </trkpt>
      <trkpt lat="47.02706" lon="2.26324">
        <ele>144</ele>
        <time>2018-04-17T09:31:00Z</time>
      </trkpt>
      <trkpt lat="47.02711" lon="2.26307">
        <ele>144</ele>
        <time>2018-04-17T09:31:03Z</time>
      </trkpt>
      <trkpt lat="47.02724" lon="2.26265">
        <ele>144</ele>
        <time>2018-04-17T09:31:11Z</time>
      </trkpt>
      <trkpt lat="47.02732" lon="2.2624">
        <ele>142</ele>
        <time>2018-04-17T09:31:16Z</time>
      </trkpt>
      <trkpt lat="47.02735" lon="2.26229">
        <ele>142</ele>
        <time>2018-04-17T09:31:18Z</time>
      </trkpt>
      <trkpt lat="47.02741" lon="2.26209">
        <ele>141</ele>
        <time>2018-04-17T09:31:21Z</time>
      </trkpt>
      <trkpt lat="47.02745" lon="2.26195">
        <ele>141</ele>
        <time>2018-04-17T09:31:23Z</time>
      </trkpt>
      <trkpt lat="47.02747" lon="2.26188">
        <ele>141</ele>
        <time>2018-04-17T09:31:24Z</time>
      </trkpt>
      <trkpt lat="47.02754" lon="2.26159">
        <ele>140</ele>
        <time>2018-04-17T09:31:28Z</time>
      </trkpt>
      <trkpt lat="47.02755" lon="2.26151">
        <ele>139</ele>
        <time>2018-04-17T09:31:29Z</time>
      </trkpt>
      <trkpt lat="47.02757" lon="2.26135">
        <ele>139</ele>
        <time>2018-04-17T09:31:31Z</time>
      </trkpt>
      <trkpt lat="47.02761" lon="2.26089">
        <ele>136</ele>
        <time>2018-04-17T09:31:37Z</time>
      </trkpt>
      <trkpt lat="47.0276" lon="2.26083">
        <ele>135</ele>
        <time>2018-04-17T09:31:38Z</time>
      </trkpt>
      <trkpt lat="47.02757" lon="2.26066">
        <ele>135</ele>
        <time>2018-04-17T09:31:42Z</time>
      </trkpt>
      <trkpt lat="47.02752" lon="2.26052">
        <ele>135</ele>
        <time>2018-04-17T09:31:48Z</time>
      </trkpt>
      <trkpt lat="47.02751" lon="2.26051">
        <ele>135</ele>
        <time>2018-04-17T09:31:54Z</time>
      </trkpt>
      <trkpt lat="47.02751" lon="2.26051">
        <ele>135</ele>
        <time>2018-04-17T09:32:11Z</time>
      </trkpt>
      <trkpt lat="47.02751" lon="2.26051">
        <ele>135</ele>
        <time>2018-04-17T09:32:29Z</time>
      </trkpt>
      <trkpt lat="47.02751" lon="2.26051">
        <ele>135</ele>
        <time>2018-04-17T09:32:42Z</time>
      </trkpt>
      <trkpt lat="47.02752" lon="2.26051">
        <ele>135</ele>
        <time>2018-04-17T09:32:49Z</time>
      </trkpt>
      <trkpt lat="47.02753" lon="2.26054">
        <ele>135</ele>
        <time>2018-04-17T09:32:53Z</time>
      </trkpt>
      <trkpt lat="47.02754" lon="2.26058">
        <ele>135</ele>
        <time>2018-04-17T09:32:55Z</time>
      </trkpt>
      <trkpt lat="47.02757" lon="2.26066">
        <ele>135</ele>
        <time>2018-04-17T09:32:59Z</time>
      </trkpt>
      <trkpt lat="47.02758" lon="2.2607">
        <ele>135</ele>
        <time>2018-04-17T09:33:01Z</time>
      </trkpt>
      <trkpt lat="47.02759" lon="2.26072">
        <ele>135</ele>
        <time>2018-04-17T09:33:03Z</time>
      </trkpt>
      <trkpt lat="47.02761" lon="2.26072">
        <ele>135</ele>
        <time>2018-04-17T09:33:06Z</time>
      </trkpt>
      <trkpt lat="47.02762" lon="2.2607">
        <ele>135</ele>
        <time>2018-04-17T09:33:18Z</time>
      </trkpt>
      <trkpt lat="47.02772" lon="2.26057">
        <ele>135</ele>
        <time>2018-04-17T09:33:23Z</time>
      </trkpt>
      <trkpt lat="47.02783" lon="2.2604">
        <ele>135</ele>
        <time>2018-04-17T09:33:27Z</time>
      </trkpt>
      <trkpt lat="47.02792" lon="2.26026">
        <ele>135</ele>
        <time>2018-04-17T09:33:30Z</time>
      </trkpt>
      <trkpt lat="47.02803" lon="2.26007">
        <ele>135</ele>
        <time>2018-04-17T09:33:34Z</time>
      </trkpt>
      <trkpt lat="47.02823" lon="2.25968">
        <ele>133</ele>
        <time>2018-04-17T09:33:42Z</time>
      </trkpt>
      <trkpt lat="47.02845" lon="2.25927">
        <ele>134</ele>
        <time>2018-04-17T09:33:50Z</time>
      </trkpt>
      <trkpt lat="47.0286" lon="2.25892">
        <ele>133</ele>
        <time>2018-04-17T09:33:56Z</time>
      </trkpt>
      <trkpt lat="47.02862" lon="2.25886">
        <ele>133</ele>
        <time>2018-04-17T09:33:57Z</time>
      </trkpt>
      <trkpt lat="47.02882" lon="2.25846">
        <ele>133</ele>
        <time>2018-04-17T09:34:05Z</time>
      </trkpt>
      <trkpt lat="47.02903" lon="2.2582">
        <ele>133</ele>
        <time>2018-04-17T09:34:12Z</time>
      </trkpt>
      <trkpt lat="47.02924" lon="2.25801">
        <ele>135</ele>
        <time>2018-04-17T09:34:19Z</time>
      </trkpt>
      <trkpt lat="47.02947" lon="2.25788">
        <ele>135</ele>
        <time>2018-04-17T09:34:27Z</time>
      </trkpt>
      <trkpt lat="47.02964" lon="2.25786">
        <ele>135</ele>
        <time>2018-04-17T09:34:33Z</time>
      </trkpt>
      <trkpt lat="47.02986" lon="2.25786">
        <ele>136</ele>
        <time>2018-04-17T09:34:40Z</time>
      </trkpt>
      <trkpt lat="47.03009" lon="2.25784">
        <ele>138</ele>
        <time>2018-04-17T09:34:47Z</time>
      </trkpt>
      <trkpt lat="47.03032" lon="2.25778">
        <ele>138</ele>
        <time>2018-04-17T09:34:55Z</time>
      </trkpt>
      <trkpt lat="47.03048" lon="2.25773">
        <ele>138</ele>
        <time>2018-04-17T09:35:01Z</time>
      </trkpt>
      <trkpt lat="47.03054" lon="2.25771">
        <ele>138</ele>
        <time>2018-04-17T09:35:03Z</time>
      </trkpt>
      <trkpt lat="47.03074" lon="2.25759">
        <ele>138</ele>
        <time>2018-04-17T09:35:10Z</time>
      </trkpt>
      <trkpt lat="47.03079" lon="2.25756">
        <ele>138</ele>
        <time>2018-04-17T09:35:12Z</time>
      </trkpt>
      <trkpt lat="47.03083" lon="2.2575">
        <ele>138</ele>
        <time>2018-04-17T09:35:14Z</time>
      </trkpt>
      <trkpt lat="47.03092" lon="2.25723">
        <ele>137</ele>
        <time>2018-04-17T09:35:20Z</time>
      </trkpt>
      <trkpt lat="47.03098" lon="2.25701">
        <ele>136</ele>
        <time>2018-04-17T09:35:25Z</time>
      </trkpt>
      <trkpt lat="47.03104" lon="2.25682">
        <ele>136</ele>
        <time>2018-04-17T09:35:29Z</time>
      </trkpt>
      <trkpt lat="47.03108" lon="2.25671">
        <ele>136</ele>
        <time>2018-04-17T09:35:31Z</time>
      </trkpt>
      <trkpt lat="47.03115" lon="2.25644">
        <ele>134</ele>
        <time>2018-04-17T09:35:36Z</time>
      </trkpt>
      <trkpt lat="47.03115" lon="2.25638">
        <ele>134</ele>
        <time>2018-04-17T09:35:37Z</time>
      </trkpt>
      <trkpt lat="47.03116" lon="2.25606">
        <ele>134</ele>
        <time>2018-04-17T09:35:43Z</time>
      </trkpt>
      <trkpt lat="47.03115" lon="2.25573">
        <ele>135</ele>
        <time>2018-04-17T09:35:49Z</time>
      </trkpt>
      <trkpt lat="47.03123" lon="2.25535">
        <ele>134</ele>
        <time>2018-04-17T09:35:56Z</time>
      </trkpt>
      <trkpt lat="47.03137" lon="2.25504">
        <ele>134</ele>
        <time>2018-04-17T09:36:03Z</time>
      </trkpt>
      <trkpt lat="47.03154" lon="2.25478">
        <ele>135</ele>
        <time>2018-04-17T09:36:10Z</time>
      </trkpt>
      <trkpt lat="47.03169" lon="2.25462">
        <ele>133</ele>
        <time>2018-04-17T09:36:16Z</time>
      </trkpt>
      <trkpt lat="47.03186" lon="2.25455">
        <ele>133</ele>
        <time>2018-04-17T09:36:23Z</time>
      </trkpt>
      <trkpt lat="47.03189" lon="2.25454">
        <ele>133</ele>
        <time>2018-04-17T09:36:26Z</time>
      </trkpt>
      <trkpt lat="47.0319" lon="2.25453">
        <ele>133</ele>
        <time>2018-04-17T09:36:28Z</time>
      </trkpt>
      <trkpt lat="47.03191" lon="2.25453">
        <ele>133</ele>
        <time>2018-04-17T09:36:40Z</time>
      </trkpt>
      <trkpt lat="47.03191" lon="2.25453">
        <ele>133</ele>
        <time>2018-04-17T09:36:54Z</time>
      </trkpt>
      <trkpt lat="47.03192" lon="2.25451">
        <ele>133</ele>
        <time>2018-04-17T09:37:07Z</time>
      </trkpt>
      <trkpt lat="47.03195" lon="2.25438">
        <ele>133</ele>
        <time>2018-04-17T09:37:13Z</time>
      </trkpt>
      <trkpt lat="47.03194" lon="2.25417">
        <ele>134</ele>
        <time>2018-04-17T09:37:19Z</time>
      </trkpt>
      <trkpt lat="47.03191" lon="2.254">
        <ele>135</ele>
        <time>2018-04-17T09:37:24Z</time>
      </trkpt>
      <trkpt lat="47.03189" lon="2.25396">
        <ele>135</ele>
        <time>2018-04-17T09:37:25Z</time>
      </trkpt>
      <trkpt lat="47.03185" lon="2.25375">
        <ele>135</ele>
        <time>2018-04-17T09:37:30Z</time>
      </trkpt>
      <trkpt lat="47.03185" lon="2.25371">
        <ele>135</ele>
        <time>2018-04-17T09:37:31Z</time>
      </trkpt>
      <trkpt lat="47.03182" lon="2.25337">
        <ele>136</ele>
        <time>2018-04-17T09:37:39Z</time>
      </trkpt>
      <trkpt lat="47.03182" lon="2.25318">
        <ele>136</ele>
        <time>2018-04-17T09:37:44Z</time>
      </trkpt>
      <trkpt lat="47.03174" lon="2.25289">
        <ele>136</ele>
        <time>2018-04-17T09:37:50Z</time>
      </trkpt>
      <trkpt lat="47.03168" lon="2.25266">
        <ele>136</ele>
        <time>2018-04-17T09:37:55Z</time>
      </trkpt>
      <trkpt lat="47.03163" lon="2.25239">
        <ele>137</ele>
        <time>2018-04-17T09:38:01Z</time>
      </trkpt>
      <trkpt lat="47.03158" lon="2.25223">
        <ele>139</ele>
        <time>2018-04-17T09:38:05Z</time>
      </trkpt>
      <trkpt lat="47.03154" lon="2.25216">
        <ele>139</ele>
        <time>2018-04-17T09:38:07Z</time>
      </trkpt>
      <trkpt lat="47.03149" lon="2.25204">
        <ele>140</ele>
        <time>2018-04-17T09:38:11Z</time>
      </trkpt>
      <trkpt lat="47.03147" lon="2.252">
        <ele>140</ele>
        <time>2018-04-17T09:38:12Z</time>
      </trkpt>
      <trkpt lat="47.03147" lon="2.25181">
        <ele>140</ele>
        <time>2018-04-17T09:38:17Z</time>
      </trkpt>
      <trkpt lat="47.03147" lon="2.25167">
        <ele>140</ele>
        <time>2018-04-17T09:38:22Z</time>
      </trkpt>
      <trkpt lat="47.03141" lon="2.25138">
        <ele>142</ele>
        <time>2018-04-17T09:38:28Z</time>
      </trkpt>
      <trkpt lat="47.03142" lon="2.25112">
        <ele>143</ele>
        <time>2018-04-17T09:38:34Z</time>
      </trkpt>
      <trkpt lat="47.0314" lon="2.25091">
        <ele>143</ele>
        <time>2018-04-17T09:38:39Z</time>
      </trkpt>
      <trkpt lat="47.03137" lon="2.25064">
        <ele>145</ele>
        <time>2018-04-17T09:38:45Z</time>
      </trkpt>
      <trkpt lat="47.03134" lon="2.25035">
        <ele>145</ele>
        <time>2018-04-17T09:38:51Z</time>
      </trkpt>
      <trkpt lat="47.03131" lon="2.25021">
        <ele>145</ele>
        <time>2018-04-17T09:38:55Z</time>
      </trkpt>
      <trkpt lat="47.03127" lon="2.25002">
        <ele>145</ele>
        <time>2018-04-17T09:39:00Z</time>
      </trkpt>
      <trkpt lat="47.03121" lon="2.24974">
        <ele>145</ele>
        <time>2018-04-17T09:39:05Z</time>
      </trkpt>
      <trkpt lat="47.03117" lon="2.24943">
        <ele>144</ele>
        <time>2018-04-17T09:39:12Z</time>
      </trkpt>
      <trkpt lat="47.03119" lon="2.24917">
        <ele>144</ele>
        <time>2018-04-17T09:39:18Z</time>
      </trkpt>
      <trkpt lat="47.03118" lon="2.24893">
        <ele>142</ele>
        <time>2018-04-17T09:39:24Z</time>
      </trkpt>
      <trkpt lat="47.03118" lon="2.24888">
        <ele>142</ele>
        <time>2018-04-17T09:39:25Z</time>
      </trkpt>
      <trkpt lat="47.0312" lon="2.24867">
        <ele>142</ele>
        <time>2018-04-17T09:39:30Z</time>
      </trkpt>
      <trkpt lat="47.03123" lon="2.24845">
        <ele>141</ele>
        <time>2018-04-17T09:39:36Z</time>
      </trkpt>
      <trkpt lat="47.03123" lon="2.24842">
        <ele>141</ele>
        <time>2018-04-17T09:39:37Z</time>
      </trkpt>
      <trkpt lat="47.03122" lon="2.24839">
        <ele>141</ele>
        <time>2018-04-17T09:39:38Z</time>
      </trkpt>
      <trkpt lat="47.03122" lon="2.24834">
        <ele>141</ele>
        <time>2018-04-17T09:39:40Z</time>
      </trkpt>
      <trkpt lat="47.03128" lon="2.24811">
        <ele>139</ele>
        <time>2018-04-17T09:39:47Z</time>
      </trkpt>
      <trkpt lat="47.03131" lon="2.24796">
        <ele>139</ele>
        <time>2018-04-17T09:39:52Z</time>
      </trkpt>
      <trkpt lat="47.03133" lon="2.24777">
        <ele>138</ele>
        <time>2018-04-17T09:39:58Z</time>
      </trkpt>
      <trkpt lat="47.03134" lon="2.24754">
        <ele>138</ele>
        <time>2018-04-17T09:40:05Z</time>
      </trkpt>
      <trkpt lat="47.03134" lon="2.24748">
        <ele>138</ele>
        <time>2018-04-17T09:40:07Z</time>
      </trkpt>
      <trkpt lat="47.03132" lon="2.24729">
        <ele>138</ele>
        <time>2018-04-17T09:40:12Z</time>
      </trkpt>
      <trkpt lat="47.03126" lon="2.24698">
        <ele>138</ele>
        <time>2018-04-17T09:40:21Z</time>
      </trkpt>
      <trkpt lat="47.03126" lon="2.24694">
        <ele>138</ele>
        <time>2018-04-17T09:40:22Z</time>
      </trkpt>
      <trkpt lat="47.03118" lon="2.24659">
        <ele>140</ele>
        <time>2018-04-17T09:40:31Z</time>
      </trkpt>
      <trkpt lat="47.03117" lon="2.24651">
        <ele>140</ele>
        <time>2018-04-17T09:40:33Z</time>
      </trkpt>
      <trkpt lat="47.03112" lon="2.24626">
        <ele>140</ele>
        <time>2018-04-17T09:40:40Z</time>
      </trkpt>
      <trkpt lat="47.03112" lon="2.24623">
        <ele>140</ele>
        <time>2018-04-17T09:40:41Z</time>
      </trkpt>
      <trkpt lat="47.03111" lon="2.24606">
        <ele>140</ele>
        <time>2018-04-17T09:40:47Z</time>
      </trkpt>
      <trkpt lat="47.03108" lon="2.24589">
        <ele>140</ele>
        <time>2018-04-17T09:40:52Z</time>
      </trkpt>
      <trkpt lat="47.03103" lon="2.24559">
        <ele>141</ele>
        <time>2018-04-17T09:41:00Z</time>
      </trkpt>
      <trkpt lat="47.03102" lon="2.24551">
        <ele>141</ele>
        <time>2018-04-17T09:41:02Z</time>
      </trkpt>
      <trkpt lat="47.031" lon="2.24526">
        <ele>141</ele>
        <time>2018-04-17T09:41:09Z</time>
      </trkpt>
      <trkpt lat="47.03099" lon="2.2451">
        <ele>142</ele>
        <time>2018-04-17T09:41:13Z</time>
      </trkpt>
      <trkpt lat="47.03099" lon="2.24499">
        <ele>142</ele>
        <time>2018-04-17T09:41:16Z</time>
      </trkpt>
      <trkpt lat="47.03099" lon="2.24472">
        <ele>142</ele>
        <time>2018-04-17T09:41:23Z</time>
      </trkpt>
      <trkpt lat="47.03099" lon="2.24468">
        <ele>142</ele>
        <time>2018-04-17T09:41:24Z</time>
      </trkpt>
      <trkpt lat="47.03097" lon="2.24442">
        <ele>143</ele>
        <time>2018-04-17T09:41:31Z</time>
      </trkpt>
      <trkpt lat="47.03095" lon="2.24422">
        <ele>144</ele>
        <time>2018-04-17T09:41:36Z</time>
      </trkpt>
      <trkpt lat="47.03093" lon="2.24414">
        <ele>144</ele>
        <time>2018-04-17T09:41:38Z</time>
      </trkpt>
      <trkpt lat="47.03087" lon="2.24392">
        <ele>144</ele>
        <time>2018-04-17T09:41:44Z</time>
      </trkpt>
      <trkpt lat="47.03083" lon="2.24369">
        <ele>145</ele>
        <time>2018-04-17T09:41:50Z</time>
      </trkpt>
      <trkpt lat="47.03081" lon="2.24361">
        <ele>145</ele>
        <time>2018-04-17T09:41:52Z</time>
      </trkpt>
      <trkpt lat="47.03074" lon="2.24331">
        <ele>145</ele>
        <time>2018-04-17T09:42:00Z</time>
      </trkpt>
      <trkpt lat="47.0307" lon="2.24308">
        <ele>146</ele>
        <time>2018-04-17T09:42:06Z</time>
      </trkpt>
      <trkpt lat="47.03069" lon="2.243">
        <ele>146</ele>
        <time>2018-04-17T09:42:08Z</time>
      </trkpt>
      <trkpt lat="47.03066" lon="2.24272">
        <ele>146</ele>
        <time>2018-04-17T09:42:15Z</time>
      </trkpt>
      <trkpt lat="47.03064" lon="2.24242">
        <ele>147</ele>
        <time>2018-04-17T09:42:22Z</time>
      </trkpt>
      <trkpt lat="47.03061" lon="2.24216">
        <ele>148</ele>
        <time>2018-04-17T09:42:28Z</time>
      </trkpt>
      <trkpt lat="47.0306" lon="2.24211">
        <ele>148</ele>
        <time>2018-04-17T09:42:29Z</time>
      </trkpt>
      <trkpt lat="47.03055" lon="2.24176">
        <ele>148</ele>
        <time>2018-04-17T09:42:37Z</time>
      </trkpt>
      <trkpt lat="47.0305" lon="2.2415">
        <ele>149</ele>
        <time>2018-04-17T09:42:43Z</time>
      </trkpt>
      <trkpt lat="47.03047" lon="2.24139">
        <ele>149</ele>
        <time>2018-04-17T09:42:46Z</time>
      </trkpt>
      <trkpt lat="47.03045" lon="2.24125">
        <ele>149</ele>
        <time>2018-04-17T09:42:50Z</time>
      </trkpt>
      <trkpt lat="47.03041" lon="2.24112">
        <ele>150</ele>
        <time>2018-04-17T09:42:55Z</time>
      </trkpt>
      <trkpt lat="47.03041" lon="2.24109">
        <ele>150</ele>
        <time>2018-04-17T09:42:56Z</time>
      </trkpt>
      <trkpt lat="47.03042" lon="2.24105">
        <ele>150</ele>
        <time>2018-04-17T09:42:57Z</time>
      </trkpt>
      <trkpt lat="47.03045" lon="2.2409">
        <ele>150</ele>
        <time>2018-04-17T09:43:01Z</time>
      </trkpt>
      <trkpt lat="47.03044" lon="2.24078">
        <ele>150</ele>
        <time>2018-04-17T09:43:05Z</time>
      </trkpt>
      <trkpt lat="47.03044" lon="2.24076">
        <ele>150</ele>
        <time>2018-04-17T09:43:06Z</time>
      </trkpt>
      <trkpt lat="47.03042" lon="2.24073">
        <ele>150</ele>
        <time>2018-04-17T09:43:11Z</time>
      </trkpt>
      <trkpt lat="47.03042" lon="2.24073">
        <ele>150</ele>
        <time>2018-04-17T09:43:24Z</time>
      </trkpt>
      <trkpt lat="47.03042" lon="2.24073">
        <ele>150</ele>
        <time>2018-04-17T09:43:38Z</time>
      </trkpt>
      <trkpt lat="47.03042" lon="2.24072">
        <ele>150</ele>
        <time>2018-04-17T09:43:45Z</time>
      </trkpt>
      <trkpt lat="47.03042" lon="2.24067">
        <ele>150</ele>
        <time>2018-04-17T09:43:48Z</time>
      </trkpt>
      <trkpt lat="47.0304" lon="2.24047">
        <ele>150</ele>
        <time>2018-04-17T09:43:55Z</time>
      </trkpt>
      <trkpt lat="47.03038" lon="2.24034">
        <ele>151</ele>
        <time>2018-04-17T09:43:59Z</time>
      </trkpt>
      <trkpt lat="47.03035" lon="2.24027">
        <ele>151</ele>
        <time>2018-04-17T09:44:01Z</time>
      </trkpt>
      <trkpt lat="47.03032" lon="2.24006">
        <ele>151</ele>
        <time>2018-04-17T09:44:06Z</time>
      </trkpt>
      <trkpt lat="47.03031" lon="2.23983">
        <ele>152</ele>
        <time>2018-04-17T09:44:12Z</time>
      </trkpt>
      <trkpt lat="47.03034" lon="2.23955">
        <ele>152</ele>
        <time>2018-04-17T09:44:19Z</time>
      </trkpt>
      <trkpt lat="47.03033" lon="2.23932">
        <ele>152</ele>
        <time>2018-04-17T09:44:24Z</time>
      </trkpt>
      <trkpt lat="47.03034" lon="2.2391">
        <ele>153</ele>
        <time>2018-04-17T09:44:30Z</time>
      </trkpt>
      <trkpt lat="47.03035" lon="2.2389">
        <ele>153</ele>
        <time>2018-04-17T09:44:36Z</time>
      </trkpt>
      <trkpt lat="47.03035" lon="2.23879">
        <ele>153</ele>
        <time>2018-04-17T09:44:39Z</time>
      </trkpt>
      <trkpt lat="47.03033" lon="2.23862">
        <ele>153</ele>
        <time>2018-04-17T09:44:43Z</time>
      </trkpt>
      <trkpt lat="47.03029" lon="2.23837">
        <ele>153</ele>
        <time>2018-04-17T09:44:49Z</time>
      </trkpt>
      <trkpt lat="47.03022" lon="2.23803">
        <ele>154</ele>
        <time>2018-04-17T09:44:55Z</time>
      </trkpt>
      <trkpt lat="47.03017" lon="2.2378">
        <ele>155</ele>
        <time>2018-04-17T09:45:01Z</time>
      </trkpt>
      <trkpt lat="47.03017" lon="2.2378">
        <ele>155</ele>
        <time>2018-04-17T09:45:02Z</time>
      </trkpt>
      <trkpt lat="47.03017" lon="2.23778">
        <ele>155</ele>
        <time>2018-04-17T09:45:07Z</time>
      </trkpt>
      <trkpt lat="47.03017" lon="2.23778">
        <ele>155</ele>
        <time>2018-04-17T09:45:25Z</time>
      </trkpt>
      <trkpt lat="47.03017" lon="2.23778">
        <ele>155</ele>
        <time>2018-04-17T09:45:38Z</time>
      </trkpt>
      <trkpt lat="47.03017" lon="2.23778">
        <ele>155</ele>
        <time>2018-04-17T09:45:54Z</time>
      </trkpt>
      <trkpt lat="47.03017" lon="2.23778">
        <ele>155</ele>
        <time>2018-04-17T09:46:02Z</time>
      </trkpt>
      <trkpt lat="47.03017" lon="2.23778">
        <ele>155</ele>
        <time>2018-04-17T09:46:14Z</time>
      </trkpt>
      <trkpt lat="47.03017" lon="2.23778">
        <ele>155</ele>
        <time>2018-04-17T09:46:23Z</time>
      </trkpt>
      <trkpt lat="47.03017" lon="2.23778">
        <ele>155</ele>
        <time>2018-04-17T09:46:35Z</time>
      </trkpt>
      <trkpt lat="47.03017" lon="2.23778">
        <ele>155</ele>
        <time>2018-04-17T09:46:48Z</time>
      </trkpt>
      <trkpt lat="47.03017" lon="2.23778">
        <ele>155</ele>
        <time>2018-04-17T09:47:05Z</time>
      </trkpt>
      <trkpt lat="47.03017" lon="2.23778">
        <ele>155</ele>
        <time>2018-04-17T09:47:21Z</time>
      </trkpt>
      <trkpt lat="47.03017" lon="2.23778">
        <ele>155</ele>
        <time>2018-04-17T09:47:38Z</time>
      </trkpt>
      <trkpt lat="47.03017" lon="2.23777">
        <ele>155</ele>
        <time>2018-04-17T09:47:51Z</time>
      </trkpt>
      <trkpt lat="47.03017" lon="2.23777">
        <ele>155</ele>
        <time>2018-04-17T09:48:03Z</time>
      </trkpt>
      <trkpt lat="47.03017" lon="2.23777">
        <ele>155</ele>
        <time>2018-04-17T09:48:17Z</time>
      </trkpt>
      <trkpt lat="47.03017" lon="2.23777">
        <ele>155</ele>
        <time>2018-04-17T09:48:29Z</time>
      </trkpt>
      <trkpt lat="47.03017" lon="2.23777">
        <ele>155</ele>
        <time>2018-04-17T09:48:39Z</time>
      </trkpt>
      <trkpt lat="47.03017" lon="2.23777">
        <ele>155</ele>
        <time>2018-04-17T09:48:52Z</time>
      </trkpt>
      <trkpt lat="47.03017" lon="2.23777">
        <ele>155</ele>
        <time>2018-04-17T09:49:07Z</time>
      </trkpt>
      <trkpt lat="47.03017" lon="2.23777">
        <ele>155</ele>
        <time>2018-04-17T09:49:24Z</time>
      </trkpt>
      <trkpt lat="47.03017" lon="2.23777">
        <ele>155</ele>
        <time>2018-04-17T09:49:44Z</time>
      </trkpt>
      <trkpt lat="47.03017" lon="2.23777">
        <ele>155</ele>
        <time>2018-04-17T09:49:59Z</time>
      </trkpt>
      <trkpt lat="47.03017" lon="2.2377">
        <ele>155</ele>
        <time>2018-04-17T09:50:07Z</time>
      </trkpt>
      <trkpt lat="47.03013" lon="2.23753">
        <ele>155</ele>
        <time>2018-04-17T09:50:12Z</time>
      </trkpt>
      <trkpt lat="47.03012" lon="2.23749">
        <ele>156</ele>
        <time>2018-04-17T09:50:13Z</time>
      </trkpt>
      <trkpt lat="47.03009" lon="2.23731">
        <ele>156</ele>
        <time>2018-04-17T09:50:18Z</time>
      </trkpt>
      <trkpt lat="47.03003" lon="2.23711">
        <ele>156</ele>
        <time>2018-04-17T09:50:24Z</time>
      </trkpt>
      <trkpt lat="47.02998" lon="2.23687">
        <ele>156</ele>
        <time>2018-04-17T09:50:31Z</time>
      </trkpt>
      <trkpt lat="47.02995" lon="2.23667">
        <ele>156</ele>
        <time>2018-04-17T09:50:37Z</time>
      </trkpt>
      <trkpt lat="47.02993" lon="2.23642">
        <ele>154</ele>
        <time>2018-04-17T09:50:42Z</time>
      </trkpt>
      <trkpt lat="47.02984" lon="2.23613">
        <ele>153</ele>
        <time>2018-04-17T09:50:47Z</time>
      </trkpt>
      <trkpt lat="47.02974" lon="2.23579">
        <ele>150</ele>
        <time>2018-04-17T09:50:54Z</time>
      </trkpt>
      <trkpt lat="47.02968" lon="2.23558">
        <ele>150</ele>
        <time>2018-04-17T09:50:58Z</time>
      </trkpt>
      <trkpt lat="47.02966" lon="2.23552">
        <ele>149</ele>
        <time>2018-04-17T09:50:59Z</time>
      </trkpt>
      <trkpt lat="47.02957" lon="2.23515">
        <ele>149</ele>
        <time>2018-04-17T09:51:05Z</time>
      </trkpt>
      <trkpt lat="47.02954" lon="2.23502">
        <ele>149</ele>
        <time>2018-04-17T09:51:07Z</time>
      </trkpt>
      <trkpt lat="47.02946" lon="2.23469">
        <ele>147</ele>
        <time>2018-04-17T09:51:13Z</time>
      </trkpt>
      <trkpt lat="47.02943" lon="2.23458">
        <ele>147</ele>
        <time>2018-04-17T09:51:15Z</time>
      </trkpt>
      <trkpt lat="47.02938" lon="2.23439">
        <ele>147</ele>
        <time>2018-04-17T09:51:18Z</time>
      </trkpt>
      <trkpt lat="47.02935" lon="2.23425">
        <ele>147</ele>
        <time>2018-04-17T09:51:20Z</time>
      </trkpt>
      <trkpt lat="47.02927" lon="2.23381">
        <ele>146</ele>
        <time>2018-04-17T09:51:26Z</time>
      </trkpt>
      <trkpt lat="47.02925" lon="2.23365">
        <ele>145</ele>
        <time>2018-04-17T09:51:28Z</time>
      </trkpt>
      <trkpt lat="47.02924" lon="2.23357">
        <ele>145</ele>
        <time>2018-04-17T09:51:29Z</time>
      </trkpt>
      <trkpt lat="47.02922" lon="2.23314">
        <ele>145</ele>
        <time>2018-04-17T09:51:35Z</time>
      </trkpt>
      <trkpt lat="47.02921" lon="2.23252">
        <ele>144</ele>
        <time>2018-04-17T09:51:44Z</time>
      </trkpt>
      <trkpt lat="47.0292" lon="2.23209">
        <ele>145</ele>
        <time>2018-04-17T09:51:51Z</time>
      </trkpt>
      <trkpt lat="47.02919" lon="2.23153">
        <ele>145</ele>
        <time>2018-04-17T09:52:00Z</time>
      </trkpt>
      <trkpt lat="47.02918" lon="2.23079">
        <ele>144</ele>
        <time>2018-04-17T09:52:11Z</time>
      </trkpt>
      <trkpt lat="47.02919" lon="2.23027">
        <ele>143</ele>
        <time>2018-04-17T09:52:19Z</time>
      </trkpt>
      <trkpt lat="47.02919" lon="2.22981">
        <ele>141</ele>
        <time>2018-04-17T09:52:26Z</time>
      </trkpt>
      <trkpt lat="47.02919" lon="2.22968">
        <ele>141</ele>
        <time>2018-04-17T09:52:28Z</time>
      </trkpt>
      <trkpt lat="47.02918" lon="2.22941">
        <ele>141</ele>
        <time>2018-04-17T09:52:32Z</time>
      </trkpt>
      <trkpt lat="47.02917" lon="2.22912">
        <ele>140</ele>
        <time>2018-04-17T09:52:36Z</time>
      </trkpt>
      <trkpt lat="47.02916" lon="2.22888">
        <ele>139</ele>
        <time>2018-04-17T09:52:39Z</time>
      </trkpt>
      <trkpt lat="47.02914" lon="2.22865">
        <ele>138</ele>
        <time>2018-04-17T09:52:42Z</time>
      </trkpt>
      <trkpt lat="47.02912" lon="2.2285">
        <ele>138</ele>
        <time>2018-04-17T09:52:44Z</time>
      </trkpt>
      <trkpt lat="47.02912" lon="2.22842">
        <ele>138</ele>
        <time>2018-04-17T09:52:45Z</time>
      </trkpt>
      <trkpt lat="47.02911" lon="2.22793">
        <ele>136</ele>
        <time>2018-04-17T09:52:51Z</time>
      </trkpt>
      <trkpt lat="47.02911" lon="2.22784">
        <ele>136</ele>
        <time>2018-04-17T09:52:52Z</time>
      </trkpt>
      <trkpt lat="47.02911" lon="2.22768">
        <ele>135</ele>
        <time>2018-04-17T09:52:54Z</time>
      </trkpt>
      <trkpt lat="47.02912" lon="2.22727">
        <ele>134</ele>
        <time>2018-04-17T09:52:59Z</time>
      </trkpt>
      <trkpt lat="47.02912" lon="2.22704">
        <ele>133</ele>
        <time>2018-04-17T09:53:02Z</time>
      </trkpt>
      <trkpt lat="47.02912" lon="2.22692">
        <ele>133</ele>
        <time>2018-04-17T09:53:04Z</time>
      </trkpt>
      <trkpt lat="47.02914" lon="2.22687">
        <ele>132</ele>
        <time>2018-04-17T09:53:05Z</time>
      </trkpt>
      <trkpt lat="47.02925" lon="2.22681">
        <ele>132</ele>
        <time>2018-04-17T09:53:08Z</time>
      </trkpt>
      <trkpt lat="47.02933" lon="2.22681">
        <ele>132</ele>
        <time>2018-04-17T09:53:10Z</time>
      </trkpt>
      <trkpt lat="47.02942" lon="2.2268">
        <ele>132</ele>
        <time>2018-04-17T09:53:12Z</time>
      </trkpt>
      <trkpt lat="47.02969" lon="2.22675">
        <ele>132</ele>
        <time>2018-04-17T09:53:19Z</time>
      </trkpt>
      <trkpt lat="47.0297" lon="2.22674">
        <ele>132</ele>
        <time>2018-04-17T09:53:22Z</time>
      </trkpt>
      <trkpt lat="47.0297" lon="2.22674">
        <ele>132</ele>
        <time>2018-04-17T09:53:30Z</time>
      </trkpt>
      <trkpt lat="47.0297" lon="2.22674">
        <ele>132</ele>
        <time>2018-04-17T09:53:31Z</time>
      </trkpt>
      <trkpt lat="47.0297" lon="2.22674">
        <ele>132</ele>
        <time>2018-04-17T09:53:45Z</time>
      </trkpt>
      <trkpt lat="47.0297" lon="2.22674">
        <ele>132</ele>
        <time>2018-04-17T09:53:58Z</time>
      </trkpt>
      <trkpt lat="47.0297" lon="2.22674">
        <ele>132</ele>
        <time>2018-04-17T09:54:11Z</time>
      </trkpt>
      <trkpt lat="47.0297" lon="2.22674">
        <ele>132</ele>
        <time>2018-04-17T09:54:24Z</time>
      </trkpt>
      <trkpt lat="47.0297" lon="2.22674">
        <ele>132</ele>
        <time>2018-04-17T09:54:36Z</time>
      </trkpt>
      <trkpt lat="47.0297" lon="2.22674">
        <ele>132</ele>
        <time>2018-04-17T09:54:39Z</time>
      </trkpt>
      <trkpt lat="47.02971" lon="2.22674">
        <ele>132</ele>
        <time>2018-04-17T09:54:47Z</time>
      </trkpt>
      <trkpt lat="47.02975" lon="2.22663">
        <ele>131</ele>
        <time>2018-04-17T09:54:51Z</time>
      </trkpt>
      <trkpt lat="47.02972" lon="2.22647">
        <ele>131</ele>
        <time>2018-04-17T09:54:54Z</time>
      </trkpt>
      <trkpt lat="47.0297" lon="2.22634">
        <ele>130</ele>
        <time>2018-04-17T09:54:56Z</time>
      </trkpt>
      <trkpt lat="47.02968" lon="2.22621">
        <ele>130</ele>
        <time>2018-04-17T09:54:58Z</time>
      </trkpt>
      <trkpt lat="47.02962" lon="2.22586">
        <ele>130</ele>
        <time>2018-04-17T09:55:03Z</time>
      </trkpt>
      <trkpt lat="47.02957" lon="2.22554">
        <ele>128</ele>
        <time>2018-04-17T09:55:07Z</time>
      </trkpt>
      <trkpt lat="47.02956" lon="2.22545">
        <ele>128</ele>
        <time>2018-04-17T09:55:08Z</time>
      </trkpt>
      <trkpt lat="47.02954" lon="2.22528">
        <ele>128</ele>
        <time>2018-04-17T09:55:10Z</time>
      </trkpt>
      <trkpt lat="47.02952" lon="2.2252">
        <ele>128</ele>
        <time>2018-04-17T09:55:11Z</time>
      </trkpt>
      <trkpt lat="47.02951" lon="2.22511">
        <ele>128</ele>
        <time>2018-04-17T09:55:12Z</time>
      </trkpt>
      <trkpt lat="47.02948" lon="2.22493">
        <ele>127</ele>
        <time>2018-04-17T09:55:14Z</time>
      </trkpt>
      <trkpt lat="47.02947" lon="2.22484">
        <ele>126</ele>
        <time>2018-04-17T09:55:15Z</time>
      </trkpt>
      <trkpt lat="47.02945" lon="2.22475">
        <ele>126</ele>
        <time>2018-04-17T09:55:16Z</time>
      </trkpt>
      <trkpt lat="47.02944" lon="2.22466">
        <ele>126</ele>
        <time>2018-04-17T09:55:17Z</time>
      </trkpt>
      <trkpt lat="47.0294" lon="2.2244">
        <ele>126</ele>
        <time>2018-04-17T09:55:20Z</time>
      </trkpt>
      <trkpt lat="47.02933" lon="2.22403">
        <ele>125</ele>
        <time>2018-04-17T09:55:25Z</time>
      </trkpt>
      <trkpt lat="47.02931" lon="2.22379">
        <ele>124</ele>
        <time>2018-04-17T09:55:30Z</time>
      </trkpt>
      <trkpt lat="47.02941" lon="2.22375">
        <ele>124</ele>
        <time>2018-04-17T09:55:34Z</time>
      </trkpt>
      <trkpt lat="47.02959" lon="2.22369">
        <ele>124</ele>
        <time>2018-04-17T09:55:40Z</time>
      </trkpt>
      <trkpt lat="47.02979" lon="2.22365">
        <ele>123</ele>
        <time>2018-04-17T09:55:45Z</time>
      </trkpt>
      <trkpt lat="47.03009" lon="2.22364">
        <ele>122</ele>
        <time>2018-04-17T09:55:52Z</time>
      </trkpt>
      <trkpt lat="47.03043" lon="2.22368">
        <ele>123</ele>
        <time>2018-04-17T09:56:00Z</time>
      </trkpt>
      <trkpt lat="47.03069" lon="2.22374">
        <ele>123</ele>
        <time>2018-04-17T09:56:07Z</time>
      </trkpt>
      <trkpt lat="47.03076" lon="2.22375">
        <ele>123</ele>
        <time>2018-04-17T09:56:09Z</time>
      </trkpt>
      <trkpt lat="47.03109" lon="2.22378">
        <ele>125</ele>
        <time>2018-04-17T09:56:18Z</time>
      </trkpt>
      <trkpt lat="47.03133" lon="2.22376">
        <ele>126</ele>
        <time>2018-04-17T09:56:25Z</time>
      </trkpt>
      <trkpt lat="47.03167" lon="2.22369">
        <ele>129</ele>
        <time>2018-04-17T09:56:34Z</time>
      </trkpt>
      <trkpt lat="47.0317" lon="2.22367">
        <ele>129</ele>
        <time>2018-04-17T09:56:35Z</time>
      </trkpt>
      <trkpt lat="47.0319" lon="2.2236">
        <ele>129</ele>
        <time>2018-04-17T09:56:41Z</time>
      </trkpt>
      <trkpt lat="47.03201" lon="2.22356">
        <ele>130</ele>
        <time>2018-04-17T09:56:44Z</time>
      </trkpt>
      <trkpt lat="47.03215" lon="2.22351">
        <ele>130</ele>
        <time>2018-04-17T09:56:48Z</time>
      </trkpt>
      <trkpt lat="47.0323" lon="2.22344">
        <ele>131</ele>
        <time>2018-04-17T09:56:52Z</time>
      </trkpt>
      <trkpt lat="47.03234" lon="2.22342">
        <ele>131</ele>
        <time>2018-04-17T09:56:53Z</time>
      </trkpt>
      <trkpt lat="47.03261" lon="2.22323">
        <ele>132</ele>
        <time>2018-04-17T09:57:01Z</time>
      </trkpt>
      <trkpt lat="47.03268" lon="2.22318">
        <ele>132</ele>
        <time>2018-04-17T09:57:03Z</time>
      </trkpt>
      <trkpt lat="47.03288" lon="2.223">
        <ele>133</ele>
        <time>2018-04-17T09:57:09Z</time>
      </trkpt>
      <trkpt lat="47.03299" lon="2.22288">
        <ele>133</ele>
        <time>2018-04-17T09:57:13Z</time>
      </trkpt>
      <trkpt lat="47.03315" lon="2.2227">
        <ele>134</ele>
        <time>2018-04-17T09:57:19Z</time>
      </trkpt>
      <trkpt lat="47.03317" lon="2.22268">
        <ele>134</ele>
        <time>2018-04-17T09:57:20Z</time>
      </trkpt>
      <trkpt lat="47.03341" lon="2.22245">
        <ele>135</ele>
        <time>2018-04-17T09:57:29Z</time>
      </trkpt>
      <trkpt lat="47.03349" lon="2.22238">
        <ele>136</ele>
        <time>2018-04-17T09:57:32Z</time>
      </trkpt>
      <trkpt lat="47.03362" lon="2.22221">
        <ele>136</ele>
        <time>2018-04-17T09:57:38Z</time>
      </trkpt>
      <trkpt lat="47.03367" lon="2.22216">
        <ele>136</ele>
        <time>2018-04-17T09:57:40Z</time>
      </trkpt>
      <trkpt lat="47.03379" lon="2.22206">
        <ele>136</ele>
        <time>2018-04-17T09:57:45Z</time>
      </trkpt>
      <trkpt lat="47.03391" lon="2.22195">
        <ele>137</ele>
        <time>2018-04-17T09:57:50Z</time>
      </trkpt>
      <trkpt lat="47.03403" lon="2.22181">
        <ele>137</ele>
        <time>2018-04-17T09:57:55Z</time>
      </trkpt>
      <trkpt lat="47.03413" lon="2.22172">
        <ele>138</ele>
        <time>2018-04-17T09:57:59Z</time>
      </trkpt>
      <trkpt lat="47.03423" lon="2.2216">
        <ele>139</ele>
        <time>2018-04-17T09:58:03Z</time>
      </trkpt>
      <trkpt lat="47.03435" lon="2.22145">
        <ele>139</ele>
        <time>2018-04-17T09:58:08Z</time>
      </trkpt>
      <trkpt lat="47.03442" lon="2.22137">
        <ele>140</ele>
        <time>2018-04-17T09:58:11Z</time>
      </trkpt>
      <trkpt lat="47.03457" lon="2.22116">
        <ele>140</ele>
        <time>2018-04-17T09:58:18Z</time>
      </trkpt>
      <trkpt lat="47.03462" lon="2.22109">
        <ele>140</ele>
        <time>2018-04-17T09:58:20Z</time>
      </trkpt>
      <trkpt lat="47.03482" lon="2.22082">
        <ele>139</ele>
        <time>2018-04-17T09:58:29Z</time>
      </trkpt>
      <trkpt lat="47.035" lon="2.22061">
        <ele>138</ele>
        <time>2018-04-17T09:58:38Z</time>
      </trkpt>
      <trkpt lat="47.03518" lon="2.22044">
        <ele>143</ele>
        <time>2018-04-17T09:58:47Z</time>
      </trkpt>
      <trkpt lat="47.0352" lon="2.22041">
        <ele>143</ele>
        <time>2018-04-17T09:58:48Z</time>
      </trkpt>
      <trkpt lat="47.03534" lon="2.22026">
        <ele>143</ele>
        <time>2018-04-17T09:58:54Z</time>
      </trkpt>
      <trkpt lat="47.0355" lon="2.22011">
        <ele>144</ele>
        <time>2018-04-17T09:59:00Z</time>
      </trkpt>
      <trkpt lat="47.03556" lon="2.22006">
        <ele>145</ele>
        <time>2018-04-17T09:59:02Z</time>
      </trkpt>
      <trkpt lat="47.0357" lon="2.21989">
        <ele>143</ele>
        <time>2018-04-17T09:59:08Z</time>
      </trkpt>
      <trkpt lat="47.03583" lon="2.21972">
        <ele>142</ele>
        <time>2018-04-17T09:59:14Z</time>
      </trkpt>
      <trkpt lat="47.03584" lon="2.2197">
        <ele>146</ele>
        <time>2018-04-17T09:59:15Z</time>
      </trkpt>
      <trkpt lat="47.03585" lon="2.21969">
        <ele>146</ele>
        <time>2018-04-17T09:59:16Z</time>
      </trkpt>
      <trkpt lat="47.03589" lon="2.21968">
        <ele>146</ele>
        <time>2018-04-17T09:59:18Z</time>
      </trkpt>
      <trkpt lat="47.03592" lon="2.2197">
        <ele>146</ele>
        <time>2018-04-17T09:59:20Z</time>
      </trkpt>
      <trkpt lat="47.03599" lon="2.21975">
        <ele>146</ele>
        <time>2018-04-17T09:59:24Z</time>
      </trkpt>
      <trkpt lat="47.03602" lon="2.21978">
        <ele>146</ele>
        <time>2018-04-17T09:59:26Z</time>
      </trkpt>
      <trkpt lat="47.03616" lon="2.21992">
        <ele>147</ele>
        <time>2018-04-17T09:59:32Z</time>
      </trkpt>
      <trkpt lat="47.0362" lon="2.21996">
        <ele>147</ele>
        <time>2018-04-17T09:59:34Z</time>
      </trkpt>
      <trkpt lat="47.03631" lon="2.22007">
        <ele>150</ele>
        <time>2018-04-17T09:59:39Z</time>
      </trkpt>
      <trkpt lat="47.03644" lon="2.22021">
        <ele>151</ele>
        <time>2018-04-17T09:59:46Z</time>
      </trkpt>
      <trkpt lat="47.03656" lon="2.22034">
        <ele>151</ele>
        <time>2018-04-17T09:59:52Z</time>
      </trkpt>
      <trkpt lat="47.03659" lon="2.22035">
        <ele>151</ele>
        <time>2018-04-17T09:59:53Z</time>
      </trkpt>
      <trkpt lat="47.03674" lon="2.22049">
        <ele>152</ele>
        <time>2018-04-17T09:59:59Z</time>
      </trkpt>
      <trkpt lat="47.03676" lon="2.22051">
        <ele>152</ele>
        <time>2018-04-17T10:00:00Z</time>
      </trkpt>
      <trkpt lat="47.03693" lon="2.22065">
        <ele>152</ele>
        <time>2018-04-17T10:00:07Z</time>
      </trkpt>
      <trkpt lat="47.03713" lon="2.22085">
        <ele>154</ele>
        <time>2018-04-17T10:00:14Z</time>
      </trkpt>
      <trkpt lat="47.03726" lon="2.22098">
        <ele>153</ele>
        <time>2018-04-17T10:00:19Z</time>
      </trkpt>
      <trkpt lat="47.03743" lon="2.22115">
        <ele>153</ele>
        <time>2018-04-17T10:00:26Z</time>
      </trkpt>
      <trkpt lat="47.03758" lon="2.22128">
        <ele>151</ele>
        <time>2018-04-17T10:00:32Z</time>
      </trkpt>
      <trkpt lat="47.03767" lon="2.22137">
        <ele>151</ele>
        <time>2018-04-17T10:00:38Z</time>
      </trkpt>
      <trkpt lat="47.03779" lon="2.22151">
        <ele>151</ele>
        <time>2018-04-17T10:00:45Z</time>
      </trkpt>
      <trkpt lat="47.03792" lon="2.22171">
        <ele>152</ele>
        <time>2018-04-17T10:00:50Z</time>
      </trkpt>
      <trkpt lat="47.03807" lon="2.22199">
        <ele>151</ele>
        <time>2018-04-17T10:00:58Z</time>
      </trkpt>
      <trkpt lat="47.03818" lon="2.22226">
        <ele>151</ele>
        <time>2018-04-17T10:01:05Z</time>
      </trkpt>
      <trkpt lat="47.03826" lon="2.22251">
        <ele>151</ele>
        <time>2018-04-17T10:01:12Z</time>
      </trkpt>
      <trkpt lat="47.03835" lon="2.22279">
        <ele>150</ele>
        <time>2018-04-17T10:01:19Z</time>
      </trkpt>
      <trkpt lat="47.03848" lon="2.22315">
        <ele>150</ele>
        <time>2018-04-17T10:01:28Z</time>
      </trkpt>
      <trkpt lat="47.03849" lon="2.22319">
        <ele>151</ele>
        <time>2018-04-17T10:01:30Z</time>
      </trkpt>
      <trkpt lat="47.03851" lon="2.22323">
        <ele>151</ele>
        <time>2018-04-17T10:01:32Z</time>
      </trkpt>
      <trkpt lat="47.03858" lon="2.22343">
        <ele>152</ele>
        <time>2018-04-17T10:01:38Z</time>
      </trkpt>
      <trkpt lat="47.03868" lon="2.22361">
        <ele>152</ele>
        <time>2018-04-17T10:01:44Z</time>
      </trkpt>
      <trkpt lat="47.0388" lon="2.2237">
        <ele>151</ele>
        <time>2018-04-17T10:01:48Z</time>
      </trkpt>
      <trkpt lat="47.03883" lon="2.22371">
        <ele>151</ele>
        <time>2018-04-17T10:01:49Z</time>
      </trkpt>
      <trkpt lat="47.0389" lon="2.22371">
        <ele>151</ele>
        <time>2018-04-17T10:01:53Z</time>
      </trkpt>
      <trkpt lat="47.03892" lon="2.22372">
        <ele>151</ele>
        <time>2018-04-17T10:02:00Z</time>
      </trkpt>
      <trkpt lat="47.03898" lon="2.22373">
        <ele>151</ele>
        <time>2018-04-17T10:02:08Z</time>
      </trkpt>
      <trkpt lat="47.03918" lon="2.22376">
        <ele>149</ele>
        <time>2018-04-17T10:02:15Z</time>
      </trkpt>
      <trkpt lat="47.0394" lon="2.22379">
        <ele>149</ele>
        <time>2018-04-17T10:02:21Z</time>
      </trkpt>
      <trkpt lat="47.03951" lon="2.2238">
        <ele>149</ele>
        <time>2018-04-17T10:02:24Z</time>
      </trkpt>
      <trkpt lat="47.03967" lon="2.22382">
        <ele>149</ele>
        <time>2018-04-17T10:02:28Z</time>
      </trkpt>
      <trkpt lat="47.03985" lon="2.22384">
        <ele>149</ele>
        <time>2018-04-17T10:02:32Z</time>
      </trkpt>
      <trkpt lat="47.04009" lon="2.22384">
        <ele>148</ele>
        <time>2018-04-17T10:02:37Z</time>
      </trkpt>
      <trkpt lat="47.04032" lon="2.22384">
        <ele>148</ele>
        <time>2018-04-17T10:02:43Z</time>
      </trkpt>
      <trkpt lat="47.04033" lon="2.22385">
        <ele>148</ele>
        <time>2018-04-17T10:02:44Z</time>
      </trkpt>
      <trkpt lat="47.04045" lon="2.2239">
        <ele>148</ele>
        <time>2018-04-17T10:02:49Z</time>
      </trkpt>
      <trkpt lat="47.04049" lon="2.2239">
        <ele>148</ele>
        <time>2018-04-17T10:02:50Z</time>
      </trkpt>
      <trkpt lat="47.04054" lon="2.22389">
        <ele>148</ele>
        <time>2018-04-17T10:02:52Z</time>
      </trkpt>
      <trkpt lat="47.04071" lon="2.22391">
        <ele>147</ele>
        <time>2018-04-17T10:02:56Z</time>
      </trkpt>
      <trkpt lat="47.04073" lon="2.22391">
        <ele>147</ele>
        <time>2018-04-17T10:02:57Z</time>
      </trkpt>
      <trkpt lat="47.04089" lon="2.2239">
        <ele>147</ele>
        <time>2018-04-17T10:03:01Z</time>
      </trkpt>
      <trkpt lat="47.04099" lon="2.22391">
        <ele>147</ele>
        <time>2018-04-17T10:03:03Z</time>
      </trkpt>
      <trkpt lat="47.04104" lon="2.22392">
        <ele>147</ele>
        <time>2018-04-17T10:03:04Z</time>
      </trkpt>
      <trkpt lat="47.04118" lon="2.22392">
        <ele>147</ele>
        <time>2018-04-17T10:03:07Z</time>
      </trkpt>
      <trkpt lat="47.04133" lon="2.22394">
        <ele>147</ele>
        <time>2018-04-17T10:03:10Z</time>
      </trkpt>
      <trkpt lat="47.04144" lon="2.22394">
        <ele>147</ele>
        <time>2018-04-17T10:03:12Z</time>
      </trkpt>
      <trkpt lat="47.04173" lon="2.22399">
        <ele>146</ele>
        <time>2018-04-17T10:03:15Z</time>
      </trkpt>
      <trkpt lat="47.04193" lon="2.22399">
        <ele>146</ele>
        <time>2018-04-17T10:03:18Z</time>
      </trkpt>
      <trkpt lat="47.04217" lon="2.22402">
        <ele>145</ele>
        <time>2018-04-17T10:03:22Z</time>
      </trkpt>
      <trkpt lat="47.04229" lon="2.22404">
        <ele>145</ele>
        <time>2018-04-17T10:03:24Z</time>
      </trkpt>
      <trkpt lat="47.04242" lon="2.22405">
        <ele>145</ele>
        <time>2018-04-17T10:03:26Z</time>
      </trkpt>
      <trkpt lat="47.04262" lon="2.22407">
        <ele>144</ele>
        <time>2018-04-17T10:03:29Z</time>
      </trkpt>
      <trkpt lat="47.04288" lon="2.22409">
        <ele>143</ele>
        <time>2018-04-17T10:03:33Z</time>
      </trkpt>
      <trkpt lat="47.04303" lon="2.2241">
        <ele>143</ele>
        <time>2018-04-17T10:03:36Z</time>
      </trkpt>
      <trkpt lat="47.04314" lon="2.22409">
        <ele>142</ele>
        <time>2018-04-17T10:03:38Z</time>
      </trkpt>
      <trkpt lat="47.0433" lon="2.22411">
        <ele>142</ele>
        <time>2018-04-17T10:03:42Z</time>
      </trkpt>
      <trkpt lat="47.04342" lon="2.22413">
        <ele>141</ele>
        <time>2018-04-17T10:03:46Z</time>
      </trkpt>
      <trkpt lat="47.04346" lon="2.22413">
        <ele>141</ele>
        <time>2018-04-17T10:03:47Z</time>
      </trkpt>
      <trkpt lat="47.04377" lon="2.22419">
        <ele>140</ele>
        <time>2018-04-17T10:03:55Z</time>
      </trkpt>
      <trkpt lat="47.04407" lon="2.2242">
        <ele>140</ele>
        <time>2018-04-17T10:04:02Z</time>
      </trkpt>
      <trkpt lat="47.0444" lon="2.22422">
        <ele>140</ele>
        <time>2018-04-17T10:04:10Z</time>
      </trkpt>
      <trkpt lat="47.04461" lon="2.22425">
        <ele>140</ele>
        <time>2018-04-17T10:04:16Z</time>
      </trkpt>
      <trkpt lat="47.04469" lon="2.22426">
        <ele>140</ele>
        <time>2018-04-17T10:04:18Z</time>
      </trkpt>
      <trkpt lat="47.0449" lon="2.22429">
        <ele>139</ele>
        <time>2018-04-17T10:04:24Z</time>
      </trkpt>
      <trkpt lat="47.04513" lon="2.22432">
        <ele>140</ele>
        <time>2018-04-17T10:04:30Z</time>
      </trkpt>
      <trkpt lat="47.04537" lon="2.22434">
        <ele>140</ele>
        <time>2018-04-17T10:04:36Z</time>
      </trkpt>
      <trkpt lat="47.04571" lon="2.22431">
        <ele>140</ele>
        <time>2018-04-17T10:04:44Z</time>
      </trkpt>
      <trkpt lat="47.04601" lon="2.22437">
        <ele>140</ele>
        <time>2018-04-17T10:04:50Z</time>
      </trkpt>
      <trkpt lat="47.04622" lon="2.22442">
        <ele>140</ele>
        <time>2018-04-17T10:04:54Z</time>
      </trkpt>
      <trkpt lat="47.0463" lon="2.22443">
        <ele>140</ele>
        <time>2018-04-17T10:04:56Z</time>
      </trkpt>
      <trkpt lat="47.0465" lon="2.22442">
        <ele>140</ele>
        <time>2018-04-17T10:05:01Z</time>
      </trkpt>
      <trkpt lat="47.04662" lon="2.22442">
        <ele>139</ele>
        <time>2018-04-17T10:05:04Z</time>
      </trkpt>
      <trkpt lat="47.04682" lon="2.22448">
        <ele>138</ele>
        <time>2018-04-17T10:05:08Z</time>
      </trkpt>
      <trkpt lat="47.04721" lon="2.22456">
        <ele>137</ele>
        <time>2018-04-17T10:05:15Z</time>
      </trkpt>
      <trkpt lat="47.04737" lon="2.22458">
        <ele>137</ele>
        <time>2018-04-17T10:05:18Z</time>
      </trkpt>
      <trkpt lat="47.04746" lon="2.22461">
        <ele>137</ele>
        <time>2018-04-17T10:05:20Z</time>
      </trkpt>
      <trkpt lat="47.04756" lon="2.22465">
        <ele>132</ele>
        <time>2018-04-17T10:05:22Z</time>
      </trkpt>
      <trkpt lat="47.04768" lon="2.22466">
        <ele>132</ele>
        <time>2018-04-17T10:05:24Z</time>
      </trkpt>
      <trkpt lat="47.0478" lon="2.22466">
        <ele>131</ele>
        <time>2018-04-17T10:05:26Z</time>
      </trkpt>
      <trkpt lat="47.04786" lon="2.22466">
        <ele>130</ele>
        <time>2018-04-17T10:05:27Z</time>
      </trkpt>
      <trkpt lat="47.04794" lon="2.22466">
        <ele>130</ele>
        <time>2018-04-17T10:05:28Z</time>
      </trkpt>
      <trkpt lat="47.0481" lon="2.22469">
        <ele>129</ele>
        <time>2018-04-17T10:05:30Z</time>
      </trkpt>
      <trkpt lat="47.04837" lon="2.22473">
        <ele>123</ele>
        <time>2018-04-17T10:05:33Z</time>
      </trkpt>
      <trkpt lat="47.04847" lon="2.22476">
        <ele>123</ele>
        <time>2018-04-17T10:05:34Z</time>
      </trkpt>
      <trkpt lat="47.04866" lon="2.2248">
        <ele>122</ele>
        <time>2018-04-17T10:05:36Z</time>
      </trkpt>
      <trkpt lat="47.04901" lon="2.22487">
        <ele>120</ele>
        <time>2018-04-17T10:05:40Z</time>
      </trkpt>
      <trkpt lat="47.04924" lon="2.22491">
        <ele>119</ele>
        <time>2018-04-17T10:05:43Z</time>
      </trkpt>
      <trkpt lat="47.04972" lon="2.225">
        <ele>118</ele>
        <time>2018-04-17T10:05:50Z</time>
      </trkpt>
      <trkpt lat="47.04984" lon="2.22502">
        <ele>118</ele>
        <time>2018-04-17T10:05:52Z</time>
      </trkpt>
      <trkpt lat="47.05024" lon="2.2251">
        <ele>118</ele>
        <time>2018-04-17T10:05:59Z</time>
      </trkpt>
      <trkpt lat="47.05063" lon="2.22516">
        <ele>118</ele>
        <time>2018-04-17T10:06:07Z</time>
      </trkpt>
      <trkpt lat="47.05067" lon="2.22519">
        <ele>118</ele>
        <time>2018-04-17T10:06:08Z</time>
      </trkpt>
      <trkpt lat="47.05077" lon="2.22521">
        <ele>118</ele>
        <time>2018-04-17T10:06:10Z</time>
      </trkpt>
      <trkpt lat="47.05081" lon="2.22519">
        <ele>118</ele>
        <time>2018-04-17T10:06:11Z</time>
      </trkpt>
      <trkpt lat="47.05094" lon="2.22525">
        <ele>119</ele>
        <time>2018-04-17T10:06:14Z</time>
      </trkpt>
      <trkpt lat="47.05104" lon="2.22526">
        <ele>119</ele>
        <time>2018-04-17T10:06:16Z</time>
      </trkpt>
      <trkpt lat="47.05128" lon="2.22529">
        <ele>119</ele>
        <time>2018-04-17T10:06:21Z</time>
      </trkpt>
      <trkpt lat="47.05137" lon="2.22529">
        <ele>120</ele>
        <time>2018-04-17T10:06:23Z</time>
      </trkpt>
      <trkpt lat="47.05155" lon="2.22533">
        <ele>120</ele>
        <time>2018-04-17T10:06:27Z</time>
      </trkpt>
      <trkpt lat="47.05163" lon="2.22535">
        <ele>120</ele>
        <time>2018-04-17T10:06:29Z</time>
      </trkpt>
      <trkpt lat="47.05176" lon="2.22539">
        <ele>121</ele>
        <time>2018-04-17T10:06:33Z</time>
      </trkpt>
      <trkpt lat="47.05179" lon="2.22539">
        <ele>121</ele>
        <time>2018-04-17T10:06:34Z</time>
      </trkpt>
      <trkpt lat="47.05186" lon="2.22545">
        <ele>121</ele>
        <time>2018-04-17T10:06:37Z</time>
      </trkpt>
      <trkpt lat="47.0519" lon="2.22549">
        <ele>122</ele>
        <time>2018-04-17T10:06:39Z</time>
      </trkpt>
      <trkpt lat="47.05203" lon="2.22562">
        <ele>122</ele>
        <time>2018-04-17T10:06:45Z</time>
      </trkpt>
      <trkpt lat="47.05213" lon="2.22567">
        <ele>122</ele>
        <time>2018-04-17T10:06:49Z</time>
      </trkpt>
      <trkpt lat="47.05217" lon="2.22572">
        <ele>122</ele>
        <time>2018-04-17T10:06:51Z</time>
      </trkpt>
      <trkpt lat="47.05218" lon="2.22575">
        <ele>122</ele>
        <time>2018-04-17T10:06:52Z</time>
      </trkpt>
      <trkpt lat="47.05222" lon="2.22586">
        <ele>122</ele>
        <time>2018-04-17T10:06:55Z</time>
      </trkpt>
      <trkpt lat="47.05234" lon="2.22622">
        <ele>122</ele>
        <time>2018-04-17T10:07:03Z</time>
      </trkpt>
      <trkpt lat="47.05249" lon="2.22657">
        <ele>122</ele>
        <time>2018-04-17T10:07:10Z</time>
      </trkpt>
      <trkpt lat="47.05259" lon="2.22675">
        <ele>122</ele>
        <time>2018-04-17T10:07:14Z</time>
      </trkpt>
      <trkpt lat="47.05261" lon="2.2268">
        <ele>122</ele>
        <time>2018-04-17T10:07:15Z</time>
      </trkpt>
      <trkpt lat="47.05268" lon="2.22693">
        <ele>122</ele>
        <time>2018-04-17T10:07:18Z</time>
      </trkpt>
      <trkpt lat="47.05278" lon="2.22709">
        <ele>122</ele>
        <time>2018-04-17T10:07:22Z</time>
      </trkpt>
      <trkpt lat="47.05295" lon="2.22741">
        <ele>122</ele>
        <time>2018-04-17T10:07:31Z</time>
      </trkpt>
      <trkpt lat="47.05296" lon="2.22743">
        <ele>122</ele>
        <time>2018-04-17T10:07:35Z</time>
      </trkpt>
      <trkpt lat="47.05296" lon="2.22742">
        <ele>122</ele>
        <time>2018-04-17T10:07:43Z</time>
      </trkpt>
      <trkpt lat="47.05296" lon="2.22742">
        <ele>122</ele>
        <time>2018-04-17T10:07:56Z</time>
      </trkpt>
      <trkpt lat="47.05296" lon="2.22742">
        <ele>122</ele>
        <time>2018-04-17T10:08:11Z</time>
      </trkpt>
      <trkpt lat="47.05296" lon="2.22743">
        <ele>122</ele>
        <time>2018-04-17T10:08:29Z</time>
      </trkpt>
      <trkpt lat="47.05296" lon="2.22743">
        <ele>122</ele>
        <time>2018-04-17T10:08:43Z</time>
      </trkpt>
      <trkpt lat="47.05297" lon="2.22742">
        <ele>122</ele>
        <time>2018-04-17T10:09:03Z</time>
      </trkpt>
      <trkpt lat="47.05296" lon="2.22743">
        <ele>122</ele>
        <time>2018-04-17T10:09:17Z</time>
      </trkpt>
      <trkpt lat="47.05294" lon="2.22744">
        <ele>122</ele>
        <time>2018-04-17T10:09:19Z</time>
      </trkpt>
      <trkpt lat="47.05294" lon="2.22746">
        <ele>122</ele>
        <time>2018-04-17T10:09:23Z</time>
      </trkpt>
      <trkpt lat="47.05294" lon="2.22746">
        <ele>122</ele>
        <time>2018-04-17T10:09:35Z</time>
      </trkpt>
      <trkpt lat="47.05294" lon="2.22746">
        <ele>122</ele>
        <time>2018-04-17T10:09:46Z</time>
      </trkpt>
      <trkpt lat="47.05294" lon="2.22746">
        <ele>122</ele>
        <time>2018-04-17T10:09:58Z</time>
      </trkpt>
      <trkpt lat="47.05294" lon="2.22746">
        <ele>122</ele>
        <time>2018-04-17T10:10:11Z</time>
      </trkpt>
      <trkpt lat="47.05294" lon="2.22746">
        <ele>122</ele>
        <time>2018-04-17T10:10:22Z</time>
      </trkpt>
      <trkpt lat="47.05294" lon="2.22746">
        <ele>122</ele>
        <time>2018-04-17T10:10:34Z</time>
      </trkpt>
      <trkpt lat="47.05294" lon="2.22746">
        <ele>122</ele>
        <time>2018-04-17T10:10:42Z</time>
      </trkpt>
      <trkpt lat="47.05294" lon="2.22746">
        <ele>122</ele>
        <time>2018-04-17T10:10:52Z</time>
      </trkpt>
      <trkpt lat="47.05294" lon="2.22746">
        <ele>122</ele>
        <time>2018-04-17T10:10:53Z</time>
      </trkpt>
      <trkpt lat="47.05294" lon="2.22746">
        <ele>122</ele>
        <time>2018-04-17T10:11:01Z</time>
      </trkpt>
      <trkpt lat="47.05294" lon="2.22746">
        <ele>122</ele>
        <time>2018-04-17T10:11:12Z</time>
      </trkpt>
      <trkpt lat="47.05295" lon="2.22746">
        <ele>122</ele>
        <time>2018-04-17T10:11:21Z</time>
      </trkpt>
      <trkpt lat="47.05295" lon="2.22746">
        <ele>122</ele>
        <time>2018-04-17T10:11:33Z</time>
      </trkpt>
      <trkpt lat="47.05295" lon="2.22746">
        <ele>122</ele>
        <time>2018-04-17T10:11:44Z</time>
      </trkpt>
      <trkpt lat="47.05295" lon="2.22746">
        <ele>122</ele>
        <time>2018-04-17T10:11:55Z</time>
      </trkpt>
      <trkpt lat="47.05295" lon="2.22746">
        <ele>122</ele>
        <time>2018-04-17T10:12:04Z</time>
      </trkpt>
      <trkpt lat="47.05295" lon="2.22746">
        <ele>122</ele>
        <time>2018-04-17T10:12:13Z</time>
      </trkpt>
      <trkpt lat="47.05295" lon="2.22746">
        <ele>122</ele>
        <time>2018-04-17T10:12:22Z</time>
      </trkpt>
      <trkpt lat="47.05295" lon="2.22746">
        <ele>122</ele>
        <time>2018-04-17T10:12:34Z</time>
      </trkpt>
      <trkpt lat="47.05295" lon="2.22746">
        <ele>122</ele>
        <time>2018-04-17T10:12:38Z</time>
      </trkpt>
      <trkpt lat="47.05295" lon="2.22746">
        <ele>122</ele>
        <time>2018-04-17T10:12:46Z</time>
      </trkpt>
      <trkpt lat="47.05295" lon="2.22746">
        <ele>122</ele>
        <time>2018-04-17T10:12:56Z</time>
      </trkpt>
      <trkpt lat="47.05295" lon="2.22746">
        <ele>122</ele>
        <time>2018-04-17T10:13:11Z</time>
      </trkpt>
      <trkpt lat="47.05295" lon="2.22746">
        <ele>122</ele>
        <time>2018-04-17T10:13:25Z</time>
      </trkpt>
      <trkpt lat="47.05295" lon="2.22746">
        <ele>122</ele>
        <time>2018-04-17T10:13:37Z</time>
      </trkpt>
      <trkpt lat="47.05297" lon="2.22749">
        <ele>122</ele>
        <time>2018-04-17T10:13:47Z</time>
      </trkpt>
      <trkpt lat="47.05306" lon="2.22766">
        <ele>122</ele>
        <time>2018-04-17T10:13:53Z</time>
      </trkpt>
      <trkpt lat="47.05321" lon="2.22792">
        <ele>121</ele>
        <time>2018-04-17T10:14:00Z</time>
      </trkpt>
      <trkpt lat="47.05456" lon="2.22892">
        <ele>126</ele>
        <time>2018-04-17T13:59:50Z</time>
      </trkpt>
      <trkpt lat="47.05456" lon="2.22892">
        <ele>126</ele>
        <time>2018-04-17T13:59:50Z</time>
      </trkpt>
      <trkpt lat="47.05459" lon="2.22888">
        <ele>126</ele>
        <time>2018-04-17T13:59:53Z</time>
      </trkpt>
      <trkpt lat="47.05463" lon="2.22882">
        <ele>126</ele>
        <time>2018-04-17T13:59:56Z</time>
      </trkpt>
      <trkpt lat="47.0547" lon="2.22867">
        <ele>126</ele>
        <time>2018-04-17T14:00:01Z</time>
      </trkpt>
      <trkpt lat="47.05475" lon="2.22856">
        <ele>126</ele>
        <time>2018-04-17T14:00:07Z</time>
      </trkpt>
      <trkpt lat="47.05475" lon="2.22855">
        <ele>126</ele>
        <time>2018-04-17T14:00:15Z</time>
      </trkpt>
      <trkpt lat="47.05476" lon="2.22849">
        <ele>126</ele>
        <time>2018-04-17T14:00:21Z</time>
      </trkpt>
      <trkpt lat="47.0548" lon="2.22837">
        <ele>126</ele>
        <time>2018-04-17T14:00:27Z</time>
      </trkpt>
      <trkpt lat="47.05482" lon="2.22829">
        <ele>126</ele>
        <time>2018-04-17T14:00:33Z</time>
      </trkpt>
      <trkpt lat="47.05482" lon="2.22829">
        <ele>126</ele>
        <time>2018-04-17T14:00:42Z</time>
      </trkpt>
      <trkpt lat="47.05482" lon="2.22829">
        <ele>126</ele>
        <time>2018-04-17T14:00:56Z</time>
      </trkpt>
      <trkpt lat="47.05482" lon="2.22829">
        <ele>126</ele>
        <time>2018-04-17T14:01:11Z</time>
      </trkpt>
      <trkpt lat="47.05482" lon="2.22829">
        <ele>126</ele>
        <time>2018-04-17T14:01:19Z</time>
      </trkpt>
      <trkpt lat="47.05482" lon="2.22829">
        <ele>126</ele>
        <time>2018-04-17T14:01:28Z</time>
      </trkpt>
      <trkpt lat="47.05482" lon="2.22829">
        <ele>126</ele>
        <time>2018-04-17T14:01:47Z</time>
      </trkpt>
      <trkpt lat="47.05482" lon="2.2283">
        <ele>126</ele>
        <time>2018-04-17T14:02:07Z</time>
      </trkpt>
      <trkpt lat="47.05482" lon="2.2283">
        <ele>126</ele>
        <time>2018-04-17T14:02:30Z</time>
      </trkpt>
      <trkpt lat="47.05482" lon="2.2283">
        <ele>126</ele>
        <time>2018-04-17T14:02:47Z</time>
      </trkpt>
      <trkpt lat="47.05482" lon="2.2283">
        <ele>126</ele>
        <time>2018-04-17T14:02:57Z</time>
      </trkpt>
      <trkpt lat="47.05482" lon="2.2283">
        <ele>126</ele>
        <time>2018-04-17T14:03:11Z</time>
      </trkpt>
      <trkpt lat="47.05482" lon="2.22829">
        <ele>126</ele>
        <time>2018-04-17T14:03:21Z</time>
      </trkpt>
      <trkpt lat="47.05484" lon="2.22827">
        <ele>126</ele>
        <time>2018-04-17T14:03:23Z</time>
      </trkpt>
      <trkpt lat="47.05489" lon="2.22813">
        <ele>126</ele>
        <time>2018-04-17T14:03:27Z</time>
      </trkpt>
      <trkpt lat="47.0549" lon="2.22808">
        <ele>126</ele>
        <time>2018-04-17T14:03:28Z</time>
      </trkpt>
      <trkpt lat="47.05498" lon="2.22775">
        <ele>126</ele>
        <time>2018-04-17T14:03:36Z</time>
      </trkpt>
      <trkpt lat="47.055" lon="2.22751">
        <ele>126</ele>
        <time>2018-04-17T14:03:42Z</time>
      </trkpt>
      <trkpt lat="47.055" lon="2.22747">
        <ele>126</ele>
        <time>2018-04-17T14:03:43Z</time>
      </trkpt>
      <trkpt lat="47.05498" lon="2.22708">
        <ele>126</ele>
        <time>2018-04-17T14:03:52Z</time>
      </trkpt>
      <trkpt lat="47.05497" lon="2.22699">
        <ele>127</ele>
        <time>2018-04-17T14:03:54Z</time>
      </trkpt>
      <trkpt lat="47.05496" lon="2.22676">
        <ele>127</ele>
        <time>2018-04-17T14:03:59Z</time>
      </trkpt>
      <trkpt lat="47.05494" lon="2.2264">
        <ele>127</ele>
        <time>2018-04-17T14:04:07Z</time>
      </trkpt>
      <trkpt lat="47.05492" lon="2.22612">
        <ele>128</ele>
        <time>2018-04-17T14:04:13Z</time>
      </trkpt>
      <trkpt lat="47.05489" lon="2.22587">
        <ele>128</ele>
        <time>2018-04-17T14:04:18Z</time>
      </trkpt>
      <trkpt lat="47.05486" lon="2.22552">
        <ele>128</ele>
        <time>2018-04-17T14:04:25Z</time>
      </trkpt>
      <trkpt lat="47.05488" lon="2.22512">
        <ele>129</ele>
        <time>2018-04-17T14:04:33Z</time>
      </trkpt>
      <trkpt lat="47.0549" lon="2.22489">
        <ele>129</ele>
        <time>2018-04-17T14:04:38Z</time>
      </trkpt>
      <trkpt lat="47.05492" lon="2.2248">
        <ele>129</ele>
        <time>2018-04-17T14:04:40Z</time>
      </trkpt>
      <trkpt lat="47.05496" lon="2.22453">
        <ele>129</ele>
        <time>2018-04-17T14:04:46Z</time>
      </trkpt>
      <trkpt lat="47.05497" lon="2.22401">
        <ele>130</ele>
        <time>2018-04-17T14:04:56Z</time>
      </trkpt>
      <trkpt lat="47.05497" lon="2.22393">
        <ele>130</ele>
        <time>2018-04-17T14:04:59Z</time>
      </trkpt>
      <trkpt lat="47.05498" lon="2.22391">
        <ele>130</ele>
        <time>2018-04-17T14:05:00Z</time>
      </trkpt>
      <trkpt lat="47.05497" lon="2.2238">
        <ele>131</ele>
        <time>2018-04-17T14:05:06Z</time>
      </trkpt>
      <trkpt lat="47.05496" lon="2.2236">
        <ele>131</ele>
        <time>2018-04-17T14:05:11Z</time>
      </trkpt>
      <trkpt lat="47.05493" lon="2.22318">
        <ele>133</ele>
        <time>2018-04-17T14:05:19Z</time>
      </trkpt>
      <trkpt lat="47.05494" lon="2.22285">
        <ele>133</ele>
        <time>2018-04-17T14:05:26Z</time>
      </trkpt>
      <trkpt lat="47.05496" lon="2.22243">
        <ele>135</ele>
        <time>2018-04-17T14:05:35Z</time>
      </trkpt>
      <trkpt lat="47.05495" lon="2.22238">
        <ele>135</ele>
        <time>2018-04-17T14:05:36Z</time>
      </trkpt>
      <trkpt lat="47.0549" lon="2.22213">
        <ele>136</ele>
        <time>2018-04-17T14:05:42Z</time>
      </trkpt>
      <trkpt lat="47.05481" lon="2.2219">
        <ele>136</ele>
        <time>2018-04-17T14:05:48Z</time>
      </trkpt>
      <trkpt lat="47.05478" lon="2.22186">
        <ele>136</ele>
        <time>2018-04-17T14:05:49Z</time>
      </trkpt>
      <trkpt lat="47.05465" lon="2.22173">
        <ele>136</ele>
        <time>2018-04-17T14:05:54Z</time>
      </trkpt>
      <trkpt lat="47.05447" lon="2.22163">
        <ele>138</ele>
        <time>2018-04-17T14:06:00Z</time>
      </trkpt>
      <trkpt lat="47.05441" lon="2.22159">
        <ele>138</ele>
        <time>2018-04-17T14:06:02Z</time>
      </trkpt>
      <trkpt lat="47.05436" lon="2.22154">
        <ele>138</ele>
        <time>2018-04-17T14:06:05Z</time>
      </trkpt>
      <trkpt lat="47.05424" lon="2.2215">
        <ele>139</ele>
        <time>2018-04-17T14:06:11Z</time>
      </trkpt>
      <trkpt lat="47.05412" lon="2.22137">
        <ele>138</ele>
        <time>2018-04-17T14:06:16Z</time>
      </trkpt>
      <trkpt lat="47.05409" lon="2.22128">
        <ele>137</ele>
        <time>2018-04-17T14:06:20Z</time>
      </trkpt>
      <trkpt lat="47.05408" lon="2.22126">
        <ele>137</ele>
        <time>2018-04-17T14:06:21Z</time>
      </trkpt>
      <trkpt lat="47.05406" lon="2.22124">
        <ele>137</ele>
        <time>2018-04-17T14:06:25Z</time>
      </trkpt>
      <trkpt lat="47.05406" lon="2.22122">
        <ele>137</ele>
        <time>2018-04-17T14:06:26Z</time>
      </trkpt>
      <trkpt lat="47.05406" lon="2.22122">
        <ele>137</ele>
        <time>2018-04-17T14:06:31Z</time>
      </trkpt>
      <trkpt lat="47.05406" lon="2.22122">
        <ele>137</ele>
        <time>2018-04-17T14:06:44Z</time>
      </trkpt>
      <trkpt lat="47.05406" lon="2.22122">
        <ele>137</ele>
        <time>2018-04-17T14:06:54Z</time>
      </trkpt>
      <trkpt lat="47.05406" lon="2.22123">
        <ele>137</ele>
        <time>2018-04-17T14:07:10Z</time>
      </trkpt>
      <trkpt lat="47.05406" lon="2.22123">
        <ele>137</ele>
        <time>2018-04-17T14:07:14Z</time>
      </trkpt>
      <trkpt lat="47.05407" lon="2.22125">
        <ele>137</ele>
        <time>2018-04-17T14:07:15Z</time>
      </trkpt>
      <trkpt lat="47.05415" lon="2.22142">
        <ele>138</ele>
        <time>2018-04-17T14:07:20Z</time>
      </trkpt>
      <trkpt lat="47.05419" lon="2.22148">
        <ele>139</ele>
        <time>2018-04-17T14:07:23Z</time>
      </trkpt>
      <trkpt lat="47.05421" lon="2.2215">
        <ele>139</ele>
        <time>2018-04-17T14:07:24Z</time>
      </trkpt>
      <trkpt lat="47.05431" lon="2.22153">
        <ele>138</ele>
        <time>2018-04-17T14:07:28Z</time>
      </trkpt>
      <trkpt lat="47.05431" lon="2.2215">
        <ele>138</ele>
        <time>2018-04-17T14:07:30Z</time>
      </trkpt>
      <trkpt lat="47.05431" lon="2.22147">
        <ele>138</ele>
        <time>2018-04-17T14:07:32Z</time>
      </trkpt>
      <trkpt lat="47.05427" lon="2.22141">
        <ele>138</ele>
        <time>2018-04-17T14:07:37Z</time>
      </trkpt>
      <trkpt lat="47.05417" lon="2.22129">
        <ele>138</ele>
        <time>2018-04-17T14:07:42Z</time>
      </trkpt>
      <trkpt lat="47.05408" lon="2.22107">
        <ele>137</ele>
        <time>2018-04-17T14:07:47Z</time>
      </trkpt>
      <trkpt lat="47.054" lon="2.22084">
        <ele>138</ele>
        <time>2018-04-17T14:07:52Z</time>
      </trkpt>
      <trkpt lat="47.05399" lon="2.22059">
        <ele>137</ele>
        <time>2018-04-17T14:07:57Z</time>
      </trkpt>
      <trkpt lat="47.05404" lon="2.2203">
        <ele>137</ele>
        <time>2018-04-17T14:08:03Z</time>
      </trkpt>
      <trkpt lat="47.0541" lon="2.21996">
        <ele>137</ele>
        <time>2018-04-17T14:08:10Z</time>
      </trkpt>
      <trkpt lat="47.05417" lon="2.21961">
        <ele>137</ele>
        <time>2018-04-17T14:08:17Z</time>
      </trkpt>
      <trkpt lat="47.05423" lon="2.21927">
        <ele>137</ele>
        <time>2018-04-17T14:08:24Z</time>
      </trkpt>
      <trkpt lat="47.05431" lon="2.21883">
        <ele>137</ele>
        <time>2018-04-17T14:08:32Z</time>
      </trkpt>
      <trkpt lat="47.05438" lon="2.21845">
        <ele>136</ele>
        <time>2018-04-17T14:08:40Z</time>
      </trkpt>
      <trkpt lat="47.05448" lon="2.21798">
        <ele>135</ele>
        <time>2018-04-17T14:08:50Z</time>
      </trkpt>
      <trkpt lat="47.05458" lon="2.21748">
        <ele>135</ele>
        <time>2018-04-17T14:09:00Z</time>
      </trkpt>
      <trkpt lat="47.05466" lon="2.21706">
        <ele>135</ele>
        <time>2018-04-17T14:09:08Z</time>
      </trkpt>
      <trkpt lat="47.05467" lon="2.21701">
        <ele>135</ele>
        <time>2018-04-17T14:09:09Z</time>
      </trkpt>
      <trkpt lat="47.05475" lon="2.2166">
        <ele>136</ele>
        <time>2018-04-17T14:09:17Z</time>
      </trkpt>
      <trkpt lat="47.05483" lon="2.21619">
        <ele>136</ele>
        <time>2018-04-17T14:09:25Z</time>
      </trkpt>
      <trkpt lat="47.0549" lon="2.21584">
        <ele>138</ele>
        <time>2018-04-17T14:09:32Z</time>
      </trkpt>
      <trkpt lat="47.05501" lon="2.21529">
        <ele>137</ele>
        <time>2018-04-17T14:09:43Z</time>
      </trkpt>
      <trkpt lat="47.05512" lon="2.21484">
        <ele>137</ele>
        <time>2018-04-17T14:09:52Z</time>
      </trkpt>
      <trkpt lat="47.05521" lon="2.21439">
        <ele>136</ele>
        <time>2018-04-17T14:10:01Z</time>
      </trkpt>
      <trkpt lat="47.05531" lon="2.21386">
        <ele>135</ele>
        <time>2018-04-17T14:10:11Z</time>
      </trkpt>
      <trkpt lat="47.05538" lon="2.21351">
        <ele>135</ele>
        <time>2018-04-17T14:10:18Z</time>
      </trkpt>
      <trkpt lat="47.05546" lon="2.21309">
        <ele>133</ele>
        <time>2018-04-17T14:10:27Z</time>
      </trkpt>
      <trkpt lat="47.05548" lon="2.21298">
        <ele>133</ele>
        <time>2018-04-17T14:10:29Z</time>
      </trkpt>
      <trkpt lat="47.0555" lon="2.2129">
        <ele>133</ele>
        <time>2018-04-17T14:10:32Z</time>
      </trkpt>
      <trkpt lat="47.05552" lon="2.2129">
        <ele>133</ele>
        <time>2018-04-17T14:10:33Z</time>
      </trkpt>
      <trkpt lat="47.05558" lon="2.21295">
        <ele>133</ele>
        <time>2018-04-17T14:10:37Z</time>
      </trkpt>
      <trkpt lat="47.05563" lon="2.21317">
        <ele>133</ele>
        <time>2018-04-17T14:10:42Z</time>
      </trkpt>
      <trkpt lat="47.05567" lon="2.21328">
        <ele>134</ele>
        <time>2018-04-17T14:10:44Z</time>
      </trkpt>
      <trkpt lat="47.05577" lon="2.21345">
        <ele>135</ele>
        <time>2018-04-17T14:10:48Z</time>
      </trkpt>
      <trkpt lat="47.05581" lon="2.21355">
        <ele>135</ele>
        <time>2018-04-17T14:10:51Z</time>
      </trkpt>
      <trkpt lat="47.05584" lon="2.21362">
        <ele>136</ele>
        <time>2018-04-17T14:10:53Z</time>
      </trkpt>
      <trkpt lat="47.05598" lon="2.2139">
        <ele>136</ele>
        <time>2018-04-17T14:11:01Z</time>
      </trkpt>
      <trkpt lat="47.0561" lon="2.21414">
        <ele>137</ele>
        <time>2018-04-17T14:11:07Z</time>
      </trkpt>
      <trkpt lat="47.05629" lon="2.21457">
        <ele>137</ele>
        <time>2018-04-17T14:11:17Z</time>
      </trkpt>
      <trkpt lat="47.05647" lon="2.21495">
        <ele>136</ele>
        <time>2018-04-17T14:11:25Z</time>
      </trkpt>
      <trkpt lat="47.0565" lon="2.215">
        <ele>136</ele>
        <time>2018-04-17T14:11:26Z</time>
      </trkpt>
      <trkpt lat="47.05674" lon="2.21547">
        <ele>135</ele>
        <time>2018-04-17T14:11:36Z</time>
      </trkpt>
      <trkpt lat="47.05696" lon="2.2158">
        <ele>135</ele>
        <time>2018-04-17T14:11:43Z</time>
      </trkpt>
      <trkpt lat="47.05716" lon="2.216">
        <ele>135</ele>
        <time>2018-04-17T14:11:48Z</time>
      </trkpt>
      <trkpt lat="47.05719" lon="2.21605">
        <ele>135</ele>
        <time>2018-04-17T14:11:49Z</time>
      </trkpt>
      <trkpt lat="47.05739" lon="2.2164">
        <ele>134</ele>
        <time>2018-04-17T14:11:55Z</time>
      </trkpt>
      <trkpt lat="47.05743" lon="2.21645">
        <ele>134</ele>
        <time>2018-04-17T14:11:56Z</time>
      </trkpt>
      <trkpt lat="47.05756" lon="2.21674">
        <ele>133</ele>
        <time>2018-04-17T14:12:01Z</time>
      </trkpt>
      <trkpt lat="47.05764" lon="2.21688">
        <ele>133</ele>
        <time>2018-04-17T14:12:05Z</time>
      </trkpt>
      <trkpt lat="47.05776" lon="2.21716">
        <ele>133</ele>
        <time>2018-04-17T14:12:11Z</time>
      </trkpt>
      <trkpt lat="47.05788" lon="2.21741">
        <ele>133</ele>
        <time>2018-04-17T14:12:16Z</time>
      </trkpt>
      <trkpt lat="47.05793" lon="2.2175">
        <ele>132</ele>
        <time>2018-04-17T14:12:18Z</time>
      </trkpt>
      <trkpt lat="47.05803" lon="2.21763">
        <ele>133</ele>
        <time>2018-04-17T14:12:21Z</time>
      </trkpt>
      <trkpt lat="47.05807" lon="2.21766">
        <ele>133</ele>
        <time>2018-04-17T14:12:22Z</time>
      </trkpt>
      <trkpt lat="47.05815" lon="2.21774">
        <ele>132</ele>
        <time>2018-04-17T14:12:24Z</time>
      </trkpt>
      <trkpt lat="47.0583" lon="2.21788">
        <ele>132</ele>
        <time>2018-04-17T14:12:28Z</time>
      </trkpt>
      <trkpt lat="47.0584" lon="2.21797">
        <ele>130</ele>
        <time>2018-04-17T14:12:31Z</time>
      </trkpt>
      <trkpt lat="47.0585" lon="2.21807">
        <ele>130</ele>
        <time>2018-04-17T14:12:34Z</time>
      </trkpt>
      <trkpt lat="47.05865" lon="2.21827">
        <ele>130</ele>
        <time>2018-04-17T14:12:39Z</time>
      </trkpt>
      <trkpt lat="47.05869" lon="2.21832">
        <ele>130</ele>
        <time>2018-04-17T14:12:40Z</time>
      </trkpt>
      <trkpt lat="47.05883" lon="2.2184">
        <ele>129</ele>
        <time>2018-04-17T14:12:44Z</time>
      </trkpt>
      <trkpt lat="47.05886" lon="2.21838">
        <ele>129</ele>
        <time>2018-04-17T14:12:45Z</time>
      </trkpt>
      <trkpt lat="47.05895" lon="2.21823">
        <ele>129</ele>
        <time>2018-04-17T14:12:48Z</time>
      </trkpt>
      <trkpt lat="47.05899" lon="2.21812">
        <ele>129</ele>
        <time>2018-04-17T14:12:50Z</time>
      </trkpt>
      <trkpt lat="47.05905" lon="2.21796">
        <ele>129</ele>
        <time>2018-04-17T14:12:53Z</time>
      </trkpt>
      <trkpt lat="47.05924" lon="2.21754">
        <ele>127</ele>
        <time>2018-04-17T14:13:01Z</time>
      </trkpt>
      <trkpt lat="47.05942" lon="2.21711">
        <ele>130</ele>
        <time>2018-04-17T14:13:09Z</time>
      </trkpt>
      <trkpt lat="47.05962" lon="2.21676">
        <ele>131</ele>
        <time>2018-04-17T14:13:17Z</time>
      </trkpt>
      <trkpt lat="47.05976" lon="2.21677">
        <ele>131</ele>
        <time>2018-04-17T14:13:21Z</time>
      </trkpt>
      <trkpt lat="47.05999" lon="2.21689">
        <ele>131</ele>
        <time>2018-04-17T14:13:26Z</time>
      </trkpt>
      <trkpt lat="47.06007" lon="2.21693">
        <ele>132</ele>
        <time>2018-04-17T14:13:28Z</time>
      </trkpt>
      <trkpt lat="47.06033" lon="2.21707">
        <ele>132</ele>
        <time>2018-04-17T14:13:34Z</time>
      </trkpt>
      <trkpt lat="47.06068" lon="2.21727">
        <ele>131</ele>
        <time>2018-04-17T14:13:42Z</time>
      </trkpt>
      <trkpt lat="47.06093" lon="2.21741">
        <ele>131</ele>
        <time>2018-04-17T14:13:48Z</time>
      </trkpt>
      <trkpt lat="47.06101" lon="2.21744">
        <ele>131</ele>
        <time>2018-04-17T14:13:50Z</time>
      </trkpt>
      <trkpt lat="47.06119" lon="2.21755">
        <ele>129</ele>
        <time>2018-04-17T14:13:54Z</time>
      </trkpt>
      <trkpt lat="47.06135" lon="2.21766">
        <ele>129</ele>
        <time>2018-04-17T14:13:59Z</time>
      </trkpt>
      <trkpt lat="47.06151" lon="2.21774">
        <ele>129</ele>
        <time>2018-04-17T14:14:04Z</time>
      </trkpt>
      <trkpt lat="47.0618" lon="2.21791">
        <ele>129</ele>
        <time>2018-04-17T14:14:11Z</time>
      </trkpt>
      <trkpt lat="47.06215" lon="2.21811">
        <ele>129</ele>
        <time>2018-04-17T14:14:20Z</time>
      </trkpt>
      <trkpt lat="47.06258" lon="2.21835">
        <ele>128</ele>
        <time>2018-04-17T14:14:30Z</time>
      </trkpt>
      <trkpt lat="47.06277" lon="2.21845">
        <ele>128</ele>
        <time>2018-04-17T14:14:34Z</time>
      </trkpt>
      <trkpt lat="47.06301" lon="2.21858">
        <ele>128</ele>
        <time>2018-04-17T14:14:39Z</time>
      </trkpt>
      <trkpt lat="47.0634" lon="2.21881">
        <ele>128</ele>
        <time>2018-04-17T14:14:47Z</time>
      </trkpt>
      <trkpt lat="47.06346" lon="2.21883">
        <ele>128</ele>
        <time>2018-04-17T14:14:48Z</time>
      </trkpt>
      <trkpt lat="47.06365" lon="2.21898">
        <ele>128</ele>
        <time>2018-04-17T14:14:52Z</time>
      </trkpt>
      <trkpt lat="47.06368" lon="2.21904">
        <ele>128</ele>
        <time>2018-04-17T14:14:53Z</time>
      </trkpt>
      <trkpt lat="47.06374" lon="2.21918">
        <ele>127</ele>
        <time>2018-04-17T14:14:55Z</time>
      </trkpt>
      <trkpt lat="47.06377" lon="2.21925">
        <ele>127</ele>
        <time>2018-04-17T14:14:56Z</time>
      </trkpt>
      <trkpt lat="47.06382" lon="2.21939">
        <ele>127</ele>
        <time>2018-04-17T14:14:58Z</time>
      </trkpt>
      <trkpt lat="47.06387" lon="2.21953">
        <ele>127</ele>
        <time>2018-04-17T14:15:00Z</time>
      </trkpt>
      <trkpt lat="47.06402" lon="2.21989">
        <ele>127</ele>
        <time>2018-04-17T14:15:06Z</time>
      </trkpt>
      <trkpt lat="47.06407" lon="2.22004">
        <ele>126</ele>
        <time>2018-04-17T14:15:09Z</time>
      </trkpt>
      <trkpt lat="47.06409" lon="2.2201">
        <ele>126</ele>
        <time>2018-04-17T14:15:10Z</time>
      </trkpt>
      <trkpt lat="47.06411" lon="2.22016">
        <ele>126</ele>
        <time>2018-04-17T14:15:11Z</time>
      </trkpt>
      <trkpt lat="47.0642" lon="2.22044">
        <ele>126</ele>
        <time>2018-04-17T14:15:16Z</time>
      </trkpt>
      <trkpt lat="47.06427" lon="2.22071">
        <ele>125</ele>
        <time>2018-04-17T14:15:21Z</time>
      </trkpt>
      <trkpt lat="47.06439" lon="2.22093">
        <ele>124</ele>
        <time>2018-04-17T14:15:26Z</time>
      </trkpt>
      <trkpt lat="47.06448" lon="2.22114">
        <ele>124</ele>
        <time>2018-04-17T14:15:31Z</time>
      </trkpt>
      <trkpt lat="47.06458" lon="2.22141">
        <ele>124</ele>
        <time>2018-04-17T14:15:37Z</time>
      </trkpt>
      <trkpt lat="47.06467" lon="2.22168">
        <ele>123</ele>
        <time>2018-04-17T14:15:43Z</time>
      </trkpt>
      <trkpt lat="47.06475" lon="2.22186">
        <ele>123</ele>
        <time>2018-04-17T14:15:49Z</time>
      </trkpt>
      <trkpt lat="47.06479" lon="2.22184">
        <ele>123</ele>
        <time>2018-04-17T14:15:51Z</time>
      </trkpt>
      <trkpt lat="47.06482" lon="2.22181">
        <ele>123</ele>
        <time>2018-04-17T14:15:53Z</time>
      </trkpt>
      <trkpt lat="47.06496" lon="2.22167">
        <ele>123</ele>
        <time>2018-04-17T14:15:59Z</time>
      </trkpt>
      <trkpt lat="47.06508" lon="2.22154">
        <ele>123</ele>
        <time>2018-04-17T14:16:05Z</time>
      </trkpt>
      <trkpt lat="47.06519" lon="2.22133">
        <ele>124</ele>
        <time>2018-04-17T14:16:11Z</time>
      </trkpt>
      <trkpt lat="47.06536" lon="2.22096">
        <ele>124</ele>
        <time>2018-04-17T14:16:20Z</time>
      </trkpt>
      <trkpt lat="47.06544" lon="2.22077">
        <ele>126</ele>
        <time>2018-04-17T14:16:25Z</time>
      </trkpt>
      <trkpt lat="47.06556" lon="2.22053">
        <ele>126</ele>
        <time>2018-04-17T14:16:31Z</time>
      </trkpt>
      <trkpt lat="47.06569" lon="2.22028">
        <ele>126</ele>
        <time>2018-04-17T14:16:38Z</time>
      </trkpt>
      <trkpt lat="47.06584" lon="2.21998">
        <ele>125</ele>
        <time>2018-04-17T14:16:45Z</time>
      </trkpt>
      <trkpt lat="47.06598" lon="2.21966">
        <ele>125</ele>
        <time>2018-04-17T14:16:52Z</time>
      </trkpt>
      <trkpt lat="47.0661" lon="2.2194">
        <ele>125</ele>
        <time>2018-04-17T14:16:59Z</time>
      </trkpt>
      <trkpt lat="47.06615" lon="2.21931">
        <ele>125</ele>
        <time>2018-04-17T14:17:05Z</time>
      </trkpt>
      <trkpt lat="47.06621" lon="2.21922">
        <ele>125</ele>
        <time>2018-04-17T14:17:11Z</time>
      </trkpt>
      <trkpt lat="47.06629" lon="2.21921">
        <ele>124</ele>
        <time>2018-04-17T14:17:15Z</time>
      </trkpt>
      <trkpt lat="47.0663" lon="2.21923">
        <ele>124</ele>
        <time>2018-04-17T14:17:16Z</time>
      </trkpt>
      <trkpt lat="47.06636" lon="2.21936">
        <ele>124</ele>
        <time>2018-04-17T14:17:22Z</time>
      </trkpt>
      <trkpt lat="47.06638" lon="2.21941">
        <ele>124</ele>
        <time>2018-04-17T14:17:25Z</time>
      </trkpt>
      <trkpt lat="47.0664" lon="2.21944">
        <ele>124</ele>
        <time>2018-04-17T14:17:27Z</time>
      </trkpt>
      <trkpt lat="47.0664" lon="2.21944">
        <ele>124</ele>
        <time>2018-04-17T14:17:32Z</time>
      </trkpt>
      <trkpt lat="47.0664" lon="2.21944">
        <ele>124</ele>
        <time>2018-04-17T14:17:46Z</time>
      </trkpt>
      <trkpt lat="47.0664" lon="2.21944">
        <ele>124</ele>
        <time>2018-04-17T14:17:57Z</time>
      </trkpt>
      <trkpt lat="47.0664" lon="2.21944">
        <ele>124</ele>
        <time>2018-04-17T14:18:07Z</time>
      </trkpt>
      <trkpt lat="47.0664" lon="2.21943">
        <ele>124</ele>
        <time>2018-04-17T14:18:16Z</time>
      </trkpt>
      <trkpt lat="47.0664" lon="2.21943">
        <ele>124</ele>
        <time>2018-04-17T14:18:29Z</time>
      </trkpt>
      <trkpt lat="47.0664" lon="2.21943">
        <ele>124</ele>
        <time>2018-04-17T14:18:44Z</time>
      </trkpt>
      <trkpt lat="47.0664" lon="2.21943">
        <ele>124</ele>
        <time>2018-04-17T14:18:54Z</time>
      </trkpt>
      <trkpt lat="47.0664" lon="2.21943">
        <ele>124</ele>
        <time>2018-04-17T14:19:05Z</time>
      </trkpt>
      <trkpt lat="47.0664" lon="2.21943">
        <ele>124</ele>
        <time>2018-04-17T14:19:18Z</time>
      </trkpt>
      <trkpt lat="47.0664" lon="2.21944">
        <ele>124</ele>
        <time>2018-04-17T14:19:32Z</time>
      </trkpt>
      <trkpt lat="47.0664" lon="2.21944">
        <ele>124</ele>
        <time>2018-04-17T14:19:47Z</time>
      </trkpt>
      <trkpt lat="47.0664" lon="2.21944">
        <ele>124</ele>
        <time>2018-04-17T14:20:01Z</time>
      </trkpt>
      <trkpt lat="47.0664" lon="2.21944">
        <ele>124</ele>
        <time>2018-04-17T14:20:15Z</time>
      </trkpt>
      <trkpt lat="47.0664" lon="2.21944">
        <ele>124</ele>
        <time>2018-04-17T14:20:27Z</time>
      </trkpt>
      <trkpt lat="47.0664" lon="2.21944">
        <ele>124</ele>
        <time>2018-04-17T14:20:32Z</time>
      </trkpt>
      <trkpt lat="47.0664" lon="2.21944">
        <ele>124</ele>
        <time>2018-04-17T14:20:45Z</time>
      </trkpt>
      <trkpt lat="47.0664" lon="2.21943">
        <ele>124</ele>
        <time>2018-04-17T14:20:53Z</time>
      </trkpt>
      <trkpt lat="47.06638" lon="2.2194">
        <ele>124</ele>
        <time>2018-04-17T14:21:04Z</time>
      </trkpt>
      <trkpt lat="47.06635" lon="2.21935">
        <ele>124</ele>
        <time>2018-04-17T14:21:10Z</time>
      </trkpt>
      <trkpt lat="47.06629" lon="2.21923">
        <ele>124</ele>
        <time>2018-04-17T14:21:18Z</time>
      </trkpt>
      <trkpt lat="47.06623" lon="2.21914">
        <ele>126</ele>
        <time>2018-04-17T14:21:23Z</time>
      </trkpt>
      <trkpt lat="47.06626" lon="2.21907">
        <ele>126</ele>
        <time>2018-04-17T14:21:27Z</time>
      </trkpt>
      <trkpt lat="47.06629" lon="2.21901">
        <ele>126</ele>
        <time>2018-04-17T14:21:31Z</time>
      </trkpt>
      <trkpt lat="47.06631" lon="2.21898">
        <ele>126</ele>
        <time>2018-04-17T14:21:33Z</time>
      </trkpt>
      <trkpt lat="47.06637" lon="2.21887">
        <ele>126</ele>
        <time>2018-04-17T14:21:39Z</time>
      </trkpt>
      <trkpt lat="47.06643" lon="2.21873">
        <ele>126</ele>
        <time>2018-04-17T14:21:44Z</time>
      </trkpt>
      <trkpt lat="47.06652" lon="2.21854">
        <ele>125</ele>
        <time>2018-04-17T14:21:50Z</time>
      </trkpt>
      <trkpt lat="47.06661" lon="2.21835">
        <ele>124</ele>
        <time>2018-04-17T14:21:57Z</time>
      </trkpt>
      <trkpt lat="47.06669" lon="2.21813">
        <ele>123</ele>
        <time>2018-04-17T14:22:04Z</time>
      </trkpt>
      <trkpt lat="47.06673" lon="2.21783">
        <ele>123</ele>
        <time>2018-04-17T14:22:13Z</time>
      </trkpt>
      <trkpt lat="47.06672" lon="2.21755">
        <ele>124</ele>
        <time>2018-04-17T14:22:21Z</time>
      </trkpt>
      <trkpt lat="47.06673" lon="2.21753">
        <ele>124</ele>
        <time>2018-04-17T14:22:22Z</time>
      </trkpt>
      <trkpt lat="47.06672" lon="2.21744">
        <ele>124</ele>
        <time>2018-04-17T14:22:26Z</time>
      </trkpt>
      <trkpt lat="47.06673" lon="2.21724">
        <ele>124</ele>
        <time>2018-04-17T14:22:32Z</time>
      </trkpt>
      <trkpt lat="47.06677" lon="2.21709">
        <ele>124</ele>
        <time>2018-04-17T14:22:36Z</time>
      </trkpt>
      <trkpt lat="47.06683" lon="2.2168">
        <ele>124</ele>
        <time>2018-04-17T14:22:43Z</time>
      </trkpt>
      <trkpt lat="47.06689" lon="2.21657">
        <ele>125</ele>
        <time>2018-04-17T14:22:49Z</time>
      </trkpt>
      <trkpt lat="47.06689" lon="2.21654">
        <ele>125</ele>
        <time>2018-04-17T14:22:50Z</time>
      </trkpt>
      <trkpt lat="47.06693" lon="2.21637">
        <ele>124</ele>
        <time>2018-04-17T14:22:55Z</time>
      </trkpt>
      <trkpt lat="47.06698" lon="2.21617">
        <ele>124</ele>
        <time>2018-04-17T14:23:01Z</time>
      </trkpt>
      <trkpt lat="47.06705" lon="2.21587">
        <ele>124</ele>
        <time>2018-04-17T14:23:09Z</time>
      </trkpt>
      <trkpt lat="47.0671" lon="2.21565">
        <ele>125</ele>
        <time>2018-04-17T14:23:15Z</time>
      </trkpt>
      <trkpt lat="47.06715" lon="2.21541">
        <ele>125</ele>
        <time>2018-04-17T14:23:21Z</time>
      </trkpt>
      <trkpt lat="47.06715" lon="2.21513">
        <ele>125</ele>
        <time>2018-04-17T14:23:28Z</time>
      </trkpt>
      <trkpt lat="47.06713" lon="2.2149">
        <ele>125</ele>
        <time>2018-04-17T14:23:34Z</time>
      </trkpt>
      <trkpt lat="47.06713" lon="2.2146">
        <ele>125</ele>
        <time>2018-04-17T14:23:42Z</time>
      </trkpt>
      <trkpt lat="47.06712" lon="2.21435">
        <ele>125</ele>
        <time>2018-04-17T14:23:49Z</time>
      </trkpt>
      <trkpt lat="47.06713" lon="2.21405">
        <ele>125</ele>
        <time>2018-04-17T14:23:57Z</time>
      </trkpt>
      <trkpt lat="47.06712" lon="2.21373">
        <ele>124</ele>
        <time>2018-04-17T14:24:05Z</time>
      </trkpt>
      <trkpt lat="47.06711" lon="2.21348">
        <ele>124</ele>
        <time>2018-04-17T14:24:12Z</time>
      </trkpt>
      <trkpt lat="47.0671" lon="2.21322">
        <ele>123</ele>
        <time>2018-04-17T14:24:19Z</time>
      </trkpt>
      <trkpt lat="47.06708" lon="2.21298">
        <ele>124</ele>
        <time>2018-04-17T14:24:25Z</time>
      </trkpt>
      <trkpt lat="47.06707" lon="2.21277">
        <ele>124</ele>
        <time>2018-04-17T14:24:31Z</time>
      </trkpt>
      <trkpt lat="47.06707" lon="2.2125">
        <ele>124</ele>
        <time>2018-04-17T14:24:38Z</time>
      </trkpt>
      <trkpt lat="47.0671" lon="2.21237">
        <ele>123</ele>
        <time>2018-04-17T14:24:41Z</time>
      </trkpt>
      <trkpt lat="47.06716" lon="2.21218">
        <ele>123</ele>
        <time>2018-04-17T14:24:46Z</time>
      </trkpt>
      <trkpt lat="47.06731" lon="2.21197">
        <ele>123</ele>
        <time>2018-04-17T14:24:53Z</time>
      </trkpt>
      <trkpt lat="47.06745" lon="2.21177">
        <ele>121</ele>
        <time>2018-04-17T14:25:00Z</time>
      </trkpt>
      <trkpt lat="47.06761" lon="2.21151">
        <ele>119</ele>
        <time>2018-04-17T14:25:08Z</time>
      </trkpt>
      <trkpt lat="47.06772" lon="2.21124">
        <ele>119</ele>
        <time>2018-04-17T14:25:15Z</time>
      </trkpt>
      <trkpt lat="47.06779" lon="2.211">
        <ele>119</ele>
        <time>2018-04-17T14:25:21Z</time>
      </trkpt>
      <trkpt lat="47.0679" lon="2.21062">
        <ele>118</ele>
        <time>2018-04-17T14:25:30Z</time>
      </trkpt>
      <trkpt lat="47.06799" lon="2.21033">
        <ele>118</ele>
        <time>2018-04-17T14:25:37Z</time>
      </trkpt>
      <trkpt lat="47.06804" lon="2.21006">
        <ele>118</ele>
        <time>2018-04-17T14:25:43Z</time>
      </trkpt>
      <trkpt lat="47.06809" lon="2.20988">
        <ele>118</ele>
        <time>2018-04-17T14:25:48Z</time>
      </trkpt>
      <trkpt lat="47.0681" lon="2.20987">
        <ele>118</ele>
        <time>2018-04-17T14:25:49Z</time>
      </trkpt>
      <trkpt lat="47.06812" lon="2.20981">
        <ele>118</ele>
        <time>2018-04-17T14:25:52Z</time>
      </trkpt>
      <trkpt lat="47.06813" lon="2.20974">
        <ele>118</ele>
        <time>2018-04-17T14:25:55Z</time>
      </trkpt>
      <trkpt lat="47.06815" lon="2.20954">
        <ele>118</ele>
        <time>2018-04-17T14:26:01Z</time>
      </trkpt>
      <trkpt lat="47.06814" lon="2.20928">
        <ele>118</ele>
        <time>2018-04-17T14:26:08Z</time>
      </trkpt>
      <trkpt lat="47.06813" lon="2.20901">
        <ele>118</ele>
        <time>2018-04-17T14:26:15Z</time>
      </trkpt>
      <trkpt lat="47.06812" lon="2.20873">
        <ele>118</ele>
        <time>2018-04-17T14:26:22Z</time>
      </trkpt>
      <trkpt lat="47.06815" lon="2.20839">
        <ele>119</ele>
        <time>2018-04-17T14:26:30Z</time>
      </trkpt>
      <trkpt lat="47.06824" lon="2.20823">
        <ele>119</ele>
        <time>2018-04-17T14:26:35Z</time>
      </trkpt>
      <trkpt lat="47.06842" lon="2.20797">
        <ele>119</ele>
        <time>2018-04-17T14:26:43Z</time>
      </trkpt>
      <trkpt lat="47.0686" lon="2.2077">
        <ele>118</ele>
        <time>2018-04-17T14:26:51Z</time>
      </trkpt>
      <trkpt lat="47.06872" lon="2.20745">
        <ele>118</ele>
        <time>2018-04-17T14:26:59Z</time>
      </trkpt>
      <trkpt lat="47.06873" lon="2.20728">
        <ele>118</ele>
        <time>2018-04-17T14:27:03Z</time>
      </trkpt>
      <trkpt lat="47.06864" lon="2.20703">
        <ele>118</ele>
        <time>2018-04-17T14:27:09Z</time>
      </trkpt>
      <trkpt lat="47.06849" lon="2.20669">
        <ele>119</ele>
        <time>2018-04-17T14:27:18Z</time>
      </trkpt>
      <trkpt lat="47.06834" lon="2.20643">
        <ele>119</ele>
        <time>2018-04-17T14:27:25Z</time>
      </trkpt>
      <trkpt lat="47.06811" lon="2.20608">
        <ele>120</ele>
        <time>2018-04-17T14:27:36Z</time>
      </trkpt>
      <trkpt lat="47.06802" lon="2.20596">
        <ele>120</ele>
        <time>2018-04-17T14:27:40Z</time>
      </trkpt>
      <trkpt lat="47.06793" lon="2.20582">
        <ele>120</ele>
        <time>2018-04-17T14:27:45Z</time>
      </trkpt>
      <trkpt lat="47.06787" lon="2.20574">
        <ele>121</ele>
        <time>2018-04-17T14:27:49Z</time>
      </trkpt>
      <trkpt lat="47.06785" lon="2.20569">
        <ele>121</ele>
        <time>2018-04-17T14:27:51Z</time>
      </trkpt>
      <trkpt lat="47.06785" lon="2.20566">
        <ele>121</ele>
        <time>2018-04-17T14:27:52Z</time>
      </trkpt>
      <trkpt lat="47.06788" lon="2.20558">
        <ele>121</ele>
        <time>2018-04-17T14:27:55Z</time>
      </trkpt>
      <trkpt lat="47.06802" lon="2.20532">
        <ele>121</ele>
        <time>2018-04-17T14:28:02Z</time>
      </trkpt>
      <trkpt lat="47.06807" lon="2.20492">
        <ele>121</ele>
        <time>2018-04-17T14:28:10Z</time>
      </trkpt>
      <trkpt lat="47.06808" lon="2.20454">
        <ele>120</ele>
        <time>2018-04-17T14:28:18Z</time>
      </trkpt>
      <trkpt lat="47.06807" lon="2.20428">
        <ele>120</ele>
        <time>2018-04-17T14:28:25Z</time>
      </trkpt>
      <trkpt lat="47.06815" lon="2.20413">
        <ele>119</ele>
        <time>2018-04-17T14:28:30Z</time>
      </trkpt>
      <trkpt lat="47.06829" lon="2.20408">
        <ele>120</ele>
        <time>2018-04-17T14:28:34Z</time>
      </trkpt>
      <trkpt lat="47.06848" lon="2.204">
        <ele>119</ele>
        <time>2018-04-17T14:28:39Z</time>
      </trkpt>
      <trkpt lat="47.06861" lon="2.20395">
        <ele>118</ele>
        <time>2018-04-17T14:28:42Z</time>
      </trkpt>
      <trkpt lat="47.06865" lon="2.20394">
        <ele>118</ele>
        <time>2018-04-17T14:28:43Z</time>
      </trkpt>
      <trkpt lat="47.06898" lon="2.20381">
        <ele>118</ele>
        <time>2018-04-17T14:28:50Z</time>
      </trkpt>
      <trkpt lat="47.06908" lon="2.20377">
        <ele>118</ele>
        <time>2018-04-17T14:28:52Z</time>
      </trkpt>
      <trkpt lat="47.06922" lon="2.20372">
        <ele>117</ele>
        <time>2018-04-17T14:28:55Z</time>
      </trkpt>
      <trkpt lat="47.06941" lon="2.20364">
        <ele>116</ele>
        <time>2018-04-17T14:28:59Z</time>
      </trkpt>
      <trkpt lat="47.06982" lon="2.20351">
        <ele>116</ele>
        <time>2018-04-17T14:29:08Z</time>
      </trkpt>
      <trkpt lat="47.07019" lon="2.20337">
        <ele>114</ele>
        <time>2018-04-17T14:29:16Z</time>
      </trkpt>
      <trkpt lat="47.07056" lon="2.20325">
        <ele>114</ele>
        <time>2018-04-17T14:29:24Z</time>
      </trkpt>
      <trkpt lat="47.07079" lon="2.20316">
        <ele>114</ele>
        <time>2018-04-17T14:29:30Z</time>
      </trkpt>
      <trkpt lat="47.07101" lon="2.20308">
        <ele>114</ele>
        <time>2018-04-17T14:29:36Z</time>
      </trkpt>
      <trkpt lat="47.07128" lon="2.20297">
        <ele>114</ele>
        <time>2018-04-17T14:29:43Z</time>
      </trkpt>
      <trkpt lat="47.07176" lon="2.2028">
        <ele>115</ele>
        <time>2018-04-17T14:29:56Z</time>
      </trkpt>
      <trkpt lat="47.07208" lon="2.20268">
        <ele>115</ele>
        <time>2018-04-17T14:30:05Z</time>
      </trkpt>
      <trkpt lat="47.07251" lon="2.20252">
        <ele>116</ele>
        <time>2018-04-17T14:30:16Z</time>
      </trkpt>
      <trkpt lat="47.07283" lon="2.20241">
        <ele>116</ele>
        <time>2018-04-17T14:30:24Z</time>
      </trkpt>
      <trkpt lat="47.0732" lon="2.20227">
        <ele>116</ele>
        <time>2018-04-17T14:30:33Z</time>
      </trkpt>
      <trkpt lat="47.07363" lon="2.20213">
        <ele>116</ele>
        <time>2018-04-17T14:30:43Z</time>
      </trkpt>
      <trkpt lat="47.07393" lon="2.20202">
        <ele>117</ele>
        <time>2018-04-17T14:30:50Z</time>
      </trkpt>
      <trkpt lat="47.07416" lon="2.20194">
        <ele>117</ele>
        <time>2018-04-17T14:30:56Z</time>
      </trkpt>
      <trkpt lat="47.07456" lon="2.20179">
        <ele>116</ele>
        <time>2018-04-17T14:31:06Z</time>
      </trkpt>
      <trkpt lat="47.07488" lon="2.20168">
        <ele>115</ele>
        <time>2018-04-17T14:31:14Z</time>
      </trkpt>
      <trkpt lat="47.07527" lon="2.20154">
        <ele>114</ele>
        <time>2018-04-17T14:31:23Z</time>
      </trkpt>
      <trkpt lat="47.07564" lon="2.20141">
        <ele>114</ele>
        <time>2018-04-17T14:31:32Z</time>
      </trkpt>
      <trkpt lat="47.07568" lon="2.20139">
        <ele>114</ele>
        <time>2018-04-17T14:31:33Z</time>
      </trkpt>
      <trkpt lat="47.0761" lon="2.20123">
        <ele>114</ele>
        <time>2018-04-17T14:31:44Z</time>
      </trkpt>
      <trkpt lat="47.07637" lon="2.2011">
        <ele>114</ele>
        <time>2018-04-17T14:31:51Z</time>
      </trkpt>
      <trkpt lat="47.07657" lon="2.201">
        <ele>114</ele>
        <time>2018-04-17T14:31:56Z</time>
      </trkpt>
      <trkpt lat="47.07665" lon="2.20096">
        <ele>114</ele>
        <time>2018-04-17T14:31:58Z</time>
      </trkpt>
      <trkpt lat="47.07674" lon="2.20091">
        <ele>115</ele>
        <time>2018-04-17T14:32:00Z</time>
      </trkpt>
      <trkpt lat="47.07718" lon="2.20066">
        <ele>115</ele>
        <time>2018-04-17T14:32:10Z</time>
      </trkpt>
      <trkpt lat="47.07756" lon="2.20044">
        <ele>117</ele>
        <time>2018-04-17T14:32:18Z</time>
      </trkpt>
      <trkpt lat="47.07799" lon="2.20022">
        <ele>118</ele>
        <time>2018-04-17T14:32:27Z</time>
      </trkpt>
      <trkpt lat="47.07846" lon="2.19996">
        <ele>119</ele>
        <time>2018-04-17T14:32:37Z</time>
      </trkpt>
      <trkpt lat="47.07864" lon="2.19985">
        <ele>119</ele>
        <time>2018-04-17T14:32:41Z</time>
      </trkpt>
      <trkpt lat="47.07885" lon="2.19972">
        <ele>119</ele>
        <time>2018-04-17T14:32:46Z</time>
      </trkpt>
      <trkpt lat="47.07911" lon="2.19952">
        <ele>120</ele>
        <time>2018-04-17T14:32:53Z</time>
      </trkpt>
      <trkpt lat="47.07915" lon="2.1995">
        <ele>120</ele>
        <time>2018-04-17T14:32:54Z</time>
      </trkpt>
      <trkpt lat="47.07929" lon="2.19939">
        <ele>122</ele>
        <time>2018-04-17T14:32:58Z</time>
      </trkpt>
      <trkpt lat="47.07939" lon="2.19931">
        <ele>123</ele>
        <time>2018-04-17T14:33:01Z</time>
      </trkpt>
      <trkpt lat="47.07942" lon="2.19928">
        <ele>123</ele>
        <time>2018-04-17T14:33:02Z</time>
      </trkpt>
      <trkpt lat="47.07952" lon="2.19921">
        <ele>123</ele>
        <time>2018-04-17T14:33:05Z</time>
      </trkpt>
      <trkpt lat="47.07955" lon="2.19919">
        <ele>124</ele>
        <time>2018-04-17T14:33:06Z</time>
      </trkpt>
      <trkpt lat="47.07966" lon="2.1991">
        <ele>123</ele>
        <time>2018-04-17T14:33:10Z</time>
      </trkpt>
      <trkpt lat="47.07985" lon="2.19896">
        <ele>124</ele>
        <time>2018-04-17T14:33:16Z</time>
      </trkpt>
      <trkpt lat="47.07991" lon="2.19892">
        <ele>124</ele>
        <time>2018-04-17T14:33:18Z</time>
      </trkpt>
      <trkpt lat="47.08006" lon="2.19887">
        <ele>127</ele>
        <time>2018-04-17T14:33:23Z</time>
      </trkpt>
      <trkpt lat="47.08018" lon="2.19894">
        <ele>127</ele>
        <time>2018-04-17T14:33:27Z</time>
      </trkpt>
      <trkpt lat="47.0802" lon="2.19897">
        <ele>127</ele>
        <time>2018-04-17T14:33:28Z</time>
      </trkpt>
      <trkpt lat="47.08031" lon="2.19913">
        <ele>127</ele>
        <time>2018-04-17T14:33:33Z</time>
      </trkpt>
      <trkpt lat="47.08033" lon="2.19916">
        <ele>127</ele>
        <time>2018-04-17T14:33:34Z</time>
      </trkpt>
      <trkpt lat="47.08036" lon="2.19922">
        <ele>128</ele>
        <time>2018-04-17T14:33:36Z</time>
      </trkpt>
      <trkpt lat="47.08036" lon="2.19927">
        <ele>128</ele>
        <time>2018-04-17T14:33:38Z</time>
      </trkpt>
      <trkpt lat="47.08036" lon="2.19931">
        <ele>128</ele>
        <time>2018-04-17T14:33:40Z</time>
      </trkpt>
      <trkpt lat="47.08037" lon="2.19937">
        <ele>128</ele>
        <time>2018-04-17T14:33:43Z</time>
      </trkpt>
      <trkpt lat="47.08039" lon="2.19956">
        <ele>128</ele>
        <time>2018-04-17T14:33:48Z</time>
      </trkpt>
      <trkpt lat="47.08044" lon="2.19995">
        <ele>128</ele>
        <time>2018-04-17T14:33:55Z</time>
      </trkpt>
      <trkpt lat="47.08047" lon="2.20021">
        <ele>129</ele>
        <time>2018-04-17T14:34:00Z</time>
      </trkpt>
      <trkpt lat="47.0805" lon="2.20051">
        <ele>129</ele>
        <time>2018-04-17T14:34:06Z</time>
      </trkpt>
      <trkpt lat="47.0805" lon="2.20065">
        <ele>129</ele>
        <time>2018-04-17T14:34:09Z</time>
      </trkpt>
      <trkpt lat="47.08053" lon="2.20084">
        <ele>130</ele>
        <time>2018-04-17T14:34:13Z</time>
      </trkpt>
      <trkpt lat="47.08058" lon="2.20107">
        <ele>130</ele>
        <time>2018-04-17T14:34:18Z</time>
      </trkpt>
      <trkpt lat="47.08065" lon="2.20137">
        <ele>130</ele>
        <time>2018-04-17T14:34:25Z</time>
      </trkpt>
      <trkpt lat="47.08073" lon="2.20162">
        <ele>131</ele>
        <time>2018-04-17T14:34:31Z</time>
      </trkpt>
      <trkpt lat="47.08085" lon="2.20186">
        <ele>131</ele>
        <time>2018-04-17T14:34:37Z</time>
      </trkpt>
      <trkpt lat="47.08093" lon="2.20203">
        <ele>131</ele>
        <time>2018-04-17T14:34:41Z</time>
      </trkpt>
      <trkpt lat="47.08108" lon="2.20237">
        <ele>131</ele>
        <time>2018-04-17T14:34:49Z</time>
      </trkpt>
      <trkpt lat="47.08121" lon="2.20263">
        <ele>131</ele>
        <time>2018-04-17T14:34:56Z</time>
      </trkpt>
      <trkpt lat="47.0813" lon="2.20279">
        <ele>131</ele>
        <time>2018-04-17T14:35:02Z</time>
      </trkpt>
      <trkpt lat="47.08132" lon="2.2028">
        <ele>131</ele>
        <time>2018-04-17T14:35:05Z</time>
      </trkpt>
      <trkpt lat="47.08132" lon="2.2028">
        <ele>131</ele>
        <time>2018-04-17T14:35:06Z</time>
      </trkpt>
      <trkpt lat="47.08135" lon="2.20282">
        <ele>131</ele>
        <time>2018-04-17T14:35:10Z</time>
      </trkpt>
      <trkpt lat="47.08137" lon="2.20282">
        <ele>131</ele>
        <time>2018-04-17T14:35:11Z</time>
      </trkpt>
      <trkpt lat="47.08146" lon="2.2029">
        <ele>131</ele>
        <time>2018-04-17T14:35:15Z</time>
      </trkpt>
      <trkpt lat="47.08147" lon="2.20294">
        <ele>131</ele>
        <time>2018-04-17T14:35:16Z</time>
      </trkpt>
      <trkpt lat="47.08157" lon="2.20321">
        <ele>131</ele>
        <time>2018-04-17T14:35:22Z</time>
      </trkpt>
      <trkpt lat="47.08162" lon="2.20339">
        <ele>131</ele>
        <time>2018-04-17T14:35:25Z</time>
      </trkpt>
      <trkpt lat="47.08167" lon="2.20359">
        <ele>130</ele>
        <time>2018-04-17T14:35:28Z</time>
      </trkpt>
      <trkpt lat="47.08171" lon="2.20374">
        <ele>130</ele>
        <time>2018-04-17T14:35:30Z</time>
      </trkpt>
      <trkpt lat="47.08179" lon="2.20407">
        <ele>130</ele>
        <time>2018-04-17T14:35:34Z</time>
      </trkpt>
      <trkpt lat="47.08181" lon="2.20415">
        <ele>130</ele>
        <time>2018-04-17T14:35:35Z</time>
      </trkpt>
      <trkpt lat="47.08194" lon="2.20471">
        <ele>129</ele>
        <time>2018-04-17T14:35:42Z</time>
      </trkpt>
      <trkpt lat="47.08196" lon="2.20478">
        <ele>129</ele>
        <time>2018-04-17T14:35:43Z</time>
      </trkpt>
      <trkpt lat="47.08204" lon="2.20511">
        <ele>129</ele>
        <time>2018-04-17T14:35:48Z</time>
      </trkpt>
      <trkpt lat="47.08207" lon="2.20524">
        <ele>129</ele>
        <time>2018-04-17T14:35:50Z</time>
      </trkpt>
      <trkpt lat="47.0822" lon="2.20577">
        <ele>129</ele>
        <time>2018-04-17T14:35:58Z</time>
      </trkpt>
      <trkpt lat="47.08221" lon="2.20583">
        <ele>129</ele>
        <time>2018-04-17T14:35:59Z</time>
      </trkpt>
      <trkpt lat="47.08236" lon="2.20641">
        <ele>130</ele>
        <time>2018-04-17T14:36:08Z</time>
      </trkpt>
      <trkpt lat="47.08242" lon="2.20667">
        <ele>130</ele>
        <time>2018-04-17T14:36:12Z</time>
      </trkpt>
      <trkpt lat="47.08253" lon="2.2071">
        <ele>130</ele>
        <time>2018-04-17T14:36:19Z</time>
      </trkpt>
      <trkpt lat="47.08258" lon="2.20727">
        <ele>130</ele>
        <time>2018-04-17T14:36:22Z</time>
      </trkpt>
      <trkpt lat="47.08264" lon="2.20748">
        <ele>131</ele>
        <time>2018-04-17T14:36:26Z</time>
      </trkpt>
      <trkpt lat="47.08266" lon="2.20752">
        <ele>131</ele>
        <time>2018-04-17T14:36:27Z</time>
      </trkpt>
      <trkpt lat="47.08278" lon="2.20787">
        <ele>130</ele>
        <time>2018-04-17T14:36:33Z</time>
      </trkpt>
      <trkpt lat="47.08297" lon="2.2084">
        <ele>131</ele>
        <time>2018-04-17T14:36:41Z</time>
      </trkpt>
      <trkpt lat="47.08317" lon="2.20899">
        <ele>132</ele>
        <time>2018-04-17T14:36:50Z</time>
      </trkpt>
      <trkpt lat="47.0833" lon="2.20943">
        <ele>132</ele>
        <time>2018-04-17T14:36:57Z</time>
      </trkpt>
      <trkpt lat="47.08333" lon="2.20956">
        <ele>132</ele>
        <time>2018-04-17T14:36:59Z</time>
      </trkpt>
      <trkpt lat="47.08345" lon="2.2101">
        <ele>132</ele>
        <time>2018-04-17T14:37:07Z</time>
      </trkpt>
      <trkpt lat="47.08348" lon="2.21025">
        <ele>132</ele>
        <time>2018-04-17T14:37:09Z</time>
      </trkpt>
      <trkpt lat="47.08361" lon="2.21081">
        <ele>132</ele>
        <time>2018-04-17T14:37:17Z</time>
      </trkpt>
      <trkpt lat="47.08365" lon="2.211">
        <ele>132</ele>
        <time>2018-04-17T14:37:20Z</time>
      </trkpt>
      <trkpt lat="47.08372" lon="2.2113">
        <ele>132</ele>
        <time>2018-04-17T14:37:25Z</time>
      </trkpt>
      <trkpt lat="47.08388" lon="2.21169">
        <ele>131</ele>
        <time>2018-04-17T14:37:32Z</time>
      </trkpt>
      <trkpt lat="47.08412" lon="2.21215">
        <ele>132</ele>
        <time>2018-04-17T14:37:40Z</time>
      </trkpt>
      <trkpt lat="47.08442" lon="2.21269">
        <ele>132</ele>
        <time>2018-04-17T14:37:49Z</time>
      </trkpt>
      <trkpt lat="47.08445" lon="2.21274">
        <ele>132</ele>
        <time>2018-04-17T14:37:50Z</time>
      </trkpt>
      <trkpt lat="47.08453" lon="2.21286">
        <ele>132</ele>
        <time>2018-04-17T14:37:52Z</time>
      </trkpt>
      <trkpt lat="47.08483" lon="2.21333">
        <ele>132</ele>
        <time>2018-04-17T14:38:00Z</time>
      </trkpt>
      <trkpt lat="47.08521" lon="2.21393">
        <ele>132</ele>
        <time>2018-04-17T14:38:10Z</time>
      </trkpt>
      <trkpt lat="47.08524" lon="2.214">
        <ele>132</ele>
        <time>2018-04-17T14:38:11Z</time>
      </trkpt>
      <trkpt lat="47.08535" lon="2.21419">
        <ele>132</ele>
        <time>2018-04-17T14:38:14Z</time>
      </trkpt>
      <trkpt lat="47.08565" lon="2.21471">
        <ele>131</ele>
        <time>2018-04-17T14:38:22Z</time>
      </trkpt>
      <trkpt lat="47.086" lon="2.21531">
        <ele>130</ele>
        <time>2018-04-17T14:38:31Z</time>
      </trkpt>
      <trkpt lat="47.08608" lon="2.21544">
        <ele>130</ele>
        <time>2018-04-17T14:38:33Z</time>
      </trkpt>
      <trkpt lat="47.0864" lon="2.21598">
        <ele>129</ele>
        <time>2018-04-17T14:38:41Z</time>
      </trkpt>
      <trkpt lat="47.08665" lon="2.21637">
        <ele>129</ele>
        <time>2018-04-17T14:38:47Z</time>
      </trkpt>
      <trkpt lat="47.08668" lon="2.21643">
        <ele>129</ele>
        <time>2018-04-17T14:38:48Z</time>
      </trkpt>
      <trkpt lat="47.08692" lon="2.21677">
        <ele>129</ele>
        <time>2018-04-17T14:38:54Z</time>
      </trkpt>
      <trkpt lat="47.08724" lon="2.21726">
        <ele>129</ele>
        <time>2018-04-17T14:39:03Z</time>
      </trkpt>
      <trkpt lat="47.08747" lon="2.21761">
        <ele>129</ele>
        <time>2018-04-17T14:39:10Z</time>
      </trkpt>
      <trkpt lat="47.08782" lon="2.21813">
        <ele>128</ele>
        <time>2018-04-17T14:39:20Z</time>
      </trkpt>
      <trkpt lat="47.08799" lon="2.21841">
        <ele>128</ele>
        <time>2018-04-17T14:39:25Z</time>
      </trkpt>
      <trkpt lat="47.08806" lon="2.21852">
        <ele>128</ele>
        <time>2018-04-17T14:39:27Z</time>
      </trkpt>
      <trkpt lat="47.08825" lon="2.21883">
        <ele>129</ele>
        <time>2018-04-17T14:39:33Z</time>
      </trkpt>
      <trkpt lat="47.08831" lon="2.21893">
        <ele>129</ele>
        <time>2018-04-17T14:39:35Z</time>
      </trkpt>
      <trkpt lat="47.08834" lon="2.21899">
        <ele>128</ele>
        <time>2018-04-17T14:39:36Z</time>
      </trkpt>
      <trkpt lat="47.08861" lon="2.21948">
        <ele>128</ele>
        <time>2018-04-17T14:39:45Z</time>
      </trkpt>
      <trkpt lat="47.08882" lon="2.21985">
        <ele>127</ele>
        <time>2018-04-17T14:39:52Z</time>
      </trkpt>
      <trkpt lat="47.08899" lon="2.22016">
        <ele>127</ele>
        <time>2018-04-17T14:39:59Z</time>
      </trkpt>
      <trkpt lat="47.08918" lon="2.22049">
        <ele>126</ele>
        <time>2018-04-17T14:40:07Z</time>
      </trkpt>
      <trkpt lat="47.08929" lon="2.22067">
        <ele>126</ele>
        <time>2018-04-17T14:40:11Z</time>
      </trkpt>
      <trkpt lat="47.08943" lon="2.22089">
        <ele>126</ele>
        <time>2018-04-17T14:40:16Z</time>
      </trkpt>
      <trkpt lat="47.08968" lon="2.22129">
        <ele>126</ele>
        <time>2018-04-17T14:40:25Z</time>
      </trkpt>
      <trkpt lat="47.0899" lon="2.22163">
        <ele>125</ele>
        <time>2018-04-17T14:40:33Z</time>
      </trkpt>
      <trkpt lat="47.08992" lon="2.22168">
        <ele>125</ele>
        <time>2018-04-17T14:40:34Z</time>
      </trkpt>
      <trkpt lat="47.09007" lon="2.22191">
        <ele>125</ele>
        <time>2018-04-17T14:40:40Z</time>
      </trkpt>
      <trkpt lat="47.09018" lon="2.22215">
        <ele>125</ele>
        <time>2018-04-17T14:40:46Z</time>
      </trkpt>
      <trkpt lat="47.0903" lon="2.22242">
        <ele>124</ele>
        <time>2018-04-17T14:40:53Z</time>
      </trkpt>
      <trkpt lat="47.09045" lon="2.22278">
        <ele>124</ele>
        <time>2018-04-17T14:41:02Z</time>
      </trkpt>
      <trkpt lat="47.09056" lon="2.22307">
        <ele>124</ele>
        <time>2018-04-17T14:41:09Z</time>
      </trkpt>
      <trkpt lat="47.09065" lon="2.22334">
        <ele>124</ele>
        <time>2018-04-17T14:41:16Z</time>
      </trkpt>
      <trkpt lat="47.09076" lon="2.22366">
        <ele>124</ele>
        <time>2018-04-17T14:41:24Z</time>
      </trkpt>
      <trkpt lat="47.09084" lon="2.22391">
        <ele>125</ele>
        <time>2018-04-17T14:41:30Z</time>
      </trkpt>
      <trkpt lat="47.09091" lon="2.22418">
        <ele>125</ele>
        <time>2018-04-17T14:41:37Z</time>
      </trkpt>
      <trkpt lat="47.09101" lon="2.22449">
        <ele>126</ele>
        <time>2018-04-17T14:41:45Z</time>
      </trkpt>
      <trkpt lat="47.09107" lon="2.22472">
        <ele>126</ele>
        <time>2018-04-17T14:41:51Z</time>
      </trkpt>
      <trkpt lat="47.09115" lon="2.22494">
        <ele>126</ele>
        <time>2018-04-17T14:41:58Z</time>
      </trkpt>
      <trkpt lat="47.09121" lon="2.22518">
        <ele>126</ele>
        <time>2018-04-17T14:42:04Z</time>
      </trkpt>
      <trkpt lat="47.09127" lon="2.22541">
        <ele>126</ele>
        <time>2018-04-17T14:42:10Z</time>
      </trkpt>
      <trkpt lat="47.09134" lon="2.22565">
        <ele>125</ele>
        <time>2018-04-17T14:42:16Z</time>
      </trkpt>
      <trkpt lat="47.09138" lon="2.22582">
        <ele>125</ele>
        <time>2018-04-17T14:42:21Z</time>
      </trkpt>
      <trkpt lat="47.09139" lon="2.22586">
        <ele>125</ele>
        <time>2018-04-17T14:42:22Z</time>
      </trkpt>
      <trkpt lat="47.09144" lon="2.22604">
        <ele>125</ele>
        <time>2018-04-17T14:42:27Z</time>
      </trkpt>
      <trkpt lat="47.09149" lon="2.22624">
        <ele>125</ele>
        <time>2018-04-17T14:42:33Z</time>
      </trkpt>
      <trkpt lat="47.09155" lon="2.22648">
        <ele>125</ele>
        <time>2018-04-17T14:42:39Z</time>
      </trkpt>
      <trkpt lat="47.09164" lon="2.22678">
        <ele>125</ele>
        <time>2018-04-17T14:42:47Z</time>
      </trkpt>
      <trkpt lat="47.09174" lon="2.22701">
        <ele>124</ele>
        <time>2018-04-17T14:42:54Z</time>
      </trkpt>
      <trkpt lat="47.09176" lon="2.22701">
        <ele>124</ele>
        <time>2018-04-17T14:42:55Z</time>
      </trkpt>
      <trkpt lat="47.09178" lon="2.22701">
        <ele>124</ele>
        <time>2018-04-17T14:42:58Z</time>
      </trkpt>
      <trkpt lat="47.09178" lon="2.22701">
        <ele>124</ele>
        <time>2018-04-17T14:43:09Z</time>
      </trkpt>
      <trkpt lat="47.09183" lon="2.22701">
        <ele>124</ele>
        <time>2018-04-17T14:43:15Z</time>
      </trkpt>
      <trkpt lat="47.09185" lon="2.22701">
        <ele>124</ele>
        <time>2018-04-17T14:43:20Z</time>
      </trkpt>
      <trkpt lat="47.09185" lon="2.22701">
        <ele>124</ele>
        <time>2018-04-17T14:43:31Z</time>
      </trkpt>
      <trkpt lat="47.09185" lon="2.22701">
        <ele>124</ele>
        <time>2018-04-17T14:43:46Z</time>
      </trkpt>
      <trkpt lat="47.09185" lon="2.22701">
        <ele>124</ele>
        <time>2018-04-17T14:43:57Z</time>
      </trkpt>
      <trkpt lat="47.09185" lon="2.22701">
        <ele>124</ele>
        <time>2018-04-17T14:44:03Z</time>
      </trkpt>
      <trkpt lat="47.09185" lon="2.22701">
        <ele>124</ele>
        <time>2018-04-17T14:44:16Z</time>
      </trkpt>
      <trkpt lat="47.09185" lon="2.22701">
        <ele>124</ele>
        <time>2018-04-17T14:44:25Z</time>
      </trkpt>
      <trkpt lat="47.09185" lon="2.22701">
        <ele>124</ele>
        <time>2018-04-17T14:44:36Z</time>
      </trkpt>
      <trkpt lat="47.09185" lon="2.22701">
        <ele>124</ele>
        <time>2018-04-17T14:44:47Z</time>
      </trkpt>
      <trkpt lat="47.09185" lon="2.22701">
        <ele>124</ele>
        <time>2018-04-17T14:44:56Z</time>
      </trkpt>
      <trkpt lat="47.09185" lon="2.22701">
        <ele>124</ele>
        <time>2018-04-17T14:44:59Z</time>
      </trkpt>
      <trkpt lat="47.09185" lon="2.22701">
        <ele>124</ele>
        <time>2018-04-17T14:45:10Z</time>
      </trkpt>
      <trkpt lat="47.09185" lon="2.22701">
        <ele>124</ele>
        <time>2018-04-17T14:45:24Z</time>
      </trkpt>
      <trkpt lat="47.09185" lon="2.22701">
        <ele>124</ele>
        <time>2018-04-17T14:45:33Z</time>
      </trkpt>
      <trkpt lat="47.09185" lon="2.22701">
        <ele>124</ele>
        <time>2018-04-17T14:45:39Z</time>
      </trkpt>
      <trkpt lat="47.09185" lon="2.22701">
        <ele>124</ele>
        <time>2018-04-17T14:45:48Z</time>
      </trkpt>
      <trkpt lat="47.09185" lon="2.22701">
        <ele>124</ele>
        <time>2018-04-17T14:45:55Z</time>
      </trkpt>
      <trkpt lat="47.09185" lon="2.22701">
        <ele>124</ele>
        <time>2018-04-17T14:45:57Z</time>
      </trkpt>
      <trkpt lat="47.09185" lon="2.22701">
        <ele>124</ele>
        <time>2018-04-17T14:46:07Z</time>
      </trkpt>
      <trkpt lat="47.09185" lon="2.227">
        <ele>124</ele>
        <time>2018-04-17T14:46:18Z</time>
      </trkpt>
      <trkpt lat="47.09192" lon="2.22698">
        <ele>124</ele>
        <time>2018-04-17T14:46:22Z</time>
      </trkpt>
      <trkpt lat="47.09193" lon="2.22697">
        <ele>124</ele>
        <time>2018-04-17T14:46:26Z</time>
      </trkpt>
      <trkpt lat="47.09194" lon="2.22698">
        <ele>124</ele>
        <time>2018-04-17T14:46:33Z</time>
      </trkpt>
      <trkpt lat="47.09197" lon="2.22698">
        <ele>124</ele>
        <time>2018-04-17T14:46:35Z</time>
      </trkpt>
      <trkpt lat="47.09206" lon="2.22698">
        <ele>124</ele>
        <time>2018-04-17T14:46:38Z</time>
      </trkpt>
      <trkpt lat="47.09209" lon="2.22697">
        <ele>124</ele>
        <time>2018-04-17T14:46:39Z</time>
      </trkpt>
      <trkpt lat="47.09236" lon="2.22692">
        <ele>124</ele>
        <time>2018-04-17T14:46:46Z</time>
      </trkpt>
      <trkpt lat="47.09276" lon="2.2268">
        <ele>125</ele>
        <time>2018-04-17T14:46:56Z</time>
      </trkpt>
      <trkpt lat="47.09289" lon="2.22677">
        <ele>125</ele>
        <time>2018-04-17T14:46:59Z</time>
      </trkpt>
      <trkpt lat="47.0931" lon="2.22673">
        <ele>125</ele>
        <time>2018-04-17T14:47:04Z</time>
      </trkpt>
      <trkpt lat="47.09343" lon="2.22666">
        <ele>125</ele>
        <time>2018-04-17T14:47:12Z</time>
      </trkpt>
      <trkpt lat="47.09372" lon="2.2266">
        <ele>126</ele>
        <time>2018-04-17T14:47:19Z</time>
      </trkpt>
      <trkpt lat="47.09392" lon="2.22656">
        <ele>126</ele>
        <time>2018-04-17T14:47:24Z</time>
      </trkpt>
      <trkpt lat="47.09405" lon="2.22654">
        <ele>126</ele>
        <time>2018-04-17T14:47:27Z</time>
      </trkpt>
      <trkpt lat="47.09409" lon="2.22652">
        <ele>126</ele>
        <time>2018-04-17T14:47:28Z</time>
      </trkpt>
      <trkpt lat="47.0943" lon="2.22648">
        <ele>126</ele>
        <time>2018-04-17T14:47:33Z</time>
      </trkpt>
      <trkpt lat="47.09469" lon="2.22639">
        <ele>126</ele>
        <time>2018-04-17T14:47:41Z</time>
      </trkpt>
      <trkpt lat="47.09502" lon="2.22632">
        <ele>125</ele>
        <time>2018-04-17T14:47:47Z</time>
      </trkpt>
      <trkpt lat="47.09514" lon="2.2263">
        <ele>125</ele>
        <time>2018-04-17T14:47:49Z</time>
      </trkpt>
      <trkpt lat="47.09564" lon="2.22619">
        <ele>125</ele>
        <time>2018-04-17T14:47:58Z</time>
      </trkpt>
      <trkpt lat="47.09596" lon="2.22612">
        <ele>126</ele>
        <time>2018-04-17T14:48:05Z</time>
      </trkpt>
      <trkpt lat="47.096" lon="2.22611">
        <ele>126</ele>
        <time>2018-04-17T14:48:06Z</time>
      </trkpt>
      <trkpt lat="47.09637" lon="2.22603">
        <ele>126</ele>
        <time>2018-04-17T14:48:15Z</time>
      </trkpt>
      <trkpt lat="47.09665" lon="2.22598">
        <ele>127</ele>
        <time>2018-04-17T14:48:22Z</time>
      </trkpt>
      <trkpt lat="47.09676" lon="2.22596">
        <ele>127</ele>
        <time>2018-04-17T14:48:25Z</time>
      </trkpt>
      <trkpt lat="47.09685" lon="2.22595">
        <ele>127</ele>
        <time>2018-04-17T14:48:29Z</time>
      </trkpt>
      <trkpt lat="47.09686" lon="2.22595">
        <ele>127</ele>
        <time>2018-04-17T14:48:30Z</time>
      </trkpt>
      <trkpt lat="47.09692" lon="2.22602">
        <ele>127</ele>
        <time>2018-04-17T14:48:35Z</time>
      </trkpt>
      <trkpt lat="47.09704" lon="2.22619">
        <ele>127</ele>
        <time>2018-04-17T14:48:41Z</time>
      </trkpt>
      <trkpt lat="47.0972" lon="2.22638">
        <ele>128</ele>
        <time>2018-04-17T14:48:47Z</time>
      </trkpt>
      <trkpt lat="47.09726" lon="2.22645">
        <ele>128</ele>
        <time>2018-04-17T14:48:49Z</time>
      </trkpt>
      <trkpt lat="47.09745" lon="2.22669">
        <ele>128</ele>
        <time>2018-04-17T14:48:55Z</time>
      </trkpt>
      <trkpt lat="47.09775" lon="2.22707">
        <ele>128</ele>
        <time>2018-04-17T14:49:04Z</time>
      </trkpt>
      <trkpt lat="47.09807" lon="2.22747">
        <ele>128</ele>
        <time>2018-04-17T14:49:13Z</time>
      </trkpt>
      <trkpt lat="47.09844" lon="2.22795">
        <ele>128</ele>
        <time>2018-04-17T14:49:23Z</time>
      </trkpt>
      <trkpt lat="47.09874" lon="2.22835">
        <ele>128</ele>
        <time>2018-04-17T14:49:32Z</time>
      </trkpt>
      <trkpt lat="47.09877" lon="2.22839">
        <ele>128</ele>
        <time>2018-04-17T14:49:33Z</time>
      </trkpt>
      <trkpt lat="47.09895" lon="2.22863">
        <ele>128</ele>
        <time>2018-04-17T14:49:40Z</time>
      </trkpt>
      <trkpt lat="47.09907" lon="2.2288">
        <ele>128</ele>
        <time>2018-04-17T14:49:44Z</time>
      </trkpt>
      <trkpt lat="47.09922" lon="2.22899">
        <ele>128</ele>
        <time>2018-04-17T14:49:49Z</time>
      </trkpt>
      <trkpt lat="47.09936" lon="2.2292">
        <ele>128</ele>
        <time>2018-04-17T14:49:54Z</time>
      </trkpt>
      <trkpt lat="47.09951" lon="2.2294">
        <ele>127</ele>
        <time>2018-04-17T14:50:00Z</time>
      </trkpt>
      <trkpt lat="47.09953" lon="2.22943">
        <ele>127</ele>
        <time>2018-04-17T14:50:01Z</time>
      </trkpt>
      <trkpt lat="47.09971" lon="2.22968">
        <ele>127</ele>
        <time>2018-04-17T14:50:09Z</time>
      </trkpt>
      <trkpt lat="47.09977" lon="2.22976">
        <ele>127</ele>
        <time>2018-04-17T14:50:11Z</time>
      </trkpt>
      <trkpt lat="47.09992" lon="2.22997">
        <ele>127</ele>
        <time>2018-04-17T14:50:16Z</time>
      </trkpt>
      <trkpt lat="47.09995" lon="2.23001">
        <ele>127</ele>
        <time>2018-04-17T14:50:17Z</time>
      </trkpt>
      <trkpt lat="47.10002" lon="2.23011">
        <ele>127</ele>
        <time>2018-04-17T14:50:19Z</time>
      </trkpt>
      <trkpt lat="47.10008" lon="2.23021">
        <ele>127</ele>
        <time>2018-04-17T14:50:21Z</time>
      </trkpt>
      <trkpt lat="47.10012" lon="2.23026">
        <ele>127</ele>
        <time>2018-04-17T14:50:22Z</time>
      </trkpt>
      <trkpt lat="47.1002" lon="2.23036">
        <ele>127</ele>
        <time>2018-04-17T14:50:24Z</time>
      </trkpt>
      <trkpt lat="47.10028" lon="2.23047">
        <ele>127</ele>
        <time>2018-04-17T14:50:26Z</time>
      </trkpt>
      <trkpt lat="47.10032" lon="2.23053">
        <ele>127</ele>
        <time>2018-04-17T14:50:27Z</time>
      </trkpt>
      <trkpt lat="47.10048" lon="2.23075">
        <ele>127</ele>
        <time>2018-04-17T14:50:31Z</time>
      </trkpt>
      <trkpt lat="47.10055" lon="2.23087">
        <ele>127</ele>
        <time>2018-04-17T14:50:33Z</time>
      </trkpt>
      <trkpt lat="47.10063" lon="2.23097">
        <ele>127</ele>
        <time>2018-04-17T14:50:35Z</time>
      </trkpt>
      <trkpt lat="47.10086" lon="2.23128">
        <ele>127</ele>
        <time>2018-04-17T14:50:42Z</time>
      </trkpt>
      <trkpt lat="47.10089" lon="2.23132">
        <ele>127</ele>
        <time>2018-04-17T14:50:43Z</time>
      </trkpt>
      <trkpt lat="47.10113" lon="2.23162">
        <ele>127</ele>
        <time>2018-04-17T14:50:50Z</time>
      </trkpt>
      <trkpt lat="47.10139" lon="2.23179">
        <ele>127</ele>
        <time>2018-04-17T14:50:56Z</time>
      </trkpt>
      <trkpt lat="47.10144" lon="2.2318">
        <ele>127</ele>
        <time>2018-04-17T14:50:57Z</time>
      </trkpt>
      <trkpt lat="47.10153" lon="2.23184">
        <ele>127</ele>
        <time>2018-04-17T14:50:59Z</time>
      </trkpt>
      <trkpt lat="47.10157" lon="2.23187">
        <ele>127</ele>
        <time>2018-04-17T14:51:00Z</time>
      </trkpt>
      <trkpt lat="47.10189" lon="2.23201">
        <ele>127</ele>
        <time>2018-04-17T14:51:07Z</time>
      </trkpt>
      <trkpt lat="47.10193" lon="2.23202">
        <ele>127</ele>
        <time>2018-04-17T14:51:08Z</time>
      </trkpt>
      <trkpt lat="47.10212" lon="2.23211">
        <ele>127</ele>
        <time>2018-04-17T14:51:12Z</time>
      </trkpt>
      <trkpt lat="47.1022" lon="2.23214">
        <ele>127</ele>
        <time>2018-04-17T14:51:14Z</time>
      </trkpt>
      <trkpt lat="47.10245" lon="2.23227">
        <ele>128</ele>
        <time>2018-04-17T14:51:21Z</time>
      </trkpt>
      <trkpt lat="47.10265" lon="2.2324">
        <ele>128</ele>
        <time>2018-04-17T14:51:28Z</time>
      </trkpt>
      <trkpt lat="47.1028" lon="2.23251">
        <ele>128</ele>
        <time>2018-04-17T14:51:32Z</time>
      </trkpt>
      <trkpt lat="47.10287" lon="2.23257">
        <ele>128</ele>
        <time>2018-04-17T14:51:34Z</time>
      </trkpt>
      <trkpt lat="47.10291" lon="2.2326">
        <ele>128</ele>
        <time>2018-04-17T14:51:35Z</time>
      </trkpt>
      <trkpt lat="47.10316" lon="2.23279">
        <ele>128</ele>
        <time>2018-04-17T14:51:41Z</time>
      </trkpt>
      <trkpt lat="47.10359" lon="2.23311">
        <ele>130</ele>
        <time>2018-04-17T14:51:51Z</time>
      </trkpt>
      <trkpt lat="47.10366" lon="2.23318">
        <ele>130</ele>
        <time>2018-04-17T14:51:53Z</time>
      </trkpt>
      <trkpt lat="47.10376" lon="2.23333">
        <ele>131</ele>
        <time>2018-04-17T14:51:56Z</time>
      </trkpt>
      <trkpt lat="47.10379" lon="2.23339">
        <ele>132</ele>
        <time>2018-04-17T14:51:57Z</time>
      </trkpt>
      <trkpt lat="47.10398" lon="2.23382">
        <ele>132</ele>
        <time>2018-04-17T14:52:04Z</time>
      </trkpt>
      <trkpt lat="47.10409" lon="2.23404">
        <ele>133</ele>
        <time>2018-04-17T14:52:08Z</time>
      </trkpt>
      <trkpt lat="47.10417" lon="2.23421">
        <ele>133</ele>
        <time>2018-04-17T14:52:11Z</time>
      </trkpt>
      <trkpt lat="47.10443" lon="2.23464">
        <ele>131</ele>
        <time>2018-04-17T14:52:19Z</time>
      </trkpt>
      <trkpt lat="47.10472" lon="2.23496">
        <ele>129</ele>
        <time>2018-04-17T14:52:26Z</time>
      </trkpt>
      <trkpt lat="47.10476" lon="2.235">
        <ele>129</ele>
        <time>2018-04-17T14:52:27Z</time>
      </trkpt>
      <trkpt lat="47.10495" lon="2.23516">
        <ele>127</ele>
        <time>2018-04-17T14:52:31Z</time>
      </trkpt>
      <trkpt lat="47.10509" lon="2.23528">
        <ele>124</ele>
        <time>2018-04-17T14:52:34Z</time>
      </trkpt>
      <trkpt lat="47.10519" lon="2.23536">
        <ele>124</ele>
        <time>2018-04-17T14:52:36Z</time>
      </trkpt>
      <trkpt lat="47.10553" lon="2.23563">
        <ele>123</ele>
        <time>2018-04-17T14:52:43Z</time>
      </trkpt>
      <trkpt lat="47.10558" lon="2.23567">
        <ele>123</ele>
        <time>2018-04-17T14:52:44Z</time>
      </trkpt>
      <trkpt lat="47.10597" lon="2.23599">
        <ele>122</ele>
        <time>2018-04-17T14:52:52Z</time>
      </trkpt>
      <trkpt lat="47.10642" lon="2.23637">
        <ele>122</ele>
        <time>2018-04-17T14:53:01Z</time>
      </trkpt>
      <trkpt lat="47.10684" lon="2.23672">
        <ele>122</ele>
        <time>2018-04-17T14:53:09Z</time>
      </trkpt>
      <trkpt lat="47.10721" lon="2.23701">
        <ele>122</ele>
        <time>2018-04-17T14:53:16Z</time>
      </trkpt>
      <trkpt lat="47.10732" lon="2.2371">
        <ele>122</ele>
        <time>2018-04-17T14:53:18Z</time>
      </trkpt>
      <trkpt lat="47.10773" lon="2.23744">
        <ele>122</ele>
        <time>2018-04-17T14:53:26Z</time>
      </trkpt>
      <trkpt lat="47.10818" lon="2.23781">
        <ele>123</ele>
        <time>2018-04-17T14:53:35Z</time>
      </trkpt>
      <trkpt lat="47.10855" lon="2.23812">
        <ele>122</ele>
        <time>2018-04-17T14:53:43Z</time>
      </trkpt>
      <trkpt lat="47.10894" lon="2.23846">
        <ele>122</ele>
        <time>2018-04-17T14:53:51Z</time>
      </trkpt>
      <trkpt lat="47.10904" lon="2.23855">
        <ele>122</ele>
        <time>2018-04-17T14:53:53Z</time>
      </trkpt>
      <trkpt lat="47.10918" lon="2.23868">
        <ele>122</ele>
        <time>2018-04-17T14:53:56Z</time>
      </trkpt>
      <trkpt lat="47.10931" lon="2.23879">
        <ele>122</ele>
        <time>2018-04-17T14:53:59Z</time>
      </trkpt>
      <trkpt lat="47.10963" lon="2.23906">
        <ele>122</ele>
        <time>2018-04-17T14:54:07Z</time>
      </trkpt>
      <trkpt lat="47.10987" lon="2.23925">
        <ele>123</ele>
        <time>2018-04-17T14:54:13Z</time>
      </trkpt>
      <trkpt lat="47.11005" lon="2.23943">
        <ele>124</ele>
        <time>2018-04-17T14:54:18Z</time>
      </trkpt>
      <trkpt lat="47.11012" lon="2.23951">
        <ele>124</ele>
        <time>2018-04-17T14:54:20Z</time>
      </trkpt>
      <trkpt lat="47.11034" lon="2.23979">
        <ele>123</ele>
        <time>2018-04-17T14:54:26Z</time>
      </trkpt>
      <trkpt lat="47.11041" lon="2.23989">
        <ele>123</ele>
        <time>2018-04-17T14:54:28Z</time>
      </trkpt>
      <trkpt lat="47.1107" lon="2.2403">
        <ele>123</ele>
        <time>2018-04-17T14:54:37Z</time>
      </trkpt>
      <trkpt lat="47.11089" lon="2.24059">
        <ele>123</ele>
        <time>2018-04-17T14:54:43Z</time>
      </trkpt>
      <trkpt lat="47.11098" lon="2.24073">
        <ele>123</ele>
        <time>2018-04-17T14:54:46Z</time>
      </trkpt>
      <trkpt lat="47.11113" lon="2.24094">
        <ele>123</ele>
        <time>2018-04-17T14:54:51Z</time>
      </trkpt>
      <trkpt lat="47.11138" lon="2.2413">
        <ele>123</ele>
        <time>2018-04-17T14:54:59Z</time>
      </trkpt>
      <trkpt lat="47.11141" lon="2.24134">
        <ele>123</ele>
        <time>2018-04-17T14:55:00Z</time>
      </trkpt>
      <trkpt lat="47.11155" lon="2.24152">
        <ele>123</ele>
        <time>2018-04-17T14:55:05Z</time>
      </trkpt>
      <trkpt lat="47.11164" lon="2.24169">
        <ele>122</ele>
        <time>2018-04-17T14:55:10Z</time>
      </trkpt>
      <trkpt lat="47.11171" lon="2.2418">
        <ele>122</ele>
        <time>2018-04-17T14:55:16Z</time>
      </trkpt>
      <trkpt lat="47.11172" lon="2.24181">
        <ele>122</ele>
        <time>2018-04-17T14:55:27Z</time>
      </trkpt>
      <trkpt lat="47.11172" lon="2.24181">
        <ele>122</ele>
        <time>2018-04-17T14:55:41Z</time>
      </trkpt>
      <trkpt lat="47.11172" lon="2.24181">
        <ele>122</ele>
        <time>2018-04-17T14:55:54Z</time>
      </trkpt>
      <trkpt lat="47.11172" lon="2.24181">
        <ele>122</ele>
        <time>2018-04-17T14:56:10Z</time>
      </trkpt>
      <trkpt lat="47.11172" lon="2.24181">
        <ele>122</ele>
        <time>2018-04-17T14:56:19Z</time>
      </trkpt>
      <trkpt lat="47.11172" lon="2.24181">
        <ele>122</ele>
        <time>2018-04-17T14:56:35Z</time>
      </trkpt>
      <trkpt lat="47.11176" lon="2.24182">
        <ele>122</ele>
        <time>2018-04-17T14:56:43Z</time>
      </trkpt>
      <trkpt lat="47.11178" lon="2.2418">
        <ele>122</ele>
        <time>2018-04-17T14:56:44Z</time>
      </trkpt>
      <trkpt lat="47.11184" lon="2.24173">
        <ele>122</ele>
        <time>2018-04-17T14:56:47Z</time>
      </trkpt>
      <trkpt lat="47.11194" lon="2.24155">
        <ele>122</ele>
        <time>2018-04-17T14:56:52Z</time>
      </trkpt>
      <trkpt lat="47.11212" lon="2.24128">
        <ele>122</ele>
        <time>2018-04-17T14:57:00Z</time>
      </trkpt>
      <trkpt lat="47.11228" lon="2.2411">
        <ele>122</ele>
        <time>2018-04-17T14:57:07Z</time>
      </trkpt>
      <trkpt lat="47.11249" lon="2.24101">
        <ele>123</ele>
        <time>2018-04-17T14:57:14Z</time>
      </trkpt>
      <trkpt lat="47.11272" lon="2.24096">
        <ele>122</ele>
        <time>2018-04-17T14:57:22Z</time>
      </trkpt>
      <trkpt lat="47.1129" lon="2.24094">
        <ele>122</ele>
        <time>2018-04-17T14:57:28Z</time>
      </trkpt>
      <trkpt lat="47.11313" lon="2.24089">
        <ele>122</ele>
        <time>2018-04-17T14:57:35Z</time>
      </trkpt>
      <trkpt lat="47.11331" lon="2.24087">
        <ele>122</ele>
        <time>2018-04-17T14:57:41Z</time>
      </trkpt>
      <trkpt lat="47.11344" lon="2.24084">
        <ele>122</ele>
        <time>2018-04-17T14:57:46Z</time>
      </trkpt>
      <trkpt lat="47.11364" lon="2.24072">
        <ele>121</ele>
        <time>2018-04-17T14:57:52Z</time>
      </trkpt>
      <trkpt lat="47.11393" lon="2.24046">
        <ele>121</ele>
        <time>2018-04-17T14:57:59Z</time>
      </trkpt>
      <trkpt lat="47.11409" lon="2.24027">
        <ele>121</ele>
        <time>2018-04-17T14:58:03Z</time>
      </trkpt>
      <trkpt lat="47.11428" lon="2.24006">
        <ele>120</ele>
        <time>2018-04-17T14:58:07Z</time>
      </trkpt>
      <trkpt lat="47.11432" lon="2.24001">
        <ele>120</ele>
        <time>2018-04-17T14:58:08Z</time>
      </trkpt>
      <trkpt lat="47.11473" lon="2.23956">
        <ele>120</ele>
        <time>2018-04-17T14:58:17Z</time>
      </trkpt>
      <trkpt lat="47.11499" lon="2.23925">
        <ele>120</ele>
        <time>2018-04-17T14:58:23Z</time>
      </trkpt>
      <trkpt lat="47.11512" lon="2.23911">
        <ele>120</ele>
        <time>2018-04-17T14:58:26Z</time>
      </trkpt>
      <trkpt lat="47.11546" lon="2.23873">
        <ele>119</ele>
        <time>2018-04-17T14:58:34Z</time>
      </trkpt>
      <trkpt lat="47.11585" lon="2.23834">
        <ele>119</ele>
        <time>2018-04-17T14:58:43Z</time>
      </trkpt>
      <trkpt lat="47.11628" lon="2.23792">
        <ele>119</ele>
        <time>2018-04-17T14:58:53Z</time>
      </trkpt>
      <trkpt lat="47.11665" lon="2.23758">
        <ele>118</ele>
        <time>2018-04-17T14:59:01Z</time>
      </trkpt>
      <trkpt lat="47.11698" lon="2.23726">
        <ele>118</ele>
        <time>2018-04-17T14:59:08Z</time>
      </trkpt>
      <trkpt lat="47.11713" lon="2.23711">
        <ele>118</ele>
        <time>2018-04-17T14:59:11Z</time>
      </trkpt>
      <trkpt lat="47.11728" lon="2.23698">
        <ele>118</ele>
        <time>2018-04-17T14:59:14Z</time>
      </trkpt>
      <trkpt lat="47.11745" lon="2.2368">
        <ele>117</ele>
        <time>2018-04-17T14:59:18Z</time>
      </trkpt>
      <trkpt lat="47.1175" lon="2.23676">
        <ele>117</ele>
        <time>2018-04-17T14:59:19Z</time>
      </trkpt>
      <trkpt lat="47.11779" lon="2.23648">
        <ele>117</ele>
        <time>2018-04-17T14:59:26Z</time>
      </trkpt>
      <trkpt lat="47.11817" lon="2.23612">
        <ele>117</ele>
        <time>2018-04-17T14:59:35Z</time>
      </trkpt>
      <trkpt lat="47.11842" lon="2.23589">
        <ele>117</ele>
        <time>2018-04-17T14:59:42Z</time>
      </trkpt>
      <trkpt lat="47.11857" lon="2.23581">
        <ele>117</ele>
        <time>2018-04-17T14:59:47Z</time>
      </trkpt>
      <trkpt lat="47.11862" lon="2.23583">
        <ele>117</ele>
        <time>2018-04-17T14:59:51Z</time>
      </trkpt>
      <trkpt lat="47.11864" lon="2.23584">
        <ele>117</ele>
        <time>2018-04-17T14:59:57Z</time>
      </trkpt>
      <trkpt lat="47.11863" lon="2.23584">
        <ele>117</ele>
        <time>2018-04-17T15:00:05Z</time>
      </trkpt>
      <trkpt lat="47.11863" lon="2.23584">
        <ele>117</ele>
        <time>2018-04-17T15:00:23Z</time>
      </trkpt>
      <trkpt lat="47.11863" lon="2.23584">
        <ele>117</ele>
        <time>2018-04-17T15:00:35Z</time>
      </trkpt>
      <trkpt lat="47.11863" lon="2.23584">
        <ele>117</ele>
        <time>2018-04-17T15:00:47Z</time>
      </trkpt>
      <trkpt lat="47.11863" lon="2.23584">
        <ele>117</ele>
        <time>2018-04-17T15:00:56Z</time>
      </trkpt>
      <trkpt lat="47.11863" lon="2.23584">
        <ele>117</ele>
        <time>2018-04-17T15:01:14Z</time>
      </trkpt>
      <trkpt lat="47.11863" lon="2.23584">
        <ele>117</ele>
        <time>2018-04-17T15:01:23Z</time>
      </trkpt>
      <trkpt lat="47.11863" lon="2.23584">
        <ele>117</ele>
        <time>2018-04-17T15:01:32Z</time>
      </trkpt>
      <trkpt lat="47.11863" lon="2.23584">
        <ele>117</ele>
        <time>2018-04-17T15:01:44Z</time>
      </trkpt>
      <trkpt lat="47.11863" lon="2.23584">
        <ele>117</ele>
        <time>2018-04-17T15:01:58Z</time>
      </trkpt>
      <trkpt lat="47.11863" lon="2.23584">
        <ele>117</ele>
        <time>2018-04-17T15:02:14Z</time>
      </trkpt>
      <trkpt lat="47.11864" lon="2.23585">
        <ele>117</ele>
        <time>2018-04-17T15:02:29Z</time>
      </trkpt>
      <trkpt lat="47.11864" lon="2.23585">
        <ele>117</ele>
        <time>2018-04-17T15:02:30Z</time>
      </trkpt>
      <trkpt lat="47.11869" lon="2.23594">
        <ele>118</ele>
        <time>2018-04-17T15:02:34Z</time>
      </trkpt>
      <trkpt lat="47.11878" lon="2.23609">
        <ele>118</ele>
        <time>2018-04-17T15:02:39Z</time>
      </trkpt>
      <trkpt lat="47.11882" lon="2.23615">
        <ele>118</ele>
        <time>2018-04-17T15:02:41Z</time>
      </trkpt>
      <trkpt lat="47.11902" lon="2.23644">
        <ele>118</ele>
        <time>2018-04-17T15:02:49Z</time>
      </trkpt>
      <trkpt lat="47.11928" lon="2.23681">
        <ele>118</ele>
        <time>2018-04-17T15:02:58Z</time>
      </trkpt>
      <trkpt lat="47.11958" lon="2.23724">
        <ele>119</ele>
        <time>2018-04-17T15:03:08Z</time>
      </trkpt>
      <trkpt lat="47.1198" lon="2.23754">
        <ele>120</ele>
        <time>2018-04-17T15:03:15Z</time>
      </trkpt>
      <trkpt lat="47.12003" lon="2.23787">
        <ele>121</ele>
        <time>2018-04-17T15:03:22Z</time>
      </trkpt>
      <trkpt lat="47.12006" lon="2.23791">
        <ele>121</ele>
        <time>2018-04-17T15:03:23Z</time>
      </trkpt>
      <trkpt lat="47.12016" lon="2.23806">
        <ele>121</ele>
        <time>2018-04-17T15:03:26Z</time>
      </trkpt>
      <trkpt lat="47.12029" lon="2.23824">
        <ele>121</ele>
        <time>2018-04-17T15:03:30Z</time>
      </trkpt>
      <trkpt lat="47.12049" lon="2.23853">
        <ele>121</ele>
        <time>2018-04-17T15:03:37Z</time>
      </trkpt>
      <trkpt lat="47.1206" lon="2.23874">
        <ele>120</ele>
        <time>2018-04-17T15:03:41Z</time>
      </trkpt>
      <trkpt lat="47.12064" lon="2.23886">
        <ele>120</ele>
        <time>2018-04-17T15:03:43Z</time>
      </trkpt>
      <trkpt lat="47.12066" lon="2.23893">
        <ele>120</ele>
        <time>2018-04-17T15:03:44Z</time>
      </trkpt>
      <trkpt lat="47.12071" lon="2.23913">
        <ele>120</ele>
        <time>2018-04-17T15:03:47Z</time>
      </trkpt>
      <trkpt lat="47.12077" lon="2.23935">
        <ele>118</ele>
        <time>2018-04-17T15:03:50Z</time>
      </trkpt>
      <trkpt lat="47.12083" lon="2.2396">
        <ele>117</ele>
        <time>2018-04-17T15:03:53Z</time>
      </trkpt>
      <trkpt lat="47.1209" lon="2.23985">
        <ele>117</ele>
        <time>2018-04-17T15:03:56Z</time>
      </trkpt>
      <trkpt lat="47.12095" lon="2.24">
        <ele>116</ele>
        <time>2018-04-17T15:03:58Z</time>
      </trkpt>
      <trkpt lat="47.12103" lon="2.24015">
        <ele>115</ele>
        <time>2018-04-17T15:04:01Z</time>
      </trkpt>
      <trkpt lat="47.12104" lon="2.24017">
        <ele>115</ele>
        <time>2018-04-17T15:04:02Z</time>
      </trkpt>
      <trkpt lat="47.12106" lon="2.2402">
        <ele>115</ele>
        <time>2018-04-17T15:04:04Z</time>
      </trkpt>
      <trkpt lat="47.1211" lon="2.24023">
        <ele>115</ele>
        <time>2018-04-17T15:04:07Z</time>
      </trkpt>
      <trkpt lat="47.12113" lon="2.24022">
        <ele>115</ele>
        <time>2018-04-17T15:04:09Z</time>
      </trkpt>
      <trkpt lat="47.12119" lon="2.24016">
        <ele>115</ele>
        <time>2018-04-17T15:04:15Z</time>
      </trkpt>
      <trkpt lat="47.12122" lon="2.24014">
        <ele>115</ele>
        <time>2018-04-17T15:04:17Z</time>
      </trkpt>
      <trkpt lat="47.12128" lon="2.24006">
        <ele>115</ele>
        <time>2018-04-17T15:04:21Z</time>
      </trkpt>
      <trkpt lat="47.12144" lon="2.23987">
        <ele>117</ele>
        <time>2018-04-17T15:04:28Z</time>
      </trkpt>
      <trkpt lat="47.12161" lon="2.23968">
        <ele>117</ele>
        <time>2018-04-17T15:04:34Z</time>
      </trkpt>
      <trkpt lat="47.12176" lon="2.23952">
        <ele>117</ele>
        <time>2018-04-17T15:04:39Z</time>
      </trkpt>
      <trkpt lat="47.12199" lon="2.23928">
        <ele>117</ele>
        <time>2018-04-17T15:04:47Z</time>
      </trkpt>
      <trkpt lat="47.12224" lon="2.23896">
        <ele>120</ele>
        <time>2018-04-17T15:04:56Z</time>
      </trkpt>
      <trkpt lat="47.12247" lon="2.23862">
        <ele>121</ele>
        <time>2018-04-17T15:05:04Z</time>
      </trkpt>
      <trkpt lat="47.1227" lon="2.23819">
        <ele>121</ele>
        <time>2018-04-17T15:05:13Z</time>
      </trkpt>
      <trkpt lat="47.12295" lon="2.23777">
        <ele>120</ele>
        <time>2018-04-17T15:05:22Z</time>
      </trkpt>
      <trkpt lat="47.12312" lon="2.23742">
        <ele>119</ele>
        <time>2018-04-17T15:05:29Z</time>
      </trkpt>
      <trkpt lat="47.12325" lon="2.23704">
        <ele>120</ele>
        <time>2018-04-17T15:05:36Z</time>
      </trkpt>
      <trkpt lat="47.12339" lon="2.23657">
        <ele>119</ele>
        <time>2018-04-17T15:05:44Z</time>
      </trkpt>
      <trkpt lat="47.12348" lon="2.23625">
        <ele>119</ele>
        <time>2018-04-17T15:05:51Z</time>
      </trkpt>
      <trkpt lat="47.1236" lon="2.23604">
        <ele>118</ele>
        <time>2018-04-17T15:05:57Z</time>
      </trkpt>
      <trkpt lat="47.12368" lon="2.23585">
        <ele>118</ele>
        <time>2018-04-17T15:06:04Z</time>
      </trkpt>
      <trkpt lat="47.12376" lon="2.23573">
        <ele>118</ele>
        <time>2018-04-17T15:06:10Z</time>
      </trkpt>
      <trkpt lat="47.12375" lon="2.23573">
        <ele>118</ele>
        <time>2018-04-17T15:06:11Z</time>
      </trkpt>
      <trkpt lat="47.12373" lon="2.2357">
        <ele>118</ele>
        <time>2018-04-17T15:06:13Z</time>
      </trkpt>
      <trkpt lat="47.12375" lon="2.23564">
        <ele>118</ele>
        <time>2018-04-17T15:06:16Z</time>
      </trkpt>
      <trkpt lat="47.12377" lon="2.2356">
        <ele>118</ele>
        <time>2018-04-17T15:06:17Z</time>
      </trkpt>
      <trkpt lat="47.12388" lon="2.23537">
        <ele>117</ele>
        <time>2018-04-17T15:06:22Z</time>
      </trkpt>
      <trkpt lat="47.12405" lon="2.235">
        <ele>116</ele>
        <time>2018-04-17T15:06:30Z</time>
      </trkpt>
      <trkpt lat="47.12419" lon="2.23469">
        <ele>115</ele>
        <time>2018-04-17T15:06:37Z</time>
      </trkpt>
      <trkpt lat="47.12436" lon="2.23427">
        <ele>115</ele>
        <time>2018-04-17T15:06:46Z</time>
      </trkpt>
      <trkpt lat="47.12444" lon="2.23406">
        <ele>115</ele>
        <time>2018-04-17T15:06:53Z</time>
      </trkpt>
      <trkpt lat="47.12446" lon="2.23402">
        <ele>115</ele>
        <time>2018-04-17T15:06:58Z</time>
      </trkpt>
      <trkpt lat="47.1245" lon="2.23392">
        <ele>115</ele>
        <time>2018-04-17T15:07:05Z</time>
      </trkpt>
      <trkpt lat="47.12452" lon="2.23389">
        <ele>115</ele>
        <time>2018-04-17T15:07:09Z</time>
      </trkpt>
      <trkpt lat="47.12452" lon="2.23388">
        <ele>115</ele>
        <time>2018-04-17T15:07:10Z</time>
      </trkpt>
      <trkpt lat="47.12457" lon="2.23378">
        <ele>115</ele>
        <time>2018-04-17T15:07:15Z</time>
      </trkpt>
      <trkpt lat="47.12467" lon="2.23352">
        <ele>115</ele>
        <time>2018-04-17T15:07:22Z</time>
      </trkpt>
      <trkpt lat="47.12481" lon="2.23323">
        <ele>116</ele>
        <time>2018-04-17T15:07:29Z</time>
      </trkpt>
      <trkpt lat="47.12497" lon="2.23288">
        <ele>116</ele>
        <time>2018-04-17T15:07:36Z</time>
      </trkpt>
      <trkpt lat="47.12502" lon="2.23277">
        <ele>115</ele>
        <time>2018-04-17T15:07:38Z</time>
      </trkpt>
      <trkpt lat="47.12514" lon="2.23252">
        <ele>115</ele>
        <time>2018-04-17T15:07:43Z</time>
      </trkpt>
      <trkpt lat="47.12532" lon="2.23211">
        <ele>114</ele>
        <time>2018-04-17T15:07:51Z</time>
      </trkpt>
      <trkpt lat="47.12542" lon="2.23185">
        <ele>113</ele>
        <time>2018-04-17T15:07:56Z</time>
      </trkpt>
      <trkpt lat="47.12547" lon="2.23175">
        <ele>113</ele>
        <time>2018-04-17T15:07:58Z</time>
      </trkpt>
      <trkpt lat="47.12563" lon="2.23138">
        <ele>114</ele>
        <time>2018-04-17T15:08:05Z</time>
      </trkpt>
      <trkpt lat="47.12589" lon="2.2308">
        <ele>116</ele>
        <time>2018-04-17T15:08:16Z</time>
      </trkpt>
      <trkpt lat="47.12608" lon="2.23036">
        <ele>114</ele>
        <time>2018-04-17T15:08:24Z</time>
      </trkpt>
      <trkpt lat="47.12631" lon="2.22985">
        <ele>114</ele>
        <time>2018-04-17T15:08:33Z</time>
      </trkpt>
      <trkpt lat="47.12641" lon="2.22962">
        <ele>115</ele>
        <time>2018-04-17T15:08:37Z</time>
      </trkpt>
      <trkpt lat="47.12646" lon="2.22951">
        <ele>115</ele>
        <time>2018-04-17T15:08:39Z</time>
      </trkpt>
      <trkpt lat="47.12649" lon="2.22945">
        <ele>115</ele>
        <time>2018-04-17T15:08:40Z</time>
      </trkpt>
      <trkpt lat="47.12676" lon="2.22888">
        <ele>116</ele>
        <time>2018-04-17T15:08:50Z</time>
      </trkpt>
      <trkpt lat="47.12699" lon="2.22837">
        <ele>117</ele>
        <time>2018-04-17T15:08:59Z</time>
      </trkpt>
      <trkpt lat="47.12717" lon="2.22797">
        <ele>117</ele>
        <time>2018-04-17T15:09:06Z</time>
      </trkpt>
      <trkpt lat="47.12739" lon="2.22747">
        <ele>118</ele>
        <time>2018-04-17T15:09:14Z</time>
      </trkpt>
      <trkpt lat="47.1276" lon="2.22697">
        <ele>117</ele>
        <time>2018-04-17T15:09:22Z</time>
      </trkpt>
      <trkpt lat="47.12777" lon="2.22659">
        <ele>116</ele>
        <time>2018-04-17T15:09:28Z</time>
      </trkpt>
      <trkpt lat="47.12783" lon="2.22646">
        <ele>116</ele>
        <time>2018-04-17T15:09:30Z</time>
      </trkpt>
      <trkpt lat="47.12804" lon="2.22598">
        <ele>116</ele>
        <time>2018-04-17T15:09:38Z</time>
      </trkpt>
      <trkpt lat="47.12828" lon="2.22545">
        <ele>116</ele>
        <time>2018-04-17T15:09:47Z</time>
      </trkpt>
      <trkpt lat="47.12844" lon="2.22509">
        <ele>115</ele>
        <time>2018-04-17T15:09:53Z</time>
      </trkpt>
      <trkpt lat="47.12866" lon="2.22459">
        <ele>115</ele>
        <time>2018-04-17T15:10:01Z</time>
      </trkpt>
      <trkpt lat="47.12882" lon="2.22424">
        <ele>115</ele>
        <time>2018-04-17T15:10:07Z</time>
      </trkpt>
      <trkpt lat="47.12907" lon="2.2237">
        <ele>114</ele>
        <time>2018-04-17T15:10:16Z</time>
      </trkpt>
      <trkpt lat="47.1292" lon="2.2234">
        <ele>113</ele>
        <time>2018-04-17T15:10:21Z</time>
      </trkpt>
      <trkpt lat="47.12928" lon="2.22322">
        <ele>113</ele>
        <time>2018-04-17T15:10:24Z</time>
      </trkpt>
      <trkpt lat="47.12939" lon="2.22298">
        <ele>113</ele>
        <time>2018-04-17T15:10:28Z</time>
      </trkpt>
      <trkpt lat="47.12946" lon="2.22279">
        <ele>113</ele>
        <time>2018-04-17T15:10:31Z</time>
      </trkpt>
      <trkpt lat="47.1296" lon="2.22248">
        <ele>113</ele>
        <time>2018-04-17T15:10:36Z</time>
      </trkpt>
      <trkpt lat="47.12968" lon="2.2223">
        <ele>113</ele>
        <time>2018-04-17T15:10:39Z</time>
      </trkpt>
      <trkpt lat="47.12999" lon="2.22162">
        <ele>112</ele>
        <time>2018-04-17T15:10:50Z</time>
      </trkpt>
      <trkpt lat="47.1301" lon="2.22136">
        <ele>113</ele>
        <time>2018-04-17T15:10:54Z</time>
      </trkpt>
      <trkpt lat="47.13015" lon="2.22124">
        <ele>113</ele>
        <time>2018-04-17T15:10:56Z</time>
      </trkpt>
      <trkpt lat="47.1303" lon="2.22091">
        <ele>113</ele>
        <time>2018-04-17T15:11:02Z</time>
      </trkpt>
      <trkpt lat="47.13032" lon="2.22086">
        <ele>113</ele>
        <time>2018-04-17T15:11:03Z</time>
      </trkpt>
      <trkpt lat="47.13045" lon="2.22061">
        <ele>114</ele>
        <time>2018-04-17T15:11:09Z</time>
      </trkpt>
      <trkpt lat="47.13052" lon="2.22044">
        <ele>114</ele>
        <time>2018-04-17T15:11:12Z</time>
      </trkpt>
      <trkpt lat="47.13057" lon="2.22032">
        <ele>114</ele>
        <time>2018-04-17T15:11:14Z</time>
      </trkpt>
      <trkpt lat="47.13066" lon="2.22017">
        <ele>114</ele>
        <time>2018-04-17T15:11:18Z</time>
      </trkpt>
      <trkpt lat="47.13073" lon="2.21998">
        <ele>115</ele>
        <time>2018-04-17T15:11:22Z</time>
      </trkpt>
      <trkpt lat="47.13078" lon="2.21986">
        <ele>115</ele>
        <time>2018-04-17T15:11:24Z</time>
      </trkpt>
      <trkpt lat="47.13095" lon="2.21949">
        <ele>116</ele>
        <time>2018-04-17T15:11:30Z</time>
      </trkpt>
      <trkpt lat="47.13115" lon="2.21902">
        <ele>115</ele>
        <time>2018-04-17T15:11:38Z</time>
      </trkpt>
      <trkpt lat="47.13126" lon="2.21878">
        <ele>115</ele>
        <time>2018-04-17T15:11:42Z</time>
      </trkpt>
      <trkpt lat="47.13134" lon="2.21859">
        <ele>115</ele>
        <time>2018-04-17T15:11:45Z</time>
      </trkpt>
      <trkpt lat="47.13139" lon="2.21848">
        <ele>115</ele>
        <time>2018-04-17T15:11:47Z</time>
      </trkpt>
      <trkpt lat="47.13146" lon="2.21831">
        <ele>115</ele>
        <time>2018-04-17T15:11:50Z</time>
      </trkpt>
      <trkpt lat="47.1315" lon="2.21825">
        <ele>115</ele>
        <time>2018-04-17T15:11:51Z</time>
      </trkpt>
      <trkpt lat="47.13167" lon="2.2179">
        <ele>116</ele>
        <time>2018-04-17T15:11:57Z</time>
      </trkpt>
      <trkpt lat="47.1317" lon="2.21785">
        <ele>116</ele>
        <time>2018-04-17T15:11:58Z</time>
      </trkpt>
      <trkpt lat="47.13177" lon="2.21773">
        <ele>116</ele>
        <time>2018-04-17T15:12:00Z</time>
      </trkpt>
      <trkpt lat="47.13184" lon="2.21763">
        <ele>116</ele>
        <time>2018-04-17T15:12:02Z</time>
      </trkpt>
      <trkpt lat="47.13191" lon="2.21752">
        <ele>116</ele>
        <time>2018-04-17T15:12:04Z</time>
      </trkpt>
      <trkpt lat="47.13199" lon="2.21742">
        <ele>116</ele>
        <time>2018-04-17T15:12:06Z</time>
      </trkpt>
      <trkpt lat="47.13208" lon="2.21728">
        <ele>116</ele>
        <time>2018-04-17T15:12:09Z</time>
      </trkpt>
      <trkpt lat="47.13231" lon="2.21704">
        <ele>116</ele>
        <time>2018-04-17T15:12:15Z</time>
      </trkpt>
      <trkpt lat="47.13254" lon="2.21682">
        <ele>117</ele>
        <time>2018-04-17T15:12:22Z</time>
      </trkpt>
      <trkpt lat="47.13263" lon="2.21677">
        <ele>117</ele>
        <time>2018-04-17T15:12:26Z</time>
      </trkpt>
      <trkpt lat="47.13283" lon="2.21666">
        <ele>116</ele>
        <time>2018-04-17T15:12:31Z</time>
      </trkpt>
      <trkpt lat="47.13305" lon="2.21657">
        <ele>117</ele>
        <time>2018-04-17T15:12:36Z</time>
      </trkpt>
      <trkpt lat="47.13315" lon="2.21654">
        <ele>117</ele>
        <time>2018-04-17T15:12:38Z</time>
      </trkpt>
      <trkpt lat="47.1335" lon="2.21641">
        <ele>119</ele>
        <time>2018-04-17T15:12:46Z</time>
      </trkpt>
      <trkpt lat="47.13389" lon="2.21629">
        <ele>119</ele>
        <time>2018-04-17T15:12:54Z</time>
      </trkpt>
      <trkpt lat="47.13421" lon="2.21615">
        <ele>120</ele>
        <time>2018-04-17T15:13:01Z</time>
      </trkpt>
      <trkpt lat="47.13458" lon="2.21603">
        <ele>121</ele>
        <time>2018-04-17T15:13:09Z</time>
      </trkpt>
      <trkpt lat="47.13506" lon="2.21587">
        <ele>120</ele>
        <time>2018-04-17T15:13:19Z</time>
      </trkpt>
      <trkpt lat="47.13542" lon="2.21574">
        <ele>120</ele>
        <time>2018-04-17T15:13:27Z</time>
      </trkpt>
      <trkpt lat="47.13569" lon="2.21564">
        <ele>120</ele>
        <time>2018-04-17T15:13:33Z</time>
      </trkpt>
      <trkpt lat="47.13591" lon="2.21559">
        <ele>120</ele>
        <time>2018-04-17T15:13:39Z</time>
      </trkpt>
      <trkpt lat="47.13616" lon="2.21549">
        <ele>120</ele>
        <time>2018-04-17T15:13:45Z</time>
      </trkpt>
      <trkpt lat="47.1365" lon="2.21544">
        <ele>119</ele>
        <time>2018-04-17T15:13:52Z</time>
      </trkpt>
      <trkpt lat="47.13686" lon="2.21544">
        <ele>118</ele>
        <time>2018-04-17T15:13:59Z</time>
      </trkpt>
      <trkpt lat="47.13717" lon="2.21549">
        <ele>117</ele>
        <time>2018-04-17T15:14:06Z</time>
      </trkpt>
      <trkpt lat="47.13748" lon="2.2156">
        <ele>117</ele>
        <time>2018-04-17T15:14:13Z</time>
      </trkpt>
      <trkpt lat="47.14293" lon="2.21113">
        <ele>115</ele>
        <time>2018-04-17T15:53:14Z</time>
      </trkpt>
      <trkpt lat="47.14293" lon="2.21113">
        <ele>115</ele>
        <time>2018-04-17T15:53:14Z</time>
      </trkpt>
      <trkpt lat="47.14285" lon="2.2109">
        <ele>115</ele>
        <time>2018-04-17T15:53:20Z</time>
      </trkpt>
      <trkpt lat="47.14292" lon="2.21082">
        <ele>115</ele>
        <time>2018-04-17T15:53:24Z</time>
      </trkpt>
      <trkpt lat="47.14294" lon="2.2108">
        <ele>115</ele>
        <time>2018-04-17T15:53:25Z</time>
      </trkpt>
      <trkpt lat="47.14309" lon="2.21066">
        <ele>115</ele>
        <time>2018-04-17T15:53:30Z</time>
      </trkpt>
      <trkpt lat="47.14333" lon="2.21044">
        <ele>115</ele>
        <time>2018-04-17T15:53:37Z</time>
      </trkpt>
      <trkpt lat="47.14337" lon="2.21044">
        <ele>115</ele>
        <time>2018-04-17T15:53:38Z</time>
      </trkpt>
      <trkpt lat="47.14351" lon="2.21039">
        <ele>115</ele>
        <time>2018-04-17T15:53:42Z</time>
      </trkpt>
      <trkpt lat="47.14361" lon="2.2103">
        <ele>115</ele>
        <time>2018-04-17T15:53:47Z</time>
      </trkpt>
      <trkpt lat="47.1437" lon="2.2102">
        <ele>115</ele>
        <time>2018-04-17T15:53:54Z</time>
      </trkpt>
      <trkpt lat="47.14381" lon="2.21009">
        <ele>116</ele>
        <time>2018-04-17T15:54:00Z</time>
      </trkpt>
      <trkpt lat="47.14393" lon="2.20998">
        <ele>115</ele>
        <time>2018-04-17T15:54:06Z</time>
      </trkpt>
      <trkpt lat="47.14407" lon="2.20988">
        <ele>116</ele>
        <time>2018-04-17T15:54:12Z</time>
      </trkpt>
      <trkpt lat="47.14418" lon="2.20977">
        <ele>115</ele>
        <time>2018-04-17T15:54:17Z</time>
      </trkpt>
      <trkpt lat="47.14435" lon="2.2096">
        <ele>114</ele>
        <time>2018-04-17T15:54:22Z</time>
      </trkpt>
      <trkpt lat="47.14445" lon="2.20948">
        <ele>114</ele>
        <time>2018-04-17T15:54:25Z</time>
      </trkpt>
      <trkpt lat="47.14456" lon="2.20937">
        <ele>114</ele>
        <time>2018-04-17T15:54:28Z</time>
      </trkpt>
      <trkpt lat="47.1448" lon="2.20912">
        <ele>114</ele>
        <time>2018-04-17T15:54:35Z</time>
      </trkpt>
      <trkpt lat="47.14488" lon="2.20894">
        <ele>114</ele>
        <time>2018-04-17T15:54:39Z</time>
      </trkpt>
      <trkpt lat="47.14487" lon="2.20889">
        <ele>114</ele>
        <time>2018-04-17T15:54:40Z</time>
      </trkpt>
      <trkpt lat="47.14483" lon="2.20878">
        <ele>114</ele>
        <time>2018-04-17T15:54:46Z</time>
      </trkpt>
      <trkpt lat="47.1448" lon="2.20875">
        <ele>114</ele>
        <time>2018-04-17T15:54:48Z</time>
      </trkpt>
      <trkpt lat="47.14482" lon="2.20873">
        <ele>114</ele>
        <time>2018-04-17T15:54:50Z</time>
      </trkpt>
      <trkpt lat="47.14484" lon="2.20872">
        <ele>114</ele>
        <time>2018-04-17T15:54:51Z</time>
      </trkpt>
      <trkpt lat="47.14492" lon="2.2087">
        <ele>114</ele>
        <time>2018-04-17T15:54:54Z</time>
      </trkpt>
      <trkpt lat="47.145" lon="2.20862">
        <ele>113</ele>
        <time>2018-04-17T15:54:57Z</time>
      </trkpt>
      <trkpt lat="47.14503" lon="2.20856">
        <ele>113</ele>
        <time>2018-04-17T15:54:58Z</time>
      </trkpt>
      <trkpt lat="47.14517" lon="2.20837">
        <ele>113</ele>
        <time>2018-04-17T15:55:03Z</time>
      </trkpt>
      <trkpt lat="47.14536" lon="2.2082">
        <ele>114</ele>
        <time>2018-04-17T15:55:10Z</time>
      </trkpt>
      <trkpt lat="47.14549" lon="2.20808">
        <ele>113</ele>
        <time>2018-04-17T15:55:17Z</time>
      </trkpt>
      <trkpt lat="47.14547" lon="2.20796">
        <ele>114</ele>
        <time>2018-04-17T15:55:21Z</time>
      </trkpt>
      <trkpt lat="47.14546" lon="2.20792">
        <ele>114</ele>
        <time>2018-04-17T15:55:22Z</time>
      </trkpt>
      <trkpt lat="47.1454" lon="2.20774">
        <ele>114</ele>
        <time>2018-04-17T15:55:27Z</time>
      </trkpt>
      <trkpt lat="47.14534" lon="2.20757">
        <ele>114</ele>
        <time>2018-04-17T15:55:32Z</time>
      </trkpt>
      <trkpt lat="47.14531" lon="2.20749">
        <ele>115</ele>
        <time>2018-04-17T15:55:34Z</time>
      </trkpt>
      <trkpt lat="47.14526" lon="2.20734">
        <ele>116</ele>
        <time>2018-04-17T15:55:38Z</time>
      </trkpt>
      <trkpt lat="47.14522" lon="2.20724">
        <ele>116</ele>
        <time>2018-04-17T15:55:41Z</time>
      </trkpt>
      <trkpt lat="47.14518" lon="2.20709">
        <ele>116</ele>
        <time>2018-04-17T15:55:47Z</time>
      </trkpt>
      <trkpt lat="47.1452" lon="2.20705">
        <ele>116</ele>
        <time>2018-04-17T15:55:49Z</time>
      </trkpt>
      <trkpt lat="47.14526" lon="2.207">
        <ele>116</ele>
        <time>2018-04-17T15:55:52Z</time>
      </trkpt>
      <trkpt lat="47.14539" lon="2.20686">
        <ele>116</ele>
        <time>2018-04-17T15:55:58Z</time>
      </trkpt>
      <trkpt lat="47.14541" lon="2.20685">
        <ele>116</ele>
        <time>2018-04-17T15:56:02Z</time>
      </trkpt>
      <trkpt lat="47.14542" lon="2.20685">
        <ele>116</ele>
        <time>2018-04-17T15:56:14Z</time>
      </trkpt>
      <trkpt lat="47.14541" lon="2.20683">
        <ele>116</ele>
        <time>2018-04-17T15:56:58Z</time>
      </trkpt>
      <trkpt lat="47.14543" lon="2.20682">
        <ele>116</ele>
        <time>2018-04-17T15:57:01Z</time>
      </trkpt>
      <trkpt lat="47.14544" lon="2.2068">
        <ele>116</ele>
        <time>2018-04-17T15:57:02Z</time>
      </trkpt>
      <trkpt lat="47.14553" lon="2.20673">
        <ele>116</ele>
        <time>2018-04-17T15:57:06Z</time>
      </trkpt>
      <trkpt lat="47.14563" lon="2.20663">
        <ele>116</ele>
        <time>2018-04-17T15:57:12Z</time>
      </trkpt>
      <trkpt lat="47.14565" lon="2.2066">
        <ele>116</ele>
        <time>2018-04-17T15:57:18Z</time>
      </trkpt>
      <trkpt lat="47.14568" lon="2.20656">
        <ele>116</ele>
        <time>2018-04-17T15:57:21Z</time>
      </trkpt>
      <trkpt lat="47.14567" lon="2.20653">
        <ele>116</ele>
        <time>2018-04-17T15:57:23Z</time>
      </trkpt>
      <trkpt lat="47.1456" lon="2.2064">
        <ele>117</ele>
        <time>2018-04-17T15:57:28Z</time>
      </trkpt>
      <trkpt lat="47.14555" lon="2.20628">
        <ele>117</ele>
        <time>2018-04-17T15:57:31Z</time>
      </trkpt>
      <trkpt lat="47.14551" lon="2.2062">
        <ele>117</ele>
        <time>2018-04-17T15:57:33Z</time>
      </trkpt>
      <trkpt lat="47.14543" lon="2.20602">
        <ele>117</ele>
        <time>2018-04-17T15:57:39Z</time>
      </trkpt>
      <trkpt lat="47.14541" lon="2.20597">
        <ele>117</ele>
        <time>2018-04-17T15:57:41Z</time>
      </trkpt>
      <trkpt lat="47.14537" lon="2.2059">
        <ele>117</ele>
        <time>2018-04-17T15:57:45Z</time>
      </trkpt>
      <trkpt lat="47.14536" lon="2.20589">
        <ele>117</ele>
        <time>2018-04-17T15:57:51Z</time>
      </trkpt>
      <trkpt lat="47.14533" lon="2.20583">
        <ele>118</ele>
        <time>2018-04-17T15:57:55Z</time>
      </trkpt>
      <trkpt lat="47.14532" lon="2.20582">
        <ele>118</ele>
        <time>2018-04-17T15:57:56Z</time>
      </trkpt>
      <trkpt lat="47.14528" lon="2.2057">
        <ele>118</ele>
        <time>2018-04-17T15:58:00Z</time>
      </trkpt>
      <trkpt lat="47.14524" lon="2.20564">
        <ele>118</ele>
        <time>2018-04-17T15:58:02Z</time>
      </trkpt>
      <trkpt lat="47.14518" lon="2.20547">
        <ele>118</ele>
        <time>2018-04-17T15:58:06Z</time>
      </trkpt>
      <trkpt lat="47.14505" lon="2.20518">
        <ele>118</ele>
        <time>2018-04-17T15:58:13Z</time>
      </trkpt>
      <trkpt lat="47.14504" lon="2.20514">
        <ele>118</ele>
        <time>2018-04-17T15:58:14Z</time>
      </trkpt>
      <trkpt lat="47.14496" lon="2.20494">
        <ele>118</ele>
        <time>2018-04-17T15:58:19Z</time>
      </trkpt>
      <trkpt lat="47.14482" lon="2.20463">
        <ele>119</ele>
        <time>2018-04-17T15:58:27Z</time>
      </trkpt>
      <trkpt lat="47.1447" lon="2.20431">
        <ele>119</ele>
        <time>2018-04-17T15:58:35Z</time>
      </trkpt>
      <trkpt lat="47.14468" lon="2.20427">
        <ele>119</ele>
        <time>2018-04-17T15:58:36Z</time>
      </trkpt>
      <trkpt lat="47.14455" lon="2.20397">
        <ele>120</ele>
        <time>2018-04-17T15:58:43Z</time>
      </trkpt>
      <trkpt lat="47.14447" lon="2.20371">
        <ele>120</ele>
        <time>2018-04-17T15:58:49Z</time>
      </trkpt>
      <trkpt lat="47.14447" lon="2.20341">
        <ele>120</ele>
        <time>2018-04-17T15:58:55Z</time>
      </trkpt>
      <trkpt lat="47.1445" lon="2.20308">
        <ele>121</ele>
        <time>2018-04-17T15:59:02Z</time>
      </trkpt>
      <trkpt lat="47.14455" lon="2.20276">
        <ele>121</ele>
        <time>2018-04-17T15:59:09Z</time>
      </trkpt>
      <trkpt lat="47.1446" lon="2.20241">
        <ele>121</ele>
        <time>2018-04-17T15:59:17Z</time>
      </trkpt>
      <trkpt lat="47.14462" lon="2.202">
        <ele>121</ele>
        <time>2018-04-17T15:59:25Z</time>
      </trkpt>
      <trkpt lat="47.14458" lon="2.20157">
        <ele>120</ele>
        <time>2018-04-17T15:59:33Z</time>
      </trkpt>
      <trkpt lat="47.14446" lon="2.2011">
        <ele>120</ele>
        <time>2018-04-17T15:59:41Z</time>
      </trkpt>
      <trkpt lat="47.14432" lon="2.20065">
        <ele>121</ele>
        <time>2018-04-17T15:59:49Z</time>
      </trkpt>
      <trkpt lat="47.14422" lon="2.20033">
        <ele>121</ele>
        <time>2018-04-17T15:59:55Z</time>
      </trkpt>
      <trkpt lat="47.14418" lon="2.20023">
        <ele>121</ele>
        <time>2018-04-17T15:59:57Z</time>
      </trkpt>
      <trkpt lat="47.14403" lon="2.19977">
        <ele>121</ele>
        <time>2018-04-17T16:00:06Z</time>
      </trkpt>
      <trkpt lat="47.14397" lon="2.19961">
        <ele>120</ele>
        <time>2018-04-17T16:00:10Z</time>
      </trkpt>
      <trkpt lat="47.14396" lon="2.19955">
        <ele>120</ele>
        <time>2018-04-17T16:00:12Z</time>
      </trkpt>
      <trkpt lat="47.14394" lon="2.19947">
        <ele>120</ele>
        <time>2018-04-17T16:00:17Z</time>
      </trkpt>
      <trkpt lat="47.14394" lon="2.19946">
        <ele>120</ele>
        <time>2018-04-17T16:00:18Z</time>
      </trkpt>
      <trkpt lat="47.14393" lon="2.19944">
        <ele>120</ele>
        <time>2018-04-17T16:00:20Z</time>
      </trkpt>
      <trkpt lat="47.14393" lon="2.19941">
        <ele>120</ele>
        <time>2018-04-17T16:00:22Z</time>
      </trkpt>
      <trkpt lat="47.14396" lon="2.19935">
        <ele>120</ele>
        <time>2018-04-17T16:00:25Z</time>
      </trkpt>
      <trkpt lat="47.1441" lon="2.19922">
        <ele>120</ele>
        <time>2018-04-17T16:00:31Z</time>
      </trkpt>
      <trkpt lat="47.14429" lon="2.19902">
        <ele>119</ele>
        <time>2018-04-17T16:00:38Z</time>
      </trkpt>
      <trkpt lat="47.14443" lon="2.19888">
        <ele>118</ele>
        <time>2018-04-17T16:00:42Z</time>
      </trkpt>
      <trkpt lat="47.14455" lon="2.19876">
        <ele>118</ele>
        <time>2018-04-17T16:00:46Z</time>
      </trkpt>
      <trkpt lat="47.14475" lon="2.19853">
        <ele>117</ele>
        <time>2018-04-17T16:00:54Z</time>
      </trkpt>
      <trkpt lat="47.14491" lon="2.19837">
        <ele>117</ele>
        <time>2018-04-17T16:01:00Z</time>
      </trkpt>
      <trkpt lat="47.14508" lon="2.19818">
        <ele>116</ele>
        <time>2018-04-17T16:01:08Z</time>
      </trkpt>
      <trkpt lat="47.14512" lon="2.19811">
        <ele>116</ele>
        <time>2018-04-17T16:01:12Z</time>
      </trkpt>
      <trkpt lat="47.14513" lon="2.19809">
        <ele>116</ele>
        <time>2018-04-17T16:01:14Z</time>
      </trkpt>
      <trkpt lat="47.14513" lon="2.19809">
        <ele>116</ele>
        <time>2018-04-17T16:01:18Z</time>
      </trkpt>
      <trkpt lat="47.14513" lon="2.19809">
        <ele>116</ele>
        <time>2018-04-17T16:01:28Z</time>
      </trkpt>
      <trkpt lat="47.14513" lon="2.19809">
        <ele>116</ele>
        <time>2018-04-17T16:01:40Z</time>
      </trkpt>
      <trkpt lat="47.14512" lon="2.19809">
        <ele>116</ele>
        <time>2018-04-17T16:01:47Z</time>
      </trkpt>
      <trkpt lat="47.14512" lon="2.19809">
        <ele>116</ele>
        <time>2018-04-17T16:02:04Z</time>
      </trkpt>
      <trkpt lat="47.14512" lon="2.19809">
        <ele>116</ele>
        <time>2018-04-17T16:02:13Z</time>
      </trkpt>
      <trkpt lat="47.14512" lon="2.19809">
        <ele>116</ele>
        <time>2018-04-17T16:02:18Z</time>
      </trkpt>
      <trkpt lat="47.14512" lon="2.19809">
        <ele>116</ele>
        <time>2018-04-17T16:02:24Z</time>
      </trkpt>
      <trkpt lat="47.14512" lon="2.19809">
        <ele>116</ele>
        <time>2018-04-17T16:02:34Z</time>
      </trkpt>
      <trkpt lat="47.14512" lon="2.19809">
        <ele>116</ele>
        <time>2018-04-17T16:02:47Z</time>
      </trkpt>
      <trkpt lat="47.14512" lon="2.19809">
        <ele>116</ele>
        <time>2018-04-17T16:03:00Z</time>
      </trkpt>
      <trkpt lat="47.14513" lon="2.19809">
        <ele>116</ele>
        <time>2018-04-17T16:03:12Z</time>
      </trkpt>
      <trkpt lat="47.14513" lon="2.19809">
        <ele>116</ele>
        <time>2018-04-17T16:03:29Z</time>
      </trkpt>
      <trkpt lat="47.14513" lon="2.19809">
        <ele>116</ele>
        <time>2018-04-17T16:03:41Z</time>
      </trkpt>
      <trkpt lat="47.14513" lon="2.19809">
        <ele>116</ele>
        <time>2018-04-17T16:03:46Z</time>
      </trkpt>
      <trkpt lat="47.14513" lon="2.19809">
        <ele>116</ele>
        <time>2018-04-17T16:03:50Z</time>
      </trkpt>
      <trkpt lat="47.14513" lon="2.19809">
        <ele>116</ele>
        <time>2018-04-17T16:04:02Z</time>
      </trkpt>
      <trkpt lat="47.14513" lon="2.19809">
        <ele>116</ele>
        <time>2018-04-17T16:04:14Z</time>
      </trkpt>
      <trkpt lat="47.14513" lon="2.19809">
        <ele>116</ele>
        <time>2018-04-17T16:04:27Z</time>
      </trkpt>
      <trkpt lat="47.14514" lon="2.19808">
        <ele>116</ele>
        <time>2018-04-17T16:04:32Z</time>
      </trkpt>
      <trkpt lat="47.14517" lon="2.19805">
        <ele>117</ele>
        <time>2018-04-17T16:04:34Z</time>
      </trkpt>
      <trkpt lat="47.14531" lon="2.19791">
        <ele>117</ele>
        <time>2018-04-17T16:04:44Z</time>
      </trkpt>
      <trkpt lat="47.14545" lon="2.19775">
        <ele>117</ele>
        <time>2018-04-17T16:04:49Z</time>
      </trkpt>
      <trkpt lat="47.14559" lon="2.19758">
        <ele>117</ele>
        <time>2018-04-17T16:04:55Z</time>
      </trkpt>
      <trkpt lat="47.14572" lon="2.19744">
        <ele>117</ele>
        <time>2018-04-17T16:05:01Z</time>
      </trkpt>
      <trkpt lat="47.14587" lon="2.19729">
        <ele>118</ele>
        <time>2018-04-17T16:05:06Z</time>
      </trkpt>
      <trkpt lat="47.14602" lon="2.1971">
        <ele>118</ele>
        <time>2018-04-17T16:05:12Z</time>
      </trkpt>
      <trkpt lat="47.14616" lon="2.19691">
        <ele>117</ele>
        <time>2018-04-17T16:05:18Z</time>
      </trkpt>
      <trkpt lat="47.14638" lon="2.19667">
        <ele>117</ele>
        <time>2018-04-17T16:05:27Z</time>
      </trkpt>
      <trkpt lat="47.1465" lon="2.19656">
        <ele>117</ele>
        <time>2018-04-17T16:05:32Z</time>
      </trkpt>
      <trkpt lat="47.14669" lon="2.19635">
        <ele>117</ele>
        <time>2018-04-17T16:05:39Z</time>
      </trkpt>
      <trkpt lat="47.14686" lon="2.19615">
        <ele>116</ele>
        <time>2018-04-17T16:05:45Z</time>
      </trkpt>
      <trkpt lat="47.14703" lon="2.19588">
        <ele>116</ele>
        <time>2018-04-17T16:05:52Z</time>
      </trkpt>
      <trkpt lat="47.14724" lon="2.1956">
        <ele>116</ele>
        <time>2018-04-17T16:06:00Z</time>
      </trkpt>
      <trkpt lat="47.14735" lon="2.19545">
        <ele>116</ele>
        <time>2018-04-17T16:06:05Z</time>
      </trkpt>
      <trkpt lat="47.14746" lon="2.19533">
        <ele>116</ele>
        <time>2018-04-17T16:06:10Z</time>
      </trkpt>
      <trkpt lat="47.14752" lon="2.1952">
        <ele>116</ele>
        <time>2018-04-17T16:06:15Z</time>
      </trkpt>
      <trkpt lat="47.14763" lon="2.19505">
        <ele>116</ele>
        <time>2018-04-17T16:06:21Z</time>
      </trkpt>
      <trkpt lat="47.14779" lon="2.19483">
        <ele>117</ele>
        <time>2018-04-17T16:06:28Z</time>
      </trkpt>
      <trkpt lat="47.14782" lon="2.19479">
        <ele>117</ele>
        <time>2018-04-17T16:06:29Z</time>
      </trkpt>
      <trkpt lat="47.14798" lon="2.19455">
        <ele>117</ele>
        <time>2018-04-17T16:06:36Z</time>
      </trkpt>
      <trkpt lat="47.14821" lon="2.19423">
        <ele>117</ele>
        <time>2018-04-17T16:06:46Z</time>
      </trkpt>
      <trkpt lat="47.14839" lon="2.19399">
        <ele>117</ele>
        <time>2018-04-17T16:06:54Z</time>
      </trkpt>
      <trkpt lat="47.14855" lon="2.19377">
        <ele>117</ele>
        <time>2018-04-17T16:07:01Z</time>
      </trkpt>
      <trkpt lat="47.14869" lon="2.19358">
        <ele>117</ele>
        <time>2018-04-17T16:07:07Z</time>
      </trkpt>
      <trkpt lat="47.14885" lon="2.19337">
        <ele>117</ele>
        <time>2018-04-17T16:07:14Z</time>
      </trkpt>
      <trkpt lat="47.14902" lon="2.19313">
        <ele>117</ele>
        <time>2018-04-17T16:07:21Z</time>
      </trkpt>
      <trkpt lat="47.14921" lon="2.1929">
        <ele>117</ele>
        <time>2018-04-17T16:07:29Z</time>
      </trkpt>
      <trkpt lat="47.14929" lon="2.19276">
        <ele>117</ele>
        <time>2018-04-17T16:07:33Z</time>
      </trkpt>
      <trkpt lat="47.14949" lon="2.19248">
        <ele>117</ele>
        <time>2018-04-17T16:07:41Z</time>
      </trkpt>
      <trkpt lat="47.14974" lon="2.19213">
        <ele>117</ele>
        <time>2018-04-17T16:07:51Z</time>
      </trkpt>
      <trkpt lat="47.15001" lon="2.19175">
        <ele>117</ele>
        <time>2018-04-17T16:08:02Z</time>
      </trkpt>
      <trkpt lat="47.15019" lon="2.19152">
        <ele>117</ele>
        <time>2018-04-17T16:08:09Z</time>
      </trkpt>
      <trkpt lat="47.15036" lon="2.1913">
        <ele>117</ele>
        <time>2018-04-17T16:08:16Z</time>
      </trkpt>
      <trkpt lat="47.15045" lon="2.19115">
        <ele>117</ele>
        <time>2018-04-17T16:08:21Z</time>
      </trkpt>
      <trkpt lat="47.15063" lon="2.19093">
        <ele>117</ele>
        <time>2018-04-17T16:08:28Z</time>
      </trkpt>
      <trkpt lat="47.15084" lon="2.19066">
        <ele>117</ele>
        <time>2018-04-17T16:08:36Z</time>
      </trkpt>
      <trkpt lat="47.15105" lon="2.19038">
        <ele>117</ele>
        <time>2018-04-17T16:08:44Z</time>
      </trkpt>
      <trkpt lat="47.15125" lon="2.19011">
        <ele>117</ele>
        <time>2018-04-17T16:08:52Z</time>
      </trkpt>
      <trkpt lat="47.15138" lon="2.1899">
        <ele>117</ele>
        <time>2018-04-17T16:08:58Z</time>
      </trkpt>
      <trkpt lat="47.15152" lon="2.18965">
        <ele>117</ele>
        <time>2018-04-17T16:09:05Z</time>
      </trkpt>
      <trkpt lat="47.15171" lon="2.18927">
        <ele>118</ele>
        <time>2018-04-17T16:09:14Z</time>
      </trkpt>
      <trkpt lat="47.15184" lon="2.18899">
        <ele>118</ele>
        <time>2018-04-17T16:09:21Z</time>
      </trkpt>
      <trkpt lat="47.15199" lon="2.18866">
        <ele>118</ele>
        <time>2018-04-17T16:09:29Z</time>
      </trkpt>
      <trkpt lat="47.15219" lon="2.18823">
        <ele>119</ele>
        <time>2018-04-17T16:09:39Z</time>
      </trkpt>
      <trkpt lat="47.15239" lon="2.18782">
        <ele>119</ele>
        <time>2018-04-17T16:09:48Z</time>
      </trkpt>
      <trkpt lat="47.15253" lon="2.18752">
        <ele>119</ele>
        <time>2018-04-17T16:09:55Z</time>
      </trkpt>
      <trkpt lat="47.15269" lon="2.18719">
        <ele>119</ele>
        <time>2018-04-17T16:10:03Z</time>
      </trkpt>
      <trkpt lat="47.15279" lon="2.18698">
        <ele>120</ele>
        <time>2018-04-17T16:10:08Z</time>
      </trkpt>
      <trkpt lat="47.15298" lon="2.18671">
        <ele>120</ele>
        <time>2018-04-17T16:10:15Z</time>
      </trkpt>
      <trkpt lat="47.15325" lon="2.18639">
        <ele>121</ele>
        <time>2018-04-17T16:10:24Z</time>
      </trkpt>
      <trkpt lat="47.15351" lon="2.18607">
        <ele>121</ele>
        <time>2018-04-17T16:10:33Z</time>
      </trkpt>
      <trkpt lat="47.15373" lon="2.18579">
        <ele>120</ele>
        <time>2018-04-17T16:10:41Z</time>
      </trkpt>
      <trkpt lat="47.1539" lon="2.18558">
        <ele>120</ele>
        <time>2018-04-17T16:10:47Z</time>
      </trkpt>
      <trkpt lat="47.15392" lon="2.18554">
        <ele>120</ele>
        <time>2018-04-17T16:10:48Z</time>
      </trkpt>
      <trkpt lat="47.15412" lon="2.18522">
        <ele>119</ele>
        <time>2018-04-17T16:10:56Z</time>
      </trkpt>
      <trkpt lat="47.15431" lon="2.18484">
        <ele>118</ele>
        <time>2018-04-17T16:11:05Z</time>
      </trkpt>
      <trkpt lat="47.15436" lon="2.18471">
        <ele>118</ele>
        <time>2018-04-17T16:11:08Z</time>
      </trkpt>
      <trkpt lat="47.1544" lon="2.18463">
        <ele>118</ele>
        <time>2018-04-17T16:11:10Z</time>
      </trkpt>
      <trkpt lat="47.15445" lon="2.18452">
        <ele>118</ele>
        <time>2018-04-17T16:11:13Z</time>
      </trkpt>
      <trkpt lat="47.15456" lon="2.18426">
        <ele>118</ele>
        <time>2018-04-17T16:11:20Z</time>
      </trkpt>
      <trkpt lat="47.15464" lon="2.18407">
        <ele>118</ele>
        <time>2018-04-17T16:11:25Z</time>
      </trkpt>
      <trkpt lat="47.15467" lon="2.18398">
        <ele>118</ele>
        <time>2018-04-17T16:11:27Z</time>
      </trkpt>
      <trkpt lat="47.15481" lon="2.18361">
        <ele>119</ele>
        <time>2018-04-17T16:11:35Z</time>
      </trkpt>
      <trkpt lat="47.15497" lon="2.18317">
        <ele>120</ele>
        <time>2018-04-17T16:11:44Z</time>
      </trkpt>
      <trkpt lat="47.15515" lon="2.18271">
        <ele>121</ele>
        <time>2018-04-17T16:11:54Z</time>
      </trkpt>
      <trkpt lat="47.15517" lon="2.18267">
        <ele>121</ele>
        <time>2018-04-17T16:11:55Z</time>
      </trkpt>
      <trkpt lat="47.1554" lon="2.18223">
        <ele>122</ele>
        <time>2018-04-17T16:12:05Z</time>
      </trkpt>
      <trkpt lat="47.15559" lon="2.1819">
        <ele>122</ele>
        <time>2018-04-17T16:12:13Z</time>
      </trkpt>
      <trkpt lat="47.15581" lon="2.18157">
        <ele>122</ele>
        <time>2018-04-17T16:12:21Z</time>
      </trkpt>
      <trkpt lat="47.156" lon="2.18127">
        <ele>123</ele>
        <time>2018-04-17T16:12:28Z</time>
      </trkpt>
      <trkpt lat="47.15603" lon="2.18123">
        <ele>123</ele>
        <time>2018-04-17T16:12:29Z</time>
      </trkpt>
      <trkpt lat="47.1563" lon="2.1808">
        <ele>124</ele>
        <time>2018-04-17T16:12:39Z</time>
      </trkpt>
      <trkpt lat="47.15651" lon="2.18044">
        <ele>124</ele>
        <time>2018-04-17T16:12:47Z</time>
      </trkpt>
      <trkpt lat="47.15673" lon="2.18008">
        <ele>124</ele>
        <time>2018-04-17T16:12:55Z</time>
      </trkpt>
      <trkpt lat="47.15696" lon="2.1797">
        <ele>124</ele>
        <time>2018-04-17T16:13:03Z</time>
      </trkpt>
      <trkpt lat="47.15727" lon="2.17921">
        <ele>124</ele>
        <time>2018-04-17T16:13:13Z</time>
      </trkpt>
      <trkpt lat="47.15754" lon="2.17875">
        <ele>124</ele>
        <time>2018-04-17T16:13:23Z</time>
      </trkpt>
      <trkpt lat="47.15758" lon="2.1787">
        <ele>124</ele>
        <time>2018-04-17T16:13:25Z</time>
      </trkpt>
      <trkpt lat="47.15764" lon="2.17865">
        <ele>124</ele>
        <time>2018-04-17T16:13:28Z</time>
      </trkpt>
      <trkpt lat="47.15772" lon="2.17852">
        <ele>124</ele>
        <time>2018-04-17T16:13:34Z</time>
      </trkpt>
      <trkpt lat="47.15772" lon="2.17851">
        <ele>124</ele>
        <time>2018-04-17T16:13:42Z</time>
      </trkpt>
      <trkpt lat="47.15779" lon="2.17843">
        <ele>124</ele>
        <time>2018-04-17T16:13:46Z</time>
      </trkpt>
      <trkpt lat="47.15781" lon="2.1784">
        <ele>124</ele>
        <time>2018-04-17T16:13:47Z</time>
      </trkpt>
      <trkpt lat="47.15796" lon="2.17819">
        <ele>124</ele>
        <time>2018-04-17T16:13:53Z</time>
      </trkpt>
      <trkpt lat="47.15821" lon="2.17783">
        <ele>124</ele>
        <time>2018-04-17T16:14:01Z</time>
      </trkpt>
      <trkpt lat="47.15843" lon="2.17752">
        <ele>124</ele>
        <time>2018-04-17T16:14:08Z</time>
      </trkpt>
      <trkpt lat="47.15846" lon="2.17747">
        <ele>124</ele>
        <time>2018-04-17T16:14:09Z</time>
      </trkpt>
      <trkpt lat="47.15849" lon="2.17742">
        <ele>124</ele>
        <time>2018-04-17T16:14:10Z</time>
      </trkpt>
      <trkpt lat="47.15868" lon="2.17715">
        <ele>124</ele>
        <time>2018-04-17T16:14:16Z</time>
      </trkpt>
      <trkpt lat="47.15894" lon="2.17677">
        <ele>124</ele>
        <time>2018-04-17T16:14:24Z</time>
      </trkpt>
      <trkpt lat="47.159" lon="2.17668">
        <ele>125</ele>
        <time>2018-04-17T16:14:26Z</time>
      </trkpt>
      <trkpt lat="47.1591" lon="2.17655">
        <ele>124</ele>
        <time>2018-04-17T16:14:29Z</time>
      </trkpt>
      <trkpt lat="47.15916" lon="2.17646">
        <ele>124</ele>
        <time>2018-04-17T16:14:31Z</time>
      </trkpt>
      <trkpt lat="47.1594" lon="2.17613">
        <ele>123</ele>
        <time>2018-04-17T16:14:39Z</time>
      </trkpt>
      <trkpt lat="47.15954" lon="2.17591">
        <ele>123</ele>
        <time>2018-04-17T16:14:45Z</time>
      </trkpt>
      <trkpt lat="47.15973" lon="2.17563">
        <ele>122</ele>
        <time>2018-04-17T16:14:52Z</time>
      </trkpt>
      <trkpt lat="47.15999" lon="2.17527">
        <ele>121</ele>
        <time>2018-04-17T16:15:00Z</time>
      </trkpt>
      <trkpt lat="47.16034" lon="2.1748">
        <ele>121</ele>
        <time>2018-04-17T16:15:10Z</time>
      </trkpt>
      <trkpt lat="47.16041" lon="2.17471">
        <ele>121</ele>
        <time>2018-04-17T16:15:12Z</time>
      </trkpt>
      <trkpt lat="47.16057" lon="2.17448">
        <ele>121</ele>
        <time>2018-04-17T16:15:17Z</time>
      </trkpt>
      <trkpt lat="47.16077" lon="2.17418">
        <ele>122</ele>
        <time>2018-04-17T16:15:23Z</time>
      </trkpt>
      <trkpt lat="47.1608" lon="2.17413">
        <ele>122</ele>
        <time>2018-04-17T16:15:24Z</time>
      </trkpt>
      <trkpt lat="47.16108" lon="2.17373">
        <ele>121</ele>
        <time>2018-04-17T16:15:33Z</time>
      </trkpt>
      <trkpt lat="47.16132" lon="2.17339">
        <ele>121</ele>
        <time>2018-04-17T16:15:41Z</time>
      </trkpt>
      <trkpt lat="47.16156" lon="2.17305">
        <ele>121</ele>
        <time>2018-04-17T16:15:49Z</time>
      </trkpt>
      <trkpt lat="47.16187" lon="2.17263">
        <ele>121</ele>
        <time>2018-04-17T16:15:59Z</time>
      </trkpt>
      <trkpt lat="47.16219" lon="2.17216">
        <ele>121</ele>
        <time>2018-04-17T16:16:09Z</time>
      </trkpt>
      <trkpt lat="47.16246" lon="2.17176">
        <ele>120</ele>
        <time>2018-04-17T16:16:17Z</time>
      </trkpt>
      <trkpt lat="47.1625" lon="2.1717">
        <ele>119</ele>
        <time>2018-04-17T16:16:18Z</time>
      </trkpt>
      <trkpt lat="47.16256" lon="2.1716">
        <ele>119</ele>
        <time>2018-04-17T16:16:20Z</time>
      </trkpt>
      <trkpt lat="47.1627" lon="2.17142">
        <ele>120</ele>
        <time>2018-04-17T16:16:24Z</time>
      </trkpt>
      <trkpt lat="47.16297" lon="2.17105">
        <ele>120</ele>
        <time>2018-04-17T16:16:32Z</time>
      </trkpt>
      <trkpt lat="47.16324" lon="2.17066">
        <ele>122</ele>
        <time>2018-04-17T16:16:41Z</time>
      </trkpt>
      <trkpt lat="47.1633" lon="2.17057">
        <ele>122</ele>
        <time>2018-04-17T16:16:43Z</time>
      </trkpt>
      <trkpt lat="47.16341" lon="2.17043">
        <ele>122</ele>
        <time>2018-04-17T16:16:47Z</time>
      </trkpt>
      <trkpt lat="47.16355" lon="2.17027">
        <ele>122</ele>
        <time>2018-04-17T16:16:52Z</time>
      </trkpt>
      <trkpt lat="47.16367" lon="2.17015">
        <ele>122</ele>
        <time>2018-04-17T16:16:58Z</time>
      </trkpt>
      <trkpt lat="47.16376" lon="2.16997">
        <ele>122</ele>
        <time>2018-04-17T16:17:03Z</time>
      </trkpt>
      <trkpt lat="47.16395" lon="2.16967">
        <ele>122</ele>
        <time>2018-04-17T16:17:10Z</time>
      </trkpt>
      <trkpt lat="47.16411" lon="2.16945">
        <ele>121</ele>
        <time>2018-04-17T16:17:16Z</time>
      </trkpt>
      <trkpt lat="47.16426" lon="2.16923">
        <ele>121</ele>
        <time>2018-04-17T16:17:23Z</time>
      </trkpt>
      <trkpt lat="47.16439" lon="2.16904">
        <ele>121</ele>
        <time>2018-04-17T16:17:28Z</time>
      </trkpt>
      <trkpt lat="47.16442" lon="2.169">
        <ele>121</ele>
        <time>2018-04-17T16:17:29Z</time>
      </trkpt>
      <trkpt lat="47.16464" lon="2.16872">
        <ele>120</ele>
        <time>2018-04-17T16:17:36Z</time>
      </trkpt>
      <trkpt lat="47.16473" lon="2.1686">
        <ele>121</ele>
        <time>2018-04-17T16:17:39Z</time>
      </trkpt>
      <trkpt lat="47.16485" lon="2.16844">
        <ele>121</ele>
        <time>2018-04-17T16:17:43Z</time>
      </trkpt>
      <trkpt lat="47.1649" lon="2.16835">
        <ele>121</ele>
        <time>2018-04-17T16:17:45Z</time>
      </trkpt>
      <trkpt lat="47.165" lon="2.16823">
        <ele>121</ele>
        <time>2018-04-17T16:17:48Z</time>
      </trkpt>
      <trkpt lat="47.16506" lon="2.16814">
        <ele>121</ele>
        <time>2018-04-17T16:17:50Z</time>
      </trkpt>
      <trkpt lat="47.16515" lon="2.16803">
        <ele>121</ele>
        <time>2018-04-17T16:17:53Z</time>
      </trkpt>
      <trkpt lat="47.16543" lon="2.16766">
        <ele>122</ele>
        <time>2018-04-17T16:18:02Z</time>
      </trkpt>
      <trkpt lat="47.16549" lon="2.16758">
        <ele>122</ele>
        <time>2018-04-17T16:18:04Z</time>
      </trkpt>
      <trkpt lat="47.16563" lon="2.16742">
        <ele>122</ele>
        <time>2018-04-17T16:18:08Z</time>
      </trkpt>
      <trkpt lat="47.16599" lon="2.16701">
        <ele>121</ele>
        <time>2018-04-17T16:18:18Z</time>
      </trkpt>
      <trkpt lat="47.16634" lon="2.16667">
        <ele>120</ele>
        <time>2018-04-17T16:18:27Z</time>
      </trkpt>
      <trkpt lat="47.16643" lon="2.16657">
        <ele>120</ele>
        <time>2018-04-17T16:18:29Z</time>
      </trkpt>
      <trkpt lat="47.16668" lon="2.16627">
        <ele>119</ele>
        <time>2018-04-17T16:18:35Z</time>
      </trkpt>
      <trkpt lat="47.16697" lon="2.16588">
        <ele>120</ele>
        <time>2018-04-17T16:18:43Z</time>
      </trkpt>
      <trkpt lat="47.16701" lon="2.16583">
        <ele>120</ele>
        <time>2018-04-17T16:18:44Z</time>
      </trkpt>
      <trkpt lat="47.16725" lon="2.16548">
        <ele>119</ele>
        <time>2018-04-17T16:18:51Z</time>
      </trkpt>
      <trkpt lat="47.16739" lon="2.16529">
        <ele>119</ele>
        <time>2018-04-17T16:18:55Z</time>
      </trkpt>
      <trkpt lat="47.16746" lon="2.16519">
        <ele>119</ele>
        <time>2018-04-17T16:18:57Z</time>
      </trkpt>
      <trkpt lat="47.16757" lon="2.16504">
        <ele>119</ele>
        <time>2018-04-17T16:19:00Z</time>
      </trkpt>
      <trkpt lat="47.16768" lon="2.16488">
        <ele>119</ele>
        <time>2018-04-17T16:19:03Z</time>
      </trkpt>
      <trkpt lat="47.16772" lon="2.16482">
        <ele>118</ele>
        <time>2018-04-17T16:19:04Z</time>
      </trkpt>
      <trkpt lat="47.16799" lon="2.16444">
        <ele>118</ele>
        <time>2018-04-17T16:19:11Z</time>
      </trkpt>
      <trkpt lat="47.16807" lon="2.16433">
        <ele>118</ele>
        <time>2018-04-17T16:19:13Z</time>
      </trkpt>
      <trkpt lat="47.16819" lon="2.16417">
        <ele>119</ele>
        <time>2018-04-17T16:19:16Z</time>
      </trkpt>
      <trkpt lat="47.16823" lon="2.16412">
        <ele>119</ele>
        <time>2018-04-17T16:19:17Z</time>
      </trkpt>
      <trkpt lat="47.1684" lon="2.16391">
        <ele>118</ele>
        <time>2018-04-17T16:19:21Z</time>
      </trkpt>
      <trkpt lat="47.16871" lon="2.16355">
        <ele>118</ele>
        <time>2018-04-17T16:19:28Z</time>
      </trkpt>
      <trkpt lat="47.16876" lon="2.1635">
        <ele>118</ele>
        <time>2018-04-17T16:19:29Z</time>
      </trkpt>
      <trkpt lat="47.16885" lon="2.1634">
        <ele>118</ele>
        <time>2018-04-17T16:19:31Z</time>
      </trkpt>
      <trkpt lat="47.16889" lon="2.16335">
        <ele>118</ele>
        <time>2018-04-17T16:19:32Z</time>
      </trkpt>
      <trkpt lat="47.16934" lon="2.16289">
        <ele>116</ele>
        <time>2018-04-17T16:19:42Z</time>
      </trkpt>
      <trkpt lat="47.1697" lon="2.16253">
        <ele>116</ele>
        <time>2018-04-17T16:19:50Z</time>
      </trkpt>
      <trkpt lat="47.16994" lon="2.1623">
        <ele>116</ele>
        <time>2018-04-17T16:19:55Z</time>
      </trkpt>
      <trkpt lat="47.17004" lon="2.16221">
        <ele>116</ele>
        <time>2018-04-17T16:19:57Z</time>
      </trkpt>
      <trkpt lat="47.17026" lon="2.16198">
        <ele>116</ele>
        <time>2018-04-17T16:20:02Z</time>
      </trkpt>
      <trkpt lat="47.17036" lon="2.1619">
        <ele>116</ele>
        <time>2018-04-17T16:20:04Z</time>
      </trkpt>
      <trkpt lat="47.17063" lon="2.16162">
        <ele>116</ele>
        <time>2018-04-17T16:20:10Z</time>
      </trkpt>
      <trkpt lat="47.17089" lon="2.16137">
        <ele>116</ele>
        <time>2018-04-17T16:20:16Z</time>
      </trkpt>
      <trkpt lat="47.17098" lon="2.16129">
        <ele>116</ele>
        <time>2018-04-17T16:20:18Z</time>
      </trkpt>
      <trkpt lat="47.17134" lon="2.16091">
        <ele>116</ele>
        <time>2018-04-17T16:20:27Z</time>
      </trkpt>
      <trkpt lat="47.17142" lon="2.16081">
        <ele>116</ele>
        <time>2018-04-17T16:20:29Z</time>
      </trkpt>
      <trkpt lat="47.17155" lon="2.16068">
        <ele>117</ele>
        <time>2018-04-17T16:20:32Z</time>
      </trkpt>
      <trkpt lat="47.17159" lon="2.16064">
        <ele>117</ele>
        <time>2018-04-17T16:20:33Z</time>
      </trkpt>
      <trkpt lat="47.17167" lon="2.16055">
        <ele>117</ele>
        <time>2018-04-17T16:20:35Z</time>
      </trkpt>
      <trkpt lat="47.17182" lon="2.16039">
        <ele>117</ele>
        <time>2018-04-17T16:20:39Z</time>
      </trkpt>
      <trkpt lat="47.17198" lon="2.16021">
        <ele>117</ele>
        <time>2018-04-17T16:20:43Z</time>
      </trkpt>
      <trkpt lat="47.1722" lon="2.15994">
        <ele>118</ele>
        <time>2018-04-17T16:20:49Z</time>
      </trkpt>
      <trkpt lat="47.17235" lon="2.15977">
        <ele>118</ele>
        <time>2018-04-17T16:20:53Z</time>
      </trkpt>
      <trkpt lat="47.17249" lon="2.15959">
        <ele>118</ele>
        <time>2018-04-17T16:20:57Z</time>
      </trkpt>
      <trkpt lat="47.17256" lon="2.1595">
        <ele>119</ele>
        <time>2018-04-17T16:20:59Z</time>
      </trkpt>
      <trkpt lat="47.17289" lon="2.15907">
        <ele>121</ele>
        <time>2018-04-17T16:21:09Z</time>
      </trkpt>
      <trkpt lat="47.17296" lon="2.15899">
        <ele>121</ele>
        <time>2018-04-17T16:21:11Z</time>
      </trkpt>
      <trkpt lat="47.17314" lon="2.15877">
        <ele>122</ele>
        <time>2018-04-17T16:21:17Z</time>
      </trkpt>
      <trkpt lat="47.17317" lon="2.15874">
        <ele>122</ele>
        <time>2018-04-17T16:21:18Z</time>
      </trkpt>
      <trkpt lat="47.17333" lon="2.15852">
        <ele>123</ele>
        <time>2018-04-17T16:21:25Z</time>
      </trkpt>
      <trkpt lat="47.17346" lon="2.15837">
        <ele>125</ele>
        <time>2018-04-17T16:21:31Z</time>
      </trkpt>
      <trkpt lat="47.17355" lon="2.15832">
        <ele>124</ele>
        <time>2018-04-17T16:21:37Z</time>
      </trkpt>
      <trkpt lat="47.17355" lon="2.1583">
        <ele>124</ele>
        <time>2018-04-17T16:21:38Z</time>
      </trkpt>
      <trkpt lat="47.17357" lon="2.15824">
        <ele>124</ele>
        <time>2018-04-17T16:21:41Z</time>
      </trkpt>
      <trkpt lat="47.17357" lon="2.15824">
        <ele>124</ele>
        <time>2018-04-17T16:21:45Z</time>
      </trkpt>
      <trkpt lat="47.17358" lon="2.15821">
        <ele>124</ele>
        <time>2018-04-17T16:21:56Z</time>
      </trkpt>
      <trkpt lat="47.17359" lon="2.15821">
        <ele>124</ele>
        <time>2018-04-17T16:22:01Z</time>
      </trkpt>
      <trkpt lat="47.17359" lon="2.15821">
        <ele>124</ele>
        <time>2018-04-17T16:22:08Z</time>
      </trkpt>
      <trkpt lat="47.17359" lon="2.15821">
        <ele>124</ele>
        <time>2018-04-17T16:22:25Z</time>
      </trkpt>
      <trkpt lat="47.17359" lon="2.15821">
        <ele>124</ele>
        <time>2018-04-17T16:22:40Z</time>
      </trkpt>
      <trkpt lat="47.17359" lon="2.15821">
        <ele>124</ele>
        <time>2018-04-17T16:23:02Z</time>
      </trkpt>
      <trkpt lat="47.17359" lon="2.15821">
        <ele>124</ele>
        <time>2018-04-17T16:23:17Z</time>
      </trkpt>
      <trkpt lat="47.17359" lon="2.15821">
        <ele>124</ele>
        <time>2018-04-17T16:23:30Z</time>
      </trkpt>
      <trkpt lat="47.17359" lon="2.15821">
        <ele>124</ele>
        <time>2018-04-17T16:23:50Z</time>
      </trkpt>
      <trkpt lat="47.17359" lon="2.15821">
        <ele>124</ele>
        <time>2018-04-17T16:24:02Z</time>
      </trkpt>
      <trkpt lat="47.17359" lon="2.15821">
        <ele>124</ele>
        <time>2018-04-17T16:24:16Z</time>
      </trkpt>
      <trkpt lat="47.17359" lon="2.15821">
        <ele>124</ele>
        <time>2018-04-17T16:24:19Z</time>
      </trkpt>
      <trkpt lat="47.17366" lon="2.15818">
        <ele>124</ele>
        <time>2018-04-17T16:24:22Z</time>
      </trkpt>
      <trkpt lat="47.17381" lon="2.15807">
        <ele>123</ele>
        <time>2018-04-17T16:24:26Z</time>
      </trkpt>
      <trkpt lat="47.17411" lon="2.15781">
        <ele>123</ele>
        <time>2018-04-17T16:24:34Z</time>
      </trkpt>
      <trkpt lat="47.17444" lon="2.15754">
        <ele>122</ele>
        <time>2018-04-17T16:24:42Z</time>
      </trkpt>
      <trkpt lat="47.1748" lon="2.15725">
        <ele>123</ele>
        <time>2018-04-17T16:24:50Z</time>
      </trkpt>
      <trkpt lat="47.17511" lon="2.15697">
        <ele>122</ele>
        <time>2018-04-17T16:24:57Z</time>
      </trkpt>
      <trkpt lat="47.17551" lon="2.15663">
        <ele>121</ele>
        <time>2018-04-17T16:25:06Z</time>
      </trkpt>
      <trkpt lat="47.1756" lon="2.15655">
        <ele>121</ele>
        <time>2018-04-17T16:25:08Z</time>
      </trkpt>
      <trkpt lat="47.1759" lon="2.15628">
        <ele>120</ele>
        <time>2018-04-17T16:25:15Z</time>
      </trkpt>
      <trkpt lat="47.17615" lon="2.15606">
        <ele>120</ele>
        <time>2018-04-17T16:25:21Z</time>
      </trkpt>
      <trkpt lat="47.1762" lon="2.15602">
        <ele>120</ele>
        <time>2018-04-17T16:25:22Z</time>
      </trkpt>
      <trkpt lat="47.17656" lon="2.1557">
        <ele>119</ele>
        <time>2018-04-17T16:25:31Z</time>
      </trkpt>
      <trkpt lat="47.17665" lon="2.15563">
        <ele>119</ele>
        <time>2018-04-17T16:25:33Z</time>
      </trkpt>
      <trkpt lat="47.17701" lon="2.15533">
        <ele>119</ele>
        <time>2018-04-17T16:25:41Z</time>
      </trkpt>
      <trkpt lat="47.17706" lon="2.15529">
        <ele>119</ele>
        <time>2018-04-17T16:25:42Z</time>
      </trkpt>
      <trkpt lat="47.17736" lon="2.15506">
        <ele>118</ele>
        <time>2018-04-17T16:25:48Z</time>
      </trkpt>
      <trkpt lat="47.17747" lon="2.15499">
        <ele>118</ele>
        <time>2018-04-17T16:25:50Z</time>
      </trkpt>
      <trkpt lat="47.1778" lon="2.15477">
        <ele>117</ele>
        <time>2018-04-17T16:25:56Z</time>
      </trkpt>
      <trkpt lat="47.17784" lon="2.15473">
        <ele>117</ele>
        <time>2018-04-17T16:25:57Z</time>
      </trkpt>
      <trkpt lat="47.178" lon="2.15462">
        <ele>117</ele>
        <time>2018-04-17T16:26:02Z</time>
      </trkpt>
      <trkpt lat="47.17811" lon="2.15458">
        <ele>116</ele>
        <time>2018-04-17T16:26:07Z</time>
      </trkpt>
      <trkpt lat="47.17821" lon="2.15445">
        <ele>116</ele>
        <time>2018-04-17T16:26:12Z</time>
      </trkpt>
      <trkpt lat="47.17837" lon="2.15434">
        <ele>116</ele>
        <time>2018-04-17T16:26:17Z</time>
      </trkpt>
      <trkpt lat="47.17845" lon="2.15427">
        <ele>116</ele>
        <time>2018-04-17T16:26:19Z</time>
      </trkpt>
      <trkpt lat="47.17882" lon="2.15398">
        <ele>115</ele>
        <time>2018-04-17T16:26:27Z</time>
      </trkpt>
      <trkpt lat="47.17911" lon="2.15377">
        <ele>115</ele>
        <time>2018-04-17T16:26:34Z</time>
      </trkpt>
      <trkpt lat="47.17915" lon="2.15374">
        <ele>115</ele>
        <time>2018-04-17T16:26:35Z</time>
      </trkpt>
      <trkpt lat="47.17948" lon="2.1535">
        <ele>115</ele>
        <time>2018-04-17T16:26:43Z</time>
      </trkpt>
      <trkpt lat="47.17982" lon="2.15324">
        <ele>114</ele>
        <time>2018-04-17T16:26:51Z</time>
      </trkpt>
      <trkpt lat="47.18019" lon="2.15297">
        <ele>115</ele>
        <time>2018-04-17T16:27:00Z</time>
      </trkpt>
      <trkpt lat="47.18052" lon="2.15272">
        <ele>115</ele>
        <time>2018-04-17T16:27:08Z</time>
      </trkpt>
      <trkpt lat="47.18092" lon="2.15241">
        <ele>115</ele>
        <time>2018-04-17T16:27:18Z</time>
      </trkpt>
      <trkpt lat="47.18121" lon="2.15218">
        <ele>115</ele>
        <time>2018-04-17T16:27:25Z</time>
      </trkpt>
      <trkpt lat="47.18156" lon="2.15182">
        <ele>115</ele>
        <time>2018-04-17T16:27:34Z</time>
      </trkpt>
      <trkpt lat="47.18177" lon="2.15164">
        <ele>115</ele>
        <time>2018-04-17T16:27:41Z</time>
      </trkpt>
      <trkpt lat="47.18192" lon="2.15152">
        <ele>115</ele>
        <time>2018-04-17T16:27:48Z</time>
      </trkpt>
      <trkpt lat="47.18196" lon="2.15149">
        <ele>115</ele>
        <time>2018-04-17T16:27:51Z</time>
      </trkpt>
      <trkpt lat="47.18196" lon="2.15149">
        <ele>115</ele>
        <time>2018-04-17T16:27:52Z</time>
      </trkpt>
      <trkpt lat="47.18197" lon="2.15149">
        <ele>115</ele>
        <time>2018-04-17T16:27:58Z</time>
      </trkpt>
      <trkpt lat="47.18197" lon="2.15149">
        <ele>115</ele>
        <time>2018-04-17T16:28:10Z</time>
      </trkpt>
      <trkpt lat="47.18196" lon="2.15149">
        <ele>115</ele>
        <time>2018-04-17T16:28:16Z</time>
      </trkpt>
      <trkpt lat="47.18196" lon="2.15148">
        <ele>115</ele>
        <time>2018-04-17T16:28:19Z</time>
      </trkpt>
      <trkpt lat="47.182" lon="2.15141">
        <ele>115</ele>
        <time>2018-04-17T16:28:22Z</time>
      </trkpt>
      <trkpt lat="47.18213" lon="2.15123">
        <ele>115</ele>
        <time>2018-04-17T16:28:27Z</time>
      </trkpt>
      <trkpt lat="47.18236" lon="2.15093">
        <ele>116</ele>
        <time>2018-04-17T16:28:35Z</time>
      </trkpt>
      <trkpt lat="47.18258" lon="2.15064">
        <ele>115</ele>
        <time>2018-04-17T16:28:42Z</time>
      </trkpt>
      <trkpt lat="47.18265" lon="2.15056">
        <ele>115</ele>
        <time>2018-04-17T16:28:44Z</time>
      </trkpt>
      <trkpt lat="47.183" lon="2.1502">
        <ele>115</ele>
        <time>2018-04-17T16:28:54Z</time>
      </trkpt>
      <trkpt lat="47.1833" lon="2.14987">
        <ele>115</ele>
        <time>2018-04-17T16:29:03Z</time>
      </trkpt>
      <trkpt lat="47.18353" lon="2.14956">
        <ele>115</ele>
        <time>2018-04-17T16:29:10Z</time>
      </trkpt>
      <trkpt lat="47.18365" lon="2.14939">
        <ele>115</ele>
        <time>2018-04-17T16:29:14Z</time>
      </trkpt>
      <trkpt lat="47.18377" lon="2.1492">
        <ele>115</ele>
        <time>2018-04-17T16:29:18Z</time>
      </trkpt>
      <trkpt lat="47.18407" lon="2.14855">
        <ele>116</ele>
        <time>2018-04-17T16:29:30Z</time>
      </trkpt>
      <trkpt lat="47.18425" lon="2.14818">
        <ele>117</ele>
        <time>2018-04-17T16:29:37Z</time>
      </trkpt>
      <trkpt lat="47.1843" lon="2.14808">
        <ele>117</ele>
        <time>2018-04-17T16:29:39Z</time>
      </trkpt>
      <trkpt lat="47.18444" lon="2.14782">
        <ele>117</ele>
        <time>2018-04-17T16:29:44Z</time>
      </trkpt>
      <trkpt lat="47.18465" lon="2.14733">
        <ele>118</ele>
        <time>2018-04-17T16:29:52Z</time>
      </trkpt>
      <trkpt lat="47.18478" lon="2.14705">
        <ele>118</ele>
        <time>2018-04-17T16:29:57Z</time>
      </trkpt>
      <trkpt lat="47.18484" lon="2.14694">
        <ele>118</ele>
        <time>2018-04-17T16:29:59Z</time>
      </trkpt>
      <trkpt lat="47.18495" lon="2.14672">
        <ele>118</ele>
        <time>2018-04-17T16:30:03Z</time>
      </trkpt>
      <trkpt lat="47.18507" lon="2.14652">
        <ele>119</ele>
        <time>2018-04-17T16:30:07Z</time>
      </trkpt>
      <trkpt lat="47.18523" lon="2.14626">
        <ele>119</ele>
        <time>2018-04-17T16:30:12Z</time>
      </trkpt>
      <trkpt lat="47.18538" lon="2.146">
        <ele>120</ele>
        <time>2018-04-17T16:30:17Z</time>
      </trkpt>
      <trkpt lat="47.18564" lon="2.14554">
        <ele>120</ele>
        <time>2018-04-17T16:30:25Z</time>
      </trkpt>
      <trkpt lat="47.18581" lon="2.14522">
        <ele>119</ele>
        <time>2018-04-17T16:30:30Z</time>
      </trkpt>
      <trkpt lat="47.18588" lon="2.1451">
        <ele>119</ele>
        <time>2018-04-17T16:30:32Z</time>
      </trkpt>
      <trkpt lat="47.18623" lon="2.14446">
        <ele>117</ele>
        <time>2018-04-17T16:30:42Z</time>
      </trkpt>
      <trkpt lat="47.18626" lon="2.1444">
        <ele>117</ele>
        <time>2018-04-17T16:30:43Z</time>
      </trkpt>
      <trkpt lat="47.18636" lon="2.1442">
        <ele>117</ele>
        <time>2018-04-17T16:30:46Z</time>
      </trkpt>
      <trkpt lat="47.18649" lon="2.14394">
        <ele>116</ele>
        <time>2018-04-17T16:30:50Z</time>
      </trkpt>
      <trkpt lat="47.18677" lon="2.14332">
        <ele>116</ele>
        <time>2018-04-17T16:30:59Z</time>
      </trkpt>
      <trkpt lat="47.18687" lon="2.14311">
        <ele>116</ele>
        <time>2018-04-17T16:31:02Z</time>
      </trkpt>
      <trkpt lat="47.18703" lon="2.14277">
        <ele>116</ele>
        <time>2018-04-17T16:31:07Z</time>
      </trkpt>
      <trkpt lat="47.18728" lon="2.14226">
        <ele>116</ele>
        <time>2018-04-17T16:31:15Z</time>
      </trkpt>
      <trkpt lat="47.18739" lon="2.14201">
        <ele>116</ele>
        <time>2018-04-17T16:31:19Z</time>
      </trkpt>
      <trkpt lat="47.18757" lon="2.14154">
        <ele>116</ele>
        <time>2018-04-17T16:31:26Z</time>
      </trkpt>
      <trkpt lat="47.18777" lon="2.14096">
        <ele>117</ele>
        <time>2018-04-17T16:31:35Z</time>
      </trkpt>
      <trkpt lat="47.18795" lon="2.14045">
        <ele>118</ele>
        <time>2018-04-17T16:31:43Z</time>
      </trkpt>
      <trkpt lat="47.18797" lon="2.14039">
        <ele>118</ele>
        <time>2018-04-17T16:31:44Z</time>
      </trkpt>
      <trkpt lat="47.1881" lon="2.14">
        <ele>119</ele>
        <time>2018-04-17T16:31:51Z</time>
      </trkpt>
      <trkpt lat="47.18822" lon="2.13961">
        <ele>120</ele>
        <time>2018-04-17T16:31:57Z</time>
      </trkpt>
      <trkpt lat="47.18837" lon="2.13919">
        <ele>118</ele>
        <time>2018-04-17T16:32:03Z</time>
      </trkpt>
      <trkpt lat="47.18856" lon="2.13867">
        <ele>116</ele>
        <time>2018-04-17T16:32:11Z</time>
      </trkpt>
      <trkpt lat="47.18881" lon="2.13809">
        <ele>115</ele>
        <time>2018-04-17T16:32:20Z</time>
      </trkpt>
      <trkpt lat="47.18902" lon="2.1377">
        <ele>114</ele>
        <time>2018-04-17T16:32:26Z</time>
      </trkpt>
      <trkpt lat="47.1891" lon="2.13757">
        <ele>114</ele>
        <time>2018-04-17T16:32:28Z</time>
      </trkpt>
      <trkpt lat="47.18926" lon="2.1373">
        <ele>115</ele>
        <time>2018-04-17T16:32:32Z</time>
      </trkpt>
      <trkpt lat="47.18946" lon="2.13694">
        <ele>115</ele>
        <time>2018-04-17T16:32:37Z</time>
      </trkpt>
      <trkpt lat="47.18962" lon="2.13655">
        <ele>116</ele>
        <time>2018-04-17T16:32:42Z</time>
      </trkpt>
      <trkpt lat="47.18964" lon="2.13647">
        <ele>116</ele>
        <time>2018-04-17T16:32:43Z</time>
      </trkpt>
      <trkpt lat="47.18984" lon="2.1358">
        <ele>116</ele>
        <time>2018-04-17T16:32:52Z</time>
      </trkpt>
      <trkpt lat="47.18992" lon="2.13553">
        <ele>116</ele>
        <time>2018-04-17T16:32:56Z</time>
      </trkpt>
      <trkpt lat="47.19002" lon="2.1352">
        <ele>116</ele>
        <time>2018-04-17T16:33:01Z</time>
      </trkpt>
      <trkpt lat="47.19005" lon="2.13514">
        <ele>116</ele>
        <time>2018-04-17T16:33:02Z</time>
      </trkpt>
      <trkpt lat="47.19021" lon="2.13472">
        <ele>117</ele>
        <time>2018-04-17T16:33:09Z</time>
      </trkpt>
      <trkpt lat="47.19036" lon="2.13429">
        <ele>118</ele>
        <time>2018-04-17T16:33:16Z</time>
      </trkpt>
      <trkpt lat="47.19043" lon="2.13411">
        <ele>120</ele>
        <time>2018-04-17T16:33:19Z</time>
      </trkpt>
      <trkpt lat="47.19062" lon="2.13373">
        <ele>120</ele>
        <time>2018-04-17T16:33:26Z</time>
      </trkpt>
      <trkpt lat="47.19067" lon="2.13362">
        <ele>120</ele>
        <time>2018-04-17T16:33:28Z</time>
      </trkpt>
      <trkpt lat="47.19084" lon="2.1333">
        <ele>121</ele>
        <time>2018-04-17T16:33:34Z</time>
      </trkpt>
      <trkpt lat="47.19103" lon="2.13282">
        <ele>120</ele>
        <time>2018-04-17T16:33:42Z</time>
      </trkpt>
      <trkpt lat="47.19119" lon="2.13242">
        <ele>119</ele>
        <time>2018-04-17T16:33:49Z</time>
      </trkpt>
      <trkpt lat="47.19122" lon="2.13237">
        <ele>119</ele>
        <time>2018-04-17T16:33:50Z</time>
      </trkpt>
      <trkpt lat="47.19132" lon="2.13225">
        <ele>119</ele>
        <time>2018-04-17T16:33:53Z</time>
      </trkpt>
      <trkpt lat="47.19142" lon="2.13214">
        <ele>119</ele>
        <time>2018-04-17T16:33:56Z</time>
      </trkpt>
      <trkpt lat="47.19168" lon="2.13187">
        <ele>119</ele>
        <time>2018-04-17T16:34:03Z</time>
      </trkpt>
      <trkpt lat="47.19186" lon="2.13155">
        <ele>119</ele>
        <time>2018-04-17T16:34:09Z</time>
      </trkpt>
      <trkpt lat="47.19196" lon="2.13123">
        <ele>119</ele>
        <time>2018-04-17T16:34:14Z</time>
      </trkpt>
      <trkpt lat="47.19197" lon="2.13116">
        <ele>118</ele>
        <time>2018-04-17T16:34:15Z</time>
      </trkpt>
      <trkpt lat="47.19204" lon="2.13081">
        <ele>118</ele>
        <time>2018-04-17T16:34:21Z</time>
      </trkpt>
      <trkpt lat="47.19218" lon="2.13047">
        <ele>118</ele>
        <time>2018-04-17T16:34:27Z</time>
      </trkpt>
      <trkpt lat="47.19221" lon="2.13041">
        <ele>118</ele>
        <time>2018-04-17T16:34:28Z</time>
      </trkpt>
      <trkpt lat="47.19243" lon="2.13011">
        <ele>118</ele>
        <time>2018-04-17T16:34:35Z</time>
      </trkpt>
      <trkpt lat="47.19246" lon="2.13009">
        <ele>118</ele>
        <time>2018-04-17T16:34:39Z</time>
      </trkpt>
      <trkpt lat="47.19247" lon="2.13008">
        <ele>118</ele>
        <time>2018-04-17T16:34:51Z</time>
      </trkpt>
      <trkpt lat="47.19247" lon="2.13008">
        <ele>118</ele>
        <time>2018-04-17T16:35:08Z</time>
      </trkpt>
      <trkpt lat="47.19247" lon="2.13006">
        <ele>118</ele>
        <time>2018-04-17T16:35:15Z</time>
      </trkpt>
      <trkpt lat="47.19254" lon="2.12995">
        <ele>118</ele>
        <time>2018-04-17T16:35:19Z</time>
      </trkpt>
      <trkpt lat="47.19266" lon="2.12978">
        <ele>117</ele>
        <time>2018-04-17T16:35:23Z</time>
      </trkpt>
      <trkpt lat="47.19269" lon="2.12973">
        <ele>117</ele>
        <time>2018-04-17T16:35:24Z</time>
      </trkpt>
      <trkpt lat="47.19291" lon="2.12939">
        <ele>116</ele>
        <time>2018-04-17T16:35:30Z</time>
      </trkpt>
      <trkpt lat="47.19296" lon="2.12934">
        <ele>116</ele>
        <time>2018-04-17T16:35:31Z</time>
      </trkpt>
      <trkpt lat="47.19322" lon="2.12895">
        <ele>116</ele>
        <time>2018-04-17T16:35:37Z</time>
      </trkpt>
      <trkpt lat="47.19332" lon="2.1288">
        <ele>115</ele>
        <time>2018-04-17T16:35:39Z</time>
      </trkpt>
      <trkpt lat="47.19343" lon="2.12865">
        <ele>113</ele>
        <time>2018-04-17T16:35:41Z</time>
      </trkpt>
      <trkpt lat="47.19359" lon="2.12842">
        <ele>113</ele>
        <time>2018-04-17T16:35:44Z</time>
      </trkpt>
      <trkpt lat="47.19376" lon="2.12818">
        <ele>112</ele>
        <time>2018-04-17T16:35:47Z</time>
      </trkpt>
      <trkpt lat="47.19398" lon="2.12785">
        <ele>111</ele>
        <time>2018-04-17T16:35:51Z</time>
      </trkpt>
      <trkpt lat="47.19404" lon="2.12777">
        <ele>111</ele>
        <time>2018-04-17T16:35:52Z</time>
      </trkpt>
      <trkpt lat="47.19446" lon="2.12719">
        <ele>108</ele>
        <time>2018-04-17T16:35:59Z</time>
      </trkpt>
      <trkpt lat="47.19451" lon="2.12711">
        <ele>108</ele>
        <time>2018-04-17T16:36:00Z</time>
      </trkpt>
      <trkpt lat="47.19463" lon="2.12694">
        <ele>108</ele>
        <time>2018-04-17T16:36:02Z</time>
      </trkpt>
      <trkpt lat="47.19486" lon="2.12659">
        <ele>106</ele>
        <time>2018-04-17T16:36:06Z</time>
      </trkpt>
      <trkpt lat="47.19504" lon="2.12633">
        <ele>104</ele>
        <time>2018-04-17T16:36:09Z</time>
      </trkpt>
      <trkpt lat="47.19544" lon="2.12575">
        <ele>105</ele>
        <time>2018-04-17T16:36:16Z</time>
      </trkpt>
      <trkpt lat="47.19555" lon="2.12559">
        <ele>105</ele>
        <time>2018-04-17T16:36:18Z</time>
      </trkpt>
      <trkpt lat="47.1956" lon="2.12552">
        <ele>105</ele>
        <time>2018-04-17T16:36:19Z</time>
      </trkpt>
      <trkpt lat="47.19593" lon="2.12502">
        <ele>105</ele>
        <time>2018-04-17T16:36:26Z</time>
      </trkpt>
      <trkpt lat="47.19624" lon="2.12457">
        <ele>106</ele>
        <time>2018-04-17T16:36:33Z</time>
      </trkpt>
      <trkpt lat="47.19664" lon="2.124">
        <ele>107</ele>
        <time>2018-04-17T16:36:42Z</time>
      </trkpt>
      <trkpt lat="47.19692" lon="2.12361">
        <ele>109</ele>
        <time>2018-04-17T16:36:49Z</time>
      </trkpt>
      <trkpt lat="47.19708" lon="2.1234">
        <ele>109</ele>
        <time>2018-04-17T16:36:53Z</time>
      </trkpt>
      <trkpt lat="47.19723" lon="2.12319">
        <ele>111</ele>
        <time>2018-04-17T16:36:57Z</time>
      </trkpt>
      <trkpt lat="47.19726" lon="2.12314">
        <ele>111</ele>
        <time>2018-04-17T16:36:58Z</time>
      </trkpt>
      <trkpt lat="47.19752" lon="2.12277">
        <ele>112</ele>
        <time>2018-04-17T16:37:05Z</time>
      </trkpt>
      <trkpt lat="47.19756" lon="2.12271">
        <ele>112</ele>
        <time>2018-04-17T16:37:06Z</time>
      </trkpt>
      <trkpt lat="47.19788" lon="2.12225">
        <ele>112</ele>
        <time>2018-04-17T16:37:14Z</time>
      </trkpt>
      <trkpt lat="47.19828" lon="2.12166">
        <ele>111</ele>
        <time>2018-04-17T16:37:24Z</time>
      </trkpt>
      <trkpt lat="47.19832" lon="2.1216">
        <ele>111</ele>
        <time>2018-04-17T16:37:25Z</time>
      </trkpt>
      <trkpt lat="47.19844" lon="2.12142">
        <ele>110</ele>
        <time>2018-04-17T16:37:28Z</time>
      </trkpt>
      <trkpt lat="47.19872" lon="2.12102">
        <ele>110</ele>
        <time>2018-04-17T16:37:35Z</time>
      </trkpt>
      <trkpt lat="47.19896" lon="2.12068">
        <ele>110</ele>
        <time>2018-04-17T16:37:41Z</time>
      </trkpt>
      <trkpt lat="47.19904" lon="2.12057">
        <ele>110</ele>
        <time>2018-04-17T16:37:43Z</time>
      </trkpt>
      <trkpt lat="47.19937" lon="2.12023">
        <ele>112</ele>
        <time>2018-04-17T16:37:50Z</time>
      </trkpt>
      <trkpt lat="47.19941" lon="2.12018">
        <ele>112</ele>
        <time>2018-04-17T16:37:51Z</time>
      </trkpt>
      <trkpt lat="47.19968" lon="2.11984">
        <ele>112</ele>
        <time>2018-04-17T16:37:57Z</time>
      </trkpt>
      <trkpt lat="47.19981" lon="2.11966">
        <ele>112</ele>
        <time>2018-04-17T16:38:00Z</time>
      </trkpt>
      <trkpt lat="47.19998" lon="2.11929">
        <ele>112</ele>
        <time>2018-04-17T16:38:05Z</time>
      </trkpt>
      <trkpt lat="47.20004" lon="2.11913">
        <ele>110</ele>
        <time>2018-04-17T16:38:07Z</time>
      </trkpt>
      <trkpt lat="47.20017" lon="2.1187">
        <ele>108</ele>
        <time>2018-04-17T16:38:12Z</time>
      </trkpt>
      <trkpt lat="47.20026" lon="2.11843">
        <ele>108</ele>
        <time>2018-04-17T16:38:15Z</time>
      </trkpt>
      <trkpt lat="47.20038" lon="2.11807">
        <ele>108</ele>
        <time>2018-04-17T16:38:19Z</time>
      </trkpt>
      <trkpt lat="47.20044" lon="2.1179">
        <ele>107</ele>
        <time>2018-04-17T16:38:21Z</time>
      </trkpt>
      <trkpt lat="47.20052" lon="2.11772">
        <ele>107</ele>
        <time>2018-04-17T16:38:23Z</time>
      </trkpt>
      <trkpt lat="47.20069" lon="2.11726">
        <ele>107</ele>
        <time>2018-04-17T16:38:28Z</time>
      </trkpt>
      <trkpt lat="47.20075" lon="2.11707">
        <ele>107</ele>
        <time>2018-04-17T16:38:30Z</time>
      </trkpt>
      <trkpt lat="47.20079" lon="2.11696">
        <ele>107</ele>
        <time>2018-04-17T16:38:31Z</time>
      </trkpt>
      <trkpt lat="47.20085" lon="2.11676">
        <ele>106</ele>
        <time>2018-04-17T16:38:33Z</time>
      </trkpt>
      <trkpt lat="47.2011" lon="2.11609">
        <ele>104</ele>
        <time>2018-04-17T16:38:40Z</time>
      </trkpt>
      <trkpt lat="47.20126" lon="2.11576">
        <ele>103</ele>
        <time>2018-04-17T16:38:44Z</time>
      </trkpt>
      <trkpt lat="47.20138" lon="2.11553">
        <ele>103</ele>
        <time>2018-04-17T16:38:47Z</time>
      </trkpt>
      <trkpt lat="47.2016" lon="2.11512">
        <ele>103</ele>
        <time>2018-04-17T16:38:53Z</time>
      </trkpt>
      <trkpt lat="47.20164" lon="2.11507">
        <ele>103</ele>
        <time>2018-04-17T16:38:54Z</time>
      </trkpt>
      <trkpt lat="47.20178" lon="2.11483">
        <ele>103</ele>
        <time>2018-04-17T16:38:58Z</time>
      </trkpt>
      <trkpt lat="47.20214" lon="2.1142">
        <ele>103</ele>
        <time>2018-04-17T16:39:08Z</time>
      </trkpt>
      <trkpt lat="47.20217" lon="2.11413">
        <ele>103</ele>
        <time>2018-04-17T16:39:09Z</time>
      </trkpt>
      <trkpt lat="47.20246" lon="2.1136">
        <ele>103</ele>
        <time>2018-04-17T16:39:17Z</time>
      </trkpt>
      <trkpt lat="47.20257" lon="2.11342">
        <ele>102</ele>
        <time>2018-04-17T16:39:20Z</time>
      </trkpt>
      <trkpt lat="47.20274" lon="2.11312">
        <ele>103</ele>
        <time>2018-04-17T16:39:25Z</time>
      </trkpt>
      <trkpt lat="47.20296" lon="2.11276">
        <ele>103</ele>
        <time>2018-04-17T16:39:31Z</time>
      </trkpt>
      <trkpt lat="47.20325" lon="2.11224">
        <ele>104</ele>
        <time>2018-04-17T16:39:39Z</time>
      </trkpt>
      <trkpt lat="47.20361" lon="2.11163">
        <ele>104</ele>
        <time>2018-04-17T16:39:49Z</time>
      </trkpt>
      <trkpt lat="47.20393" lon="2.11114">
        <ele>103</ele>
        <time>2018-04-17T16:39:58Z</time>
      </trkpt>
      <trkpt lat="47.20429" lon="2.11058">
        <ele>102</ele>
        <time>2018-04-17T16:40:08Z</time>
      </trkpt>
      <trkpt lat="47.20463" lon="2.11009">
        <ele>103</ele>
        <time>2018-04-17T16:40:17Z</time>
      </trkpt>
      <trkpt lat="47.20498" lon="2.10959">
        <ele>103</ele>
        <time>2018-04-17T16:40:26Z</time>
      </trkpt>
      <trkpt lat="47.20525" lon="2.10919">
        <ele>103</ele>
        <time>2018-04-17T16:40:33Z</time>
      </trkpt>
      <trkpt lat="47.20563" lon="2.10861">
        <ele>102</ele>
        <time>2018-04-17T16:40:43Z</time>
      </trkpt>
      <trkpt lat="47.2058" lon="2.10822">
        <ele>102</ele>
        <time>2018-04-17T16:40:49Z</time>
      </trkpt>
      <trkpt lat="47.20592" lon="2.108">
        <ele>103</ele>
        <time>2018-04-17T16:40:53Z</time>
      </trkpt>
      <trkpt lat="47.20599" lon="2.10793">
        <ele>103</ele>
        <time>2018-04-17T16:40:55Z</time>
      </trkpt>
      <trkpt lat="47.20615" lon="2.1079">
        <ele>103</ele>
        <time>2018-04-17T16:40:59Z</time>
      </trkpt>
      <trkpt lat="47.20629" lon="2.10794">
        <ele>103</ele>
        <time>2018-04-17T16:41:03Z</time>
      </trkpt>
      <trkpt lat="47.20633" lon="2.10793">
        <ele>103</ele>
        <time>2018-04-17T16:41:04Z</time>
      </trkpt>
      <trkpt lat="47.20648" lon="2.10783">
        <ele>103</ele>
        <time>2018-04-17T16:41:08Z</time>
      </trkpt>
      <trkpt lat="47.20654" lon="2.10774">
        <ele>103</ele>
        <time>2018-04-17T16:41:10Z</time>
      </trkpt>
      <trkpt lat="47.20663" lon="2.10757">
        <ele>103</ele>
        <time>2018-04-17T16:41:13Z</time>
      </trkpt>
      <trkpt lat="47.20666" lon="2.10751">
        <ele>103</ele>
        <time>2018-04-17T16:41:14Z</time>
      </trkpt>
      <trkpt lat="47.2067" lon="2.10738">
        <ele>103</ele>
        <time>2018-04-17T16:41:16Z</time>
      </trkpt>
      <trkpt lat="47.20687" lon="2.10693">
        <ele>104</ele>
        <time>2018-04-17T16:41:23Z</time>
      </trkpt>
      <trkpt lat="47.20705" lon="2.10661">
        <ele>104</ele>
        <time>2018-04-17T16:41:30Z</time>
      </trkpt>
      <trkpt lat="47.20716" lon="2.10654">
        <ele>103</ele>
        <time>2018-04-17T16:41:35Z</time>
      </trkpt>
      <trkpt lat="47.20716" lon="2.10655">
        <ele>103</ele>
        <time>2018-04-17T16:41:39Z</time>
      </trkpt>
      <trkpt lat="47.20716" lon="2.10655">
        <ele>103</ele>
        <time>2018-04-17T16:41:49Z</time>
      </trkpt>
      <trkpt lat="47.20716" lon="2.10655">
        <ele>103</ele>
        <time>2018-04-17T16:42:00Z</time>
      </trkpt>
      <trkpt lat="47.20716" lon="2.10655">
        <ele>103</ele>
        <time>2018-04-17T16:42:14Z</time>
      </trkpt>
      <trkpt lat="47.20715" lon="2.10655">
        <ele>103</ele>
        <time>2018-04-17T16:42:26Z</time>
      </trkpt>
      <trkpt lat="47.20715" lon="2.10655">
        <ele>103</ele>
        <time>2018-04-17T16:42:38Z</time>
      </trkpt>
      <trkpt lat="47.20715" lon="2.10655">
        <ele>103</ele>
        <time>2018-04-17T16:42:51Z</time>
      </trkpt>
      <trkpt lat="47.20725" lon="2.10657">
        <ele>104</ele>
        <time>2018-04-17T16:42:56Z</time>
      </trkpt>
      <trkpt lat="47.20728" lon="2.10653">
        <ele>104</ele>
        <time>2018-04-17T16:42:57Z</time>
      </trkpt>
      <trkpt lat="47.20733" lon="2.10642">
        <ele>103</ele>
        <time>2018-04-17T16:42:59Z</time>
      </trkpt>
      <trkpt lat="47.20744" lon="2.10615">
        <ele>103</ele>
        <time>2018-04-17T16:43:03Z</time>
      </trkpt>
      <trkpt lat="47.20749" lon="2.10601">
        <ele>103</ele>
        <time>2018-04-17T16:43:05Z</time>
      </trkpt>
      <trkpt lat="47.20771" lon="2.10556">
        <ele>102</ele>
        <time>2018-04-17T16:43:12Z</time>
      </trkpt>
      <trkpt lat="47.20807" lon="2.10492">
        <ele>102</ele>
        <time>2018-04-17T16:43:22Z</time>
      </trkpt>
      <trkpt lat="47.20811" lon="2.10486">
        <ele>102</ele>
        <time>2018-04-17T16:43:23Z</time>
      </trkpt>
      <trkpt lat="47.20837" lon="2.10442">
        <ele>102</ele>
        <time>2018-04-17T16:43:30Z</time>
      </trkpt>
      <trkpt lat="47.20868" lon="2.10391">
        <ele>101</ele>
        <time>2018-04-17T16:43:38Z</time>
      </trkpt>
      <trkpt lat="47.20896" lon="2.10342">
        <ele>101</ele>
        <time>2018-04-17T16:43:46Z</time>
      </trkpt>
      <trkpt lat="47.20921" lon="2.10299">
        <ele>102</ele>
        <time>2018-04-17T16:43:54Z</time>
      </trkpt>
      <trkpt lat="47.20951" lon="2.10248">
        <ele>101</ele>
        <time>2018-04-17T16:44:03Z</time>
      </trkpt>
      <trkpt lat="47.20986" lon="2.10189">
        <ele>101</ele>
        <time>2018-04-17T16:44:13Z</time>
      </trkpt>
      <trkpt lat="47.21016" lon="2.10147">
        <ele>101</ele>
        <time>2018-04-17T16:44:21Z</time>
      </trkpt>
      <trkpt lat="47.2102" lon="2.10143">
        <ele>101</ele>
        <time>2018-04-17T16:44:22Z</time>
      </trkpt>
      <trkpt lat="47.21034" lon="2.10134">
        <ele>101</ele>
        <time>2018-04-17T16:44:25Z</time>
      </trkpt>
      <trkpt lat="47.21047" lon="2.10127">
        <ele>101</ele>
        <time>2018-04-17T16:44:28Z</time>
      </trkpt>
      <trkpt lat="47.21089" lon="2.10111">
        <ele>102</ele>
        <time>2018-04-17T16:44:37Z</time>
      </trkpt>
      <trkpt lat="47.2113" lon="2.10096">
        <ele>102</ele>
        <time>2018-04-17T16:44:46Z</time>
      </trkpt>
      <trkpt lat="47.21179" lon="2.10077">
        <ele>102</ele>
        <time>2018-04-17T16:44:57Z</time>
      </trkpt>
      <trkpt lat="47.21196" lon="2.10071">
        <ele>102</ele>
        <time>2018-04-17T16:45:02Z</time>
      </trkpt>
      <trkpt lat="47.21201" lon="2.10069">
        <ele>102</ele>
        <time>2018-04-17T16:45:04Z</time>
      </trkpt>
      <trkpt lat="47.21211" lon="2.10067">
        <ele>102</ele>
        <time>2018-04-17T16:45:10Z</time>
      </trkpt>
      <trkpt lat="47.21213" lon="2.10066">
        <ele>102</ele>
        <time>2018-04-17T16:45:17Z</time>
      </trkpt>
      <trkpt lat="47.21223" lon="2.10065">
        <ele>102</ele>
        <time>2018-04-17T16:45:21Z</time>
      </trkpt>
      <trkpt lat="47.21245" lon="2.10069">
        <ele>102</ele>
        <time>2018-04-17T16:45:26Z</time>
      </trkpt>
      <trkpt lat="47.21265" lon="2.10076">
        <ele>102</ele>
        <time>2018-04-17T16:45:30Z</time>
      </trkpt>
      <trkpt lat="47.21275" lon="2.10074">
        <ele>103</ele>
        <time>2018-04-17T16:45:32Z</time>
      </trkpt>
      <trkpt lat="47.21289" lon="2.10065">
        <ele>103</ele>
        <time>2018-04-17T16:45:36Z</time>
      </trkpt>
      <trkpt lat="47.21293" lon="2.10058">
        <ele>103</ele>
        <time>2018-04-17T16:45:40Z</time>
      </trkpt>
      <trkpt lat="47.21293" lon="2.10055">
        <ele>103</ele>
        <time>2018-04-17T16:45:41Z</time>
      </trkpt>
      <trkpt lat="47.21291" lon="2.10055">
        <ele>103</ele>
        <time>2018-04-17T16:45:44Z</time>
      </trkpt>
      <trkpt lat="47.21291" lon="2.10055">
        <ele>103</ele>
        <time>2018-04-17T16:45:56Z</time>
      </trkpt>
      <trkpt lat="47.21291" lon="2.10055">
        <ele>103</ele>
        <time>2018-04-17T16:46:13Z</time>
      </trkpt>
      <trkpt lat="47.21291" lon="2.10055">
        <ele>103</ele>
        <time>2018-04-17T16:46:26Z</time>
      </trkpt>
      <trkpt lat="47.21291" lon="2.10055">
        <ele>103</ele>
        <time>2018-04-17T16:46:29Z</time>
      </trkpt>
      <trkpt lat="47.21291" lon="2.10055">
        <ele>103</ele>
        <time>2018-04-17T16:46:31Z</time>
      </trkpt>
      <trkpt lat="47.21291" lon="2.10055">
        <ele>103</ele>
        <time>2018-04-17T16:46:49Z</time>
      </trkpt>
      <trkpt lat="47.21291" lon="2.10055">
        <ele>103</ele>
        <time>2018-04-17T16:47:05Z</time>
      </trkpt>
      <trkpt lat="47.21291" lon="2.10055">
        <ele>103</ele>
        <time>2018-04-17T16:47:18Z</time>
      </trkpt>
      <trkpt lat="47.21291" lon="2.10055">
        <ele>103</ele>
        <time>2018-04-17T16:47:31Z</time>
      </trkpt>
      <trkpt lat="47.2129" lon="2.10055">
        <ele>103</ele>
        <time>2018-04-17T16:47:47Z</time>
      </trkpt>
      <trkpt lat="47.2129" lon="2.10055">
        <ele>103</ele>
        <time>2018-04-17T16:48:03Z</time>
      </trkpt>
      <trkpt lat="47.2129" lon="2.10055">
        <ele>103</ele>
        <time>2018-04-17T16:48:06Z</time>
      </trkpt>
      <trkpt lat="47.2129" lon="2.10055">
        <ele>103</ele>
        <time>2018-04-17T16:48:16Z</time>
      </trkpt>
      <trkpt lat="47.2129" lon="2.10055">
        <ele>103</ele>
        <time>2018-04-17T16:48:32Z</time>
      </trkpt>
      <trkpt lat="47.2129" lon="2.10055">
        <ele>103</ele>
        <time>2018-04-17T16:48:46Z</time>
      </trkpt>
      <trkpt lat="47.2129" lon="2.10055">
        <ele>103</ele>
        <time>2018-04-17T16:48:59Z</time>
      </trkpt>
      <trkpt lat="47.2129" lon="2.10055">
        <ele>103</ele>
        <time>2018-04-17T16:49:17Z</time>
      </trkpt>
      <trkpt lat="47.2129" lon="2.10055">
        <ele>103</ele>
        <time>2018-04-17T16:49:32Z</time>
      </trkpt>
      <trkpt lat="47.21289" lon="2.10055">
        <ele>103</ele>
        <time>2018-04-17T16:49:45Z</time>
      </trkpt>
      <trkpt lat="47.21289" lon="2.10055">
        <ele>103</ele>
        <time>2018-04-17T16:49:53Z</time>
      </trkpt>
      <trkpt lat="47.21289" lon="2.10055">
        <ele>103</ele>
        <time>2018-04-17T16:50:02Z</time>
      </trkpt>
      <trkpt lat="47.21289" lon="2.10055">
        <ele>103</ele>
        <time>2018-04-17T16:50:16Z</time>
      </trkpt>
      <trkpt lat="47.21289" lon="2.10056">
        <ele>103</ele>
        <time>2018-04-17T16:50:32Z</time>
      </trkpt>
      <trkpt lat="47.21289" lon="2.10056">
        <ele>103</ele>
        <time>2018-04-17T16:50:48Z</time>
      </trkpt>
      <trkpt lat="47.21289" lon="2.10056">
        <ele>103</ele>
        <time>2018-04-17T16:51:03Z</time>
      </trkpt>
      <trkpt lat="47.21289" lon="2.10056">
        <ele>103</ele>
        <time>2018-04-17T16:51:21Z</time>
      </trkpt>
      <trkpt lat="47.21289" lon="2.10056">
        <ele>103</ele>
        <time>2018-04-17T16:51:36Z</time>
      </trkpt>
      <trkpt lat="47.21289" lon="2.10056">
        <ele>103</ele>
        <time>2018-04-17T16:51:43Z</time>
      </trkpt>
      <trkpt lat="47.2129" lon="2.10052">
        <ele>103</ele>
        <time>2018-04-17T16:51:52Z</time>
      </trkpt>
      <trkpt lat="47.2129" lon="2.10052">
        <ele>103</ele>
        <time>2018-04-17T16:51:58Z</time>
      </trkpt>
      <trkpt lat="47.2129" lon="2.10052">
        <ele>103</ele>
        <time>2018-04-17T16:52:07Z</time>
      </trkpt>
      <trkpt lat="47.2129" lon="2.10052">
        <ele>103</ele>
        <time>2018-04-17T16:52:18Z</time>
      </trkpt>
      <trkpt lat="47.21291" lon="2.1005">
        <ele>103</ele>
        <time>2018-04-17T16:52:22Z</time>
      </trkpt>
      <trkpt lat="47.21293" lon="2.10044">
        <ele>103</ele>
        <time>2018-04-17T16:52:24Z</time>
      </trkpt>
      <trkpt lat="47.21297" lon="2.10033">
        <ele>103</ele>
        <time>2018-04-17T16:52:26Z</time>
      </trkpt>
      <trkpt lat="47.21298" lon="2.10027">
        <ele>103</ele>
        <time>2018-04-17T16:52:27Z</time>
      </trkpt>
      <trkpt lat="47.213" lon="2.1002">
        <ele>103</ele>
        <time>2018-04-17T16:52:28Z</time>
      </trkpt>
      <trkpt lat="47.21303" lon="2.10014">
        <ele>103</ele>
        <time>2018-04-17T16:52:29Z</time>
      </trkpt>
      <trkpt lat="47.21309" lon="2.09998">
        <ele>103</ele>
        <time>2018-04-17T16:52:32Z</time>
      </trkpt>
      <trkpt lat="47.21315" lon="2.09983">
        <ele>103</ele>
        <time>2018-04-17T16:52:36Z</time>
      </trkpt>
      <trkpt lat="47.21325" lon="2.09957">
        <ele>102</ele>
        <time>2018-04-17T16:52:41Z</time>
      </trkpt>
      <trkpt lat="47.21343" lon="2.09911">
        <ele>102</ele>
        <time>2018-04-17T16:52:50Z</time>
      </trkpt>
      <trkpt lat="47.21354" lon="2.09882">
        <ele>103</ele>
        <time>2018-04-17T16:52:57Z</time>
      </trkpt>
      <trkpt lat="47.21364" lon="2.09858">
        <ele>103</ele>
        <time>2018-04-17T16:53:04Z</time>
      </trkpt>
      <trkpt lat="47.2137" lon="2.09839">
        <ele>103</ele>
        <time>2018-04-17T16:53:09Z</time>
      </trkpt>
      <trkpt lat="47.21376" lon="2.09815">
        <ele>103</ele>
        <time>2018-04-17T16:53:15Z</time>
      </trkpt>
      <trkpt lat="47.21387" lon="2.09787">
        <ele>103</ele>
        <time>2018-04-17T16:53:21Z</time>
      </trkpt>
      <trkpt lat="47.21398" lon="2.09759">
        <ele>104</ele>
        <time>2018-04-17T16:53:28Z</time>
      </trkpt>
      <trkpt lat="47.21414" lon="2.09741">
        <ele>104</ele>
        <time>2018-04-17T16:53:34Z</time>
      </trkpt>
      <trkpt lat="47.21424" lon="2.09732">
        <ele>104</ele>
        <time>2018-04-17T16:53:37Z</time>
      </trkpt>
      <trkpt lat="47.2144" lon="2.09719">
        <ele>104</ele>
        <time>2018-04-17T16:53:41Z</time>
      </trkpt>
      <trkpt lat="47.21463" lon="2.09697">
        <ele>104</ele>
        <time>2018-04-17T16:53:48Z</time>
      </trkpt>
      <trkpt lat="47.21478" lon="2.09675">
        <ele>103</ele>
        <time>2018-04-17T16:53:54Z</time>
      </trkpt>
      <trkpt lat="47.2149" lon="2.09649">
        <ele>103</ele>
        <time>2018-04-17T16:54:00Z</time>
      </trkpt>
      <trkpt lat="47.21502" lon="2.09612">
        <ele>103</ele>
        <time>2018-04-17T16:54:08Z</time>
      </trkpt>
      <trkpt lat="47.21506" lon="2.09581">
        <ele>103</ele>
        <time>2018-04-17T16:54:14Z</time>
      </trkpt>
      <trkpt lat="47.21506" lon="2.09549">
        <ele>103</ele>
        <time>2018-04-17T16:54:20Z</time>
      </trkpt>
      <trkpt lat="47.21503" lon="2.09518">
        <ele>103</ele>
        <time>2018-04-17T16:54:27Z</time>
      </trkpt>
      <trkpt lat="47.21502" lon="2.09499">
        <ele>103</ele>
        <time>2018-04-17T16:54:32Z</time>
      </trkpt>
      <trkpt lat="47.21502" lon="2.09498">
        <ele>103</ele>
        <time>2018-04-17T16:54:36Z</time>
      </trkpt>
      <trkpt lat="47.21502" lon="2.09496">
        <ele>103</ele>
        <time>2018-04-17T16:54:38Z</time>
      </trkpt>
      <trkpt lat="47.21504" lon="2.09489">
        <ele>103</ele>
        <time>2018-04-17T16:54:41Z</time>
      </trkpt>
      <trkpt lat="47.21505" lon="2.09487">
        <ele>103</ele>
        <time>2018-04-17T16:54:42Z</time>
      </trkpt>
      <trkpt lat="47.2151" lon="2.09475">
        <ele>103</ele>
        <time>2018-04-17T16:54:46Z</time>
      </trkpt>
      <trkpt lat="47.2151" lon="2.09466">
        <ele>103</ele>
        <time>2018-04-17T16:54:48Z</time>
      </trkpt>
      <trkpt lat="47.21511" lon="2.09443">
        <ele>103</ele>
        <time>2018-04-17T16:54:52Z</time>
      </trkpt>
      <trkpt lat="47.21516" lon="2.09414">
        <ele>103</ele>
        <time>2018-04-17T16:54:58Z</time>
      </trkpt>
      <trkpt lat="47.21524" lon="2.09382">
        <ele>103</ele>
        <time>2018-04-17T16:55:04Z</time>
      </trkpt>
      <trkpt lat="47.21534" lon="2.0934">
        <ele>103</ele>
        <time>2018-04-17T16:55:11Z</time>
      </trkpt>
      <trkpt lat="47.21545" lon="2.09293">
        <ele>103</ele>
        <time>2018-04-17T16:55:19Z</time>
      </trkpt>
      <trkpt lat="47.21557" lon="2.09249">
        <ele>103</ele>
        <time>2018-04-17T16:55:27Z</time>
      </trkpt>
      <trkpt lat="47.21569" lon="2.09199">
        <ele>103</ele>
        <time>2018-04-17T16:55:36Z</time>
      </trkpt>
      <trkpt lat="47.21579" lon="2.09156">
        <ele>104</ele>
        <time>2018-04-17T16:55:44Z</time>
      </trkpt>
      <trkpt lat="47.21586" lon="2.0913">
        <ele>103</ele>
        <time>2018-04-17T16:55:49Z</time>
      </trkpt>
      <trkpt lat="47.21594" lon="2.09098">
        <ele>103</ele>
        <time>2018-04-17T16:55:55Z</time>
      </trkpt>
      <trkpt lat="47.21601" lon="2.09066">
        <ele>102</ele>
        <time>2018-04-17T16:56:01Z</time>
      </trkpt>
      <trkpt lat="47.21606" lon="2.09039">
        <ele>102</ele>
        <time>2018-04-17T16:56:07Z</time>
      </trkpt>
      <trkpt lat="47.21607" lon="2.09033">
        <ele>101</ele>
        <time>2018-04-17T16:56:09Z</time>
      </trkpt>
      <trkpt lat="47.21605" lon="2.09029">
        <ele>101</ele>
        <time>2018-04-17T16:56:11Z</time>
      </trkpt>
      <trkpt lat="47.21601" lon="2.09022">
        <ele>101</ele>
        <time>2018-04-17T16:56:17Z</time>
      </trkpt>
      <trkpt lat="47.21601" lon="2.09021">
        <ele>101</ele>
        <time>2018-04-17T16:56:18Z</time>
      </trkpt>
      <trkpt lat="47.21605" lon="2.09012">
        <ele>101</ele>
        <time>2018-04-17T16:56:22Z</time>
      </trkpt>
      <trkpt lat="47.21608" lon="2.09002">
        <ele>101</ele>
        <time>2018-04-17T16:56:25Z</time>
      </trkpt>
      <trkpt lat="47.2161" lon="2.08991">
        <ele>100</ele>
        <time>2018-04-17T16:56:28Z</time>
      </trkpt>
      <trkpt lat="47.21616" lon="2.0897">
        <ele>101</ele>
        <time>2018-04-17T16:56:33Z</time>
      </trkpt>
      <trkpt lat="47.21617" lon="2.08964">
        <ele>101</ele>
        <time>2018-04-17T16:56:34Z</time>
      </trkpt>
      <trkpt lat="47.21621" lon="2.08935">
        <ele>101</ele>
        <time>2018-04-17T16:56:38Z</time>
      </trkpt>
      <trkpt lat="47.2163" lon="2.08887">
        <ele>101</ele>
        <time>2018-04-17T16:56:45Z</time>
      </trkpt>
      <trkpt lat="47.21638" lon="2.08854">
        <ele>101</ele>
        <time>2018-04-17T16:56:50Z</time>
      </trkpt>
      <trkpt lat="47.21645" lon="2.08824">
        <ele>101</ele>
        <time>2018-04-17T16:56:55Z</time>
      </trkpt>
      <trkpt lat="47.21659" lon="2.08771">
        <ele>100</ele>
        <time>2018-04-17T16:57:04Z</time>
      </trkpt>
      <trkpt lat="47.21671" lon="2.08719">
        <ele>100</ele>
        <time>2018-04-17T16:57:12Z</time>
      </trkpt>
      <trkpt lat="47.21685" lon="2.08663">
        <ele>99</ele>
        <time>2018-04-17T16:57:21Z</time>
      </trkpt>
      <trkpt lat="47.21697" lon="2.08613">
        <ele>100</ele>
        <time>2018-04-17T16:57:29Z</time>
      </trkpt>
      <trkpt lat="47.21706" lon="2.08577">
        <ele>101</ele>
        <time>2018-04-17T16:57:36Z</time>
      </trkpt>
      <trkpt lat="47.21707" lon="2.08571">
        <ele>101</ele>
        <time>2018-04-17T16:57:41Z</time>
      </trkpt>
      <trkpt lat="47.21709" lon="2.08563">
        <ele>101</ele>
        <time>2018-04-17T16:57:47Z</time>
      </trkpt>
      <trkpt lat="47.21715" lon="2.08537">
        <ele>101</ele>
        <time>2018-04-17T16:57:52Z</time>
      </trkpt>
      <trkpt lat="47.21716" lon="2.08535">
        <ele>101</ele>
        <time>2018-04-17T16:57:53Z</time>
      </trkpt>
      <trkpt lat="47.21717" lon="2.08531">
        <ele>101</ele>
        <time>2018-04-17T16:57:55Z</time>
      </trkpt>
      <trkpt lat="47.21717" lon="2.0853">
        <ele>101</ele>
        <time>2018-04-17T16:58:00Z</time>
      </trkpt>
      <trkpt lat="47.2172" lon="2.08518">
        <ele>101</ele>
        <time>2018-04-17T16:58:04Z</time>
      </trkpt>
      <trkpt lat="47.21725" lon="2.08495">
        <ele>101</ele>
        <time>2018-04-17T16:58:08Z</time>
      </trkpt>
      <trkpt lat="47.21732" lon="2.08462">
        <ele>101</ele>
        <time>2018-04-17T16:58:14Z</time>
      </trkpt>
      <trkpt lat="47.21741" lon="2.08427">
        <ele>101</ele>
        <time>2018-04-17T16:58:20Z</time>
      </trkpt>
      <trkpt lat="47.21745" lon="2.0841">
        <ele>102</ele>
        <time>2018-04-17T16:58:23Z</time>
      </trkpt>
      <trkpt lat="47.21749" lon="2.08392">
        <ele>101</ele>
        <time>2018-04-17T16:58:26Z</time>
      </trkpt>
      <trkpt lat="47.21752" lon="2.0838">
        <ele>100</ele>
        <time>2018-04-17T16:58:28Z</time>
      </trkpt>
      <trkpt lat="47.21763" lon="2.08338">
        <ele>100</ele>
        <time>2018-04-17T16:58:35Z</time>
      </trkpt>
      <trkpt lat="47.21764" lon="2.08331">
        <ele>100</ele>
        <time>2018-04-17T16:58:36Z</time>
      </trkpt>
      <trkpt lat="47.21775" lon="2.08288">
        <ele>100</ele>
        <time>2018-04-17T16:58:43Z</time>
      </trkpt>
      <trkpt lat="47.21782" lon="2.08264">
        <ele>100</ele>
        <time>2018-04-17T16:58:47Z</time>
      </trkpt>
      <trkpt lat="47.21788" lon="2.08238">
        <ele>100</ele>
        <time>2018-04-17T16:58:51Z</time>
      </trkpt>
      <trkpt lat="47.21792" lon="2.08219">
        <ele>100</ele>
        <time>2018-04-17T16:58:54Z</time>
      </trkpt>
      <trkpt lat="47.21799" lon="2.08194">
        <ele>101</ele>
        <time>2018-04-17T16:58:58Z</time>
      </trkpt>
      <trkpt lat="47.218" lon="2.08187">
        <ele>101</ele>
        <time>2018-04-17T16:58:59Z</time>
      </trkpt>
      <trkpt lat="47.21809" lon="2.08154">
        <ele>101</ele>
        <time>2018-04-17T16:59:04Z</time>
      </trkpt>
      <trkpt lat="47.2182" lon="2.08106">
        <ele>101</ele>
        <time>2018-04-17T16:59:11Z</time>
      </trkpt>
      <trkpt lat="47.21828" lon="2.08075">
        <ele>101</ele>
        <time>2018-04-17T16:59:16Z</time>
      </trkpt>
      <trkpt lat="47.21831" lon="2.08062">
        <ele>101</ele>
        <time>2018-04-17T16:59:18Z</time>
      </trkpt>
      <trkpt lat="47.21832" lon="2.08056">
        <ele>101</ele>
        <time>2018-04-17T16:59:19Z</time>
      </trkpt>
      <trkpt lat="47.2184" lon="2.08023">
        <ele>101</ele>
        <time>2018-04-17T16:59:24Z</time>
      </trkpt>
      <trkpt lat="47.21853" lon="2.07975">
        <ele>101</ele>
        <time>2018-04-17T16:59:31Z</time>
      </trkpt>
      <trkpt lat="47.21859" lon="2.07948">
        <ele>101</ele>
        <time>2018-04-17T16:59:35Z</time>
      </trkpt>
      <trkpt lat="47.21864" lon="2.07928">
        <ele>102</ele>
        <time>2018-04-17T16:59:38Z</time>
      </trkpt>
      <trkpt lat="47.21874" lon="2.07874">
        <ele>102</ele>
        <time>2018-04-17T16:59:46Z</time>
      </trkpt>
      <trkpt lat="47.21878" lon="2.07855">
        <ele>102</ele>
        <time>2018-04-17T16:59:49Z</time>
      </trkpt>
      <trkpt lat="47.2188" lon="2.07842">
        <ele>102</ele>
        <time>2018-04-17T16:59:51Z</time>
      </trkpt>
      <trkpt lat="47.21886" lon="2.07808">
        <ele>102</ele>
        <time>2018-04-17T16:59:56Z</time>
      </trkpt>
      <trkpt lat="47.21889" lon="2.07794">
        <ele>103</ele>
        <time>2018-04-17T16:59:58Z</time>
      </trkpt>
      <trkpt lat="47.21896" lon="2.07755">
        <ele>103</ele>
        <time>2018-04-17T17:00:04Z</time>
      </trkpt>
      <trkpt lat="47.219" lon="2.07731">
        <ele>104</ele>
        <time>2018-04-17T17:00:08Z</time>
      </trkpt>
      <trkpt lat="47.21903" lon="2.07718">
        <ele>103</ele>
        <time>2018-04-17T17:00:10Z</time>
      </trkpt>
      <trkpt lat="47.21912" lon="2.07668">
        <ele>104</ele>
        <time>2018-04-17T17:00:18Z</time>
      </trkpt>
      <trkpt lat="47.21922" lon="2.07614">
        <ele>102</ele>
        <time>2018-04-17T17:00:26Z</time>
      </trkpt>
      <trkpt lat="47.21933" lon="2.07551">
        <ele>101</ele>
        <time>2018-04-17T17:00:35Z</time>
      </trkpt>
      <trkpt lat="47.21934" lon="2.07545">
        <ele>101</ele>
        <time>2018-04-17T17:00:36Z</time>
      </trkpt>
      <trkpt lat="47.21944" lon="2.07489">
        <ele>102</ele>
        <time>2018-04-17T17:00:44Z</time>
      </trkpt>
      <trkpt lat="47.2195" lon="2.07453">
        <ele>102</ele>
        <time>2018-04-17T17:00:50Z</time>
      </trkpt>
      <trkpt lat="47.21957" lon="2.07414">
        <ele>102</ele>
        <time>2018-04-17T17:00:56Z</time>
      </trkpt>
      <trkpt lat="47.21963" lon="2.07388">
        <ele>102</ele>
        <time>2018-04-17T17:01:00Z</time>
      </trkpt>
      <trkpt lat="47.21964" lon="2.07377">
        <ele>102</ele>
        <time>2018-04-17T17:01:02Z</time>
      </trkpt>
      <trkpt lat="47.21969" lon="2.07351">
        <ele>101</ele>
        <time>2018-04-17T17:01:07Z</time>
      </trkpt>
      <trkpt lat="47.2198" lon="2.07311">
        <ele>101</ele>
        <time>2018-04-17T17:01:14Z</time>
      </trkpt>
      <trkpt lat="47.2199" lon="2.07281">
        <ele>100</ele>
        <time>2018-04-17T17:01:20Z</time>
      </trkpt>
      <trkpt lat="47.21995" lon="2.07262">
        <ele>100</ele>
        <time>2018-04-17T17:01:25Z</time>
      </trkpt>
      <trkpt lat="47.21995" lon="2.07255">
        <ele>99</ele>
        <time>2018-04-17T17:01:28Z</time>
      </trkpt>
      <trkpt lat="47.21996" lon="2.07254">
        <ele>99</ele>
        <time>2018-04-17T17:01:29Z</time>
      </trkpt>
      <trkpt lat="47.22" lon="2.07258">
        <ele>99</ele>
        <time>2018-04-17T17:01:32Z</time>
      </trkpt>
      <trkpt lat="47.22003" lon="2.0726">
        <ele>99</ele>
        <time>2018-04-17T17:01:34Z</time>
      </trkpt>
      <trkpt lat="47.22017" lon="2.07263">
        <ele>100</ele>
        <time>2018-04-17T17:01:41Z</time>
      </trkpt>
      <trkpt lat="47.22018" lon="2.07261">
        <ele>100</ele>
        <time>2018-04-17T17:01:42Z</time>
      </trkpt>
      <trkpt lat="47.2202" lon="2.07254">
        <ele>100</ele>
        <time>2018-04-17T17:01:44Z</time>
      </trkpt>
      <trkpt lat="47.22022" lon="2.07244">
        <ele>99</ele>
        <time>2018-04-17T17:01:47Z</time>
      </trkpt>
      <trkpt lat="47.22022" lon="2.07241">
        <ele>99</ele>
        <time>2018-04-17T17:01:48Z</time>
      </trkpt>
      <trkpt lat="47.22026" lon="2.07227">
        <ele>99</ele>
        <time>2018-04-17T17:01:52Z</time>
      </trkpt>
      <trkpt lat="47.2203" lon="2.07212">
        <ele>99</ele>
        <time>2018-04-17T17:01:55Z</time>
      </trkpt>
      <trkpt lat="47.22032" lon="2.07203">
        <ele>99</ele>
        <time>2018-04-17T17:01:57Z</time>
      </trkpt>
      <trkpt lat="47.22034" lon="2.07201">
        <ele>99</ele>
        <time>2018-04-17T17:01:58Z</time>
      </trkpt>
      <trkpt lat="47.22043" lon="2.07192">
        <ele>100</ele>
        <time>2018-04-17T17:02:02Z</time>
      </trkpt>
      <trkpt lat="47.22054" lon="2.07187">
        <ele>100</ele>
        <time>2018-04-17T17:02:07Z</time>
      </trkpt>
      <trkpt lat="47.22056" lon="2.07186">
        <ele>100</ele>
        <time>2018-04-17T17:02:08Z</time>
      </trkpt>
      <trkpt lat="47.22064" lon="2.07172">
        <ele>100</ele>
        <time>2018-04-17T17:02:13Z</time>
      </trkpt>
      <trkpt lat="47.22069" lon="2.07151">
        <ele>100</ele>
        <time>2018-04-17T17:02:18Z</time>
      </trkpt>
      <trkpt lat="47.22073" lon="2.07133">
        <ele>101</ele>
        <time>2018-04-17T17:02:22Z</time>
      </trkpt>
      <trkpt lat="47.22079" lon="2.07105">
        <ele>102</ele>
        <time>2018-04-17T17:02:28Z</time>
      </trkpt>
      <trkpt lat="47.22085" lon="2.07076">
        <ele>104</ele>
        <time>2018-04-17T17:02:33Z</time>
      </trkpt>
      <trkpt lat="47.22085" lon="2.07055">
        <ele>105</ele>
        <time>2018-04-17T17:02:38Z</time>
      </trkpt>
      <trkpt lat="47.22088" lon="2.07038">
        <ele>105</ele>
        <time>2018-04-17T17:02:43Z</time>
      </trkpt>
      <trkpt lat="47.22096" lon="2.07015">
        <ele>104</ele>
        <time>2018-04-17T17:02:50Z</time>
      </trkpt>
      <trkpt lat="47.22102" lon="2.06976">
        <ele>104</ele>
        <time>2018-04-17T17:03:00Z</time>
      </trkpt>
      <trkpt lat="47.2211" lon="2.0696">
        <ele>104</ele>
        <time>2018-04-17T17:03:06Z</time>
      </trkpt>
      <trkpt lat="47.22116" lon="2.06937">
        <ele>104</ele>
        <time>2018-04-17T17:03:12Z</time>
      </trkpt>
      <trkpt lat="47.22122" lon="2.06921">
        <ele>104</ele>
        <time>2018-04-17T17:03:17Z</time>
      </trkpt>
      <trkpt lat="47.22123" lon="2.0692">
        <ele>104</ele>
        <time>2018-04-17T17:03:18Z</time>
      </trkpt>
      <trkpt lat="47.22126" lon="2.06921">
        <ele>104</ele>
        <time>2018-04-17T17:03:20Z</time>
      </trkpt>
      <trkpt lat="47.2213" lon="2.06923">
        <ele>105</ele>
        <time>2018-04-17T17:03:24Z</time>
      </trkpt>
      <trkpt lat="47.22131" lon="2.06924">
        <ele>105</ele>
        <time>2018-04-17T17:03:25Z</time>
      </trkpt>
      <trkpt lat="47.22136" lon="2.06927">
        <ele>105</ele>
        <time>2018-04-17T17:03:29Z</time>
      </trkpt>
      <trkpt lat="47.22146" lon="2.06926">
        <ele>105</ele>
        <time>2018-04-17T17:03:33Z</time>
      </trkpt>
      <trkpt lat="47.22148" lon="2.06924">
        <ele>106</ele>
        <time>2018-04-17T17:03:34Z</time>
      </trkpt>
      <trkpt lat="47.22148" lon="2.06916">
        <ele>105</ele>
        <time>2018-04-17T17:03:36Z</time>
      </trkpt>
      <trkpt lat="47.22146" lon="2.06903">
        <ele>104</ele>
        <time>2018-04-17T17:03:39Z</time>
      </trkpt>
      <trkpt lat="47.22143" lon="2.0689">
        <ele>104</ele>
        <time>2018-04-17T17:03:42Z</time>
      </trkpt>
      <trkpt lat="47.2214" lon="2.06864">
        <ele>103</ele>
        <time>2018-04-17T17:03:48Z</time>
      </trkpt>
      <trkpt lat="47.22139" lon="2.06861">
        <ele>103</ele>
        <time>2018-04-17T17:03:49Z</time>
      </trkpt>
      <trkpt lat="47.22132" lon="2.06857">
        <ele>103</ele>
        <time>2018-04-17T17:03:52Z</time>
      </trkpt>
      <trkpt lat="47.22126" lon="2.06855">
        <ele>103</ele>
        <time>2018-04-17T17:03:55Z</time>
      </trkpt>
      <trkpt lat="47.22121" lon="2.06854">
        <ele>103</ele>
        <time>2018-04-17T17:03:57Z</time>
      </trkpt>
      <trkpt lat="47.2211" lon="2.06853">
        <ele>102</ele>
        <time>2018-04-17T17:04:02Z</time>
      </trkpt>
      <trkpt lat="47.22109" lon="2.06847">
        <ele>102</ele>
        <time>2018-04-17T17:04:04Z</time>
      </trkpt>
      <trkpt lat="47.2211" lon="2.06839">
        <ele>102</ele>
        <time>2018-04-17T17:04:06Z</time>
      </trkpt>
      <trkpt lat="47.2211" lon="2.06824">
        <ele>102</ele>
        <time>2018-04-17T17:04:09Z</time>
      </trkpt>
      <trkpt lat="47.22109" lon="2.06809">
        <ele>102</ele>
        <time>2018-04-17T17:04:12Z</time>
      </trkpt>
      <trkpt lat="47.2211" lon="2.06785">
        <ele>102</ele>
        <time>2018-04-17T17:04:17Z</time>
      </trkpt>
      <trkpt lat="47.22111" lon="2.06765">
        <ele>102</ele>
        <time>2018-04-17T17:04:23Z</time>
      </trkpt>
      <trkpt lat="47.2211" lon="2.06761">
        <ele>102</ele>
        <time>2018-04-17T17:04:28Z</time>
      </trkpt>
      <trkpt lat="47.2211" lon="2.06762">
        <ele>102</ele>
        <time>2018-04-17T17:04:35Z</time>
      </trkpt>
      <trkpt lat="47.22111" lon="2.0676">
        <ele>102</ele>
        <time>2018-04-17T17:04:36Z</time>
      </trkpt>
      <trkpt lat="47.22113" lon="2.0675">
        <ele>101</ele>
        <time>2018-04-17T17:04:40Z</time>
      </trkpt>
      <trkpt lat="47.22114" lon="2.06748">
        <ele>101</ele>
        <time>2018-04-17T17:04:41Z</time>
      </trkpt>
      <trkpt lat="47.22116" lon="2.06743">
        <ele>101</ele>
        <time>2018-04-17T17:04:44Z</time>
      </trkpt>
      <trkpt lat="47.22118" lon="2.06729">
        <ele>101</ele>
        <time>2018-04-17T17:04:49Z</time>
      </trkpt>
      <trkpt lat="47.22123" lon="2.06727">
        <ele>102</ele>
        <time>2018-04-17T17:04:54Z</time>
      </trkpt>
      <trkpt lat="47.22126" lon="2.06728">
        <ele>102</ele>
        <time>2018-04-17T17:04:56Z</time>
      </trkpt>
      <trkpt lat="47.22134" lon="2.0673">
        <ele>102</ele>
        <time>2018-04-17T17:05:01Z</time>
      </trkpt>
      <trkpt lat="47.22136" lon="2.06728">
        <ele>102</ele>
        <time>2018-04-17T17:05:03Z</time>
      </trkpt>
      <trkpt lat="47.22136" lon="2.06725">
        <ele>102</ele>
        <time>2018-04-17T17:05:05Z</time>
      </trkpt>
      <trkpt lat="47.22134" lon="2.06717">
        <ele>102</ele>
        <time>2018-04-17T17:05:09Z</time>
      </trkpt>
      <trkpt lat="47.22131" lon="2.06701">
        <ele>102</ele>
        <time>2018-04-17T17:05:14Z</time>
      </trkpt>
      <trkpt lat="47.22132" lon="2.06697">
        <ele>102</ele>
        <time>2018-04-17T17:05:15Z</time>
      </trkpt>
      <trkpt lat="47.22131" lon="2.06693">
        <ele>102</ele>
        <time>2018-04-17T17:05:16Z</time>
      </trkpt>
      <trkpt lat="47.22127" lon="2.06685">
        <ele>101</ele>
        <time>2018-04-17T17:05:18Z</time>
      </trkpt>
      <trkpt lat="47.22106" lon="2.06659">
        <ele>101</ele>
        <time>2018-04-17T17:05:26Z</time>
      </trkpt>
      <trkpt lat="47.22097" lon="2.06644">
        <ele>101</ele>
        <time>2018-04-17T17:05:31Z</time>
      </trkpt>
      <trkpt lat="47.22081" lon="2.0662">
        <ele>100</ele>
        <time>2018-04-17T17:05:38Z</time>
      </trkpt>
      <trkpt lat="47.22069" lon="2.066">
        <ele>100</ele>
        <time>2018-04-17T17:05:45Z</time>
      </trkpt>
      <trkpt lat="47.22063" lon="2.06588">
        <ele>100</ele>
        <time>2018-04-17T17:05:51Z</time>
      </trkpt>
      <trkpt lat="47.2206" lon="2.06586">
        <ele>100</ele>
        <time>2018-04-17T17:05:53Z</time>
      </trkpt>
      <trkpt lat="47.22055" lon="2.06583">
        <ele>100</ele>
        <time>2018-04-17T17:05:56Z</time>
      </trkpt>
      <trkpt lat="47.22049" lon="2.06578">
        <ele>100</ele>
        <time>2018-04-17T17:06:03Z</time>
      </trkpt>
      <trkpt lat="47.22049" lon="2.06578">
        <ele>100</ele>
        <time>2018-04-17T17:06:16Z</time>
      </trkpt>
      <trkpt lat="47.22049" lon="2.06578">
        <ele>100</ele>
        <time>2018-04-17T17:06:28Z</time>
      </trkpt>
      <trkpt lat="47.22049" lon="2.06578">
        <ele>100</ele>
        <time>2018-04-17T17:06:37Z</time>
      </trkpt>
      <trkpt lat="47.22049" lon="2.06578">
        <ele>100</ele>
        <time>2018-04-17T17:06:52Z</time>
      </trkpt>
      <trkpt lat="47.22049" lon="2.06577">
        <ele>100</ele>
        <time>2018-04-17T17:06:59Z</time>
      </trkpt>
      <trkpt lat="47.22047" lon="2.06573">
        <ele>100</ele>
        <time>2018-04-17T17:07:01Z</time>
      </trkpt>
      <trkpt lat="47.22041" lon="2.06561">
        <ele>100</ele>
        <time>2018-04-17T17:07:05Z</time>
      </trkpt>
      <trkpt lat="47.22039" lon="2.06557">
        <ele>100</ele>
        <time>2018-04-17T17:07:06Z</time>
      </trkpt>
      <trkpt lat="47.22033" lon="2.06541">
        <ele>100</ele>
        <time>2018-04-17T17:07:09Z</time>
      </trkpt>
      <trkpt lat="47.22027" lon="2.06529">
        <ele>100</ele>
        <time>2018-04-17T17:07:11Z</time>
      </trkpt>
      <trkpt lat="47.22021" lon="2.06518">
        <ele>100</ele>
        <time>2018-04-17T17:07:13Z</time>
      </trkpt>
      <trkpt lat="47.22018" lon="2.06506">
        <ele>99</ele>
        <time>2018-04-17T17:07:15Z</time>
      </trkpt>
      <trkpt lat="47.22016" lon="2.06501">
        <ele>99</ele>
        <time>2018-04-17T17:07:16Z</time>
      </trkpt>
      <trkpt lat="47.22006" lon="2.06472">
        <ele>99</ele>
        <time>2018-04-17T17:07:22Z</time>
      </trkpt>
      <trkpt lat="47.21995" lon="2.06443">
        <ele>99</ele>
        <time>2018-04-17T17:07:28Z</time>
      </trkpt>
      <trkpt lat="47.21987" lon="2.06418">
        <ele>99</ele>
        <time>2018-04-17T17:07:33Z</time>
      </trkpt>
      <trkpt lat="47.21981" lon="2.06404">
        <ele>99</ele>
        <time>2018-04-17T17:07:37Z</time>
      </trkpt>
      <trkpt lat="47.21973" lon="2.06372">
        <ele>99</ele>
        <time>2018-04-17T17:07:43Z</time>
      </trkpt>
      <trkpt lat="47.2197" lon="2.06338">
        <ele>99</ele>
        <time>2018-04-17T17:07:49Z</time>
      </trkpt>
      <trkpt lat="47.21963" lon="2.06304">
        <ele>98</ele>
        <time>2018-04-17T17:07:55Z</time>
      </trkpt>
      <trkpt lat="47.21959" lon="2.06286">
        <ele>98</ele>
        <time>2018-04-17T17:07:59Z</time>
      </trkpt>
      <trkpt lat="47.21957" lon="2.06278">
        <ele>98</ele>
        <time>2018-04-17T17:08:01Z</time>
      </trkpt>
      <trkpt lat="47.21955" lon="2.06271">
        <ele>98</ele>
        <time>2018-04-17T17:08:04Z</time>
      </trkpt>
      <trkpt lat="47.21955" lon="2.06268">
        <ele>98</ele>
        <time>2018-04-17T17:08:08Z</time>
      </trkpt>
      <trkpt lat="47.21955" lon="2.06268">
        <ele>98</ele>
        <time>2018-04-17T17:08:22Z</time>
      </trkpt>
      <trkpt lat="47.21956" lon="2.06269">
        <ele>98</ele>
        <time>2018-04-17T17:08:34Z</time>
      </trkpt>
      <trkpt lat="47.21956" lon="2.06269">
        <ele>98</ele>
        <time>2018-04-17T17:08:48Z</time>
      </trkpt>
      <trkpt lat="47.21956" lon="2.06269">
        <ele>98</ele>
        <time>2018-04-17T17:09:01Z</time>
      </trkpt>
      <trkpt lat="47.21956" lon="2.06269">
        <ele>98</ele>
        <time>2018-04-17T17:09:10Z</time>
      </trkpt>
      <trkpt lat="47.21956" lon="2.06269">
        <ele>98</ele>
        <time>2018-04-17T17:09:29Z</time>
      </trkpt>
      <trkpt lat="47.21956" lon="2.06269">
        <ele>98</ele>
        <time>2018-04-17T17:09:37Z</time>
      </trkpt>
      <trkpt lat="47.21956" lon="2.06268">
        <ele>98</ele>
        <time>2018-04-17T17:09:45Z</time>
      </trkpt>
      <trkpt lat="47.21956" lon="2.0627">
        <ele>98</ele>
        <time>2018-04-17T17:09:50Z</time>
      </trkpt>
      <trkpt lat="47.21956" lon="2.0627">
        <ele>98</ele>
        <time>2018-04-17T17:10:02Z</time>
      </trkpt>
      <trkpt lat="47.21957" lon="2.06276">
        <ele>98</ele>
        <time>2018-04-17T17:10:12Z</time>
      </trkpt>
      <trkpt lat="47.21962" lon="2.0628">
        <ele>98</ele>
        <time>2018-04-17T17:10:15Z</time>
      </trkpt>
      <trkpt lat="47.21966" lon="2.06271">
        <ele>98</ele>
        <time>2018-04-17T17:10:19Z</time>
      </trkpt>
      <trkpt lat="47.21967" lon="2.06258">
        <ele>99</ele>
        <time>2018-04-17T17:10:22Z</time>
      </trkpt>
      <trkpt lat="47.21968" lon="2.06243">
        <ele>99</ele>
        <time>2018-04-17T17:10:24Z</time>
      </trkpt>
      <trkpt lat="47.21969" lon="2.06228">
        <ele>99</ele>
        <time>2018-04-17T17:10:26Z</time>
      </trkpt>
      <trkpt lat="47.21971" lon="2.06193">
        <ele>99</ele>
        <time>2018-04-17T17:10:31Z</time>
      </trkpt>
      <trkpt lat="47.21972" lon="2.0618">
        <ele>99</ele>
        <time>2018-04-17T17:10:33Z</time>
      </trkpt>
      <trkpt lat="47.21973" lon="2.06156">
        <ele>99</ele>
        <time>2018-04-17T17:10:37Z</time>
      </trkpt>
      <trkpt lat="47.21974" lon="2.06143">
        <ele>98</ele>
        <time>2018-04-17T17:10:39Z</time>
      </trkpt>
      <trkpt lat="47.21977" lon="2.06104">
        <ele>99</ele>
        <time>2018-04-17T17:10:45Z</time>
      </trkpt>
      <trkpt lat="47.21977" lon="2.06051">
        <ele>98</ele>
        <time>2018-04-17T17:10:52Z</time>
      </trkpt>
      <trkpt lat="47.21977" lon="2.0603">
        <ele>98</ele>
        <time>2018-04-17T17:10:56Z</time>
      </trkpt>
      <trkpt lat="47.21977" lon="2.06022">
        <ele>98</ele>
        <time>2018-04-17T17:11:00Z</time>
      </trkpt>
      <trkpt lat="47.21977" lon="2.06016">
        <ele>98</ele>
        <time>2018-04-17T17:11:06Z</time>
      </trkpt>
      <trkpt lat="47.21977" lon="2.06016">
        <ele>98</ele>
        <time>2018-04-17T17:11:15Z</time>
      </trkpt>
      <trkpt lat="47.21977" lon="2.06016">
        <ele>98</ele>
        <time>2018-04-17T17:11:31Z</time>
      </trkpt>
      <trkpt lat="47.21977" lon="2.06016">
        <ele>98</ele>
        <time>2018-04-17T17:11:40Z</time>
      </trkpt>
      <trkpt lat="47.21977" lon="2.06015">
        <ele>98</ele>
        <time>2018-04-17T17:11:47Z</time>
      </trkpt>
      <trkpt lat="47.21977" lon="2.06015">
        <ele>98</ele>
        <time>2018-04-17T17:11:57Z</time>
      </trkpt>
      <trkpt lat="47.21977" lon="2.06015">
        <ele>98</ele>
        <time>2018-04-17T17:12:12Z</time>
      </trkpt>
      <trkpt lat="47.21977" lon="2.06016">
        <ele>98</ele>
        <time>2018-04-17T17:12:27Z</time>
      </trkpt>
      <trkpt lat="47.21977" lon="2.06016">
        <ele>98</ele>
        <time>2018-04-17T17:12:48Z</time>
      </trkpt>
      <trkpt lat="47.21977" lon="2.06016">
        <ele>98</ele>
        <time>2018-04-17T17:13:04Z</time>
      </trkpt>
      <trkpt lat="47.21975" lon="2.06035">
        <ele>98</ele>
        <time>2018-04-18T07:36:13Z</time>
      </trkpt>
      <trkpt lat="47.21975" lon="2.06035">
        <ele>98</ele>
        <time>2018-04-18T07:36:13Z</time>
      </trkpt>
      <trkpt lat="47.21975" lon="2.06034">
        <ele>98</ele>
        <time>2018-04-18T07:36:14Z</time>
      </trkpt>
      <trkpt lat="47.21975" lon="2.06034">
        <ele>98</ele>
        <time>2018-04-18T07:36:15Z</time>
      </trkpt>
      <trkpt lat="47.21975" lon="2.06034">
        <ele>98</ele>
        <time>2018-04-18T07:36:16Z</time>
      </trkpt>
      <trkpt lat="47.21976" lon="2.06034">
        <ele>98</ele>
        <time>2018-04-18T07:36:18Z</time>
      </trkpt>
      <trkpt lat="47.21974" lon="2.06031">
        <ele>98</ele>
        <time>2018-04-18T07:36:29Z</time>
      </trkpt>
      <trkpt lat="47.21973" lon="2.06029">
        <ele>98</ele>
        <time>2018-04-18T07:36:34Z</time>
      </trkpt>
      <trkpt lat="47.21973" lon="2.06028">
        <ele>98</ele>
        <time>2018-04-18T07:36:39Z</time>
      </trkpt>
      <trkpt lat="47.21973" lon="2.06028">
        <ele>98</ele>
        <time>2018-04-18T07:36:40Z</time>
      </trkpt>
      <trkpt lat="47.21973" lon="2.06028">
        <ele>98</ele>
        <time>2018-04-18T07:36:41Z</time>
      </trkpt>
      <trkpt lat="47.21973" lon="2.06028">
        <ele>98</ele>
        <time>2018-04-18T07:36:42Z</time>
      </trkpt>
      <trkpt lat="47.21973" lon="2.06028">
        <ele>98</ele>
        <time>2018-04-18T07:36:53Z</time>
      </trkpt>
      <trkpt lat="47.21972" lon="2.06028">
        <ele>98</ele>
        <time>2018-04-18T07:36:57Z</time>
      </trkpt>
      <trkpt lat="47.21971" lon="2.06027">
        <ele>98</ele>
        <time>2018-04-18T07:37:02Z</time>
      </trkpt>
      <trkpt lat="47.21969" lon="2.06022">
        <ele>98</ele>
        <time>2018-04-18T07:37:06Z</time>
      </trkpt>
      <trkpt lat="47.21971" lon="2.05994">
        <ele>98</ele>
        <time>2018-04-18T07:37:14Z</time>
      </trkpt>
      <trkpt lat="47.21971" lon="2.0598">
        <ele>97</ele>
        <time>2018-04-18T07:37:17Z</time>
      </trkpt>
      <trkpt lat="47.21972" lon="2.05973">
        <ele>97</ele>
        <time>2018-04-18T07:37:20Z</time>
      </trkpt>
      <trkpt lat="47.21972" lon="2.05973">
        <ele>97</ele>
        <time>2018-04-18T07:37:21Z</time>
      </trkpt>
      <trkpt lat="47.21972" lon="2.05972">
        <ele>97</ele>
        <time>2018-04-18T07:37:24Z</time>
      </trkpt>
      <trkpt lat="47.21973" lon="2.05972">
        <ele>97</ele>
        <time>2018-04-18T07:37:25Z</time>
      </trkpt>
      <trkpt lat="47.21973" lon="2.05971">
        <ele>97</ele>
        <time>2018-04-18T07:37:28Z</time>
      </trkpt>
      <trkpt lat="47.21973" lon="2.05966">
        <ele>97</ele>
        <time>2018-04-18T07:37:31Z</time>
      </trkpt>
      <trkpt lat="47.21979" lon="2.05942">
        <ele>97</ele>
        <time>2018-04-18T07:37:36Z</time>
      </trkpt>
      <trkpt lat="47.2198" lon="2.05929">
        <ele>97</ele>
        <time>2018-04-18T07:37:38Z</time>
      </trkpt>
      <trkpt lat="47.21979" lon="2.05915">
        <ele>97</ele>
        <time>2018-04-18T07:37:40Z</time>
      </trkpt>
      <trkpt lat="47.21975" lon="2.05901">
        <ele>97</ele>
        <time>2018-04-18T07:37:42Z</time>
      </trkpt>
      <trkpt lat="47.21965" lon="2.05877">
        <ele>96</ele>
        <time>2018-04-18T07:37:46Z</time>
      </trkpt>
      <trkpt lat="47.21964" lon="2.05856">
        <ele>96</ele>
        <time>2018-04-18T07:37:50Z</time>
      </trkpt>
      <trkpt lat="47.21961" lon="2.05803">
        <ele>97</ele>
        <time>2018-04-18T07:38:00Z</time>
      </trkpt>
      <trkpt lat="47.21965" lon="2.05777">
        <ele>97</ele>
        <time>2018-04-18T07:38:06Z</time>
      </trkpt>
      <trkpt lat="47.21965" lon="2.05771">
        <ele>97</ele>
        <time>2018-04-18T07:38:07Z</time>
      </trkpt>
      <trkpt lat="47.21969" lon="2.05702">
        <ele>98</ele>
        <time>2018-04-18T07:38:28Z</time>
      </trkpt>
      <trkpt lat="47.21971" lon="2.05664">
        <ele>97</ele>
        <time>2018-04-18T07:38:36Z</time>
      </trkpt>
      <trkpt lat="47.21977" lon="2.05591">
        <ele>96</ele>
        <time>2018-04-18T07:38:51Z</time>
      </trkpt>
      <trkpt lat="47.21977" lon="2.0557">
        <ele>96</ele>
        <time>2018-04-18T07:38:55Z</time>
      </trkpt>
      <trkpt lat="47.21975" lon="2.0555">
        <ele>96</ele>
        <time>2018-04-18T07:38:59Z</time>
      </trkpt>
      <trkpt lat="47.21972" lon="2.05542">
        <ele>96</ele>
        <time>2018-04-18T07:39:00Z</time>
      </trkpt>
      <trkpt lat="47.21969" lon="2.05528">
        <ele>96</ele>
        <time>2018-04-18T07:39:02Z</time>
      </trkpt>
      <trkpt lat="47.21959" lon="2.05485">
        <ele>97</ele>
        <time>2018-04-18T07:39:09Z</time>
      </trkpt>
      <trkpt lat="47.21956" lon="2.05461">
        <ele>97</ele>
        <time>2018-04-18T07:39:13Z</time>
      </trkpt>
      <trkpt lat="47.21944" lon="2.05378">
        <ele>97</ele>
        <time>2018-04-18T07:39:28Z</time>
      </trkpt>
      <trkpt lat="47.21939" lon="2.0535">
        <ele>97</ele>
        <time>2018-04-18T07:39:32Z</time>
      </trkpt>
      <trkpt lat="47.21927" lon="2.05271">
        <ele>97</ele>
        <time>2018-04-18T07:39:45Z</time>
      </trkpt>
      <trkpt lat="47.21907" lon="2.05198">
        <ele>97</ele>
        <time>2018-04-18T07:39:58Z</time>
      </trkpt>
      <trkpt lat="47.21902" lon="2.05186">
        <ele>97</ele>
        <time>2018-04-18T07:40:00Z</time>
      </trkpt>
      <trkpt lat="47.21899" lon="2.05173">
        <ele>98</ele>
        <time>2018-04-18T07:40:02Z</time>
      </trkpt>
      <trkpt lat="47.21874" lon="2.05128">
        <ele>97</ele>
        <time>2018-04-18T07:40:14Z</time>
      </trkpt>
      <trkpt lat="47.21844" lon="2.05061">
        <ele>98</ele>
        <time>2018-04-18T07:40:28Z</time>
      </trkpt>
      <trkpt lat="47.21817" lon="2.04989">
        <ele>97</ele>
        <time>2018-04-18T07:40:44Z</time>
      </trkpt>
      <trkpt lat="47.21811" lon="2.04966">
        <ele>97</ele>
        <time>2018-04-18T07:40:48Z</time>
      </trkpt>
      <trkpt lat="47.21809" lon="2.04954">
        <ele>97</ele>
        <time>2018-04-18T07:40:50Z</time>
      </trkpt>
      <trkpt lat="47.21801" lon="2.0492">
        <ele>97</ele>
        <time>2018-04-18T07:40:56Z</time>
      </trkpt>
      <trkpt lat="47.21791" lon="2.04868">
        <ele>96</ele>
        <time>2018-04-18T07:41:05Z</time>
      </trkpt>
      <trkpt lat="47.21792" lon="2.04818">
        <ele>96</ele>
        <time>2018-04-18T07:41:13Z</time>
      </trkpt>
      <trkpt lat="47.21791" lon="2.0479">
        <ele>96</ele>
        <time>2018-04-18T07:41:17Z</time>
      </trkpt>
      <trkpt lat="47.21785" lon="2.0471">
        <ele>96</ele>
        <time>2018-04-18T07:41:29Z</time>
      </trkpt>
      <trkpt lat="47.21778" lon="2.04633">
        <ele>98</ele>
        <time>2018-04-18T07:41:41Z</time>
      </trkpt>
      <trkpt lat="47.2178" lon="2.04587">
        <ele>98</ele>
        <time>2018-04-18T07:41:49Z</time>
      </trkpt>
      <trkpt lat="47.21781" lon="2.04575">
        <ele>99</ele>
        <time>2018-04-18T07:41:51Z</time>
      </trkpt>
      <trkpt lat="47.21792" lon="2.04512">
        <ele>99</ele>
        <time>2018-04-18T07:42:03Z</time>
      </trkpt>
      <trkpt lat="47.21809" lon="2.04472">
        <ele>99</ele>
        <time>2018-04-18T07:42:12Z</time>
      </trkpt>
      <trkpt lat="47.21817" lon="2.04452">
        <ele>99</ele>
        <time>2018-04-18T07:42:16Z</time>
      </trkpt>
      <trkpt lat="47.21846" lon="2.04382">
        <ele>98</ele>
        <time>2018-04-18T07:42:29Z</time>
      </trkpt>
      <trkpt lat="47.21882" lon="2.04316">
        <ele>98</ele>
        <time>2018-04-18T07:42:42Z</time>
      </trkpt>
      <trkpt lat="47.21919" lon="2.04253">
        <ele>98</ele>
        <time>2018-04-18T07:42:57Z</time>
      </trkpt>
      <trkpt lat="47.21947" lon="2.04205">
        <ele>98</ele>
        <time>2018-04-18T07:43:06Z</time>
      </trkpt>
      <trkpt lat="47.21974" lon="2.04165">
        <ele>97</ele>
        <time>2018-04-18T07:43:15Z</time>
      </trkpt>
      <trkpt lat="47.21981" lon="2.0416">
        <ele>97</ele>
        <time>2018-04-18T07:43:17Z</time>
      </trkpt>
      <trkpt lat="47.21989" lon="2.04157">
        <ele>97</ele>
        <time>2018-04-18T07:43:19Z</time>
      </trkpt>
      <trkpt lat="47.22044" lon="2.04159">
        <ele>96</ele>
        <time>2018-04-18T07:43:33Z</time>
      </trkpt>
      <trkpt lat="47.22056" lon="2.04163">
        <ele>95</ele>
        <time>2018-04-18T07:43:39Z</time>
      </trkpt>
      <trkpt lat="47.2206" lon="2.0416">
        <ele>95</ele>
        <time>2018-04-18T07:43:48Z</time>
      </trkpt>
      <trkpt lat="47.22059" lon="2.04161">
        <ele>95</ele>
        <time>2018-04-18T07:44:27Z</time>
      </trkpt>
      <trkpt lat="47.22059" lon="2.04161">
        <ele>95</ele>
        <time>2018-04-18T07:44:31Z</time>
      </trkpt>
      <trkpt lat="47.22059" lon="2.04161">
        <ele>95</ele>
        <time>2018-04-18T07:44:48Z</time>
      </trkpt>
      <trkpt lat="47.22059" lon="2.04161">
        <ele>95</ele>
        <time>2018-04-18T07:44:56Z</time>
      </trkpt>
      <trkpt lat="47.22059" lon="2.04161">
        <ele>95</ele>
        <time>2018-04-18T07:45:03Z</time>
      </trkpt>
      <trkpt lat="47.22059" lon="2.04162">
        <ele>95</ele>
        <time>2018-04-18T07:45:13Z</time>
      </trkpt>
      <trkpt lat="47.22058" lon="2.04162">
        <ele>95</ele>
        <time>2018-04-18T07:45:24Z</time>
      </trkpt>
      <trkpt lat="47.22058" lon="2.04162">
        <ele>95</ele>
        <time>2018-04-18T07:45:25Z</time>
      </trkpt>
      <trkpt lat="47.22057" lon="2.04162">
        <ele>95</ele>
        <time>2018-04-18T07:45:26Z</time>
      </trkpt>
      <trkpt lat="47.22057" lon="2.04163">
        <ele>95</ele>
        <time>2018-04-18T07:45:27Z</time>
      </trkpt>
      <trkpt lat="47.22057" lon="2.04163">
        <ele>95</ele>
        <time>2018-04-18T07:45:31Z</time>
      </trkpt>
      <trkpt lat="47.22057" lon="2.04163">
        <ele>95</ele>
        <time>2018-04-18T07:45:33Z</time>
      </trkpt>
      <trkpt lat="47.22057" lon="2.04163">
        <ele>95</ele>
        <time>2018-04-18T07:45:34Z</time>
      </trkpt>
      <trkpt lat="47.22057" lon="2.04163">
        <ele>95</ele>
        <time>2018-04-18T07:45:35Z</time>
      </trkpt>
      <trkpt lat="47.22057" lon="2.04163">
        <ele>95</ele>
        <time>2018-04-18T07:45:36Z</time>
      </trkpt>
      <trkpt lat="47.22057" lon="2.04163">
        <ele>95</ele>
        <time>2018-04-18T07:45:39Z</time>
      </trkpt>
      <trkpt lat="47.22057" lon="2.04165">
        <ele>95</ele>
        <time>2018-04-18T07:45:52Z</time>
      </trkpt>
      <trkpt lat="47.22057" lon="2.04165">
        <ele>95</ele>
        <time>2018-04-18T07:46:03Z</time>
      </trkpt>
      <trkpt lat="47.22057" lon="2.04165">
        <ele>95</ele>
        <time>2018-04-18T07:46:11Z</time>
      </trkpt>
      <trkpt lat="47.22057" lon="2.04165">
        <ele>95</ele>
        <time>2018-04-18T07:46:23Z</time>
      </trkpt>
      <trkpt lat="47.22057" lon="2.04165">
        <ele>95</ele>
        <time>2018-04-18T07:46:37Z</time>
      </trkpt>
      <trkpt lat="47.22058" lon="2.04165">
        <ele>95</ele>
        <time>2018-04-18T07:46:40Z</time>
      </trkpt>
      <trkpt lat="47.22065" lon="2.04164">
        <ele>95</ele>
        <time>2018-04-18T07:46:44Z</time>
      </trkpt>
      <trkpt lat="47.22078" lon="2.04118">
        <ele>95</ele>
        <time>2018-04-18T07:46:53Z</time>
      </trkpt>
      <trkpt lat="47.22086" lon="2.04034">
        <ele>95</ele>
        <time>2018-04-18T07:47:04Z</time>
      </trkpt>
      <trkpt lat="47.22089" lon="2.03967">
        <ele>95</ele>
        <time>2018-04-18T07:47:14Z</time>
      </trkpt>
      <trkpt lat="47.2209" lon="2.03961">
        <ele>95</ele>
        <time>2018-04-18T07:47:15Z</time>
      </trkpt>
      <trkpt lat="47.22091" lon="2.03937">
        <ele>96</ele>
        <time>2018-04-18T07:47:19Z</time>
      </trkpt>
      <trkpt lat="47.22092" lon="2.03925">
        <ele>96</ele>
        <time>2018-04-18T07:47:21Z</time>
      </trkpt>
      <trkpt lat="47.22092" lon="2.03919">
        <ele>96</ele>
        <time>2018-04-18T07:47:22Z</time>
      </trkpt>
      <trkpt lat="47.22093" lon="2.03913">
        <ele>96</ele>
        <time>2018-04-18T07:47:23Z</time>
      </trkpt>
      <trkpt lat="47.22093" lon="2.039">
        <ele>96</ele>
        <time>2018-04-18T07:47:25Z</time>
      </trkpt>
      <trkpt lat="47.22095" lon="2.03887">
        <ele>96</ele>
        <time>2018-04-18T07:47:27Z</time>
      </trkpt>
      <trkpt lat="47.22098" lon="2.03846">
        <ele>96</ele>
        <time>2018-04-18T07:47:33Z</time>
      </trkpt>
      <trkpt lat="47.22099" lon="2.03839">
        <ele>96</ele>
        <time>2018-04-18T07:47:34Z</time>
      </trkpt>
      <trkpt lat="47.22102" lon="2.03825">
        <ele>95</ele>
        <time>2018-04-18T07:47:36Z</time>
      </trkpt>
      <trkpt lat="47.22109" lon="2.03799">
        <ele>95</ele>
        <time>2018-04-18T07:47:40Z</time>
      </trkpt>
      <trkpt lat="47.22124" lon="2.03749">
        <ele>94</ele>
        <time>2018-04-18T07:47:48Z</time>
      </trkpt>
      <trkpt lat="47.22126" lon="2.03742">
        <ele>94</ele>
        <time>2018-04-18T07:47:49Z</time>
      </trkpt>
      <trkpt lat="47.22139" lon="2.03692">
        <ele>95</ele>
        <time>2018-04-18T07:47:56Z</time>
      </trkpt>
      <trkpt lat="47.22141" lon="2.03686">
        <ele>95</ele>
        <time>2018-04-18T07:47:57Z</time>
      </trkpt>
      <trkpt lat="47.22144" lon="2.03672">
        <ele>95</ele>
        <time>2018-04-18T07:47:59Z</time>
      </trkpt>
      <trkpt lat="47.22148" lon="2.03659">
        <ele>96</ele>
        <time>2018-04-18T07:48:01Z</time>
      </trkpt>
      <trkpt lat="47.22152" lon="2.03646">
        <ele>96</ele>
        <time>2018-04-18T07:48:03Z</time>
      </trkpt>
      <trkpt lat="47.22157" lon="2.03627">
        <ele>96</ele>
        <time>2018-04-18T07:48:06Z</time>
      </trkpt>
      <trkpt lat="47.22165" lon="2.036">
        <ele>96</ele>
        <time>2018-04-18T07:48:10Z</time>
      </trkpt>
      <trkpt lat="47.22167" lon="2.03593">
        <ele>96</ele>
        <time>2018-04-18T07:48:11Z</time>
      </trkpt>
      <trkpt lat="47.22169" lon="2.03586">
        <ele>96</ele>
        <time>2018-04-18T07:48:12Z</time>
      </trkpt>
      <trkpt lat="47.22173" lon="2.03573">
        <ele>96</ele>
        <time>2018-04-18T07:48:14Z</time>
      </trkpt>
      <trkpt lat="47.22175" lon="2.03566">
        <ele>96</ele>
        <time>2018-04-18T07:48:15Z</time>
      </trkpt>
      <trkpt lat="47.22177" lon="2.03559">
        <ele>97</ele>
        <time>2018-04-18T07:48:16Z</time>
      </trkpt>
      <trkpt lat="47.22179" lon="2.03553">
        <ele>97</ele>
        <time>2018-04-18T07:48:17Z</time>
      </trkpt>
      <trkpt lat="47.22183" lon="2.03539">
        <ele>97</ele>
        <time>2018-04-18T07:48:19Z</time>
      </trkpt>
      <trkpt lat="47.22199" lon="2.03485">
        <ele>96</ele>
        <time>2018-04-18T07:48:27Z</time>
      </trkpt>
      <trkpt lat="47.22221" lon="2.0341">
        <ele>96</ele>
        <time>2018-04-18T07:48:38Z</time>
      </trkpt>
      <trkpt lat="47.22244" lon="2.03333">
        <ele>96</ele>
        <time>2018-04-18T07:48:49Z</time>
      </trkpt>
      <trkpt lat="47.22248" lon="2.03319">
        <ele>96</ele>
        <time>2018-04-18T07:48:51Z</time>
      </trkpt>
      <trkpt lat="47.22266" lon="2.03256">
        <ele>96</ele>
        <time>2018-04-18T07:49:00Z</time>
      </trkpt>
      <trkpt lat="47.2227" lon="2.03242">
        <ele>96</ele>
        <time>2018-04-18T07:49:02Z</time>
      </trkpt>
      <trkpt lat="47.22278" lon="2.03214">
        <ele>96</ele>
        <time>2018-04-18T07:49:06Z</time>
      </trkpt>
      <trkpt lat="47.22298" lon="2.03145">
        <ele>96</ele>
        <time>2018-04-18T07:49:16Z</time>
      </trkpt>
      <trkpt lat="47.22302" lon="2.03131">
        <ele>95</ele>
        <time>2018-04-18T07:49:18Z</time>
      </trkpt>
      <trkpt lat="47.22317" lon="2.03077">
        <ele>94</ele>
        <time>2018-04-18T07:49:27Z</time>
      </trkpt>
      <trkpt lat="47.22332" lon="2.03021">
        <ele>94</ele>
        <time>2018-04-18T07:49:41Z</time>
      </trkpt>
      <trkpt lat="47.22336" lon="2.02942">
        <ele>95</ele>
        <time>2018-04-18T07:49:59Z</time>
      </trkpt>
      <trkpt lat="47.22334" lon="2.02919">
        <ele>94</ele>
        <time>2018-04-18T07:50:03Z</time>
      </trkpt>
      <trkpt lat="47.22322" lon="2.02875">
        <ele>95</ele>
        <time>2018-04-18T07:50:10Z</time>
      </trkpt>
      <trkpt lat="47.22297" lon="2.02799">
        <ele>96</ele>
        <time>2018-04-18T07:50:23Z</time>
      </trkpt>
      <trkpt lat="47.22284" lon="2.02745">
        <ele>96</ele>
        <time>2018-04-18T07:50:31Z</time>
      </trkpt>
      <trkpt lat="47.22283" lon="2.02737">
        <ele>96</ele>
        <time>2018-04-18T07:50:32Z</time>
      </trkpt>
      <trkpt lat="47.22283" lon="2.02706">
        <ele>96</ele>
        <time>2018-04-18T07:50:36Z</time>
      </trkpt>
      <trkpt lat="47.22285" lon="2.02684">
        <ele>96</ele>
        <time>2018-04-18T07:50:39Z</time>
      </trkpt>
      <trkpt lat="47.22289" lon="2.02641">
        <ele>96</ele>
        <time>2018-04-18T07:50:45Z</time>
      </trkpt>
      <trkpt lat="47.22298" lon="2.02556">
        <ele>96</ele>
        <time>2018-04-18T07:50:57Z</time>
      </trkpt>
      <trkpt lat="47.22309" lon="2.02472">
        <ele>96</ele>
        <time>2018-04-18T07:51:09Z</time>
      </trkpt>
      <trkpt lat="47.22309" lon="2.02459">
        <ele>96</ele>
        <time>2018-04-18T07:51:11Z</time>
      </trkpt>
      <trkpt lat="47.22307" lon="2.02439">
        <ele>96</ele>
        <time>2018-04-18T07:51:14Z</time>
      </trkpt>
      <trkpt lat="47.22301" lon="2.02411">
        <ele>96</ele>
        <time>2018-04-18T07:51:18Z</time>
      </trkpt>
      <trkpt lat="47.22293" lon="2.02394">
        <ele>96</ele>
        <time>2018-04-18T07:51:21Z</time>
      </trkpt>
      <trkpt lat="47.22253" lon="2.02333">
        <ele>97</ele>
        <time>2018-04-18T07:51:32Z</time>
      </trkpt>
      <trkpt lat="47.22213" lon="2.02282">
        <ele>96</ele>
        <time>2018-04-18T07:51:42Z</time>
      </trkpt>
      <trkpt lat="47.22204" lon="2.02262">
        <ele>96</ele>
        <time>2018-04-18T07:51:45Z</time>
      </trkpt>
      <trkpt lat="47.22177" lon="2.02186">
        <ele>96</ele>
        <time>2018-04-18T07:51:57Z</time>
      </trkpt>
      <trkpt lat="47.22145" lon="2.02116">
        <ele>95</ele>
        <time>2018-04-18T07:52:08Z</time>
      </trkpt>
      <trkpt lat="47.22143" lon="2.0211">
        <ele>95</ele>
        <time>2018-04-18T07:52:09Z</time>
      </trkpt>
      <trkpt lat="47.2214" lon="2.02104">
        <ele>95</ele>
        <time>2018-04-18T07:52:10Z</time>
      </trkpt>
      <trkpt lat="47.22138" lon="2.02098">
        <ele>95</ele>
        <time>2018-04-18T07:52:11Z</time>
      </trkpt>
      <trkpt lat="47.22135" lon="2.02092">
        <ele>95</ele>
        <time>2018-04-18T07:52:12Z</time>
      </trkpt>
      <trkpt lat="47.22127" lon="2.02074">
        <ele>95</ele>
        <time>2018-04-18T07:52:15Z</time>
      </trkpt>
      <trkpt lat="47.22109" lon="2.02022">
        <ele>96</ele>
        <time>2018-04-18T07:52:23Z</time>
      </trkpt>
      <trkpt lat="47.22096" lon="2.01971">
        <ele>96</ele>
        <time>2018-04-18T07:52:30Z</time>
      </trkpt>
      <trkpt lat="47.22087" lon="2.01931">
        <ele>97</ele>
        <time>2018-04-18T07:52:38Z</time>
      </trkpt>
      <trkpt lat="47.2208" lon="2.01909">
        <ele>97</ele>
        <time>2018-04-18T07:52:43Z</time>
      </trkpt>
      <trkpt lat="47.22076" lon="2.01886">
        <ele>97</ele>
        <time>2018-04-18T07:52:47Z</time>
      </trkpt>
      <trkpt lat="47.22065" lon="2.01837">
        <ele>96</ele>
        <time>2018-04-18T07:52:55Z</time>
      </trkpt>
      <trkpt lat="47.22045" lon="2.0176">
        <ele>96</ele>
        <time>2018-04-18T07:53:07Z</time>
      </trkpt>
      <trkpt lat="47.22042" lon="2.01711">
        <ele>96</ele>
        <time>2018-04-18T07:53:14Z</time>
      </trkpt>
      <trkpt lat="47.22035" lon="2.01658">
        <ele>96</ele>
        <time>2018-04-18T07:53:22Z</time>
      </trkpt>
      <trkpt lat="47.22022" lon="2.01611">
        <ele>96</ele>
        <time>2018-04-18T07:53:29Z</time>
      </trkpt>
      <trkpt lat="47.22006" lon="2.0156">
        <ele>95</ele>
        <time>2018-04-18T07:53:37Z</time>
      </trkpt>
      <trkpt lat="47.21968" lon="2.01497">
        <ele>96</ele>
        <time>2018-04-18T07:53:49Z</time>
      </trkpt>
      <trkpt lat="47.21925" lon="2.0144">
        <ele>96</ele>
        <time>2018-04-18T07:54:01Z</time>
      </trkpt>
      <trkpt lat="47.21902" lon="2.01398">
        <ele>96</ele>
        <time>2018-04-18T07:54:09Z</time>
      </trkpt>
      <trkpt lat="47.21892" lon="2.01371">
        <ele>96</ele>
        <time>2018-04-18T07:54:14Z</time>
      </trkpt>
      <trkpt lat="47.21875" lon="2.01307">
        <ele>96</ele>
        <time>2018-04-18T07:54:25Z</time>
      </trkpt>
      <trkpt lat="47.21868" lon="2.01298">
        <ele>96</ele>
        <time>2018-04-18T07:54:27Z</time>
      </trkpt>
      <trkpt lat="47.21858" lon="2.0128">
        <ele>96</ele>
        <time>2018-04-18T07:54:31Z</time>
      </trkpt>
      <trkpt lat="47.21839" lon="2.01204">
        <ele>95</ele>
        <time>2018-04-18T07:54:47Z</time>
      </trkpt>
      <trkpt lat="47.21845" lon="2.0112">
        <ele>95</ele>
        <time>2018-04-18T07:55:01Z</time>
      </trkpt>
      <trkpt lat="47.21847" lon="2.01093">
        <ele>95</ele>
        <time>2018-04-18T07:55:05Z</time>
      </trkpt>
      <trkpt lat="47.21837" lon="2.01013">
        <ele>96</ele>
        <time>2018-04-18T07:55:18Z</time>
      </trkpt>
      <trkpt lat="47.21818" lon="2.00958">
        <ele>95</ele>
        <time>2018-04-18T07:55:27Z</time>
      </trkpt>
      <trkpt lat="47.21807" lon="2.00925">
        <ele>95</ele>
        <time>2018-04-18T07:55:32Z</time>
      </trkpt>
      <trkpt lat="47.218" lon="2.00842">
        <ele>94</ele>
        <time>2018-04-18T07:55:44Z</time>
      </trkpt>
      <trkpt lat="47.218" lon="2.00822">
        <ele>94</ele>
        <time>2018-04-18T07:55:47Z</time>
      </trkpt>
      <trkpt lat="47.21805" lon="2.00775">
        <ele>94</ele>
        <time>2018-04-18T07:55:54Z</time>
      </trkpt>
      <trkpt lat="47.21816" lon="2.00692">
        <ele>95</ele>
        <time>2018-04-18T07:56:07Z</time>
      </trkpt>
      <trkpt lat="47.21814" lon="2.00622">
        <ele>96</ele>
        <time>2018-04-18T07:56:17Z</time>
      </trkpt>
      <trkpt lat="47.21816" lon="2.00608">
        <ele>96</ele>
        <time>2018-04-18T07:56:19Z</time>
      </trkpt>
      <trkpt lat="47.21823" lon="2.00582">
        <ele>96</ele>
        <time>2018-04-18T07:56:23Z</time>
      </trkpt>
      <trkpt lat="47.21852" lon="2.00512">
        <ele>96</ele>
        <time>2018-04-18T07:56:35Z</time>
      </trkpt>
      <trkpt lat="47.21854" lon="2.00507">
        <ele>96</ele>
        <time>2018-04-18T07:56:36Z</time>
      </trkpt>
      <trkpt lat="47.2186" lon="2.00496">
        <ele>96</ele>
        <time>2018-04-18T07:56:38Z</time>
      </trkpt>
      <trkpt lat="47.2187" lon="2.00484">
        <ele>95</ele>
        <time>2018-04-18T07:56:41Z</time>
      </trkpt>
      <trkpt lat="47.21877" lon="2.00477">
        <ele>95</ele>
        <time>2018-04-18T07:56:43Z</time>
      </trkpt>
      <trkpt lat="47.21916" lon="2.00423">
        <ele>94</ele>
        <time>2018-04-18T07:56:59Z</time>
      </trkpt>
      <trkpt lat="47.21932" lon="2.00353">
        <ele>94</ele>
        <time>2018-04-18T07:57:12Z</time>
      </trkpt>
      <trkpt lat="47.21938" lon="2.00344">
        <ele>95</ele>
        <time>2018-04-18T07:57:14Z</time>
      </trkpt>
      <trkpt lat="47.21946" lon="2.00338">
        <ele>94</ele>
        <time>2018-04-18T07:57:16Z</time>
      </trkpt>
      <trkpt lat="47.21969" lon="2.00327">
        <ele>94</ele>
        <time>2018-04-18T07:57:22Z</time>
      </trkpt>
      <trkpt lat="47.22011" lon="2.00305">
        <ele>94</ele>
        <time>2018-04-18T07:57:32Z</time>
      </trkpt>
      <trkpt lat="47.22018" lon="2.00296">
        <ele>95</ele>
        <time>2018-04-18T07:57:34Z</time>
      </trkpt>
      <trkpt lat="47.22035" lon="2.00273">
        <ele>95</ele>
        <time>2018-04-18T07:57:39Z</time>
      </trkpt>
      <trkpt lat="47.22042" lon="2.00267">
        <ele>95</ele>
        <time>2018-04-18T07:57:41Z</time>
      </trkpt>
      <trkpt lat="47.22051" lon="2.00268">
        <ele>95</ele>
        <time>2018-04-18T07:57:43Z</time>
      </trkpt>
      <trkpt lat="47.22055" lon="2.00269">
        <ele>95</ele>
        <time>2018-04-18T07:57:44Z</time>
      </trkpt>
      <trkpt lat="47.22063" lon="2.00274">
        <ele>95</ele>
        <time>2018-04-18T07:57:46Z</time>
      </trkpt>
      <trkpt lat="47.22067" lon="2.00277">
        <ele>95</ele>
        <time>2018-04-18T07:57:47Z</time>
      </trkpt>
      <trkpt lat="47.22122" lon="2.00308">
        <ele>95</ele>
        <time>2018-04-18T07:58:00Z</time>
      </trkpt>
      <trkpt lat="47.22148" lon="2.00321">
        <ele>94</ele>
        <time>2018-04-18T07:58:06Z</time>
      </trkpt>
      <trkpt lat="47.22161" lon="2.00324">
        <ele>94</ele>
        <time>2018-04-18T07:58:09Z</time>
      </trkpt>
      <trkpt lat="47.22166" lon="2.00326">
        <ele>94</ele>
        <time>2018-04-18T07:58:10Z</time>
      </trkpt>
      <trkpt lat="47.22197" lon="2.00346">
        <ele>94</ele>
        <time>2018-04-18T07:58:18Z</time>
      </trkpt>
      <trkpt lat="47.22201" lon="2.00348">
        <ele>94</ele>
        <time>2018-04-18T07:58:19Z</time>
      </trkpt>
      <trkpt lat="47.22205" lon="2.00351">
        <ele>94</ele>
        <time>2018-04-18T07:58:20Z</time>
      </trkpt>
      <trkpt lat="47.2222" lon="2.0036">
        <ele>94</ele>
        <time>2018-04-18T07:58:24Z</time>
      </trkpt>
      <trkpt lat="47.2226" lon="2.00385">
        <ele>94</ele>
        <time>2018-04-18T07:58:52Z</time>
      </trkpt>
      <trkpt lat="47.2226" lon="2.00386">
        <ele>94</ele>
        <time>2018-04-18T07:59:03Z</time>
      </trkpt>
      <trkpt lat="47.2226" lon="2.00386">
        <ele>94</ele>
        <time>2018-04-18T07:59:04Z</time>
      </trkpt>
      <trkpt lat="47.2226" lon="2.00385">
        <ele>94</ele>
        <time>2018-04-18T07:59:07Z</time>
      </trkpt>
      <trkpt lat="47.2226" lon="2.00385">
        <ele>94</ele>
        <time>2018-04-18T07:59:08Z</time>
      </trkpt>
      <trkpt lat="47.2226" lon="2.00385">
        <ele>94</ele>
        <time>2018-04-18T07:59:09Z</time>
      </trkpt>
      <trkpt lat="47.2226" lon="2.00385">
        <ele>94</ele>
        <time>2018-04-18T07:59:10Z</time>
      </trkpt>
      <trkpt lat="47.22259" lon="2.00386">
        <ele>94</ele>
        <time>2018-04-18T07:59:17Z</time>
      </trkpt>
      <trkpt lat="47.22258" lon="2.0039">
        <ele>94</ele>
        <time>2018-04-18T07:59:20Z</time>
      </trkpt>
      <trkpt lat="47.22275" lon="2.00452">
        <ele>94</ele>
        <time>2018-04-18T07:59:35Z</time>
      </trkpt>
      <trkpt lat="47.22279" lon="2.00455">
        <ele>94</ele>
        <time>2018-04-18T07:59:36Z</time>
      </trkpt>
      <trkpt lat="47.22284" lon="2.00458">
        <ele>94</ele>
        <time>2018-04-18T07:59:37Z</time>
      </trkpt>
      <trkpt lat="47.22297" lon="2.00465">
        <ele>94</ele>
        <time>2018-04-18T07:59:40Z</time>
      </trkpt>
      <trkpt lat="47.22301" lon="2.00467">
        <ele>94</ele>
        <time>2018-04-18T07:59:41Z</time>
      </trkpt>
      <trkpt lat="47.22306" lon="2.0047">
        <ele>94</ele>
        <time>2018-04-18T07:59:42Z</time>
      </trkpt>
      <trkpt lat="47.22338" lon="2.00488">
        <ele>94</ele>
        <time>2018-04-18T07:59:49Z</time>
      </trkpt>
      <trkpt lat="47.22347" lon="2.00495">
        <ele>94</ele>
        <time>2018-04-18T07:59:51Z</time>
      </trkpt>
      <trkpt lat="47.22364" lon="2.00519">
        <ele>94</ele>
        <time>2018-04-18T07:59:56Z</time>
      </trkpt>
      <trkpt lat="47.22368" lon="2.00532">
        <ele>94</ele>
        <time>2018-04-18T07:59:58Z</time>
      </trkpt>
      <trkpt lat="47.2238" lon="2.00582">
        <ele>94</ele>
        <time>2018-04-18T08:00:05Z</time>
      </trkpt>
      <trkpt lat="47.22408" lon="2.00651">
        <ele>95</ele>
        <time>2018-04-18T08:00:17Z</time>
      </trkpt>
      <trkpt lat="47.22429" lon="2.00726">
        <ele>95</ele>
        <time>2018-04-18T08:00:29Z</time>
      </trkpt>
      <trkpt lat="47.22444" lon="2.00807">
        <ele>95</ele>
        <time>2018-04-18T08:00:41Z</time>
      </trkpt>
      <trkpt lat="47.22449" lon="2.00843">
        <ele>95</ele>
        <time>2018-04-18T08:00:46Z</time>
      </trkpt>
      <trkpt lat="47.22478" lon="2.00914">
        <ele>94</ele>
        <time>2018-04-18T08:00:58Z</time>
      </trkpt>
      <trkpt lat="47.22488" lon="2.00937">
        <ele>94</ele>
        <time>2018-04-18T08:01:02Z</time>
      </trkpt>
      <trkpt lat="47.22494" lon="2.00947">
        <ele>94</ele>
        <time>2018-04-18T08:01:04Z</time>
      </trkpt>
      <trkpt lat="47.22506" lon="2.00959">
        <ele>95</ele>
        <time>2018-04-18T08:01:07Z</time>
      </trkpt>
      <trkpt lat="47.22532" lon="2.00981">
        <ele>95</ele>
        <time>2018-04-18T08:01:13Z</time>
      </trkpt>
      <trkpt lat="47.22578" lon="2.01029">
        <ele>95</ele>
        <time>2018-04-18T08:01:25Z</time>
      </trkpt>
      <trkpt lat="47.2262" lon="2.01081">
        <ele>95</ele>
        <time>2018-04-18T08:01:36Z</time>
      </trkpt>
      <trkpt lat="47.22629" lon="2.01097">
        <ele>95</ele>
        <time>2018-04-18T08:01:39Z</time>
      </trkpt>
      <trkpt lat="47.22637" lon="2.01104">
        <ele>95</ele>
        <time>2018-04-18T08:01:41Z</time>
      </trkpt>
      <trkpt lat="47.22687" lon="2.01135">
        <ele>95</ele>
        <time>2018-04-18T08:01:53Z</time>
      </trkpt>
      <trkpt lat="47.22733" lon="2.01188">
        <ele>94</ele>
        <time>2018-04-18T08:02:05Z</time>
      </trkpt>
      <trkpt lat="47.2277" lon="2.01249">
        <ele>95</ele>
        <time>2018-04-18T08:02:16Z</time>
      </trkpt>
      <trkpt lat="47.22807" lon="2.01311">
        <ele>94</ele>
        <time>2018-04-18T08:02:27Z</time>
      </trkpt>
      <trkpt lat="47.2285" lon="2.01363">
        <ele>94</ele>
        <time>2018-04-18T08:02:40Z</time>
      </trkpt>
      <trkpt lat="47.22854" lon="2.01366">
        <ele>94</ele>
        <time>2018-04-18T08:02:42Z</time>
      </trkpt>
      <trkpt lat="47.22859" lon="2.01361">
        <ele>94</ele>
        <time>2018-04-18T08:02:45Z</time>
      </trkpt>
      <trkpt lat="47.22861" lon="2.01278">
        <ele>95</ele>
        <time>2018-04-18T08:03:00Z</time>
      </trkpt>
      <trkpt lat="47.22864" lon="2.01195">
        <ele>95</ele>
        <time>2018-04-18T08:03:14Z</time>
      </trkpt>
      <trkpt lat="47.22865" lon="2.0117">
        <ele>95</ele>
        <time>2018-04-18T08:03:18Z</time>
      </trkpt>
      <trkpt lat="47.22866" lon="2.01146">
        <ele>94</ele>
        <time>2018-04-18T08:03:22Z</time>
      </trkpt>
      <trkpt lat="47.22868" lon="2.01064">
        <ele>94</ele>
        <time>2018-04-18T08:03:35Z</time>
      </trkpt>
      <trkpt lat="47.22869" lon="2.01031">
        <ele>94</ele>
        <time>2018-04-18T08:03:40Z</time>
      </trkpt>
      <trkpt lat="47.22869" lon="2.01011">
        <ele>94</ele>
        <time>2018-04-18T08:03:43Z</time>
      </trkpt>
      <trkpt lat="47.2287" lon="2.01005">
        <ele>94</ele>
        <time>2018-04-18T08:03:44Z</time>
      </trkpt>
      <trkpt lat="47.22873" lon="2.00925">
        <ele>94</ele>
        <time>2018-04-18T08:03:56Z</time>
      </trkpt>
      <trkpt lat="47.22876" lon="2.00843">
        <ele>95</ele>
        <time>2018-04-18T08:04:08Z</time>
      </trkpt>
      <trkpt lat="47.22877" lon="2.00808">
        <ele>95</ele>
        <time>2018-04-18T08:04:13Z</time>
      </trkpt>
      <trkpt lat="47.22878" lon="2.00774">
        <ele>95</ele>
        <time>2018-04-18T08:04:18Z</time>
      </trkpt>
      <trkpt lat="47.22878" lon="2.00767">
        <ele>95</ele>
        <time>2018-04-18T08:04:19Z</time>
      </trkpt>
      <trkpt lat="47.22881" lon="2.00688">
        <ele>95</ele>
        <time>2018-04-18T08:04:31Z</time>
      </trkpt>
      <trkpt lat="47.22884" lon="2.00609">
        <ele>94</ele>
        <time>2018-04-18T08:04:43Z</time>
      </trkpt>
      <trkpt lat="47.22884" lon="2.00552">
        <ele>94</ele>
        <time>2018-04-18T08:04:54Z</time>
      </trkpt>
      <trkpt lat="47.22834" lon="2.00576">
        <ele>95</ele>
        <time>2018-04-18T08:05:09Z</time>
      </trkpt>
      <trkpt lat="47.22824" lon="2.00584">
        <ele>95</ele>
        <time>2018-04-18T08:05:12Z</time>
      </trkpt>
      <trkpt lat="47.22821" lon="2.00587">
        <ele>95</ele>
        <time>2018-04-18T08:05:13Z</time>
      </trkpt>
      <trkpt lat="47.22801" lon="2.00602">
        <ele>94</ele>
        <time>2018-04-18T08:05:19Z</time>
      </trkpt>
      <trkpt lat="47.22797" lon="2.00597">
        <ele>94</ele>
        <time>2018-04-18T08:05:21Z</time>
      </trkpt>
      <trkpt lat="47.22796" lon="2.00563">
        <ele>95</ele>
        <time>2018-04-18T08:05:27Z</time>
      </trkpt>
      <trkpt lat="47.22792" lon="2.00551">
        <ele>95</ele>
        <time>2018-04-18T08:05:29Z</time>
      </trkpt>
      <trkpt lat="47.22782" lon="2.00515">
        <ele>95</ele>
        <time>2018-04-18T08:05:35Z</time>
      </trkpt>
      <trkpt lat="47.22788" lon="2.00433">
        <ele>95</ele>
        <time>2018-04-18T08:05:48Z</time>
      </trkpt>
      <trkpt lat="47.22791" lon="2.0039">
        <ele>94</ele>
        <time>2018-04-18T08:05:54Z</time>
      </trkpt>
      <trkpt lat="47.22791" lon="2.00383">
        <ele>94</ele>
        <time>2018-04-18T08:05:55Z</time>
      </trkpt>
      <trkpt lat="47.2279" lon="2.00363">
        <ele>94</ele>
        <time>2018-04-18T08:05:58Z</time>
      </trkpt>
      <trkpt lat="47.22789" lon="2.00357">
        <ele>94</ele>
        <time>2018-04-18T08:05:59Z</time>
      </trkpt>
      <trkpt lat="47.2278" lon="2.00329">
        <ele>94</ele>
        <time>2018-04-18T08:06:03Z</time>
      </trkpt>
      <trkpt lat="47.22764" lon="2.00287">
        <ele>93</ele>
        <time>2018-04-18T08:06:09Z</time>
      </trkpt>
      <trkpt lat="47.22755" lon="2.00267">
        <ele>93</ele>
        <time>2018-04-18T08:06:12Z</time>
      </trkpt>
      <trkpt lat="47.22733" lon="2.00188">
        <ele>94</ele>
        <time>2018-04-18T08:06:23Z</time>
      </trkpt>
      <trkpt lat="47.22726" lon="2.0015">
        <ele>95</ele>
        <time>2018-04-18T08:06:29Z</time>
      </trkpt>
      <trkpt lat="47.22726" lon="2.00137">
        <ele>95</ele>
        <time>2018-04-18T08:06:31Z</time>
      </trkpt>
      <trkpt lat="47.22729" lon="2.00124">
        <ele>95</ele>
        <time>2018-04-18T08:06:33Z</time>
      </trkpt>
      <trkpt lat="47.22733" lon="2.00111">
        <ele>95</ele>
        <time>2018-04-18T08:06:35Z</time>
      </trkpt>
      <trkpt lat="47.22734" lon="2.00098">
        <ele>95</ele>
        <time>2018-04-18T08:06:37Z</time>
      </trkpt>
      <trkpt lat="47.22731" lon="2.00085">
        <ele>95</ele>
        <time>2018-04-18T08:06:39Z</time>
      </trkpt>
      <trkpt lat="47.22722" lon="2.00075">
        <ele>95</ele>
        <time>2018-04-18T08:06:41Z</time>
      </trkpt>
      <trkpt lat="47.22668" lon="2.0005">
        <ele>94</ele>
        <time>2018-04-18T08:06:53Z</time>
      </trkpt>
      <trkpt lat="47.22629" lon="2.00028">
        <ele>94</ele>
        <time>2018-04-18T08:07:02Z</time>
      </trkpt>
      <trkpt lat="47.22619" lon="2.00016">
        <ele>94</ele>
        <time>2018-04-18T08:07:05Z</time>
      </trkpt>
      <trkpt lat="47.22618" lon="1.99994">
        <ele>93</ele>
        <time>2018-04-18T08:07:09Z</time>
      </trkpt>
      <trkpt lat="47.22634" lon="1.99937">
        <ele>93</ele>
        <time>2018-04-18T08:07:18Z</time>
      </trkpt>
      <trkpt lat="47.22636" lon="1.99923">
        <ele>93</ele>
        <time>2018-04-18T08:07:20Z</time>
      </trkpt>
      <trkpt lat="47.22636" lon="1.99909">
        <ele>93</ele>
        <time>2018-04-18T08:07:22Z</time>
      </trkpt>
      <trkpt lat="47.22634" lon="1.99881">
        <ele>93</ele>
        <time>2018-04-18T08:07:26Z</time>
      </trkpt>
      <trkpt lat="47.22617" lon="1.99808">
        <ele>94</ele>
        <time>2018-04-18T08:07:36Z</time>
      </trkpt>
      <trkpt lat="47.226" lon="1.9973">
        <ele>94</ele>
        <time>2018-04-18T08:07:47Z</time>
      </trkpt>
      <trkpt lat="47.22591" lon="1.99696">
        <ele>94</ele>
        <time>2018-04-18T08:07:52Z</time>
      </trkpt>
      <trkpt lat="47.22578" lon="1.99674">
        <ele>94</ele>
        <time>2018-04-18T08:07:56Z</time>
      </trkpt>
      <trkpt lat="47.22547" lon="1.99647">
        <ele>95</ele>
        <time>2018-04-18T08:08:03Z</time>
      </trkpt>
      <trkpt lat="47.22493" lon="1.99626">
        <ele>95</ele>
        <time>2018-04-18T08:08:14Z</time>
      </trkpt>
      <trkpt lat="47.22435" lon="1.99625">
        <ele>95</ele>
        <time>2018-04-18T08:08:25Z</time>
      </trkpt>
      <trkpt lat="47.22386" lon="1.99652">
        <ele>94</ele>
        <time>2018-04-18T08:08:37Z</time>
      </trkpt>
      <trkpt lat="47.22356" lon="1.99658">
        <ele>94</ele>
        <time>2018-04-18T08:08:44Z</time>
      </trkpt>
      <trkpt lat="47.22311" lon="1.99625">
        <ele>95</ele>
        <time>2018-04-18T08:08:54Z</time>
      </trkpt>
      <trkpt lat="47.22292" lon="1.99613">
        <ele>95</ele>
        <time>2018-04-18T08:08:58Z</time>
      </trkpt>
      <trkpt lat="47.22249" lon="1.99562">
        <ele>95</ele>
        <time>2018-04-18T08:09:09Z</time>
      </trkpt>
      <trkpt lat="47.22233" lon="1.99533">
        <ele>95</ele>
        <time>2018-04-18T08:09:14Z</time>
      </trkpt>
      <trkpt lat="47.22211" lon="1.99458">
        <ele>95</ele>
        <time>2018-04-18T08:09:27Z</time>
      </trkpt>
      <trkpt lat="47.22204" lon="1.99408">
        <ele>94</ele>
        <time>2018-04-18T08:09:34Z</time>
      </trkpt>
      <trkpt lat="47.22201" lon="1.99323">
        <ele>95</ele>
        <time>2018-04-18T08:09:45Z</time>
      </trkpt>
      <trkpt lat="47.22201" lon="1.99239">
        <ele>95</ele>
        <time>2018-04-18T08:09:56Z</time>
      </trkpt>
      <trkpt lat="47.22195" lon="1.99156">
        <ele>94</ele>
        <time>2018-04-18T08:10:07Z</time>
      </trkpt>
      <trkpt lat="47.22191" lon="1.99072">
        <ele>95</ele>
        <time>2018-04-18T08:10:18Z</time>
      </trkpt>
      <trkpt lat="47.2219" lon="1.98989">
        <ele>95</ele>
        <time>2018-04-18T08:10:30Z</time>
      </trkpt>
      <trkpt lat="47.22162" lon="1.98921">
        <ele>95</ele>
        <time>2018-04-18T08:10:46Z</time>
      </trkpt>
      <trkpt lat="47.22157" lon="1.98888">
        <ele>95</ele>
        <time>2018-04-18T08:10:54Z</time>
      </trkpt>
      <trkpt lat="47.22162" lon="1.98867">
        <ele>95</ele>
        <time>2018-04-18T08:10:59Z</time>
      </trkpt>
      <trkpt lat="47.22165" lon="1.98851">
        <ele>94</ele>
        <time>2018-04-18T08:11:02Z</time>
      </trkpt>
      <trkpt lat="47.22167" lon="1.98846">
        <ele>94</ele>
        <time>2018-04-18T08:11:03Z</time>
      </trkpt>
      <trkpt lat="47.22169" lon="1.98841">
        <ele>94</ele>
        <time>2018-04-18T08:11:04Z</time>
      </trkpt>
      <trkpt lat="47.22188" lon="1.98789">
        <ele>94</ele>
        <time>2018-04-18T08:11:13Z</time>
      </trkpt>
      <trkpt lat="47.22203" lon="1.98744">
        <ele>94</ele>
        <time>2018-04-18T08:11:21Z</time>
      </trkpt>
      <trkpt lat="47.22251" lon="1.98696">
        <ele>93</ele>
        <time>2018-04-18T08:11:33Z</time>
      </trkpt>
      <trkpt lat="47.22305" lon="1.98672">
        <ele>93</ele>
        <time>2018-04-18T08:11:44Z</time>
      </trkpt>
      <trkpt lat="47.22319" lon="1.98666">
        <ele>94</ele>
        <time>2018-04-18T08:11:47Z</time>
      </trkpt>
      <trkpt lat="47.22375" lon="1.98655">
        <ele>95</ele>
        <time>2018-04-18T08:11:58Z</time>
      </trkpt>
      <trkpt lat="47.22432" lon="1.98652">
        <ele>95</ele>
        <time>2018-04-18T08:12:09Z</time>
      </trkpt>
      <trkpt lat="47.22463" lon="1.98647">
        <ele>95</ele>
        <time>2018-04-18T08:12:15Z</time>
      </trkpt>
      <trkpt lat="47.22516" lon="1.9863">
        <ele>95</ele>
        <time>2018-04-18T08:12:25Z</time>
      </trkpt>
      <trkpt lat="47.22569" lon="1.98602">
        <ele>94</ele>
        <time>2018-04-18T08:12:35Z</time>
      </trkpt>
      <trkpt lat="47.22578" lon="1.98596">
        <ele>94</ele>
        <time>2018-04-18T08:12:37Z</time>
      </trkpt>
      <trkpt lat="47.22626" lon="1.98556">
        <ele>94</ele>
        <time>2018-04-18T08:12:47Z</time>
      </trkpt>
      <trkpt lat="47.22661" lon="1.9853">
        <ele>94</ele>
        <time>2018-04-18T08:12:54Z</time>
      </trkpt>
      <trkpt lat="47.22675" lon="1.98519">
        <ele>94</ele>
        <time>2018-04-18T08:12:57Z</time>
      </trkpt>
      <trkpt lat="47.22725" lon="1.98483">
        <ele>94</ele>
        <time>2018-04-18T08:13:07Z</time>
      </trkpt>
      <trkpt lat="47.22744" lon="1.98471">
        <ele>94</ele>
        <time>2018-04-18T08:13:10Z</time>
      </trkpt>
      <trkpt lat="47.22748" lon="1.9847">
        <ele>94</ele>
        <time>2018-04-18T08:13:12Z</time>
      </trkpt>
      <trkpt lat="47.22803" lon="1.98481">
        <ele>93</ele>
        <time>2018-04-18T08:13:24Z</time>
      </trkpt>
      <trkpt lat="47.22812" lon="1.98484">
        <ele>93</ele>
        <time>2018-04-18T08:13:26Z</time>
      </trkpt>
      <trkpt lat="47.22866" lon="1.98499">
        <ele>93</ele>
        <time>2018-04-18T08:13:37Z</time>
      </trkpt>
      <trkpt lat="47.22902" lon="1.98509">
        <ele>92</ele>
        <time>2018-04-18T08:13:44Z</time>
      </trkpt>
      <trkpt lat="47.22959" lon="1.98516">
        <ele>93</ele>
        <time>2018-04-18T08:13:55Z</time>
      </trkpt>
      <trkpt lat="47.22965" lon="1.98515">
        <ele>93</ele>
        <time>2018-04-18T08:13:56Z</time>
      </trkpt>
      <trkpt lat="47.22975" lon="1.98511">
        <ele>93</ele>
        <time>2018-04-18T08:13:58Z</time>
      </trkpt>
      <trkpt lat="47.22984" lon="1.98503">
        <ele>93</ele>
        <time>2018-04-18T08:14:00Z</time>
      </trkpt>
      <trkpt lat="47.22991" lon="1.98492">
        <ele>93</ele>
        <time>2018-04-18T08:14:02Z</time>
      </trkpt>
      <trkpt lat="47.22996" lon="1.98478">
        <ele>93</ele>
        <time>2018-04-18T08:14:04Z</time>
      </trkpt>
      <trkpt lat="47.23004" lon="1.98431">
        <ele>93</ele>
        <time>2018-04-18T08:14:10Z</time>
      </trkpt>
      <trkpt lat="47.23029" lon="1.9837">
        <ele>93</ele>
        <time>2018-04-18T08:14:19Z</time>
      </trkpt>
      <trkpt lat="47.23041" lon="1.98343">
        <ele>93</ele>
        <time>2018-04-18T08:14:23Z</time>
      </trkpt>
      <trkpt lat="47.23059" lon="1.98301">
        <ele>93</ele>
        <time>2018-04-18T08:14:29Z</time>
      </trkpt>
      <trkpt lat="47.2308" lon="1.98242">
        <ele>92</ele>
        <time>2018-04-18T08:14:37Z</time>
      </trkpt>
      <trkpt lat="47.23098" lon="1.98164">
        <ele>92</ele>
        <time>2018-04-18T08:14:47Z</time>
      </trkpt>
      <trkpt lat="47.23104" lon="1.98125">
        <ele>92</ele>
        <time>2018-04-18T08:14:52Z</time>
      </trkpt>
      <trkpt lat="47.23102" lon="1.98075">
        <ele>92</ele>
        <time>2018-04-18T08:14:58Z</time>
      </trkpt>
      <trkpt lat="47.23095" lon="1.9802">
        <ele>92</ele>
        <time>2018-04-18T08:15:05Z</time>
      </trkpt>
      <trkpt lat="47.23095" lon="1.97995">
        <ele>92</ele>
        <time>2018-04-18T08:15:08Z</time>
      </trkpt>
      <trkpt lat="47.231" lon="1.97964">
        <ele>92</ele>
        <time>2018-04-18T08:15:12Z</time>
      </trkpt>
      <trkpt lat="47.2313" lon="1.97895">
        <ele>92</ele>
        <time>2018-04-18T08:15:22Z</time>
      </trkpt>
      <trkpt lat="47.23161" lon="1.9783">
        <ele>92</ele>
        <time>2018-04-18T08:15:34Z</time>
      </trkpt>
      <trkpt lat="47.2316" lon="1.97826">
        <ele>92</ele>
        <time>2018-04-18T08:15:35Z</time>
      </trkpt>
      <trkpt lat="47.23134" lon="1.97806">
        <ele>92</ele>
        <time>2018-04-18T08:15:42Z</time>
      </trkpt>
      <trkpt lat="47.23126" lon="1.978">
        <ele>92</ele>
        <time>2018-04-18T08:15:44Z</time>
      </trkpt>
      <trkpt lat="47.23076" lon="1.97768">
        <ele>92</ele>
        <time>2018-04-18T08:15:56Z</time>
      </trkpt>
      <trkpt lat="47.23026" lon="1.97734">
        <ele>93</ele>
        <time>2018-04-18T08:16:08Z</time>
      </trkpt>
      <trkpt lat="47.22977" lon="1.977">
        <ele>93</ele>
        <time>2018-04-18T08:16:20Z</time>
      </trkpt>
      <trkpt lat="47.2295" lon="1.9768">
        <ele>93</ele>
        <time>2018-04-18T08:16:28Z</time>
      </trkpt>
      <trkpt lat="47.22976" lon="1.97618">
        <ele>93</ele>
        <time>2018-04-18T08:16:49Z</time>
      </trkpt>
      <trkpt lat="47.2302" lon="1.97567">
        <ele>94</ele>
        <time>2018-04-18T08:17:02Z</time>
      </trkpt>
      <trkpt lat="47.23043" lon="1.97542">
        <ele>94</ele>
        <time>2018-04-18T08:17:08Z</time>
      </trkpt>
      <trkpt lat="47.23094" lon="1.97512">
        <ele>94</ele>
        <time>2018-04-18T08:17:20Z</time>
      </trkpt>
      <trkpt lat="47.2313" lon="1.97489">
        <ele>94</ele>
        <time>2018-04-18T08:17:31Z</time>
      </trkpt>
      <trkpt lat="47.23165" lon="1.97425">
        <ele>94</ele>
        <time>2018-04-18T08:17:43Z</time>
      </trkpt>
      <trkpt lat="47.23203" lon="1.97363">
        <ele>93</ele>
        <time>2018-04-18T08:17:56Z</time>
      </trkpt>
      <trkpt lat="47.23248" lon="1.97317">
        <ele>94</ele>
        <time>2018-04-18T08:18:10Z</time>
      </trkpt>
      <trkpt lat="47.23277" lon="1.97306">
        <ele>94</ele>
        <time>2018-04-18T08:18:17Z</time>
      </trkpt>
      <trkpt lat="47.2329" lon="1.97299">
        <ele>93</ele>
        <time>2018-04-18T08:18:20Z</time>
      </trkpt>
      <trkpt lat="47.23297" lon="1.97292">
        <ele>93</ele>
        <time>2018-04-18T08:18:22Z</time>
      </trkpt>
      <trkpt lat="47.23339" lon="1.97233">
        <ele>94</ele>
        <time>2018-04-18T08:18:36Z</time>
      </trkpt>
      <trkpt lat="47.23352" lon="1.97213">
        <ele>94</ele>
        <time>2018-04-18T08:18:41Z</time>
      </trkpt>
      <trkpt lat="47.23354" lon="1.9721">
        <ele>94</ele>
        <time>2018-04-18T08:18:42Z</time>
      </trkpt>
      <trkpt lat="47.23365" lon="1.97193">
        <ele>94</ele>
        <time>2018-04-18T08:18:46Z</time>
      </trkpt>
      <trkpt lat="47.23389" lon="1.97124">
        <ele>94</ele>
        <time>2018-04-18T08:19:00Z</time>
      </trkpt>
      <trkpt lat="47.23395" lon="1.97075">
        <ele>93</ele>
        <time>2018-04-18T08:19:08Z</time>
      </trkpt>
      <trkpt lat="47.23396" lon="1.97057">
        <ele>93</ele>
        <time>2018-04-18T08:19:11Z</time>
      </trkpt>
      <trkpt lat="47.23391" lon="1.97004">
        <ele>93</ele>
        <time>2018-04-18T08:19:20Z</time>
      </trkpt>
      <trkpt lat="47.23394" lon="1.96921">
        <ele>93</ele>
        <time>2018-04-18T08:19:34Z</time>
      </trkpt>
      <trkpt lat="47.23393" lon="1.96886">
        <ele>93</ele>
        <time>2018-04-18T08:19:39Z</time>
      </trkpt>
      <trkpt lat="47.23391" lon="1.96866">
        <ele>93</ele>
        <time>2018-04-18T08:19:42Z</time>
      </trkpt>
      <trkpt lat="47.2339" lon="1.9686">
        <ele>93</ele>
        <time>2018-04-18T08:19:43Z</time>
      </trkpt>
      <trkpt lat="47.23388" lon="1.9684">
        <ele>93</ele>
        <time>2018-04-18T08:19:46Z</time>
      </trkpt>
      <trkpt lat="47.23386" lon="1.96834">
        <ele>93</ele>
        <time>2018-04-18T08:19:47Z</time>
      </trkpt>
      <trkpt lat="47.23378" lon="1.96809">
        <ele>93</ele>
        <time>2018-04-18T08:19:51Z</time>
      </trkpt>
      <trkpt lat="47.23373" lon="1.96796">
        <ele>93</ele>
        <time>2018-04-18T08:19:53Z</time>
      </trkpt>
      <trkpt lat="47.23395" lon="1.96735">
        <ele>94</ele>
        <time>2018-04-18T08:20:07Z</time>
      </trkpt>
      <trkpt lat="47.23449" lon="1.96715">
        <ele>94</ele>
        <time>2018-04-18T08:20:21Z</time>
      </trkpt>
      <trkpt lat="47.23465" lon="1.96715">
        <ele>94</ele>
        <time>2018-04-18T08:20:25Z</time>
      </trkpt>
      <trkpt lat="47.23484" lon="1.96729">
        <ele>94</ele>
        <time>2018-04-18T08:20:30Z</time>
      </trkpt>
      <trkpt lat="47.23531" lon="1.96699">
        <ele>94</ele>
        <time>2018-04-18T08:20:44Z</time>
      </trkpt>
      <trkpt lat="47.23561" lon="1.96634">
        <ele>94</ele>
        <time>2018-04-18T08:20:57Z</time>
      </trkpt>
      <trkpt lat="47.23593" lon="1.96567">
        <ele>93</ele>
        <time>2018-04-18T08:21:11Z</time>
      </trkpt>
      <trkpt lat="47.23602" lon="1.96558">
        <ele>93</ele>
        <time>2018-04-18T08:21:15Z</time>
      </trkpt>
      <trkpt lat="47.23617" lon="1.96549">
        <ele>93</ele>
        <time>2018-04-18T08:21:22Z</time>
      </trkpt>
      <trkpt lat="47.23621" lon="1.9655">
        <ele>93</ele>
        <time>2018-04-18T08:21:24Z</time>
      </trkpt>
      <trkpt lat="47.23624" lon="1.9655">
        <ele>93</ele>
        <time>2018-04-18T08:21:28Z</time>
      </trkpt>
      <trkpt lat="47.23625" lon="1.96553">
        <ele>93</ele>
        <time>2018-04-18T08:21:38Z</time>
      </trkpt>
      <trkpt lat="47.23625" lon="1.96553">
        <ele>93</ele>
        <time>2018-04-18T08:21:44Z</time>
      </trkpt>
      <trkpt lat="47.23625" lon="1.96553">
        <ele>93</ele>
        <time>2018-04-18T08:21:49Z</time>
      </trkpt>
      <trkpt lat="47.23625" lon="1.96553">
        <ele>93</ele>
        <time>2018-04-18T08:22:05Z</time>
      </trkpt>
      <trkpt lat="47.23635" lon="1.96553">
        <ele>93</ele>
        <time>2018-04-18T08:22:11Z</time>
      </trkpt>
      <trkpt lat="47.23653" lon="1.96549">
        <ele>93</ele>
        <time>2018-04-18T08:22:16Z</time>
      </trkpt>
      <trkpt lat="47.23658" lon="1.96541">
        <ele>93</ele>
        <time>2018-04-18T08:22:22Z</time>
      </trkpt>
      <trkpt lat="47.23657" lon="1.96541">
        <ele>93</ele>
        <time>2018-04-18T08:22:27Z</time>
      </trkpt>
      <trkpt lat="47.23658" lon="1.96541">
        <ele>93</ele>
        <time>2018-04-18T08:22:30Z</time>
      </trkpt>
      <trkpt lat="47.23658" lon="1.9654">
        <ele>93</ele>
        <time>2018-04-18T08:22:56Z</time>
      </trkpt>
      <trkpt lat="47.23658" lon="1.9654">
        <ele>93</ele>
        <time>2018-04-18T08:23:07Z</time>
      </trkpt>
      <trkpt lat="47.23658" lon="1.9654">
        <ele>93</ele>
        <time>2018-04-18T08:23:19Z</time>
      </trkpt>
      <trkpt lat="47.23659" lon="1.96539">
        <ele>93</ele>
        <time>2018-04-18T08:23:37Z</time>
      </trkpt>
      <trkpt lat="47.2366" lon="1.9654">
        <ele>93</ele>
        <time>2018-04-18T08:23:44Z</time>
      </trkpt>
      <trkpt lat="47.2366" lon="1.9654">
        <ele>93</ele>
        <time>2018-04-18T08:23:45Z</time>
      </trkpt>
      <trkpt lat="47.2366" lon="1.9654">
        <ele>93</ele>
        <time>2018-04-18T08:23:46Z</time>
      </trkpt>
      <trkpt lat="47.2366" lon="1.9654">
        <ele>93</ele>
        <time>2018-04-18T08:23:47Z</time>
      </trkpt>
      <trkpt lat="47.2366" lon="1.9654">
        <ele>93</ele>
        <time>2018-04-18T08:23:49Z</time>
      </trkpt>
      <trkpt lat="47.2366" lon="1.9654">
        <ele>93</ele>
        <time>2018-04-18T08:23:50Z</time>
      </trkpt>
      <trkpt lat="47.2366" lon="1.9654">
        <ele>93</ele>
        <time>2018-04-18T08:23:52Z</time>
      </trkpt>
      <trkpt lat="47.2366" lon="1.9654">
        <ele>93</ele>
        <time>2018-04-18T08:24:00Z</time>
      </trkpt>
      <trkpt lat="47.23661" lon="1.9654">
        <ele>93</ele>
        <time>2018-04-18T08:24:01Z</time>
      </trkpt>
      <trkpt lat="47.23661" lon="1.9654">
        <ele>93</ele>
        <time>2018-04-18T08:24:02Z</time>
      </trkpt>
      <trkpt lat="47.23662" lon="1.9654">
        <ele>93</ele>
        <time>2018-04-18T08:24:07Z</time>
      </trkpt>
      <trkpt lat="47.23662" lon="1.9654">
        <ele>93</ele>
        <time>2018-04-18T08:24:16Z</time>
      </trkpt>
      <trkpt lat="47.23662" lon="1.9654">
        <ele>93</ele>
        <time>2018-04-18T08:24:21Z</time>
      </trkpt>
      <trkpt lat="47.23662" lon="1.9654">
        <ele>93</ele>
        <time>2018-04-18T08:24:34Z</time>
      </trkpt>
      <trkpt lat="47.23662" lon="1.9654">
        <ele>93</ele>
        <time>2018-04-18T08:24:39Z</time>
      </trkpt>
      <trkpt lat="47.23662" lon="1.9654">
        <ele>93</ele>
        <time>2018-04-18T08:24:40Z</time>
      </trkpt>
      <trkpt lat="47.23662" lon="1.9654">
        <ele>93</ele>
        <time>2018-04-18T08:24:41Z</time>
      </trkpt>
      <trkpt lat="47.23662" lon="1.9654">
        <ele>93</ele>
        <time>2018-04-18T08:24:42Z</time>
      </trkpt>
      <trkpt lat="47.23662" lon="1.9654">
        <ele>93</ele>
        <time>2018-04-18T08:24:44Z</time>
      </trkpt>
      <trkpt lat="47.23662" lon="1.9654">
        <ele>93</ele>
        <time>2018-04-18T08:24:47Z</time>
      </trkpt>
      <trkpt lat="47.23662" lon="1.9654">
        <ele>93</ele>
        <time>2018-04-18T08:25:00Z</time>
      </trkpt>
      <trkpt lat="47.23661" lon="1.96538">
        <ele>93</ele>
        <time>2018-04-18T08:25:30Z</time>
      </trkpt>
      <trkpt lat="47.23661" lon="1.96538">
        <ele>93</ele>
        <time>2018-04-18T08:25:33Z</time>
      </trkpt>
      <trkpt lat="47.2366" lon="1.96538">
        <ele>93</ele>
        <time>2018-04-18T08:25:36Z</time>
      </trkpt>
      <trkpt lat="47.2366" lon="1.96538">
        <ele>93</ele>
        <time>2018-04-18T08:25:39Z</time>
      </trkpt>
      <trkpt lat="47.2366" lon="1.96538">
        <ele>93</ele>
        <time>2018-04-18T08:25:40Z</time>
      </trkpt>
      <trkpt lat="47.2366" lon="1.96538">
        <ele>93</ele>
        <time>2018-04-18T08:25:42Z</time>
      </trkpt>
      <trkpt lat="47.23661" lon="1.96538">
        <ele>93</ele>
        <time>2018-04-18T08:25:47Z</time>
      </trkpt>
      <trkpt lat="47.23661" lon="1.96538">
        <ele>93</ele>
        <time>2018-04-18T08:26:06Z</time>
      </trkpt>
      <trkpt lat="47.23661" lon="1.96538">
        <ele>93</ele>
        <time>2018-04-18T08:26:13Z</time>
      </trkpt>
      <trkpt lat="47.2366" lon="1.96538">
        <ele>93</ele>
        <time>2018-04-18T08:26:20Z</time>
      </trkpt>
      <trkpt lat="47.2366" lon="1.96538">
        <ele>93</ele>
        <time>2018-04-18T08:26:25Z</time>
      </trkpt>
      <trkpt lat="47.2366" lon="1.96538">
        <ele>93</ele>
        <time>2018-04-18T08:26:33Z</time>
      </trkpt>
      <trkpt lat="47.2366" lon="1.96537">
        <ele>93</ele>
        <time>2018-04-18T08:26:39Z</time>
      </trkpt>
      <trkpt lat="47.2366" lon="1.96538">
        <ele>93</ele>
        <time>2018-04-18T08:26:55Z</time>
      </trkpt>
      <trkpt lat="47.2366" lon="1.96538">
        <ele>93</ele>
        <time>2018-04-18T08:26:57Z</time>
      </trkpt>
      <trkpt lat="47.2366" lon="1.96538">
        <ele>93</ele>
        <time>2018-04-18T08:26:58Z</time>
      </trkpt>
      <trkpt lat="47.2366" lon="1.96538">
        <ele>93</ele>
        <time>2018-04-18T08:27:03Z</time>
      </trkpt>
      <trkpt lat="47.2366" lon="1.96538">
        <ele>93</ele>
        <time>2018-04-18T08:27:20Z</time>
      </trkpt>
      <trkpt lat="47.2366" lon="1.96537">
        <ele>93</ele>
        <time>2018-04-18T08:27:24Z</time>
      </trkpt>
      <trkpt lat="47.2366" lon="1.96537">
        <ele>93</ele>
        <time>2018-04-18T08:27:39Z</time>
      </trkpt>
      <trkpt lat="47.2366" lon="1.96537">
        <ele>93</ele>
        <time>2018-04-18T08:27:45Z</time>
      </trkpt>
      <trkpt lat="47.2366" lon="1.96537">
        <ele>93</ele>
        <time>2018-04-18T08:27:59Z</time>
      </trkpt>
      <trkpt lat="47.23661" lon="1.96536">
        <ele>93</ele>
        <time>2018-04-18T08:28:07Z</time>
      </trkpt>
      <trkpt lat="47.23664" lon="1.96541">
        <ele>93</ele>
        <time>2018-04-18T08:28:50Z</time>
      </trkpt>
      <trkpt lat="47.23659" lon="1.96544">
        <ele>93</ele>
        <time>2018-04-18T08:28:53Z</time>
      </trkpt>
      <trkpt lat="47.23653" lon="1.96547">
        <ele>93</ele>
        <time>2018-04-18T08:28:56Z</time>
      </trkpt>
      <trkpt lat="47.2365" lon="1.96547">
        <ele>93</ele>
        <time>2018-04-18T08:28:57Z</time>
      </trkpt>
      <trkpt lat="47.23648" lon="1.96547">
        <ele>93</ele>
        <time>2018-04-18T08:28:58Z</time>
      </trkpt>
      <trkpt lat="47.23645" lon="1.96547">
        <ele>93</ele>
        <time>2018-04-18T08:28:59Z</time>
      </trkpt>
      <trkpt lat="47.23636" lon="1.96548">
        <ele>93</ele>
        <time>2018-04-18T08:29:02Z</time>
      </trkpt>
      <trkpt lat="47.23634" lon="1.96548">
        <ele>93</ele>
        <time>2018-04-18T08:29:03Z</time>
      </trkpt>
      <trkpt lat="47.23631" lon="1.96547">
        <ele>93</ele>
        <time>2018-04-18T08:29:04Z</time>
      </trkpt>
      <trkpt lat="47.23629" lon="1.96547">
        <ele>93</ele>
        <time>2018-04-18T08:29:05Z</time>
      </trkpt>
      <trkpt lat="47.23625" lon="1.96545">
        <ele>93</ele>
        <time>2018-04-18T08:29:07Z</time>
      </trkpt>
      <trkpt lat="47.23624" lon="1.96542">
        <ele>93</ele>
        <time>2018-04-18T08:29:08Z</time>
      </trkpt>
      <trkpt lat="47.23623" lon="1.96541">
        <ele>93</ele>
        <time>2018-04-18T08:29:09Z</time>
      </trkpt>
      <trkpt lat="47.23621" lon="1.96538">
        <ele>93</ele>
        <time>2018-04-18T08:29:11Z</time>
      </trkpt>
      <trkpt lat="47.2362" lon="1.96536">
        <ele>93</ele>
        <time>2018-04-18T08:29:12Z</time>
      </trkpt>
      <trkpt lat="47.23605" lon="1.96557">
        <ele>93</ele>
      </trkpt>
      <trkpt lat="47.23605" lon="1.96557">
        <ele>93</ele>
      </trkpt>
      <trkpt lat="47.23663" lon="1.96549">
        <ele>93</ele>
      </trkpt>
      <trkpt lat="47.23664" lon="1.96428">
        <ele>93</ele>
      </trkpt>
      <trkpt lat="47.2369" lon="1.96295">
        <ele>93</ele>
      </trkpt>
      <trkpt lat="47.23756" lon="1.96181">
        <ele>93</ele>
      </trkpt>
      <trkpt lat="47.23826" lon="1.96119">
        <ele>93</ele>
      </trkpt>
      <trkpt lat="47.23857" lon="1.96084">
        <ele>93</ele>
      </trkpt>
      <trkpt lat="47.2383" lon="1.9604">
        <ele>93</ele>
      </trkpt>
      <trkpt lat="47.23792" lon="1.96001">
        <ele>93</ele>
      </trkpt>
      <trkpt lat="47.23719" lon="1.95922">
        <ele>93</ele>
      </trkpt>
      <trkpt lat="47.2372" lon="1.95857">
        <ele>92</ele>
      </trkpt>
      <trkpt lat="47.23706" lon="1.95806">
        <ele>92</ele>
      </trkpt>
      <trkpt lat="47.2367" lon="1.95687">
        <ele>92</ele>
      </trkpt>
      <trkpt lat="47.23648" lon="1.95621">
        <ele>92</ele>
      </trkpt>
      <trkpt lat="47.23606" lon="1.95547">
        <ele>92</ele>
      </trkpt>
      <trkpt lat="47.23574" lon="1.95517">
        <ele>92</ele>
      </trkpt>
      <trkpt lat="47.23561" lon="1.95502">
        <ele>92</ele>
      </trkpt>
      <trkpt lat="47.23538" lon="1.95504">
        <ele>93</ele>
      </trkpt>
      <trkpt lat="47.23507" lon="1.95483">
        <ele>93</ele>
      </trkpt>
      <trkpt lat="47.23463" lon="1.95451">
        <ele>93</ele>
      </trkpt>
      <trkpt lat="47.23463" lon="1.95451">
        <ele>93</ele>
        <time>2018-04-18T08:35:54Z</time>
      </trkpt>
      <trkpt lat="47.23463" lon="1.95451">
        <ele>93</ele>
        <time>2018-04-18T08:35:54Z</time>
      </trkpt>
      <trkpt lat="47.23451" lon="1.95419">
        <ele>93</ele>
        <time>2018-04-18T08:36:25Z</time>
      </trkpt>
      <trkpt lat="47.23451" lon="1.95419">
        <ele>93</ele>
        <time>2018-04-18T08:36:47Z</time>
      </trkpt>
      <trkpt lat="47.23451" lon="1.9542">
        <ele>93</ele>
        <time>2018-04-18T08:36:58Z</time>
      </trkpt>
      <trkpt lat="47.23451" lon="1.95419">
        <ele>93</ele>
        <time>2018-04-18T08:37:10Z</time>
      </trkpt>
      <trkpt lat="47.23451" lon="1.95419">
        <ele>93</ele>
        <time>2018-04-18T08:37:15Z</time>
      </trkpt>
      <trkpt lat="47.23451" lon="1.9542">
        <ele>93</ele>
        <time>2018-04-18T08:37:32Z</time>
      </trkpt>
      <trkpt lat="47.23451" lon="1.95418">
        <ele>93</ele>
        <time>2018-04-18T08:37:51Z</time>
      </trkpt>
      <trkpt lat="47.23451" lon="1.95421">
        <ele>93</ele>
        <time>2018-04-18T08:38:05Z</time>
      </trkpt>
      <trkpt lat="47.23451" lon="1.95423">
        <ele>93</ele>
        <time>2018-04-18T08:38:14Z</time>
      </trkpt>
      <trkpt lat="47.23451" lon="1.95423">
        <ele>93</ele>
        <time>2018-04-18T08:38:20Z</time>
      </trkpt>
      <trkpt lat="47.23451" lon="1.95423">
        <ele>93</ele>
        <time>2018-04-18T08:38:21Z</time>
      </trkpt>
      <trkpt lat="47.23451" lon="1.95422">
        <ele>93</ele>
        <time>2018-04-18T08:38:23Z</time>
      </trkpt>
      <trkpt lat="47.23451" lon="1.95422">
        <ele>93</ele>
        <time>2018-04-18T08:38:25Z</time>
      </trkpt>
      <trkpt lat="47.2345" lon="1.95419">
        <ele>93</ele>
        <time>2018-04-18T08:38:28Z</time>
      </trkpt>
      <trkpt lat="47.23449" lon="1.95413">
        <ele>93</ele>
        <time>2018-04-18T08:38:31Z</time>
      </trkpt>
      <trkpt lat="47.2345" lon="1.95405">
        <ele>93</ele>
        <time>2018-04-18T08:38:34Z</time>
      </trkpt>
      <trkpt lat="47.23458" lon="1.95402">
        <ele>93</ele>
        <time>2018-04-18T08:38:38Z</time>
      </trkpt>
      <trkpt lat="47.23461" lon="1.95402">
        <ele>93</ele>
        <time>2018-04-18T08:38:39Z</time>
      </trkpt>
      <trkpt lat="47.2348" lon="1.95403">
        <ele>93</ele>
        <time>2018-04-18T08:38:44Z</time>
      </trkpt>
      <trkpt lat="47.23487" lon="1.95404">
        <ele>93</ele>
        <time>2018-04-18T08:38:46Z</time>
      </trkpt>
      <trkpt lat="47.2349" lon="1.95404">
        <ele>93</ele>
        <time>2018-04-18T08:38:47Z</time>
      </trkpt>
      <trkpt lat="47.23497" lon="1.95405">
        <ele>93</ele>
        <time>2018-04-18T08:38:49Z</time>
      </trkpt>
      <trkpt lat="47.23553" lon="1.95417">
        <ele>92</ele>
        <time>2018-04-18T08:39:05Z</time>
      </trkpt>
      <trkpt lat="47.23562" lon="1.95419">
        <ele>92</ele>
        <time>2018-04-18T08:39:08Z</time>
      </trkpt>
      <trkpt lat="47.2358" lon="1.95422">
        <ele>92</ele>
        <time>2018-04-18T08:39:13Z</time>
      </trkpt>
      <trkpt lat="47.23583" lon="1.95423">
        <ele>92</ele>
        <time>2018-04-18T08:39:14Z</time>
      </trkpt>
      <trkpt lat="47.23591" lon="1.95425">
        <ele>92</ele>
        <time>2018-04-18T08:39:16Z</time>
      </trkpt>
      <trkpt lat="47.23594" lon="1.95426">
        <ele>92</ele>
        <time>2018-04-18T08:39:17Z</time>
      </trkpt>
      <trkpt lat="47.23611" lon="1.9543">
        <ele>92</ele>
        <time>2018-04-18T08:39:22Z</time>
      </trkpt>
      <trkpt lat="47.23669" lon="1.95443">
        <ele>92</ele>
        <time>2018-04-18T08:39:36Z</time>
      </trkpt>
      <trkpt lat="47.23682" lon="1.95445">
        <ele>92</ele>
        <time>2018-04-18T08:39:39Z</time>
      </trkpt>
      <trkpt lat="47.23687" lon="1.95446">
        <ele>92</ele>
        <time>2018-04-18T08:39:40Z</time>
      </trkpt>
      <trkpt lat="47.23709" lon="1.95452">
        <ele>92</ele>
        <time>2018-04-18T08:39:45Z</time>
      </trkpt>
      <trkpt lat="47.23737" lon="1.95459">
        <ele>92</ele>
        <time>2018-04-18T08:39:51Z</time>
      </trkpt>
      <trkpt lat="47.23759" lon="1.95468">
        <ele>91</ele>
        <time>2018-04-18T08:39:56Z</time>
      </trkpt>
      <trkpt lat="47.238" lon="1.95485">
        <ele>92</ele>
        <time>2018-04-18T08:40:05Z</time>
      </trkpt>
      <trkpt lat="47.23805" lon="1.95487">
        <ele>92</ele>
        <time>2018-04-18T08:40:06Z</time>
      </trkpt>
      <trkpt lat="47.23809" lon="1.95489">
        <ele>92</ele>
        <time>2018-04-18T08:40:07Z</time>
      </trkpt>
      <trkpt lat="47.23823" lon="1.95495">
        <ele>92</ele>
        <time>2018-04-18T08:40:10Z</time>
      </trkpt>
      <trkpt lat="47.23836" lon="1.95499">
        <ele>92</ele>
        <time>2018-04-18T08:40:13Z</time>
      </trkpt>
      <trkpt lat="47.23877" lon="1.95514">
        <ele>92</ele>
        <time>2018-04-18T08:40:22Z</time>
      </trkpt>
      <trkpt lat="47.2393" lon="1.95539">
        <ele>92</ele>
        <time>2018-04-18T08:40:34Z</time>
      </trkpt>
      <trkpt lat="47.23947" lon="1.95549">
        <ele>92</ele>
        <time>2018-04-18T08:40:38Z</time>
      </trkpt>
      <trkpt lat="47.24002" lon="1.95577">
        <ele>91</ele>
        <time>2018-04-18T08:40:50Z</time>
      </trkpt>
      <trkpt lat="47.24007" lon="1.95579">
        <ele>92</ele>
        <time>2018-04-18T08:40:51Z</time>
      </trkpt>
      <trkpt lat="47.24011" lon="1.95582">
        <ele>92</ele>
        <time>2018-04-18T08:40:52Z</time>
      </trkpt>
      <trkpt lat="47.24039" lon="1.95594">
        <ele>92</ele>
        <time>2018-04-18T08:40:58Z</time>
      </trkpt>
      <trkpt lat="47.24049" lon="1.95597">
        <ele>93</ele>
        <time>2018-04-18T08:41:00Z</time>
      </trkpt>
      <trkpt lat="47.24053" lon="1.95597">
        <ele>93</ele>
        <time>2018-04-18T08:41:01Z</time>
      </trkpt>
      <trkpt lat="47.24112" lon="1.95594">
        <ele>93</ele>
        <time>2018-04-18T08:41:13Z</time>
      </trkpt>
      <trkpt lat="47.24167" lon="1.95598">
        <ele>92</ele>
        <time>2018-04-18T08:41:25Z</time>
      </trkpt>
      <trkpt lat="47.24207" lon="1.95606">
        <ele>93</ele>
        <time>2018-04-18T08:41:33Z</time>
      </trkpt>
      <trkpt lat="47.24251" lon="1.95623">
        <ele>93</ele>
        <time>2018-04-18T08:41:42Z</time>
      </trkpt>
      <trkpt lat="47.24299" lon="1.95663">
        <ele>94</ele>
        <time>2018-04-18T08:41:53Z</time>
      </trkpt>
      <trkpt lat="47.24354" lon="1.95692">
        <ele>94</ele>
        <time>2018-04-18T08:42:05Z</time>
      </trkpt>
      <trkpt lat="47.24409" lon="1.95709">
        <ele>94</ele>
        <time>2018-04-18T08:42:16Z</time>
      </trkpt>
      <trkpt lat="47.24434" lon="1.95715">
        <ele>94</ele>
        <time>2018-04-18T08:42:21Z</time>
      </trkpt>
      <trkpt lat="47.24487" lon="1.95735">
        <ele>94</ele>
        <time>2018-04-18T08:42:32Z</time>
      </trkpt>
      <trkpt lat="47.24515" lon="1.95747">
        <ele>94</ele>
        <time>2018-04-18T08:42:38Z</time>
      </trkpt>
      <trkpt lat="47.2452" lon="1.95748">
        <ele>94</ele>
        <time>2018-04-18T08:42:39Z</time>
      </trkpt>
      <trkpt lat="47.24529" lon="1.95747">
        <ele>94</ele>
        <time>2018-04-18T08:42:41Z</time>
      </trkpt>
      <trkpt lat="47.24537" lon="1.95742">
        <ele>94</ele>
        <time>2018-04-18T08:42:43Z</time>
      </trkpt>
      <trkpt lat="47.24563" lon="1.95721">
        <ele>94</ele>
        <time>2018-04-18T08:43:22Z</time>
      </trkpt>
      <trkpt lat="47.24559" lon="1.95737">
        <ele>94</ele>
        <time>2018-04-18T08:43:29Z</time>
      </trkpt>
      <trkpt lat="47.24555" lon="1.95749">
        <ele>94</ele>
        <time>2018-04-18T08:43:35Z</time>
      </trkpt>
      <trkpt lat="47.24553" lon="1.9576">
        <ele>95</ele>
        <time>2018-04-18T08:43:49Z</time>
      </trkpt>
      <trkpt lat="47.24552" lon="1.95758">
        <ele>95</ele>
        <time>2018-04-18T08:44:23Z</time>
      </trkpt>
      <trkpt lat="47.24553" lon="1.95751">
        <ele>95</ele>
        <time>2018-04-18T08:44:41Z</time>
      </trkpt>
      <trkpt lat="47.24556" lon="1.9574">
        <ele>94</ele>
        <time>2018-04-18T08:44:48Z</time>
      </trkpt>
      <trkpt lat="47.2456" lon="1.95722">
        <ele>94</ele>
        <time>2018-04-18T08:45:01Z</time>
      </trkpt>
      <trkpt lat="47.24561" lon="1.95722">
        <ele>94</ele>
        <time>2018-04-18T08:45:02Z</time>
      </trkpt>
      <trkpt lat="47.24564" lon="1.95725">
        <ele>94</ele>
        <time>2018-04-18T08:45:11Z</time>
      </trkpt>
      <trkpt lat="47.24563" lon="1.95725">
        <ele>94</ele>
        <time>2018-04-18T08:45:16Z</time>
      </trkpt>
      <trkpt lat="47.24563" lon="1.95726">
        <ele>94</ele>
        <time>2018-04-18T08:45:19Z</time>
      </trkpt>
      <trkpt lat="47.24562" lon="1.95726">
        <ele>94</ele>
        <time>2018-04-18T08:45:35Z</time>
      </trkpt>
      <trkpt lat="47.24562" lon="1.95726">
        <ele>94</ele>
        <time>2018-04-18T08:45:40Z</time>
      </trkpt>
      <trkpt lat="47.24562" lon="1.95726">
        <ele>94</ele>
        <time>2018-04-18T08:45:52Z</time>
      </trkpt>
      <trkpt lat="47.24563" lon="1.95727">
        <ele>94</ele>
        <time>2018-04-18T08:46:14Z</time>
      </trkpt>
      <trkpt lat="47.24561" lon="1.95727">
        <ele>94</ele>
        <time>2018-04-18T08:46:26Z</time>
      </trkpt>
      <trkpt lat="47.24568" lon="1.95725">
        <ele>94</ele>
        <time>2018-04-18T08:47:06Z</time>
      </trkpt>
      <trkpt lat="47.24563" lon="1.95725">
        <ele>94</ele>
        <time>2018-04-18T08:47:55Z</time>
      </trkpt>
      <trkpt lat="47.24562" lon="1.95727">
        <ele>94</ele>
        <time>2018-04-18T08:48:26Z</time>
      </trkpt>
      <trkpt lat="47.24561" lon="1.95729">
        <ele>94</ele>
        <time>2018-04-18T08:48:53Z</time>
      </trkpt>
      <trkpt lat="47.24564" lon="1.95726">
        <ele>94</ele>
        <time>2018-04-18T08:49:19Z</time>
      </trkpt>
      <trkpt lat="47.24564" lon="1.95726">
        <ele>94</ele>
        <time>2018-04-18T08:49:20Z</time>
      </trkpt>
      <trkpt lat="47.24564" lon="1.95727">
        <ele>94</ele>
        <time>2018-04-18T08:49:37Z</time>
      </trkpt>
      <trkpt lat="47.24565" lon="1.95726">
        <ele>94</ele>
        <time>2018-04-18T08:49:54Z</time>
      </trkpt>
      <trkpt lat="47.24565" lon="1.95725">
        <ele>94</ele>
        <time>2018-04-18T08:50:06Z</time>
      </trkpt>
      <trkpt lat="47.24564" lon="1.95726">
        <ele>94</ele>
        <time>2018-04-18T08:50:11Z</time>
      </trkpt>
      <trkpt lat="47.24564" lon="1.95727">
        <ele>94</ele>
        <time>2018-04-18T08:51:01Z</time>
      </trkpt>
      <trkpt lat="47.24563" lon="1.95726">
        <ele>94</ele>
        <time>2018-04-18T08:51:33Z</time>
      </trkpt>
      <trkpt lat="47.24563" lon="1.95722">
        <ele>94</ele>
        <time>2018-04-18T08:52:05Z</time>
      </trkpt>
      <trkpt lat="47.24564" lon="1.95722">
        <ele>94</ele>
        <time>2018-04-18T08:52:08Z</time>
      </trkpt>
      <trkpt lat="47.24564" lon="1.95721">
        <ele>94</ele>
        <time>2018-04-18T08:52:10Z</time>
      </trkpt>
      <trkpt lat="47.24564" lon="1.95719">
        <ele>94</ele>
        <time>2018-04-18T08:52:15Z</time>
      </trkpt>
      <trkpt lat="47.24565" lon="1.95715">
        <ele>94</ele>
        <time>2018-04-18T08:52:30Z</time>
      </trkpt>
      <trkpt lat="47.24565" lon="1.95714">
        <ele>94</ele>
        <time>2018-04-18T08:53:09Z</time>
      </trkpt>
      <trkpt lat="47.24567" lon="1.95713">
        <ele>94</ele>
        <time>2018-04-18T08:53:16Z</time>
      </trkpt>
      <trkpt lat="47.24569" lon="1.95713">
        <ele>94</ele>
        <time>2018-04-18T08:53:26Z</time>
      </trkpt>
      <trkpt lat="47.2457" lon="1.95713">
        <ele>94</ele>
        <time>2018-04-18T08:53:27Z</time>
      </trkpt>
      <trkpt lat="47.2457" lon="1.95714">
        <ele>94</ele>
        <time>2018-04-18T08:53:28Z</time>
      </trkpt>
      <trkpt lat="47.24569" lon="1.95716">
        <ele>94</ele>
        <time>2018-04-18T08:53:45Z</time>
      </trkpt>
      <trkpt lat="47.24567" lon="1.95716">
        <ele>94</ele>
        <time>2018-04-18T08:53:51Z</time>
      </trkpt>
      <trkpt lat="47.24566" lon="1.95713">
        <ele>94</ele>
        <time>2018-04-18T08:54:10Z</time>
      </trkpt>
      <trkpt lat="47.24567" lon="1.95714">
        <ele>94</ele>
        <time>2018-04-18T08:54:17Z</time>
      </trkpt>
      <trkpt lat="47.24565" lon="1.95715">
        <ele>94</ele>
        <time>2018-04-18T08:54:20Z</time>
      </trkpt>
      <trkpt lat="47.24564" lon="1.95716">
        <ele>94</ele>
        <time>2018-04-18T08:54:23Z</time>
      </trkpt>
      <trkpt lat="47.24563" lon="1.95717">
        <ele>94</ele>
        <time>2018-04-18T08:54:26Z</time>
      </trkpt>
      <trkpt lat="47.24561" lon="1.95717">
        <ele>94</ele>
        <time>2018-04-18T08:54:29Z</time>
      </trkpt>
      <trkpt lat="47.24561" lon="1.95718">
        <ele>94</ele>
        <time>2018-04-18T08:54:32Z</time>
      </trkpt>
      <trkpt lat="47.24561" lon="1.95718">
        <ele>94</ele>
        <time>2018-04-18T08:54:33Z</time>
      </trkpt>
      <trkpt lat="47.24561" lon="1.95718">
        <ele>94</ele>
        <time>2018-04-18T08:54:47Z</time>
      </trkpt>
      <trkpt lat="47.24565" lon="1.95711">
        <ele>94</ele>
        <time>2018-04-18T08:55:11Z</time>
      </trkpt>
      <trkpt lat="47.24575" lon="1.95691">
        <ele>94</ele>
        <time>2018-04-18T08:55:17Z</time>
      </trkpt>
      <trkpt lat="47.24582" lon="1.95681">
        <ele>94</ele>
        <time>2018-04-18T08:55:20Z</time>
      </trkpt>
      <trkpt lat="47.24586" lon="1.95674">
        <ele>94</ele>
        <time>2018-04-18T08:55:22Z</time>
      </trkpt>
      <trkpt lat="47.24588" lon="1.9567">
        <ele>94</ele>
        <time>2018-04-18T08:55:23Z</time>
      </trkpt>
      <trkpt lat="47.24593" lon="1.95662">
        <ele>94</ele>
        <time>2018-04-18T08:55:25Z</time>
      </trkpt>
      <trkpt lat="47.24602" lon="1.95646">
        <ele>93</ele>
        <time>2018-04-18T08:55:29Z</time>
      </trkpt>
      <trkpt lat="47.24614" lon="1.95623">
        <ele>93</ele>
        <time>2018-04-18T08:55:36Z</time>
      </trkpt>
      <trkpt lat="47.24623" lon="1.9561">
        <ele>93</ele>
        <time>2018-04-18T08:55:40Z</time>
      </trkpt>
      <trkpt lat="47.24637" lon="1.95587">
        <ele>93</ele>
        <time>2018-04-18T08:55:46Z</time>
      </trkpt>
      <trkpt lat="47.24643" lon="1.95576">
        <ele>93</ele>
        <time>2018-04-18T08:55:49Z</time>
      </trkpt>
      <trkpt lat="47.2466" lon="1.95544">
        <ele>93</ele>
        <time>2018-04-18T08:55:57Z</time>
      </trkpt>
      <trkpt lat="47.24671" lon="1.95521">
        <ele>93</ele>
        <time>2018-04-18T08:56:03Z</time>
      </trkpt>
      <trkpt lat="47.24684" lon="1.955">
        <ele>93</ele>
        <time>2018-04-18T08:56:08Z</time>
      </trkpt>
      <trkpt lat="47.24718" lon="1.95433">
        <ele>94</ele>
        <time>2018-04-18T08:56:24Z</time>
      </trkpt>
      <trkpt lat="47.24749" lon="1.95366">
        <ele>93</ele>
        <time>2018-04-18T08:56:40Z</time>
      </trkpt>
      <trkpt lat="47.24782" lon="1.95299">
        <ele>93</ele>
        <time>2018-04-18T08:56:57Z</time>
      </trkpt>
      <trkpt lat="47.24804" lon="1.9525">
        <ele>93</ele>
        <time>2018-04-18T08:57:11Z</time>
      </trkpt>
      <trkpt lat="47.24827" lon="1.95199">
        <ele>93</ele>
        <time>2018-04-18T08:57:24Z</time>
      </trkpt>
      <trkpt lat="47.24829" lon="1.95195">
        <ele>94</ele>
        <time>2018-04-18T08:57:25Z</time>
      </trkpt>
      <trkpt lat="47.24831" lon="1.95192">
        <ele>94</ele>
        <time>2018-04-18T08:57:26Z</time>
      </trkpt>
      <trkpt lat="47.24834" lon="1.95183">
        <ele>94</ele>
        <time>2018-04-18T08:57:28Z</time>
      </trkpt>
      <trkpt lat="47.2484" lon="1.9517">
        <ele>95</ele>
        <time>2018-04-18T08:57:31Z</time>
      </trkpt>
      <trkpt lat="47.24843" lon="1.95161">
        <ele>95</ele>
        <time>2018-04-18T08:57:33Z</time>
      </trkpt>
      <trkpt lat="47.24851" lon="1.95143">
        <ele>94</ele>
        <time>2018-04-18T08:57:37Z</time>
      </trkpt>
      <trkpt lat="47.24874" lon="1.95096">
        <ele>94</ele>
        <time>2018-04-18T08:57:48Z</time>
      </trkpt>
      <trkpt lat="47.24884" lon="1.95074">
        <ele>94</ele>
        <time>2018-04-18T08:57:53Z</time>
      </trkpt>
      <trkpt lat="47.24912" lon="1.95006">
        <ele>95</ele>
        <time>2018-04-18T08:58:09Z</time>
      </trkpt>
      <trkpt lat="47.24937" lon="1.94956">
        <ele>95</ele>
        <time>2018-04-18T08:58:21Z</time>
      </trkpt>
      <trkpt lat="47.24969" lon="1.94889">
        <ele>95</ele>
        <time>2018-04-18T08:58:37Z</time>
      </trkpt>
      <trkpt lat="47.24978" lon="1.94873">
        <ele>95</ele>
        <time>2018-04-18T08:58:41Z</time>
      </trkpt>
      <trkpt lat="47.2498" lon="1.94869">
        <ele>95</ele>
        <time>2018-04-18T08:58:42Z</time>
      </trkpt>
      <trkpt lat="47.24989" lon="1.94851">
        <ele>95</ele>
        <time>2018-04-18T08:58:46Z</time>
      </trkpt>
      <trkpt lat="47.24997" lon="1.94835">
        <ele>95</ele>
        <time>2018-04-18T08:58:50Z</time>
      </trkpt>
      <trkpt lat="47.25026" lon="1.94763">
        <ele>94</ele>
        <time>2018-04-18T08:59:07Z</time>
      </trkpt>
      <trkpt lat="47.25036" lon="1.94742">
        <ele>93</ele>
        <time>2018-04-18T08:59:12Z</time>
      </trkpt>
      <trkpt lat="47.25041" lon="1.94734">
        <ele>93</ele>
        <time>2018-04-18T08:59:14Z</time>
      </trkpt>
      <trkpt lat="47.25045" lon="1.94726">
        <ele>93</ele>
        <time>2018-04-18T08:59:16Z</time>
      </trkpt>
      <trkpt lat="47.25047" lon="1.94721">
        <ele>93</ele>
        <time>2018-04-18T08:59:17Z</time>
      </trkpt>
      <trkpt lat="47.25049" lon="1.94717">
        <ele>93</ele>
        <time>2018-04-18T08:59:18Z</time>
      </trkpt>
      <trkpt lat="47.25051" lon="1.94713">
        <ele>93</ele>
        <time>2018-04-18T08:59:19Z</time>
      </trkpt>
      <trkpt lat="47.25053" lon="1.94709">
        <ele>93</ele>
        <time>2018-04-18T08:59:20Z</time>
      </trkpt>
      <trkpt lat="47.25058" lon="1.94696">
        <ele>93</ele>
        <time>2018-04-18T08:59:23Z</time>
      </trkpt>
      <trkpt lat="47.25076" lon="1.94651">
        <ele>93</ele>
        <time>2018-04-18T08:59:37Z</time>
      </trkpt>
      <trkpt lat="47.25078" lon="1.94635">
        <ele>92</ele>
        <time>2018-04-18T08:59:44Z</time>
      </trkpt>
      <trkpt lat="47.25079" lon="1.94633">
        <ele>92</ele>
        <time>2018-04-18T08:59:55Z</time>
      </trkpt>
      <trkpt lat="47.25078" lon="1.94633">
        <ele>92</ele>
        <time>2018-04-18T09:00:03Z</time>
      </trkpt>
      <trkpt lat="47.25078" lon="1.94633">
        <ele>92</ele>
        <time>2018-04-18T09:00:10Z</time>
      </trkpt>
      <trkpt lat="47.25077" lon="1.94633">
        <ele>92</ele>
        <time>2018-04-18T09:00:21Z</time>
      </trkpt>
      <trkpt lat="47.25077" lon="1.94633">
        <ele>92</ele>
        <time>2018-04-18T09:00:26Z</time>
      </trkpt>
      <trkpt lat="47.25077" lon="1.94633">
        <ele>92</ele>
        <time>2018-04-18T09:00:29Z</time>
      </trkpt>
      <trkpt lat="47.25078" lon="1.94632">
        <ele>92</ele>
        <time>2018-04-18T09:00:32Z</time>
      </trkpt>
      <trkpt lat="47.25078" lon="1.94632">
        <ele>92</ele>
        <time>2018-04-18T09:00:33Z</time>
      </trkpt>
      <trkpt lat="47.25077" lon="1.94632">
        <ele>92</ele>
        <time>2018-04-18T09:00:34Z</time>
      </trkpt>
      <trkpt lat="47.25078" lon="1.94632">
        <ele>92</ele>
        <time>2018-04-18T09:00:35Z</time>
      </trkpt>
      <trkpt lat="47.25079" lon="1.94626">
        <ele>92</ele>
        <time>2018-04-18T09:00:45Z</time>
      </trkpt>
      <trkpt lat="47.25094" lon="1.94592">
        <ele>92</ele>
        <time>2018-04-18T09:00:53Z</time>
      </trkpt>
      <trkpt lat="47.25099" lon="1.94582">
        <ele>92</ele>
        <time>2018-04-18T09:00:55Z</time>
      </trkpt>
      <trkpt lat="47.25101" lon="1.94577">
        <ele>92</ele>
        <time>2018-04-18T09:00:56Z</time>
      </trkpt>
      <trkpt lat="47.25104" lon="1.94572">
        <ele>92</ele>
        <time>2018-04-18T09:00:57Z</time>
      </trkpt>
      <trkpt lat="47.25106" lon="1.94567">
        <ele>92</ele>
        <time>2018-04-18T09:00:58Z</time>
      </trkpt>
      <trkpt lat="47.25108" lon="1.94562">
        <ele>92</ele>
        <time>2018-04-18T09:00:59Z</time>
      </trkpt>
      <trkpt lat="47.2514" lon="1.94496">
        <ele>92</ele>
        <time>2018-04-18T09:01:12Z</time>
      </trkpt>
      <trkpt lat="47.25153" lon="1.94467">
        <ele>92</ele>
        <time>2018-04-18T09:01:17Z</time>
      </trkpt>
      <trkpt lat="47.25177" lon="1.94422">
        <ele>92</ele>
        <time>2018-04-18T09:01:25Z</time>
      </trkpt>
      <trkpt lat="47.25188" lon="1.94396">
        <ele>93</ele>
        <time>2018-04-18T09:01:29Z</time>
      </trkpt>
      <trkpt lat="47.25219" lon="1.94329">
        <ele>94</ele>
        <time>2018-04-18T09:01:40Z</time>
      </trkpt>
      <trkpt lat="47.25242" lon="1.94283">
        <ele>94</ele>
        <time>2018-04-18T09:01:48Z</time>
      </trkpt>
      <trkpt lat="47.25274" lon="1.94214">
        <ele>94</ele>
        <time>2018-04-18T09:02:00Z</time>
      </trkpt>
      <trkpt lat="47.25296" lon="1.94165">
        <ele>95</ele>
        <time>2018-04-18T09:02:08Z</time>
      </trkpt>
      <trkpt lat="47.25323" lon="1.94105">
        <ele>94</ele>
        <time>2018-04-18T09:02:18Z</time>
      </trkpt>
      <trkpt lat="47.25343" lon="1.94063">
        <ele>94</ele>
        <time>2018-04-18T09:02:25Z</time>
      </trkpt>
      <trkpt lat="47.25346" lon="1.94057">
        <ele>94</ele>
        <time>2018-04-18T09:02:26Z</time>
      </trkpt>
      <trkpt lat="47.25351" lon="1.94046">
        <ele>94</ele>
        <time>2018-04-18T09:02:28Z</time>
      </trkpt>
      <trkpt lat="47.25354" lon="1.94041">
        <ele>94</ele>
        <time>2018-04-18T09:02:29Z</time>
      </trkpt>
      <trkpt lat="47.25364" lon="1.94001">
        <ele>95</ele>
        <time>2018-04-18T09:02:35Z</time>
      </trkpt>
      <trkpt lat="47.25369" lon="1.9396">
        <ele>95</ele>
        <time>2018-04-18T09:02:41Z</time>
      </trkpt>
      <trkpt lat="47.25375" lon="1.93899">
        <ele>95</ele>
        <time>2018-04-18T09:02:50Z</time>
      </trkpt>
      <trkpt lat="47.25378" lon="1.93871">
        <ele>95</ele>
        <time>2018-04-18T09:02:54Z</time>
      </trkpt>
      <trkpt lat="47.25379" lon="1.93828">
        <ele>94</ele>
        <time>2018-04-18T09:03:00Z</time>
      </trkpt>
      <trkpt lat="47.25388" lon="1.93787">
        <ele>94</ele>
        <time>2018-04-18T09:03:06Z</time>
      </trkpt>
      <trkpt lat="47.25392" lon="1.93747">
        <ele>94</ele>
        <time>2018-04-18T09:03:12Z</time>
      </trkpt>
      <trkpt lat="47.25393" lon="1.93726">
        <ele>94</ele>
        <time>2018-04-18T09:03:15Z</time>
      </trkpt>
      <trkpt lat="47.25394" lon="1.93686">
        <ele>94</ele>
        <time>2018-04-18T09:03:21Z</time>
      </trkpt>
      <trkpt lat="47.25396" lon="1.93673">
        <ele>94</ele>
        <time>2018-04-18T09:03:23Z</time>
      </trkpt>
      <trkpt lat="47.25405" lon="1.93592">
        <ele>94</ele>
        <time>2018-04-18T09:03:36Z</time>
      </trkpt>
      <trkpt lat="47.25402" lon="1.9355">
        <ele>94</ele>
        <time>2018-04-18T09:03:42Z</time>
      </trkpt>
      <trkpt lat="47.25399" lon="1.93504">
        <ele>94</ele>
        <time>2018-04-18T09:03:49Z</time>
      </trkpt>
      <trkpt lat="47.25407" lon="1.93423">
        <ele>93</ele>
        <time>2018-04-18T09:04:02Z</time>
      </trkpt>
      <trkpt lat="47.25392" lon="1.93403">
        <ele>93</ele>
        <time>2018-04-18T09:04:05Z</time>
      </trkpt>
      <trkpt lat="47.25378" lon="1.93381">
        <ele>93</ele>
        <time>2018-04-18T09:04:09Z</time>
      </trkpt>
      <trkpt lat="47.25358" lon="1.93322">
        <ele>92</ele>
        <time>2018-04-18T09:04:17Z</time>
      </trkpt>
      <trkpt lat="47.25358" lon="1.93306">
        <ele>92</ele>
        <time>2018-04-18T09:04:19Z</time>
      </trkpt>
      <trkpt lat="47.2536" lon="1.93252">
        <ele>91</ele>
        <time>2018-04-18T09:04:26Z</time>
      </trkpt>
      <trkpt lat="47.25359" lon="1.93168">
        <ele>91</ele>
        <time>2018-04-18T09:04:37Z</time>
      </trkpt>
      <trkpt lat="47.2536" lon="1.93083">
        <ele>91</ele>
        <time>2018-04-18T09:04:48Z</time>
      </trkpt>
      <trkpt lat="47.25372" lon="1.93011">
        <ele>92</ele>
        <time>2018-04-18T09:04:59Z</time>
      </trkpt>
      <trkpt lat="47.25378" lon="1.92985">
        <ele>92</ele>
        <time>2018-04-18T09:05:03Z</time>
      </trkpt>
      <trkpt lat="47.25389" lon="1.9296">
        <ele>92</ele>
        <time>2018-04-18T09:05:07Z</time>
      </trkpt>
      <trkpt lat="47.25418" lon="1.92907">
        <ele>92</ele>
        <time>2018-04-18T09:05:17Z</time>
      </trkpt>
      <trkpt lat="47.25436" lon="1.92862">
        <ele>92</ele>
        <time>2018-04-18T09:05:25Z</time>
      </trkpt>
      <trkpt lat="47.25446" lon="1.92792">
        <ele>91</ele>
        <time>2018-04-18T09:05:35Z</time>
      </trkpt>
      <trkpt lat="47.25454" lon="1.92767">
        <ele>91</ele>
        <time>2018-04-18T09:05:39Z</time>
      </trkpt>
      <trkpt lat="47.25469" lon="1.92731">
        <ele>91</ele>
        <time>2018-04-18T09:05:45Z</time>
      </trkpt>
      <trkpt lat="47.25485" lon="1.92673">
        <ele>91</ele>
        <time>2018-04-18T09:05:55Z</time>
      </trkpt>
      <trkpt lat="47.25508" lon="1.92597">
        <ele>92</ele>
        <time>2018-04-18T09:06:10Z</time>
      </trkpt>
      <trkpt lat="47.25535" lon="1.92553">
        <ele>92</ele>
        <time>2018-04-18T09:06:28Z</time>
      </trkpt>
      <trkpt lat="47.25558" lon="1.92486">
        <ele>92</ele>
        <time>2018-04-18T09:07:22Z</time>
      </trkpt>
      <trkpt lat="47.2558" lon="1.92409">
        <ele>91</ele>
        <time>2018-04-18T09:07:37Z</time>
      </trkpt>
      <trkpt lat="47.25609" lon="1.92337">
        <ele>91</ele>
        <time>2018-04-18T09:07:49Z</time>
      </trkpt>
      <trkpt lat="47.25634" lon="1.92264">
        <ele>91</ele>
        <time>2018-04-18T09:08:00Z</time>
      </trkpt>
      <trkpt lat="47.25657" lon="1.92191">
        <ele>91</ele>
        <time>2018-04-18T09:08:11Z</time>
      </trkpt>
      <trkpt lat="47.25684" lon="1.92114">
        <ele>91</ele>
        <time>2018-04-18T09:08:22Z</time>
      </trkpt>
      <trkpt lat="47.25698" lon="1.92079">
        <ele>91</ele>
        <time>2018-04-18T09:08:27Z</time>
      </trkpt>
      <trkpt lat="47.25707" lon="1.92059">
        <ele>91</ele>
        <time>2018-04-18T09:08:30Z</time>
      </trkpt>
      <trkpt lat="47.25721" lon="1.92017">
        <ele>91</ele>
        <time>2018-04-18T09:08:36Z</time>
      </trkpt>
      <trkpt lat="47.25729" lon="1.91998">
        <ele>91</ele>
        <time>2018-04-18T09:08:39Z</time>
      </trkpt>
      <trkpt lat="47.25743" lon="1.91969">
        <ele>91</ele>
        <time>2018-04-18T09:08:44Z</time>
      </trkpt>
      <trkpt lat="47.2575" lon="1.9194">
        <ele>92</ele>
        <time>2018-04-18T09:08:49Z</time>
      </trkpt>
      <trkpt lat="47.25765" lon="1.91896">
        <ele>92</ele>
        <time>2018-04-18T09:08:57Z</time>
      </trkpt>
      <trkpt lat="47.25786" lon="1.91823">
        <ele>93</ele>
        <time>2018-04-18T09:09:09Z</time>
      </trkpt>
      <trkpt lat="47.25791" lon="1.91811">
        <ele>93</ele>
        <time>2018-04-18T09:09:11Z</time>
      </trkpt>
      <trkpt lat="47.25809" lon="1.91753">
        <ele>94</ele>
        <time>2018-04-18T09:09:20Z</time>
      </trkpt>
      <trkpt lat="47.25837" lon="1.9168">
        <ele>94</ele>
        <time>2018-04-18T09:09:34Z</time>
      </trkpt>
      <trkpt lat="47.25885" lon="1.91638">
        <ele>93</ele>
        <time>2018-04-18T09:09:46Z</time>
      </trkpt>
      <trkpt lat="47.25909" lon="1.91622">
        <ele>93</ele>
        <time>2018-04-18T09:09:51Z</time>
      </trkpt>
      <trkpt lat="47.25922" lon="1.91613">
        <ele>94</ele>
        <time>2018-04-18T09:09:54Z</time>
      </trkpt>
      <trkpt lat="47.25931" lon="1.91608">
        <ele>94</ele>
        <time>2018-04-18T09:09:56Z</time>
      </trkpt>
      <trkpt lat="47.2596" lon="1.91583">
        <ele>94</ele>
        <time>2018-04-18T09:10:03Z</time>
      </trkpt>
      <trkpt lat="47.25991" lon="1.91516">
        <ele>94</ele>
        <time>2018-04-18T09:10:16Z</time>
      </trkpt>
      <trkpt lat="47.26015" lon="1.91439">
        <ele>97</ele>
        <time>2018-04-18T09:10:29Z</time>
      </trkpt>
      <trkpt lat="47.26028" lon="1.91361">
        <ele>95</ele>
        <time>2018-04-18T09:10:40Z</time>
      </trkpt>
      <trkpt lat="47.26053" lon="1.91291">
        <ele>94</ele>
        <time>2018-04-18T09:10:50Z</time>
      </trkpt>
      <trkpt lat="47.26077" lon="1.91219">
        <ele>93</ele>
        <time>2018-04-18T09:11:00Z</time>
      </trkpt>
      <trkpt lat="47.26089" lon="1.91181">
        <ele>94</ele>
        <time>2018-04-18T09:11:05Z</time>
      </trkpt>
      <trkpt lat="47.26099" lon="1.91153">
        <ele>93</ele>
        <time>2018-04-18T09:11:09Z</time>
      </trkpt>
      <trkpt lat="47.26104" lon="1.91139">
        <ele>94</ele>
        <time>2018-04-18T09:11:11Z</time>
      </trkpt>
      <trkpt lat="47.26119" lon="1.91093">
        <ele>94</ele>
        <time>2018-04-18T09:11:18Z</time>
      </trkpt>
      <trkpt lat="47.26121" lon="1.91087">
        <ele>94</ele>
        <time>2018-04-18T09:11:19Z</time>
      </trkpt>
      <trkpt lat="47.26156" lon="1.91025">
        <ele>92</ele>
        <time>2018-04-18T09:11:30Z</time>
      </trkpt>
      <trkpt lat="47.26193" lon="1.90965">
        <ele>93</ele>
        <time>2018-04-18T09:11:42Z</time>
      </trkpt>
      <trkpt lat="47.2622" lon="1.90923">
        <ele>93</ele>
        <time>2018-04-18T09:11:50Z</time>
      </trkpt>
      <trkpt lat="47.26235" lon="1.90896">
        <ele>93</ele>
        <time>2018-04-18T09:11:55Z</time>
      </trkpt>
      <trkpt lat="47.26254" lon="1.90855">
        <ele>94</ele>
        <time>2018-04-18T09:12:02Z</time>
      </trkpt>
      <trkpt lat="47.26261" lon="1.90838">
        <ele>94</ele>
        <time>2018-04-18T09:12:05Z</time>
      </trkpt>
      <trkpt lat="47.26277" lon="1.90798">
        <ele>94</ele>
        <time>2018-04-18T09:12:13Z</time>
      </trkpt>
      <trkpt lat="47.26304" lon="1.90725">
        <ele>94</ele>
        <time>2018-04-18T09:12:28Z</time>
      </trkpt>
      <trkpt lat="47.26307" lon="1.90716">
        <ele>94</ele>
        <time>2018-04-18T09:12:30Z</time>
      </trkpt>
      <trkpt lat="47.26312" lon="1.90701">
        <ele>94</ele>
        <time>2018-04-18T09:12:34Z</time>
      </trkpt>
      <trkpt lat="47.26271" lon="1.90662">
        <ele>93</ele>
        <time>2018-04-18T09:12:51Z</time>
      </trkpt>
      <trkpt lat="47.26248" lon="1.90648">
        <ele>92</ele>
        <time>2018-04-18T09:12:57Z</time>
      </trkpt>
      <trkpt lat="47.26241" lon="1.90638">
        <ele>92</ele>
        <time>2018-04-18T09:13:00Z</time>
      </trkpt>
      <trkpt lat="47.26241" lon="1.9063">
        <ele>92</ele>
        <time>2018-04-18T09:13:02Z</time>
      </trkpt>
      <trkpt lat="47.26275" lon="1.90566">
        <ele>92</ele>
        <time>2018-04-18T09:13:18Z</time>
      </trkpt>
      <trkpt lat="47.26302" lon="1.90504">
        <ele>92</ele>
        <time>2018-04-18T09:13:33Z</time>
      </trkpt>
      <trkpt lat="47.26349" lon="1.90478">
        <ele>95</ele>
        <time>2018-04-18T09:13:58Z</time>
      </trkpt>
      <trkpt lat="47.26349" lon="1.90475">
        <ele>95</ele>
        <time>2018-04-18T09:14:30Z</time>
      </trkpt>
      <trkpt lat="47.26349" lon="1.90475">
        <ele>95</ele>
        <time>2018-04-18T09:14:31Z</time>
      </trkpt>
      <trkpt lat="47.2635" lon="1.90476">
        <ele>95</ele>
        <time>2018-04-18T09:14:42Z</time>
      </trkpt>
      <trkpt lat="47.2635" lon="1.90476">
        <ele>95</ele>
        <time>2018-04-18T09:14:51Z</time>
      </trkpt>
      <trkpt lat="47.26349" lon="1.90477">
        <ele>95</ele>
        <time>2018-04-18T09:14:55Z</time>
      </trkpt>
      <trkpt lat="47.26349" lon="1.90477">
        <ele>95</ele>
        <time>2018-04-18T09:14:56Z</time>
      </trkpt>
      <trkpt lat="47.2635" lon="1.90477">
        <ele>95</ele>
        <time>2018-04-18T09:14:57Z</time>
      </trkpt>
      <trkpt lat="47.26351" lon="1.90472">
        <ele>95</ele>
        <time>2018-04-18T09:15:02Z</time>
      </trkpt>
      <trkpt lat="47.26354" lon="1.90465">
        <ele>96</ele>
        <time>2018-04-18T09:15:05Z</time>
      </trkpt>
      <trkpt lat="47.2637" lon="1.90392">
        <ele>94</ele>
        <time>2018-04-18T09:15:20Z</time>
      </trkpt>
      <trkpt lat="47.26381" lon="1.90365">
        <ele>94</ele>
        <time>2018-04-18T09:15:25Z</time>
      </trkpt>
      <trkpt lat="47.26392" lon="1.90346">
        <ele>94</ele>
        <time>2018-04-18T09:15:29Z</time>
      </trkpt>
      <trkpt lat="47.26406" lon="1.90325">
        <ele>93</ele>
        <time>2018-04-18T09:15:34Z</time>
      </trkpt>
      <trkpt lat="47.26416" lon="1.90315">
        <ele>93</ele>
        <time>2018-04-18T09:15:37Z</time>
      </trkpt>
      <trkpt lat="47.26439" lon="1.90297">
        <ele>95</ele>
        <time>2018-04-18T09:15:44Z</time>
      </trkpt>
      <trkpt lat="47.26486" lon="1.90255">
        <ele>95</ele>
        <time>2018-04-18T09:16:01Z</time>
      </trkpt>
      <trkpt lat="47.26493" lon="1.90244">
        <ele>94</ele>
        <time>2018-04-18T09:16:04Z</time>
      </trkpt>
      <trkpt lat="47.26518" lon="1.90172">
        <ele>96</ele>
        <time>2018-04-18T09:16:22Z</time>
      </trkpt>
      <trkpt lat="47.26521" lon="1.90092">
        <ele>96</ele>
        <time>2018-04-18T09:16:35Z</time>
      </trkpt>
      <trkpt lat="47.26519" lon="1.9001">
        <ele>96</ele>
        <time>2018-04-18T09:16:48Z</time>
      </trkpt>
      <trkpt lat="47.26524" lon="1.89945">
        <ele>95</ele>
        <time>2018-04-18T09:16:59Z</time>
      </trkpt>
      <trkpt lat="47.26525" lon="1.89923">
        <ele>95</ele>
        <time>2018-04-18T09:17:03Z</time>
      </trkpt>
      <trkpt lat="47.26528" lon="1.89898">
        <ele>95</ele>
        <time>2018-04-18T09:17:07Z</time>
      </trkpt>
      <trkpt lat="47.26529" lon="1.89892">
        <ele>95</ele>
        <time>2018-04-18T09:17:08Z</time>
      </trkpt>
      <trkpt lat="47.26531" lon="1.89879">
        <ele>95</ele>
        <time>2018-04-18T09:17:10Z</time>
      </trkpt>
      <trkpt lat="47.26537" lon="1.89841">
        <ele>96</ele>
        <time>2018-04-18T09:17:16Z</time>
      </trkpt>
      <trkpt lat="47.26541" lon="1.89785">
        <ele>96</ele>
        <time>2018-04-18T09:17:29Z</time>
      </trkpt>
      <trkpt lat="47.2654" lon="1.8978">
        <ele>96</ele>
        <time>2018-04-18T09:17:33Z</time>
      </trkpt>
      <trkpt lat="47.26537" lon="1.8976">
        <ele>96</ele>
        <time>2018-04-18T09:17:38Z</time>
      </trkpt>
      <trkpt lat="47.26545" lon="1.8971">
        <ele>95</ele>
        <time>2018-04-18T09:17:45Z</time>
      </trkpt>
      <trkpt lat="47.26554" lon="1.89627">
        <ele>93</ele>
        <time>2018-04-18T09:17:56Z</time>
      </trkpt>
      <trkpt lat="47.26555" lon="1.89612">
        <ele>93</ele>
        <time>2018-04-18T09:17:58Z</time>
      </trkpt>
      <trkpt lat="47.26559" lon="1.89583">
        <ele>93</ele>
        <time>2018-04-18T09:18:02Z</time>
      </trkpt>
      <trkpt lat="47.2656" lon="1.89564">
        <ele>93</ele>
        <time>2018-04-18T09:18:05Z</time>
      </trkpt>
      <trkpt lat="47.2657" lon="1.89484">
        <ele>91</ele>
        <time>2018-04-18T09:18:17Z</time>
      </trkpt>
      <trkpt lat="47.26576" lon="1.89444">
        <ele>91</ele>
        <time>2018-04-18T09:18:23Z</time>
      </trkpt>
      <trkpt lat="47.26583" lon="1.89383">
        <ele>91</ele>
        <time>2018-04-18T09:18:32Z</time>
      </trkpt>
      <trkpt lat="47.26584" lon="1.89369">
        <ele>91</ele>
        <time>2018-04-18T09:18:34Z</time>
      </trkpt>
      <trkpt lat="47.26586" lon="1.89356">
        <ele>91</ele>
        <time>2018-04-18T09:18:36Z</time>
      </trkpt>
      <trkpt lat="47.26598" lon="1.89271">
        <ele>90</ele>
        <time>2018-04-18T09:18:48Z</time>
      </trkpt>
      <trkpt lat="47.26605" lon="1.89222">
        <ele>89</ele>
        <time>2018-04-18T09:18:55Z</time>
      </trkpt>
      <trkpt lat="47.26613" lon="1.8916">
        <ele>90</ele>
        <time>2018-04-18T09:19:04Z</time>
      </trkpt>
      <trkpt lat="47.26617" lon="1.89132">
        <ele>91</ele>
        <time>2018-04-18T09:19:09Z</time>
      </trkpt>
      <trkpt lat="47.26624" lon="1.89071">
        <ele>91</ele>
        <time>2018-04-18T09:19:23Z</time>
      </trkpt>
      <trkpt lat="47.26626" lon="1.89049">
        <ele>91</ele>
        <time>2018-04-18T09:19:27Z</time>
      </trkpt>
      <trkpt lat="47.26626" lon="1.89043">
        <ele>91</ele>
        <time>2018-04-18T09:19:28Z</time>
      </trkpt>
      <trkpt lat="47.26634" lon="1.88964">
        <ele>91</ele>
        <time>2018-04-18T09:19:43Z</time>
      </trkpt>
      <trkpt lat="47.26642" lon="1.88905">
        <ele>92</ele>
        <time>2018-04-18T09:19:55Z</time>
      </trkpt>
      <trkpt lat="47.26649" lon="1.88854">
        <ele>93</ele>
        <time>2018-04-18T09:20:06Z</time>
      </trkpt>
      <trkpt lat="47.26652" lon="1.88835">
        <ele>94</ele>
        <time>2018-04-18T09:20:10Z</time>
      </trkpt>
      <trkpt lat="47.26654" lon="1.88825">
        <ele>94</ele>
        <time>2018-04-18T09:20:12Z</time>
      </trkpt>
      <trkpt lat="47.26654" lon="1.8882">
        <ele>94</ele>
        <time>2018-04-18T09:20:13Z</time>
      </trkpt>
      <trkpt lat="47.26658" lon="1.8879">
        <ele>94</ele>
        <time>2018-04-18T09:20:19Z</time>
      </trkpt>
      <trkpt lat="47.26665" lon="1.88741">
        <ele>94</ele>
        <time>2018-04-18T09:20:29Z</time>
      </trkpt>
      <trkpt lat="47.26676" lon="1.88665">
        <ele>95</ele>
        <time>2018-04-18T09:20:43Z</time>
      </trkpt>
      <trkpt lat="47.26681" lon="1.8862">
        <ele>94</ele>
        <time>2018-04-18T09:20:51Z</time>
      </trkpt>
      <trkpt lat="47.26683" lon="1.88599">
        <ele>94</ele>
        <time>2018-04-18T09:20:55Z</time>
      </trkpt>
      <trkpt lat="47.26688" lon="1.88547">
        <ele>93</ele>
        <time>2018-04-18T09:21:05Z</time>
      </trkpt>
      <trkpt lat="47.26701" lon="1.88467">
        <ele>93</ele>
        <time>2018-04-18T09:21:19Z</time>
      </trkpt>
      <trkpt lat="47.26706" lon="1.88419">
        <ele>93</ele>
        <time>2018-04-18T09:21:27Z</time>
      </trkpt>
      <trkpt lat="47.26712" lon="1.88371">
        <ele>93</ele>
        <time>2018-04-18T09:21:35Z</time>
      </trkpt>
      <trkpt lat="47.26715" lon="1.88343">
        <ele>93</ele>
        <time>2018-04-18T09:21:40Z</time>
      </trkpt>
      <trkpt lat="47.26718" lon="1.88316">
        <ele>94</ele>
        <time>2018-04-18T09:21:45Z</time>
      </trkpt>
      <trkpt lat="47.2672" lon="1.883">
        <ele>94</ele>
        <time>2018-04-18T09:21:48Z</time>
      </trkpt>
      <trkpt lat="47.26722" lon="1.88262">
        <ele>95</ele>
        <time>2018-04-18T09:21:54Z</time>
      </trkpt>
      <trkpt lat="47.26734" lon="1.88181">
        <ele>94</ele>
        <time>2018-04-18T09:22:07Z</time>
      </trkpt>
      <trkpt lat="47.26739" lon="1.88149">
        <ele>93</ele>
        <time>2018-04-18T09:22:18Z</time>
      </trkpt>
      <trkpt lat="47.26741" lon="1.88146">
        <ele>93</ele>
        <time>2018-04-18T09:22:20Z</time>
      </trkpt>
      <trkpt lat="47.26741" lon="1.88143">
        <ele>93</ele>
        <time>2018-04-18T09:22:28Z</time>
      </trkpt>
      <trkpt lat="47.26741" lon="1.88143">
        <ele>93</ele>
        <time>2018-04-18T09:22:31Z</time>
      </trkpt>
      <trkpt lat="47.26765" lon="1.8807">
        <ele>92</ele>
        <time>2018-04-18T09:23:08Z</time>
      </trkpt>
      <trkpt lat="47.26772" lon="1.8804">
        <ele>93</ele>
        <time>2018-04-18T09:23:15Z</time>
      </trkpt>
      <trkpt lat="47.26773" lon="1.88027">
        <ele>93</ele>
        <time>2018-04-18T09:23:18Z</time>
      </trkpt>
      <trkpt lat="47.26778" lon="1.8798">
        <ele>92</ele>
        <time>2018-04-18T09:23:28Z</time>
      </trkpt>
      <trkpt lat="47.26782" lon="1.87953">
        <ele>93</ele>
        <time>2018-04-18T09:23:34Z</time>
      </trkpt>
      <trkpt lat="47.26785" lon="1.87936">
        <ele>93</ele>
        <time>2018-04-18T09:23:38Z</time>
      </trkpt>
      <trkpt lat="47.26787" lon="1.87914">
        <ele>93</ele>
        <time>2018-04-18T09:23:43Z</time>
      </trkpt>
      <trkpt lat="47.26799" lon="1.87835">
        <ele>93</ele>
        <time>2018-04-18T09:24:00Z</time>
      </trkpt>
      <trkpt lat="47.26802" lon="1.87815">
        <ele>93</ele>
        <time>2018-04-18T09:24:04Z</time>
      </trkpt>
      <trkpt lat="47.26806" lon="1.87796">
        <ele>93</ele>
        <time>2018-04-18T09:24:08Z</time>
      </trkpt>
      <trkpt lat="47.26809" lon="1.87781">
        <ele>93</ele>
        <time>2018-04-18T09:24:11Z</time>
      </trkpt>
      <trkpt lat="47.26813" lon="1.87756">
        <ele>94</ele>
        <time>2018-04-18T09:24:16Z</time>
      </trkpt>
      <trkpt lat="47.26813" lon="1.87751">
        <ele>94</ele>
        <time>2018-04-18T09:24:17Z</time>
      </trkpt>
      <trkpt lat="47.26814" lon="1.87741">
        <ele>94</ele>
        <time>2018-04-18T09:24:19Z</time>
      </trkpt>
      <trkpt lat="47.26822" lon="1.87676">
        <ele>94</ele>
        <time>2018-04-18T09:24:33Z</time>
      </trkpt>
      <trkpt lat="47.26826" lon="1.87652">
        <ele>93</ele>
        <time>2018-04-18T09:24:39Z</time>
      </trkpt>
      <trkpt lat="47.26826" lon="1.87648">
        <ele>93</ele>
        <time>2018-04-18T09:24:40Z</time>
      </trkpt>
      <trkpt lat="47.26836" lon="1.87567">
        <ele>94</ele>
        <time>2018-04-18T09:24:58Z</time>
      </trkpt>
      <trkpt lat="47.26836" lon="1.87505">
        <ele>93</ele>
        <time>2018-04-18T09:25:11Z</time>
      </trkpt>
      <trkpt lat="47.26841" lon="1.87426">
        <ele>93</ele>
        <time>2018-04-18T09:25:30Z</time>
      </trkpt>
      <trkpt lat="47.26841" lon="1.87414">
        <ele>92</ele>
        <time>2018-04-18T09:25:33Z</time>
      </trkpt>
      <trkpt lat="47.26847" lon="1.87338">
        <ele>93</ele>
        <time>2018-04-18T09:25:50Z</time>
      </trkpt>
      <trkpt lat="47.26848" lon="1.8732">
        <ele>94</ele>
        <time>2018-04-18T09:25:54Z</time>
      </trkpt>
      <trkpt lat="47.26849" lon="1.87311">
        <ele>94</ele>
        <time>2018-04-18T09:25:56Z</time>
      </trkpt>
      <trkpt lat="47.2685" lon="1.8729">
        <ele>94</ele>
        <time>2018-04-18T09:26:01Z</time>
      </trkpt>
      <trkpt lat="47.2685" lon="1.87207">
        <ele>94</ele>
        <time>2018-04-18T09:26:18Z</time>
      </trkpt>
      <trkpt lat="47.26851" lon="1.87127">
        <ele>94</ele>
        <time>2018-04-18T09:26:35Z</time>
      </trkpt>
      <trkpt lat="47.26847" lon="1.87083">
        <ele>92</ele>
        <time>2018-04-18T09:26:49Z</time>
      </trkpt>
      <trkpt lat="47.26846" lon="1.87071">
        <ele>92</ele>
        <time>2018-04-18T09:26:55Z</time>
      </trkpt>
      <trkpt lat="47.26845" lon="1.8706">
        <ele>93</ele>
        <time>2018-04-18T09:26:58Z</time>
      </trkpt>
      <trkpt lat="47.26844" lon="1.87056">
        <ele>93</ele>
        <time>2018-04-18T09:26:59Z</time>
      </trkpt>
      <trkpt lat="47.26844" lon="1.87053">
        <ele>93</ele>
        <time>2018-04-18T09:27:00Z</time>
      </trkpt>
      <trkpt lat="47.26836" lon="1.87031">
        <ele>93</ele>
        <time>2018-04-18T09:27:14Z</time>
      </trkpt>
      <trkpt lat="47.26836" lon="1.87026">
        <ele>93</ele>
        <time>2018-04-18T09:27:17Z</time>
      </trkpt>
      <trkpt lat="47.26835" lon="1.87014">
        <ele>92</ele>
        <time>2018-04-18T09:27:21Z</time>
      </trkpt>
      <trkpt lat="47.26833" lon="1.87003">
        <ele>90</ele>
        <time>2018-04-18T09:27:24Z</time>
      </trkpt>
      <trkpt lat="47.2683" lon="1.86989">
        <ele>90</ele>
        <time>2018-04-18T09:27:29Z</time>
      </trkpt>
      <trkpt lat="47.26833" lon="1.86983">
        <ele>90</ele>
        <time>2018-04-18T09:27:32Z</time>
      </trkpt>
      <trkpt lat="47.26834" lon="1.86982">
        <ele>92</ele>
        <time>2018-04-18T09:27:33Z</time>
      </trkpt>
      <trkpt lat="47.26838" lon="1.8698">
        <ele>93</ele>
        <time>2018-04-18T09:27:35Z</time>
      </trkpt>
      <trkpt lat="47.26842" lon="1.86977">
        <ele>93</ele>
        <time>2018-04-18T09:27:37Z</time>
      </trkpt>
      <trkpt lat="47.26842" lon="1.86953">
        <ele>93</ele>
        <time>2018-04-18T09:27:43Z</time>
      </trkpt>
      <trkpt lat="47.26837" lon="1.86915">
        <ele>91</ele>
        <time>2018-04-18T09:27:49Z</time>
      </trkpt>
      <trkpt lat="47.26835" lon="1.86897">
        <ele>93</ele>
        <time>2018-04-18T09:27:52Z</time>
      </trkpt>
      <trkpt lat="47.26831" lon="1.86875">
        <ele>90</ele>
        <time>2018-04-18T09:27:56Z</time>
      </trkpt>
      <trkpt lat="47.2683" lon="1.8683">
        <ele>90</ele>
        <time>2018-04-18T09:28:07Z</time>
      </trkpt>
      <trkpt lat="47.2683" lon="1.86818">
        <ele>90</ele>
        <time>2018-04-18T09:28:10Z</time>
      </trkpt>
      <trkpt lat="47.26835" lon="1.86784">
        <ele>92</ele>
        <time>2018-04-18T09:28:19Z</time>
      </trkpt>
      <trkpt lat="47.2684" lon="1.8675">
        <ele>91</ele>
        <time>2018-04-18T09:28:28Z</time>
      </trkpt>
      <trkpt lat="47.26842" lon="1.86735">
        <ele>91</ele>
        <time>2018-04-18T09:28:32Z</time>
      </trkpt>
      <trkpt lat="47.26845" lon="1.86721">
        <ele>92</ele>
        <time>2018-04-18T09:28:36Z</time>
      </trkpt>
      <trkpt lat="47.26848" lon="1.86707">
        <ele>92</ele>
        <time>2018-04-18T09:28:45Z</time>
      </trkpt>
      <trkpt lat="47.26854" lon="1.86677">
        <ele>92</ele>
        <time>2018-04-18T09:29:26Z</time>
      </trkpt>
      <trkpt lat="47.26862" lon="1.86639">
        <ele>93</ele>
        <time>2018-04-18T09:29:37Z</time>
      </trkpt>
      <trkpt lat="47.26865" lon="1.86625">
        <ele>93</ele>
        <time>2018-04-18T09:29:41Z</time>
      </trkpt>
      <trkpt lat="47.26866" lon="1.86623">
        <ele>93</ele>
        <time>2018-04-18T09:29:42Z</time>
      </trkpt>
      <trkpt lat="47.26867" lon="1.8662">
        <ele>93</ele>
        <time>2018-04-18T09:29:43Z</time>
      </trkpt>
      <trkpt lat="47.26869" lon="1.86613">
        <ele>93</ele>
        <time>2018-04-18T09:29:46Z</time>
      </trkpt>
      <trkpt lat="47.26878" lon="1.86583">
        <ele>92</ele>
        <time>2018-04-18T09:30:03Z</time>
      </trkpt>
      <trkpt lat="47.26876" lon="1.86584">
        <ele>93</ele>
        <time>2018-04-18T09:30:21Z</time>
      </trkpt>
      <trkpt lat="47.26876" lon="1.86584">
        <ele>93</ele>
        <time>2018-04-18T09:30:26Z</time>
      </trkpt>
      <trkpt lat="47.26876" lon="1.86585">
        <ele>93</ele>
        <time>2018-04-18T09:30:39Z</time>
      </trkpt>
      <trkpt lat="47.26876" lon="1.86586">
        <ele>93</ele>
        <time>2018-04-18T09:30:49Z</time>
      </trkpt>
      <trkpt lat="47.26877" lon="1.86586">
        <ele>93</ele>
        <time>2018-04-18T09:31:07Z</time>
      </trkpt>
      <trkpt lat="47.26877" lon="1.86586">
        <ele>93</ele>
        <time>2018-04-18T09:31:16Z</time>
      </trkpt>
      <trkpt lat="47.26876" lon="1.86585">
        <ele>93</ele>
        <time>2018-04-18T09:31:19Z</time>
      </trkpt>
      <trkpt lat="47.26876" lon="1.86585">
        <ele>93</ele>
        <time>2018-04-18T09:31:20Z</time>
      </trkpt>
      <trkpt lat="47.26876" lon="1.86585">
        <ele>93</ele>
        <time>2018-04-18T09:31:22Z</time>
      </trkpt>
      <trkpt lat="47.26874" lon="1.86582">
        <ele>92</ele>
        <time>2018-04-18T09:32:03Z</time>
      </trkpt>
      <trkpt lat="47.26874" lon="1.86582">
        <ele>92</ele>
        <time>2018-04-18T09:32:05Z</time>
      </trkpt>
      <trkpt lat="47.26881" lon="1.8658">
        <ele>93</ele>
        <time>2018-04-18T09:32:19Z</time>
      </trkpt>
      <trkpt lat="47.26889" lon="1.86583">
        <ele>93</ele>
        <time>2018-04-18T09:32:24Z</time>
      </trkpt>
      <trkpt lat="47.26892" lon="1.86587">
        <ele>94</ele>
        <time>2018-04-18T09:32:28Z</time>
      </trkpt>
      <trkpt lat="47.2689" lon="1.86603">
        <ele>93</ele>
        <time>2018-04-18T09:32:33Z</time>
      </trkpt>
      <trkpt lat="47.26887" lon="1.86612">
        <ele>93</ele>
        <time>2018-04-18T09:32:35Z</time>
      </trkpt>
      <trkpt lat="47.26886" lon="1.86617">
        <ele>93</ele>
        <time>2018-04-18T09:32:36Z</time>
      </trkpt>
      <trkpt lat="47.26878" lon="1.86646">
        <ele>93</ele>
        <time>2018-04-18T09:32:42Z</time>
      </trkpt>
      <trkpt lat="47.26876" lon="1.86655">
        <ele>93</ele>
        <time>2018-04-18T09:32:44Z</time>
      </trkpt>
      <trkpt lat="47.26874" lon="1.86664">
        <ele>93</ele>
        <time>2018-04-18T09:32:46Z</time>
      </trkpt>
      <trkpt lat="47.26873" lon="1.86669">
        <ele>93</ele>
        <time>2018-04-18T09:32:47Z</time>
      </trkpt>
      <trkpt lat="47.26873" lon="1.86673">
        <ele>93</ele>
        <time>2018-04-18T09:32:48Z</time>
      </trkpt>
      <trkpt lat="47.26873" lon="1.86676">
        <ele>93</ele>
        <time>2018-04-18T09:32:49Z</time>
      </trkpt>
      <trkpt lat="47.2687" lon="1.86686">
        <ele>93</ele>
        <time>2018-04-18T09:32:53Z</time>
      </trkpt>
      <trkpt lat="47.26867" lon="1.86692">
        <ele>93</ele>
        <time>2018-04-18T09:33:00Z</time>
      </trkpt>
      <trkpt lat="47.26867" lon="1.86693">
        <ele>93</ele>
        <time>2018-04-18T09:33:04Z</time>
      </trkpt>
      <trkpt lat="47.26867" lon="1.86698">
        <ele>93</ele>
        <time>2018-04-18T09:33:11Z</time>
      </trkpt>
      <trkpt lat="47.26864" lon="1.86711">
        <ele>93</ele>
        <time>2018-04-18T09:33:15Z</time>
      </trkpt>
      <trkpt lat="47.26875" lon="1.86765">
        <ele>93</ele>
        <time>2018-04-18T09:33:32Z</time>
      </trkpt>
      <trkpt lat="47.26896" lon="1.86733">
        <ele>94</ele>
        <time>2018-04-18T09:33:50Z</time>
      </trkpt>
      <trkpt lat="47.26902" lon="1.86728">
        <ele>94</ele>
        <time>2018-04-18T09:33:56Z</time>
      </trkpt>
      <trkpt lat="47.26905" lon="1.86727">
        <ele>94</ele>
        <time>2018-04-18T09:33:59Z</time>
      </trkpt>
      <trkpt lat="47.26912" lon="1.86717">
        <ele>94</ele>
        <time>2018-04-18T09:34:11Z</time>
      </trkpt>
      <trkpt lat="47.2692" lon="1.86676">
        <ele>97</ele>
        <time>2018-04-18T09:34:25Z</time>
      </trkpt>
      <trkpt lat="47.2692" lon="1.86671">
        <ele>97</ele>
        <time>2018-04-18T09:34:28Z</time>
      </trkpt>
      <trkpt lat="47.26922" lon="1.86666">
        <ele>96</ele>
        <time>2018-04-18T09:34:32Z</time>
      </trkpt>
      <trkpt lat="47.26936" lon="1.86666">
        <ele>97</ele>
        <time>2018-04-18T09:34:41Z</time>
      </trkpt>
      <trkpt lat="47.26938" lon="1.86667">
        <ele>98</ele>
        <time>2018-04-18T09:34:44Z</time>
      </trkpt>
      <trkpt lat="47.26939" lon="1.86665">
        <ele>97</ele>
        <time>2018-04-18T09:34:48Z</time>
      </trkpt>
      <trkpt lat="47.26941" lon="1.86658">
        <ele>97</ele>
        <time>2018-04-18T09:34:51Z</time>
      </trkpt>
      <trkpt lat="47.26949" lon="1.86637">
        <ele>98</ele>
        <time>2018-04-18T09:35:01Z</time>
      </trkpt>
      <trkpt lat="47.26948" lon="1.86631">
        <ele>98</ele>
        <time>2018-04-18T09:35:05Z</time>
      </trkpt>
      <trkpt lat="47.26927" lon="1.866">
        <ele>96</ele>
        <time>2018-04-18T09:35:15Z</time>
      </trkpt>
      <trkpt lat="47.26947" lon="1.86561">
        <ele>96</ele>
        <time>2018-04-18T09:35:28Z</time>
      </trkpt>
      <trkpt lat="47.26952" lon="1.86552">
        <ele>96</ele>
        <time>2018-04-18T09:35:32Z</time>
      </trkpt>
      <trkpt lat="47.26961" lon="1.86545">
        <ele>96</ele>
        <time>2018-04-18T09:35:40Z</time>
      </trkpt>
      <trkpt lat="47.26981" lon="1.8656">
        <ele>97</ele>
        <time>2018-04-18T09:35:58Z</time>
      </trkpt>
      <trkpt lat="47.26988" lon="1.86557">
        <ele>97</ele>
        <time>2018-04-18T09:36:11Z</time>
      </trkpt>
      <trkpt lat="47.26991" lon="1.86555">
        <ele>97</ele>
        <time>2018-04-18T09:36:16Z</time>
      </trkpt>
      <trkpt lat="47.26996" lon="1.86556">
        <ele>97</ele>
        <time>2018-04-18T09:36:18Z</time>
      </trkpt>
      <trkpt lat="47.27002" lon="1.86559">
        <ele>100</ele>
        <time>2018-04-18T09:36:19Z</time>
      </trkpt>
      <trkpt lat="47.27005" lon="1.86559">
        <ele>100</ele>
        <time>2018-04-18T09:36:21Z</time>
      </trkpt>
      <trkpt lat="47.27006" lon="1.86558">
        <ele>100</ele>
        <time>2018-04-18T09:36:22Z</time>
      </trkpt>
      <trkpt lat="47.27006" lon="1.86559">
        <ele>100</ele>
        <time>2018-04-18T09:36:23Z</time>
      </trkpt>
      <trkpt lat="47.27007" lon="1.86559">
        <ele>100</ele>
        <time>2018-04-18T09:36:24Z</time>
      </trkpt>
      <trkpt lat="47.2701" lon="1.86561">
        <ele>100</ele>
        <time>2018-04-18T09:36:28Z</time>
      </trkpt>
      <trkpt lat="47.27012" lon="1.86559">
        <ele>100</ele>
        <time>2018-04-18T09:36:30Z</time>
      </trkpt>
      <trkpt lat="47.27016" lon="1.86556">
        <ele>101</ele>
        <time>2018-04-18T09:36:44Z</time>
      </trkpt>
      <trkpt lat="47.27017" lon="1.86556">
        <ele>101</ele>
        <time>2018-04-18T09:36:49Z</time>
      </trkpt>
      <trkpt lat="47.27017" lon="1.86556">
        <ele>101</ele>
        <time>2018-04-18T09:36:51Z</time>
      </trkpt>
      <trkpt lat="47.27017" lon="1.86556">
        <ele>101</ele>
        <time>2018-04-18T09:36:55Z</time>
      </trkpt>
      <trkpt lat="47.27017" lon="1.86557">
        <ele>101</ele>
        <time>2018-04-18T09:37:01Z</time>
      </trkpt>
      <trkpt lat="47.27019" lon="1.86558">
        <ele>101</ele>
        <time>2018-04-18T09:37:15Z</time>
      </trkpt>
      <trkpt lat="47.27017" lon="1.86561">
        <ele>101</ele>
        <time>2018-04-18T09:37:24Z</time>
      </trkpt>
      <trkpt lat="47.27012" lon="1.86563">
        <ele>100</ele>
        <time>2018-04-18T09:37:31Z</time>
      </trkpt>
      <trkpt lat="47.27004" lon="1.86564">
        <ele>100</ele>
        <time>2018-04-18T09:37:39Z</time>
      </trkpt>
      <trkpt lat="47.27003" lon="1.86565">
        <ele>100</ele>
        <time>2018-04-18T09:37:40Z</time>
      </trkpt>
      <trkpt lat="47.27001" lon="1.86568">
        <ele>100</ele>
        <time>2018-04-18T09:37:42Z</time>
      </trkpt>
      <trkpt lat="47.26998" lon="1.86572">
        <ele>98</ele>
        <time>2018-04-18T09:37:48Z</time>
      </trkpt>
      <trkpt lat="47.26998" lon="1.86572">
        <ele>98</ele>
        <time>2018-04-18T09:37:50Z</time>
      </trkpt>
      <trkpt lat="47.26999" lon="1.8657">
        <ele>98</ele>
        <time>2018-04-18T09:38:03Z</time>
      </trkpt>
      <trkpt lat="47.26999" lon="1.86571">
        <ele>98</ele>
        <time>2018-04-18T09:38:10Z</time>
      </trkpt>
      <trkpt lat="47.27" lon="1.86572">
        <ele>100</ele>
        <time>2018-04-18T09:38:13Z</time>
      </trkpt>
      <trkpt lat="47.27" lon="1.86571">
        <ele>100</ele>
        <time>2018-04-18T09:38:16Z</time>
      </trkpt>
      <trkpt lat="47.27" lon="1.86571">
        <ele>100</ele>
        <time>2018-04-18T09:38:17Z</time>
      </trkpt>
      <trkpt lat="47.27" lon="1.86571">
        <ele>100</ele>
        <time>2018-04-18T09:38:18Z</time>
      </trkpt>
      <trkpt lat="47.26994" lon="1.86567">
        <ele>97</ele>
        <time>2018-04-18T09:38:39Z</time>
      </trkpt>
      <trkpt lat="47.26995" lon="1.86566">
        <ele>97</ele>
        <time>2018-04-18T09:38:46Z</time>
      </trkpt>
      <trkpt lat="47.26996" lon="1.86563">
        <ele>97</ele>
        <time>2018-04-18T09:39:04Z</time>
      </trkpt>
      <trkpt lat="47.26995" lon="1.86562">
        <ele>97</ele>
        <time>2018-04-18T09:39:06Z</time>
      </trkpt>
      <trkpt lat="47.26994" lon="1.86563">
        <ele>97</ele>
        <time>2018-04-18T09:39:19Z</time>
      </trkpt>
      <trkpt lat="47.26993" lon="1.86563">
        <ele>97</ele>
        <time>2018-04-18T09:39:21Z</time>
      </trkpt>
      <trkpt lat="47.26993" lon="1.86563">
        <ele>97</ele>
        <time>2018-04-18T09:39:22Z</time>
      </trkpt>
      <trkpt lat="47.26994" lon="1.86563">
        <ele>97</ele>
        <time>2018-04-18T09:39:43Z</time>
      </trkpt>
      <trkpt lat="47.26991" lon="1.86564">
        <ele>97</ele>
        <time>2018-04-18T09:39:59Z</time>
      </trkpt>
      <trkpt lat="47.26991" lon="1.86564">
        <ele>97</ele>
        <time>2018-04-18T09:40:09Z</time>
      </trkpt>
      <trkpt lat="47.26993" lon="1.86566">
        <ele>97</ele>
        <time>2018-04-18T09:40:31Z</time>
      </trkpt>
      <trkpt lat="47.26996" lon="1.86566">
        <ele>97</ele>
        <time>2018-04-18T09:40:43Z</time>
      </trkpt>
      <trkpt lat="47.26996" lon="1.86566">
        <ele>97</ele>
        <time>2018-04-18T09:40:44Z</time>
      </trkpt>
      <trkpt lat="47.26999" lon="1.86569">
        <ele>98</ele>
        <time>2018-04-18T09:40:56Z</time>
      </trkpt>
      <trkpt lat="47.26999" lon="1.86569">
        <ele>98</ele>
        <time>2018-04-18T09:40:57Z</time>
      </trkpt>
      <trkpt lat="47.26998" lon="1.86569">
        <ele>98</ele>
        <time>2018-04-18T09:40:58Z</time>
      </trkpt>
      <trkpt lat="47.26996" lon="1.86566">
        <ele>97</ele>
        <time>2018-04-18T09:41:10Z</time>
      </trkpt>
      <trkpt lat="47.26995" lon="1.86566">
        <ele>97</ele>
        <time>2018-04-18T09:41:12Z</time>
      </trkpt>
      <trkpt lat="47.26994" lon="1.86566">
        <ele>97</ele>
        <time>2018-04-18T09:41:14Z</time>
      </trkpt>
      <trkpt lat="47.26994" lon="1.86566">
        <ele>97</ele>
        <time>2018-04-18T09:41:15Z</time>
      </trkpt>
      <trkpt lat="47.26992" lon="1.86565">
        <ele>97</ele>
        <time>2018-04-18T09:41:23Z</time>
      </trkpt>
      <trkpt lat="47.26992" lon="1.86565">
        <ele>97</ele>
        <time>2018-04-18T09:41:24Z</time>
      </trkpt>
      <trkpt lat="47.26992" lon="1.86565">
        <ele>97</ele>
        <time>2018-04-18T09:41:25Z</time>
      </trkpt>
      <trkpt lat="47.26992" lon="1.86564">
        <ele>97</ele>
        <time>2018-04-18T09:41:26Z</time>
      </trkpt>
      <trkpt lat="47.26992" lon="1.86564">
        <ele>97</ele>
        <time>2018-04-18T09:41:29Z</time>
      </trkpt>
      <trkpt lat="47.26992" lon="1.86562">
        <ele>97</ele>
        <time>2018-04-18T09:41:38Z</time>
      </trkpt>
      <trkpt lat="47.26991" lon="1.8656">
        <ele>97</ele>
        <time>2018-04-18T09:41:45Z</time>
      </trkpt>
      <trkpt lat="47.2699" lon="1.86559">
        <ele>97</ele>
        <time>2018-04-18T09:41:51Z</time>
      </trkpt>
      <trkpt lat="47.26989" lon="1.86558">
        <ele>97</ele>
        <time>2018-04-18T09:42:01Z</time>
      </trkpt>
      <trkpt lat="47.26989" lon="1.86557">
        <ele>97</ele>
        <time>2018-04-18T09:42:46Z</time>
      </trkpt>
      <trkpt lat="47.26992" lon="1.86561">
        <ele>97</ele>
        <time>2018-04-18T09:43:06Z</time>
      </trkpt>
      <trkpt lat="47.26994" lon="1.86564">
        <ele>97</ele>
        <time>2018-04-18T09:43:16Z</time>
      </trkpt>
      <trkpt lat="47.26998" lon="1.86563">
        <ele>97</ele>
        <time>2018-04-18T09:44:10Z</time>
      </trkpt>
      <trkpt lat="47.26999" lon="1.86564">
        <ele>97</ele>
        <time>2018-04-18T09:44:13Z</time>
      </trkpt>
      <trkpt lat="47.27" lon="1.86564">
        <ele>100</ele>
        <time>2018-04-18T09:44:16Z</time>
      </trkpt>
      <trkpt lat="47.27001" lon="1.86566">
        <ele>100</ele>
        <time>2018-04-18T09:44:22Z</time>
      </trkpt>
      <trkpt lat="47.27002" lon="1.86567">
        <ele>100</ele>
        <time>2018-04-18T09:44:28Z</time>
      </trkpt>
      <trkpt lat="47.27003" lon="1.86568">
        <ele>100</ele>
        <time>2018-04-18T09:44:31Z</time>
      </trkpt>
      <trkpt lat="47.27003" lon="1.8657">
        <ele>100</ele>
        <time>2018-04-18T09:44:38Z</time>
      </trkpt>
      <trkpt lat="47.27003" lon="1.8657">
        <ele>100</ele>
        <time>2018-04-18T09:44:40Z</time>
      </trkpt>
      <trkpt lat="47.27" lon="1.86572">
        <ele>100</ele>
        <time>2018-04-18T09:44:53Z</time>
      </trkpt>
      <trkpt lat="47.27" lon="1.86573">
        <ele>100</ele>
        <time>2018-04-18T09:44:55Z</time>
      </trkpt>
      <trkpt lat="47.27" lon="1.86573">
        <ele>100</ele>
        <time>2018-04-18T09:44:56Z</time>
      </trkpt>
      <trkpt lat="47.26999" lon="1.86573">
        <ele>98</ele>
        <time>2018-04-18T09:45:00Z</time>
      </trkpt>
      <trkpt lat="47.26992" lon="1.86565">
        <ele>97</ele>
        <time>2018-04-18T09:45:22Z</time>
      </trkpt>
      <trkpt lat="47.26992" lon="1.86563">
        <ele>97</ele>
        <time>2018-04-18T09:45:29Z</time>
      </trkpt>
      <trkpt lat="47.26989" lon="1.86559">
        <ele>97</ele>
        <time>2018-04-18T09:45:56Z</time>
      </trkpt>
      <trkpt lat="47.26986" lon="1.86558">
        <ele>97</ele>
        <time>2018-04-18T09:46:30Z</time>
      </trkpt>
      <trkpt lat="47.26986" lon="1.86557">
        <ele>97</ele>
        <time>2018-04-18T09:46:37Z</time>
      </trkpt>
      <trkpt lat="47.26987" lon="1.86557">
        <ele>97</ele>
        <time>2018-04-18T09:46:41Z</time>
      </trkpt>
      <trkpt lat="47.26987" lon="1.86557">
        <ele>97</ele>
        <time>2018-04-18T09:46:49Z</time>
      </trkpt>
      <trkpt lat="47.26987" lon="1.86557">
        <ele>97</ele>
        <time>2018-04-18T09:46:54Z</time>
      </trkpt>
      <trkpt lat="47.26987" lon="1.86558">
        <ele>97</ele>
        <time>2018-04-18T09:46:57Z</time>
      </trkpt>
      <trkpt lat="47.26987" lon="1.86558">
        <ele>97</ele>
        <time>2018-04-18T09:46:59Z</time>
      </trkpt>
      <trkpt lat="47.26987" lon="1.86557">
        <ele>97</ele>
        <time>2018-04-18T09:47:16Z</time>
      </trkpt>
      <trkpt lat="47.26987" lon="1.86557">
        <ele>97</ele>
        <time>2018-04-18T09:47:18Z</time>
      </trkpt>
      <trkpt lat="47.26985" lon="1.86552">
        <ele>97</ele>
        <time>2018-04-18T09:47:41Z</time>
      </trkpt>
      <trkpt lat="47.26986" lon="1.86552">
        <ele>97</ele>
        <time>2018-04-18T09:47:42Z</time>
      </trkpt>
      <trkpt lat="47.26985" lon="1.86551">
        <ele>97</ele>
        <time>2018-04-18T09:47:43Z</time>
      </trkpt>
      <trkpt lat="47.26985" lon="1.86551">
        <ele>97</ele>
        <time>2018-04-18T09:47:44Z</time>
      </trkpt>
      <trkpt lat="47.26985" lon="1.86551">
        <ele>97</ele>
        <time>2018-04-18T09:47:45Z</time>
      </trkpt>
      <trkpt lat="47.26985" lon="1.86551">
        <ele>97</ele>
        <time>2018-04-18T09:47:46Z</time>
      </trkpt>
      <trkpt lat="47.26986" lon="1.86553">
        <ele>97</ele>
        <time>2018-04-18T09:47:49Z</time>
      </trkpt>
      <trkpt lat="47.26986" lon="1.86553">
        <ele>97</ele>
        <time>2018-04-18T09:47:54Z</time>
      </trkpt>
      <trkpt lat="47.26986" lon="1.86553">
        <ele>97</ele>
        <time>2018-04-18T09:47:55Z</time>
      </trkpt>
      <trkpt lat="47.26986" lon="1.86554">
        <ele>97</ele>
        <time>2018-04-18T09:47:56Z</time>
      </trkpt>
      <trkpt lat="47.26987" lon="1.86555">
        <ele>97</ele>
        <time>2018-04-18T09:47:58Z</time>
      </trkpt>
      <trkpt lat="47.26988" lon="1.86556">
        <ele>97</ele>
        <time>2018-04-18T09:48:00Z</time>
      </trkpt>
      <trkpt lat="47.26988" lon="1.86556">
        <ele>97</ele>
        <time>2018-04-18T09:48:01Z</time>
      </trkpt>
      <trkpt lat="47.26989" lon="1.86557">
        <ele>97</ele>
        <time>2018-04-18T09:48:04Z</time>
      </trkpt>
      <trkpt lat="47.26991" lon="1.86561">
        <ele>97</ele>
        <time>2018-04-18T09:48:12Z</time>
      </trkpt>
      <trkpt lat="47.26992" lon="1.86561">
        <ele>97</ele>
        <time>2018-04-18T09:48:22Z</time>
      </trkpt>
      <trkpt lat="47.26992" lon="1.86563">
        <ele>97</ele>
        <time>2018-04-18T09:48:28Z</time>
      </trkpt>
      <trkpt lat="47.26992" lon="1.86564">
        <ele>97</ele>
        <time>2018-04-18T09:48:33Z</time>
      </trkpt>
      <trkpt lat="47.26993" lon="1.86564">
        <ele>97</ele>
        <time>2018-04-18T09:48:34Z</time>
      </trkpt>
      <trkpt lat="47.26993" lon="1.86564">
        <ele>97</ele>
        <time>2018-04-18T09:48:35Z</time>
      </trkpt>
      <trkpt lat="47.26993" lon="1.86564">
        <ele>97</ele>
        <time>2018-04-18T09:48:36Z</time>
      </trkpt>
      <trkpt lat="47.26993" lon="1.86565">
        <ele>97</ele>
        <time>2018-04-18T09:48:37Z</time>
      </trkpt>
      <trkpt lat="47.26993" lon="1.86565">
        <ele>97</ele>
        <time>2018-04-18T09:48:39Z</time>
      </trkpt>
      <trkpt lat="47.26993" lon="1.86571">
        <ele>98</ele>
        <time>2018-04-18T09:48:47Z</time>
      </trkpt>
      <trkpt lat="47.26994" lon="1.86571">
        <ele>98</ele>
        <time>2018-04-18T09:48:48Z</time>
      </trkpt>
      <trkpt lat="47.26994" lon="1.86571">
        <ele>98</ele>
        <time>2018-04-18T09:48:49Z</time>
      </trkpt>
      <trkpt lat="47.26994" lon="1.86571">
        <ele>98</ele>
        <time>2018-04-18T09:48:50Z</time>
      </trkpt>
      <trkpt lat="47.26994" lon="1.86572">
        <ele>98</ele>
        <time>2018-04-18T09:48:51Z</time>
      </trkpt>
      <trkpt lat="47.26995" lon="1.86572">
        <ele>98</ele>
        <time>2018-04-18T09:48:52Z</time>
      </trkpt>
      <trkpt lat="47.26995" lon="1.86573">
        <ele>98</ele>
        <time>2018-04-18T09:48:53Z</time>
      </trkpt>
      <trkpt lat="47.26995" lon="1.86573">
        <ele>98</ele>
        <time>2018-04-18T09:48:54Z</time>
      </trkpt>
      <trkpt lat="47.26995" lon="1.86573">
        <ele>98</ele>
        <time>2018-04-18T09:48:55Z</time>
      </trkpt>
      <trkpt lat="47.26995" lon="1.86573">
        <ele>98</ele>
        <time>2018-04-18T09:48:57Z</time>
      </trkpt>
      <trkpt lat="47.26995" lon="1.86574">
        <ele>98</ele>
        <time>2018-04-18T09:48:59Z</time>
      </trkpt>
      <trkpt lat="47.26994" lon="1.86572">
        <ele>98</ele>
        <time>2018-04-18T09:49:01Z</time>
      </trkpt>
      <trkpt lat="47.26994" lon="1.86572">
        <ele>98</ele>
        <time>2018-04-18T09:49:02Z</time>
      </trkpt>
      <trkpt lat="47.26995" lon="1.86572">
        <ele>98</ele>
        <time>2018-04-18T09:49:03Z</time>
      </trkpt>
      <trkpt lat="47.26995" lon="1.86571">
        <ele>98</ele>
        <time>2018-04-18T09:49:04Z</time>
      </trkpt>
      <trkpt lat="47.26996" lon="1.8657">
        <ele>98</ele>
        <time>2018-04-18T09:49:07Z</time>
      </trkpt>
      <trkpt lat="47.26996" lon="1.8657">
        <ele>98</ele>
        <time>2018-04-18T09:49:11Z</time>
      </trkpt>
      <trkpt lat="47.26996" lon="1.8657">
        <ele>98</ele>
        <time>2018-04-18T09:49:13Z</time>
      </trkpt>
      <trkpt lat="47.26996" lon="1.8657">
        <ele>98</ele>
        <time>2018-04-18T09:49:14Z</time>
      </trkpt>
      <trkpt lat="47.26997" lon="1.8657">
        <ele>98</ele>
        <time>2018-04-18T09:49:15Z</time>
      </trkpt>
      <trkpt lat="47.26997" lon="1.8657">
        <ele>98</ele>
        <time>2018-04-18T09:49:16Z</time>
      </trkpt>
      <trkpt lat="47.26997" lon="1.8657">
        <ele>98</ele>
        <time>2018-04-18T09:49:17Z</time>
      </trkpt>
      <trkpt lat="47.26997" lon="1.8657">
        <ele>98</ele>
        <time>2018-04-18T09:49:23Z</time>
      </trkpt>
      <trkpt lat="47.26997" lon="1.8657">
        <ele>98</ele>
        <time>2018-04-18T09:49:24Z</time>
      </trkpt>
      <trkpt lat="47.26997" lon="1.8657">
        <ele>98</ele>
        <time>2018-04-18T09:49:39Z</time>
      </trkpt>
      <trkpt lat="47.26997" lon="1.8657">
        <ele>98</ele>
        <time>2018-04-18T09:49:40Z</time>
      </trkpt>
      <trkpt lat="47.26997" lon="1.8657">
        <ele>98</ele>
        <time>2018-04-18T09:49:42Z</time>
      </trkpt>
      <trkpt lat="47.26997" lon="1.8657">
        <ele>98</ele>
        <time>2018-04-18T09:49:43Z</time>
      </trkpt>
      <trkpt lat="47.26997" lon="1.8657">
        <ele>98</ele>
        <time>2018-04-18T09:49:44Z</time>
      </trkpt>
      <trkpt lat="47.26997" lon="1.8657">
        <ele>98</ele>
        <time>2018-04-18T09:49:45Z</time>
      </trkpt>
      <trkpt lat="47.26997" lon="1.86569">
        <ele>98</ele>
        <time>2018-04-18T09:49:48Z</time>
      </trkpt>
      <trkpt lat="47.26997" lon="1.86569">
        <ele>98</ele>
        <time>2018-04-18T09:49:51Z</time>
      </trkpt>
      <trkpt lat="47.26998" lon="1.86568">
        <ele>98</ele>
        <time>2018-04-18T09:49:58Z</time>
      </trkpt>
      <trkpt lat="47.26994" lon="1.86571">
        <ele>98</ele>
        <time>2018-04-18T09:50:09Z</time>
      </trkpt>
      <trkpt lat="47.26998" lon="1.86568">
        <ele>98</ele>
        <time>2018-04-18T09:50:15Z</time>
      </trkpt>
      <trkpt lat="47.26996" lon="1.86564">
        <ele>97</ele>
        <time>2018-04-18T09:50:36Z</time>
      </trkpt>
      <trkpt lat="47.26995" lon="1.86565">
        <ele>97</ele>
        <time>2018-04-18T09:50:46Z</time>
      </trkpt>
      <trkpt lat="47.26995" lon="1.86564">
        <ele>97</ele>
        <time>2018-04-18T09:50:51Z</time>
      </trkpt>
      <trkpt lat="47.26995" lon="1.86564">
        <ele>97</ele>
        <time>2018-04-18T09:50:55Z</time>
      </trkpt>
      <trkpt lat="47.26992" lon="1.86562">
        <ele>97</ele>
        <time>2018-04-18T09:51:23Z</time>
      </trkpt>
      <trkpt lat="47.27" lon="1.8656">
        <ele>100</ele>
        <time>2018-04-18T09:51:42Z</time>
      </trkpt>
      <trkpt lat="47.27001" lon="1.8656">
        <ele>100</ele>
        <time>2018-04-18T09:51:48Z</time>
      </trkpt>
      <trkpt lat="47.27002" lon="1.86561">
        <ele>100</ele>
        <time>2018-04-18T09:51:56Z</time>
      </trkpt>
      <trkpt lat="47.27011" lon="1.86566">
        <ele>100</ele>
        <time>2018-04-18T09:52:14Z</time>
      </trkpt>
      <trkpt lat="47.27012" lon="1.86564">
        <ele>100</ele>
        <time>2018-04-18T09:52:16Z</time>
      </trkpt>
      <trkpt lat="47.27014" lon="1.86558">
        <ele>101</ele>
        <time>2018-04-18T09:52:23Z</time>
      </trkpt>
      <trkpt lat="47.27015" lon="1.86555">
        <ele>101</ele>
        <time>2018-04-18T09:52:25Z</time>
      </trkpt>
      <trkpt lat="47.2702" lon="1.86547">
        <ele>101</ele>
        <time>2018-04-18T09:52:30Z</time>
      </trkpt>
      <trkpt lat="47.27023" lon="1.86538">
        <ele>101</ele>
        <time>2018-04-18T09:52:34Z</time>
      </trkpt>
      <trkpt lat="47.27025" lon="1.86523">
        <ele>100</ele>
        <time>2018-04-18T09:52:41Z</time>
      </trkpt>
      <trkpt lat="47.27027" lon="1.86523">
        <ele>101</ele>
        <time>2018-04-18T09:52:43Z</time>
      </trkpt>
      <trkpt lat="47.27029" lon="1.86526">
        <ele>101</ele>
        <time>2018-04-18T09:52:45Z</time>
      </trkpt>
      <trkpt lat="47.27035" lon="1.86529">
        <ele>101</ele>
        <time>2018-04-18T09:52:50Z</time>
      </trkpt>
      <trkpt lat="47.2704" lon="1.86505">
        <ele>101</ele>
        <time>2018-04-18T09:53:01Z</time>
      </trkpt>
      <trkpt lat="47.27039" lon="1.86504">
        <ele>101</ele>
        <time>2018-04-18T09:53:07Z</time>
      </trkpt>
      <trkpt lat="47.27037" lon="1.86503">
        <ele>101</ele>
        <time>2018-04-18T09:53:32Z</time>
      </trkpt>
      <trkpt lat="47.27037" lon="1.86503">
        <ele>101</ele>
        <time>2018-04-18T09:53:33Z</time>
      </trkpt>
      <trkpt lat="47.27037" lon="1.86502">
        <ele>101</ele>
        <time>2018-04-18T09:53:38Z</time>
      </trkpt>
      <trkpt lat="47.27037" lon="1.86502">
        <ele>101</ele>
        <time>2018-04-18T09:53:40Z</time>
      </trkpt>
      <trkpt lat="47.27037" lon="1.86501">
        <ele>101</ele>
        <time>2018-04-18T09:53:42Z</time>
      </trkpt>
      <trkpt lat="47.27037" lon="1.86501">
        <ele>101</ele>
        <time>2018-04-18T09:53:47Z</time>
      </trkpt>
      <trkpt lat="47.27049" lon="1.86439">
        <ele>100</ele>
        <time>2018-04-18T09:54:05Z</time>
      </trkpt>
      <trkpt lat="47.27052" lon="1.86413">
        <ele>99</ele>
        <time>2018-04-18T09:54:11Z</time>
      </trkpt>
      <trkpt lat="47.27052" lon="1.86409">
        <ele>99</ele>
        <time>2018-04-18T09:54:12Z</time>
      </trkpt>
      <trkpt lat="47.27059" lon="1.86359">
        <ele>99</ele>
        <time>2018-04-18T09:54:24Z</time>
      </trkpt>
      <trkpt lat="47.27063" lon="1.86332">
        <ele>99</ele>
        <time>2018-04-18T09:54:29Z</time>
      </trkpt>
      <trkpt lat="47.27075" lon="1.86255">
        <ele>99</ele>
        <time>2018-04-18T09:54:41Z</time>
      </trkpt>
      <trkpt lat="47.27086" lon="1.86191">
        <ele>101</ele>
        <time>2018-04-18T09:54:52Z</time>
      </trkpt>
      <trkpt lat="47.27106" lon="1.86112">
        <ele>98</ele>
        <time>2018-04-18T09:55:04Z</time>
      </trkpt>
      <trkpt lat="47.27123" lon="1.86058">
        <ele>96</ele>
        <time>2018-04-18T09:55:11Z</time>
      </trkpt>
      <trkpt lat="47.27141" lon="1.86002">
        <ele>97</ele>
        <time>2018-04-18T09:55:19Z</time>
      </trkpt>
      <trkpt lat="47.27156" lon="1.85953">
        <ele>95</ele>
        <time>2018-04-18T09:55:26Z</time>
      </trkpt>
      <trkpt lat="47.27174" lon="1.85904">
        <ele>98</ele>
        <time>2018-04-18T09:55:34Z</time>
      </trkpt>
      <trkpt lat="47.27176" lon="1.85898">
        <ele>99</ele>
        <time>2018-04-18T09:55:35Z</time>
      </trkpt>
      <trkpt lat="47.27183" lon="1.85881">
        <ele>99</ele>
        <time>2018-04-18T09:55:38Z</time>
      </trkpt>
      <trkpt lat="47.27191" lon="1.85866">
        <ele>100</ele>
        <time>2018-04-18T09:55:41Z</time>
      </trkpt>
      <trkpt lat="47.27196" lon="1.85857">
        <ele>100</ele>
        <time>2018-04-18T09:55:43Z</time>
      </trkpt>
      <trkpt lat="47.2721" lon="1.85827">
        <ele>99</ele>
        <time>2018-04-18T09:55:50Z</time>
      </trkpt>
      <trkpt lat="47.27217" lon="1.85815">
        <ele>99</ele>
        <time>2018-04-18T09:55:53Z</time>
      </trkpt>
      <trkpt lat="47.27236" lon="1.8578">
        <ele>99</ele>
        <time>2018-04-18T09:56:02Z</time>
      </trkpt>
      <trkpt lat="47.27243" lon="1.85769">
        <ele>100</ele>
        <time>2018-04-18T09:56:05Z</time>
      </trkpt>
      <trkpt lat="47.27257" lon="1.85744">
        <ele>102</ele>
        <time>2018-04-18T09:56:12Z</time>
      </trkpt>
      <trkpt lat="47.27258" lon="1.8574">
        <ele>102</ele>
        <time>2018-04-18T09:56:13Z</time>
      </trkpt>
      <trkpt lat="47.27262" lon="1.85731">
        <ele>103</ele>
        <time>2018-04-18T09:56:15Z</time>
      </trkpt>
      <trkpt lat="47.27266" lon="1.85722">
        <ele>103</ele>
        <time>2018-04-18T09:56:17Z</time>
      </trkpt>
      <trkpt lat="47.2727" lon="1.85711">
        <ele>103</ele>
        <time>2018-04-18T09:56:19Z</time>
      </trkpt>
      <trkpt lat="47.27271" lon="1.85705">
        <ele>103</ele>
        <time>2018-04-18T09:56:20Z</time>
      </trkpt>
      <trkpt lat="47.27277" lon="1.85688">
        <ele>102</ele>
        <time>2018-04-18T09:56:23Z</time>
      </trkpt>
      <trkpt lat="47.2728" lon="1.85681">
        <ele>102</ele>
        <time>2018-04-18T09:56:24Z</time>
      </trkpt>
      <trkpt lat="47.27282" lon="1.85675">
        <ele>102</ele>
        <time>2018-04-18T09:56:25Z</time>
      </trkpt>
      <trkpt lat="47.27284" lon="1.85668">
        <ele>102</ele>
        <time>2018-04-18T09:56:26Z</time>
      </trkpt>
      <trkpt lat="47.27287" lon="1.85661">
        <ele>99</ele>
        <time>2018-04-18T09:56:27Z</time>
      </trkpt>
      <trkpt lat="47.27315" lon="1.8559">
        <ele>100</ele>
        <time>2018-04-18T09:56:36Z</time>
      </trkpt>
      <trkpt lat="47.27341" lon="1.8553">
        <ele>100</ele>
        <time>2018-04-18T09:56:44Z</time>
      </trkpt>
      <trkpt lat="47.2735" lon="1.85509">
        <ele>99</ele>
        <time>2018-04-18T09:56:47Z</time>
      </trkpt>
      <trkpt lat="47.27362" lon="1.85482">
        <ele>97</ele>
        <time>2018-04-18T09:56:51Z</time>
      </trkpt>
      <trkpt lat="47.27374" lon="1.85452">
        <ele>97</ele>
        <time>2018-04-18T09:56:55Z</time>
      </trkpt>
      <trkpt lat="47.27384" lon="1.85429">
        <ele>97</ele>
        <time>2018-04-18T09:56:58Z</time>
      </trkpt>
      <trkpt lat="47.27387" lon="1.85421">
        <ele>97</ele>
        <time>2018-04-18T09:56:59Z</time>
      </trkpt>
      <trkpt lat="47.27392" lon="1.85405">
        <ele>96</ele>
        <time>2018-04-18T09:57:01Z</time>
      </trkpt>
      <trkpt lat="47.274" lon="1.85381">
        <ele>95</ele>
        <time>2018-04-18T09:57:04Z</time>
      </trkpt>
      <trkpt lat="47.27403" lon="1.85373">
        <ele>95</ele>
        <time>2018-04-18T09:57:05Z</time>
      </trkpt>
      <trkpt lat="47.27413" lon="1.85344">
        <ele>95</ele>
        <time>2018-04-18T09:57:09Z</time>
      </trkpt>
      <trkpt lat="47.27417" lon="1.85337">
        <ele>97</ele>
        <time>2018-04-18T09:57:10Z</time>
      </trkpt>
      <trkpt lat="47.27425" lon="1.85324">
        <ele>96</ele>
        <time>2018-04-18T09:57:12Z</time>
      </trkpt>
      <trkpt lat="47.27432" lon="1.85311">
        <ele>97</ele>
        <time>2018-04-18T09:57:14Z</time>
      </trkpt>
      <trkpt lat="47.27449" lon="1.85244">
        <ele>94</ele>
        <time>2018-04-18T09:57:22Z</time>
      </trkpt>
      <trkpt lat="47.27452" lon="1.85226">
        <ele>94</ele>
        <time>2018-04-18T09:57:24Z</time>
      </trkpt>
      <trkpt lat="47.27457" lon="1.85198">
        <ele>94</ele>
        <time>2018-04-18T09:57:27Z</time>
      </trkpt>
      <trkpt lat="47.2746" lon="1.85179">
        <ele>94</ele>
        <time>2018-04-18T09:57:29Z</time>
      </trkpt>
      <trkpt lat="47.27466" lon="1.85152">
        <ele>94</ele>
        <time>2018-04-18T09:57:32Z</time>
      </trkpt>
      <trkpt lat="47.27468" lon="1.85143">
        <ele>95</ele>
        <time>2018-04-18T09:57:33Z</time>
      </trkpt>
      <trkpt lat="47.27473" lon="1.85125">
        <ele>95</ele>
        <time>2018-04-18T09:57:35Z</time>
      </trkpt>
      <trkpt lat="47.27478" lon="1.85108">
        <ele>95</ele>
        <time>2018-04-18T09:57:37Z</time>
      </trkpt>
      <trkpt lat="47.27501" lon="1.8503">
        <ele>99</ele>
        <time>2018-04-18T09:57:47Z</time>
      </trkpt>
      <trkpt lat="47.27524" lon="1.84955">
        <ele>98</ele>
        <time>2018-04-18T09:57:57Z</time>
      </trkpt>
      <trkpt lat="47.27547" lon="1.84883">
        <ele>96</ele>
        <time>2018-04-18T09:58:07Z</time>
      </trkpt>
      <trkpt lat="47.27573" lon="1.84809">
        <ele>95</ele>
        <time>2018-04-18T09:58:18Z</time>
      </trkpt>
      <trkpt lat="47.276" lon="1.84734">
        <ele>96</ele>
        <time>2018-04-18T09:58:30Z</time>
      </trkpt>
      <trkpt lat="47.2763" lon="1.84668">
        <ele>96</ele>
        <time>2018-04-18T09:58:40Z</time>
      </trkpt>
      <trkpt lat="47.27657" lon="1.84609">
        <ele>93</ele>
        <time>2018-04-18T09:58:49Z</time>
      </trkpt>
      <trkpt lat="47.27687" lon="1.8454">
        <ele>97</ele>
        <time>2018-04-18T09:58:59Z</time>
      </trkpt>
      <trkpt lat="47.27716" lon="1.84472">
        <ele>97</ele>
        <time>2018-04-18T09:59:10Z</time>
      </trkpt>
      <trkpt lat="47.27736" lon="1.84424">
        <ele>97</ele>
        <time>2018-04-18T09:59:18Z</time>
      </trkpt>
      <trkpt lat="47.27763" lon="1.84358">
        <ele>99</ele>
        <time>2018-04-18T09:59:28Z</time>
      </trkpt>
      <trkpt lat="47.27786" lon="1.84301">
        <ele>97</ele>
        <time>2018-04-18T09:59:36Z</time>
      </trkpt>
      <trkpt lat="47.27814" lon="1.84229">
        <ele>95</ele>
        <time>2018-04-18T09:59:46Z</time>
      </trkpt>
      <trkpt lat="47.27842" lon="1.84156">
        <ele>94</ele>
        <time>2018-04-18T09:59:56Z</time>
      </trkpt>
      <trkpt lat="47.27868" lon="1.84085">
        <ele>94</ele>
        <time>2018-04-18T10:00:06Z</time>
      </trkpt>
      <trkpt lat="47.27897" lon="1.84009">
        <ele>92</ele>
        <time>2018-04-18T10:00:17Z</time>
      </trkpt>
      <trkpt lat="47.27923" lon="1.8394">
        <ele>94</ele>
        <time>2018-04-18T10:00:27Z</time>
      </trkpt>
      <trkpt lat="47.27949" lon="1.83871">
        <ele>92</ele>
        <time>2018-04-18T10:00:37Z</time>
      </trkpt>
      <trkpt lat="47.2797" lon="1.83817">
        <ele>91</ele>
        <time>2018-04-18T10:00:45Z</time>
      </trkpt>
      <trkpt lat="47.28007" lon="1.83755">
        <ele>92</ele>
        <time>2018-04-18T10:00:57Z</time>
      </trkpt>
      <trkpt lat="47.28043" lon="1.83693">
        <ele>93</ele>
        <time>2018-04-18T10:01:11Z</time>
      </trkpt>
      <trkpt lat="47.28078" lon="1.83632">
        <ele>91</ele>
        <time>2018-04-18T10:01:24Z</time>
      </trkpt>
      <trkpt lat="47.28101" lon="1.83593">
        <ele>95</ele>
        <time>2018-04-18T10:01:32Z</time>
      </trkpt>
      <trkpt lat="47.28106" lon="1.83583">
        <ele>93</ele>
        <time>2018-04-18T10:01:34Z</time>
      </trkpt>
      <trkpt lat="47.2814" lon="1.83516">
        <ele>95</ele>
        <time>2018-04-18T10:01:50Z</time>
      </trkpt>
      <trkpt lat="47.28172" lon="1.83449">
        <ele>100</ele>
        <time>2018-04-18T10:02:05Z</time>
      </trkpt>
      <trkpt lat="47.28203" lon="1.83381">
        <ele>99</ele>
        <time>2018-04-18T10:02:19Z</time>
      </trkpt>
      <trkpt lat="47.28232" lon="1.83313">
        <ele>97</ele>
        <time>2018-04-18T10:02:33Z</time>
      </trkpt>
      <trkpt lat="47.28239" lon="1.83298">
        <ele>97</ele>
        <time>2018-04-18T10:02:36Z</time>
      </trkpt>
      <trkpt lat="47.28268" lon="1.83229">
        <ele>98</ele>
        <time>2018-04-18T10:02:48Z</time>
      </trkpt>
      <trkpt lat="47.28297" lon="1.83161">
        <ele>97</ele>
        <time>2018-04-18T10:03:00Z</time>
      </trkpt>
      <trkpt lat="47.28326" lon="1.83087">
        <ele>97</ele>
        <time>2018-04-18T10:03:12Z</time>
      </trkpt>
      <trkpt lat="47.28335" lon="1.83062">
        <ele>99</ele>
        <time>2018-04-18T10:03:16Z</time>
      </trkpt>
      <trkpt lat="47.28342" lon="1.83043">
        <ele>99</ele>
        <time>2018-04-18T10:03:19Z</time>
      </trkpt>
      <trkpt lat="47.28367" lon="1.8297">
        <ele>98</ele>
        <time>2018-04-18T10:03:31Z</time>
      </trkpt>
      <trkpt lat="47.28395" lon="1.829">
        <ele>98</ele>
        <time>2018-04-18T10:03:43Z</time>
      </trkpt>
      <trkpt lat="47.28421" lon="1.82827">
        <ele>99</ele>
        <time>2018-04-18T10:03:55Z</time>
      </trkpt>
      <trkpt lat="47.28446" lon="1.82753">
        <ele>101</ele>
        <time>2018-04-18T10:04:07Z</time>
      </trkpt>
      <trkpt lat="47.28475" lon="1.82682">
        <ele>102</ele>
        <time>2018-04-18T10:04:24Z</time>
      </trkpt>
      <trkpt lat="47.28495" lon="1.8262">
        <ele>100</ele>
        <time>2018-04-18T10:04:40Z</time>
      </trkpt>
      <trkpt lat="47.28518" lon="1.82556">
        <ele>102</ele>
        <time>2018-04-18T10:04:55Z</time>
      </trkpt>
      <trkpt lat="47.28517" lon="1.82555">
        <ele>102</ele>
        <time>2018-04-18T10:05:38Z</time>
      </trkpt>
      <trkpt lat="47.28517" lon="1.82555">
        <ele>102</ele>
        <time>2018-04-18T10:05:44Z</time>
      </trkpt>
      <trkpt lat="47.28517" lon="1.82555">
        <ele>102</ele>
        <time>2018-04-18T10:05:49Z</time>
      </trkpt>
      <trkpt lat="47.28517" lon="1.82555">
        <ele>102</ele>
        <time>2018-04-18T10:05:53Z</time>
      </trkpt>
      <trkpt lat="47.28518" lon="1.82556">
        <ele>102</ele>
        <time>2018-04-18T10:06:07Z</time>
      </trkpt>
      <trkpt lat="47.28518" lon="1.82556">
        <ele>102</ele>
        <time>2018-04-18T10:06:13Z</time>
      </trkpt>
      <trkpt lat="47.28518" lon="1.82556">
        <ele>102</ele>
        <time>2018-04-18T10:06:14Z</time>
      </trkpt>
      <trkpt lat="47.28531" lon="1.82507">
        <ele>101</ele>
        <time>2018-04-18T10:06:25Z</time>
      </trkpt>
      <trkpt lat="47.28537" lon="1.82487">
        <ele>100</ele>
        <time>2018-04-18T10:06:28Z</time>
      </trkpt>
      <trkpt lat="47.28554" lon="1.82406">
        <ele>100</ele>
        <time>2018-04-18T10:06:40Z</time>
      </trkpt>
      <trkpt lat="47.28564" lon="1.8235">
        <ele>100</ele>
        <time>2018-04-18T10:06:48Z</time>
      </trkpt>
      <trkpt lat="47.28575" lon="1.8227">
        <ele>98</ele>
        <time>2018-04-18T10:06:59Z</time>
      </trkpt>
      <trkpt lat="47.28578" lon="1.82249">
        <ele>99</ele>
        <time>2018-04-18T10:07:02Z</time>
      </trkpt>
      <trkpt lat="47.28591" lon="1.82165">
        <ele>99</ele>
        <time>2018-04-18T10:07:14Z</time>
      </trkpt>
      <trkpt lat="47.28597" lon="1.82132">
        <ele>101</ele>
        <time>2018-04-18T10:07:19Z</time>
      </trkpt>
      <trkpt lat="47.28601" lon="1.82104">
        <ele>100</ele>
        <time>2018-04-18T10:07:23Z</time>
      </trkpt>
      <trkpt lat="47.28603" lon="1.82091">
        <ele>100</ele>
        <time>2018-04-18T10:07:25Z</time>
      </trkpt>
      <trkpt lat="47.28618" lon="1.82012">
        <ele>99</ele>
        <time>2018-04-18T10:07:36Z</time>
      </trkpt>
      <trkpt lat="47.28629" lon="1.8197">
        <ele>99</ele>
        <time>2018-04-18T10:07:42Z</time>
      </trkpt>
      <trkpt lat="47.28649" lon="1.8189">
        <ele>98</ele>
        <time>2018-04-18T10:07:54Z</time>
      </trkpt>
      <trkpt lat="47.28668" lon="1.81812">
        <ele>103</ele>
        <time>2018-04-18T10:08:07Z</time>
      </trkpt>
      <trkpt lat="47.28676" lon="1.81726">
        <ele>101</ele>
        <time>2018-04-18T10:08:20Z</time>
      </trkpt>
      <trkpt lat="47.28683" lon="1.81647">
        <ele>99</ele>
        <time>2018-04-18T10:08:30Z</time>
      </trkpt>
      <trkpt lat="47.2869" lon="1.81567">
        <ele>97</ele>
        <time>2018-04-18T10:08:40Z</time>
      </trkpt>
      <trkpt lat="47.28698" lon="1.81502">
        <ele>97</ele>
        <time>2018-04-18T10:08:56Z</time>
      </trkpt>
      <trkpt lat="47.28699" lon="1.81498">
        <ele>97</ele>
        <time>2018-04-18T10:08:57Z</time>
      </trkpt>
      <trkpt lat="47.287" lon="1.81493">
        <ele>97</ele>
        <time>2018-04-18T10:08:59Z</time>
      </trkpt>
      <trkpt lat="47.28701" lon="1.8149">
        <ele>97</ele>
        <time>2018-04-18T10:09:00Z</time>
      </trkpt>
      <trkpt lat="47.28704" lon="1.81478">
        <ele>98</ele>
        <time>2018-04-18T10:09:04Z</time>
      </trkpt>
      <trkpt lat="47.28705" lon="1.81475">
        <ele>98</ele>
        <time>2018-04-18T10:09:05Z</time>
      </trkpt>
      <trkpt lat="47.28706" lon="1.81473">
        <ele>98</ele>
        <time>2018-04-18T10:09:06Z</time>
      </trkpt>
      <trkpt lat="47.28707" lon="1.81463">
        <ele>98</ele>
        <time>2018-04-18T10:09:09Z</time>
      </trkpt>
      <trkpt lat="47.2871" lon="1.81454">
        <ele>98</ele>
        <time>2018-04-18T10:09:12Z</time>
      </trkpt>
      <trkpt lat="47.28718" lon="1.81418">
        <ele>99</ele>
        <time>2018-04-18T10:09:22Z</time>
      </trkpt>
      <trkpt lat="47.28721" lon="1.81397">
        <ele>98</ele>
        <time>2018-04-18T10:09:27Z</time>
      </trkpt>
      <trkpt lat="47.28735" lon="1.81319">
        <ele>98</ele>
        <time>2018-04-18T10:09:46Z</time>
      </trkpt>
      <trkpt lat="47.2874" lon="1.81289">
        <ele>97</ele>
        <time>2018-04-18T10:09:53Z</time>
      </trkpt>
      <trkpt lat="47.28742" lon="1.8128">
        <ele>97</ele>
        <time>2018-04-18T10:09:55Z</time>
      </trkpt>
      <trkpt lat="47.28748" lon="1.81239">
        <ele>98</ele>
        <time>2018-04-18T10:10:04Z</time>
      </trkpt>
      <trkpt lat="47.28751" lon="1.81222">
        <ele>103</ele>
        <time>2018-04-18T10:10:07Z</time>
      </trkpt>
      <trkpt lat="47.2876" lon="1.81142">
        <ele>100</ele>
        <time>2018-04-18T10:10:24Z</time>
      </trkpt>
      <trkpt lat="47.28765" lon="1.81107">
        <ele>100</ele>
        <time>2018-04-18T10:10:35Z</time>
      </trkpt>
      <trkpt lat="47.28765" lon="1.81105">
        <ele>100</ele>
        <time>2018-04-18T10:10:36Z</time>
      </trkpt>
      <trkpt lat="47.28766" lon="1.81099">
        <ele>100</ele>
        <time>2018-04-18T10:10:38Z</time>
      </trkpt>
      <trkpt lat="47.28767" lon="1.81097">
        <ele>100</ele>
        <time>2018-04-18T10:10:39Z</time>
      </trkpt>
      <trkpt lat="47.28771" lon="1.81073">
        <ele>98</ele>
        <time>2018-04-18T10:10:47Z</time>
      </trkpt>
      <trkpt lat="47.28775" lon="1.81051">
        <ele>99</ele>
        <time>2018-04-18T10:10:54Z</time>
      </trkpt>
      <trkpt lat="47.28776" lon="1.81047">
        <ele>99</ele>
        <time>2018-04-18T10:10:55Z</time>
      </trkpt>
      <trkpt lat="47.28777" lon="1.81041">
        <ele>99</ele>
        <time>2018-04-18T10:10:57Z</time>
      </trkpt>
      <trkpt lat="47.28781" lon="1.81015">
        <ele>98</ele>
        <time>2018-04-18T10:11:05Z</time>
      </trkpt>
      <trkpt lat="47.28784" lon="1.80993">
        <ele>97</ele>
        <time>2018-04-18T10:11:17Z</time>
      </trkpt>
      <trkpt lat="47.28784" lon="1.80993">
        <ele>97</ele>
        <time>2018-04-18T10:11:18Z</time>
      </trkpt>
      <trkpt lat="47.28784" lon="1.80993">
        <ele>97</ele>
        <time>2018-04-18T10:11:28Z</time>
      </trkpt>
      <trkpt lat="47.28784" lon="1.80993">
        <ele>97</ele>
        <time>2018-04-18T10:11:29Z</time>
      </trkpt>
      <trkpt lat="47.28784" lon="1.8099">
        <ele>97</ele>
        <time>2018-04-18T10:11:33Z</time>
      </trkpt>
      <trkpt lat="47.28786" lon="1.80983">
        <ele>97</ele>
        <time>2018-04-18T10:11:50Z</time>
      </trkpt>
      <trkpt lat="47.28785" lon="1.80982">
        <ele>97</ele>
        <time>2018-04-18T10:11:53Z</time>
      </trkpt>
      <trkpt lat="47.28785" lon="1.80982">
        <ele>97</ele>
        <time>2018-04-18T10:11:54Z</time>
      </trkpt>
      <trkpt lat="47.28785" lon="1.80982">
        <ele>97</ele>
        <time>2018-04-18T10:11:55Z</time>
      </trkpt>
      <trkpt lat="47.28784" lon="1.80981">
        <ele>97</ele>
        <time>2018-04-18T10:12:01Z</time>
      </trkpt>
      <trkpt lat="47.28787" lon="1.80978">
        <ele>97</ele>
        <time>2018-04-18T10:12:11Z</time>
      </trkpt>
      <trkpt lat="47.28785" lon="1.80976">
        <ele>97</ele>
        <time>2018-04-18T10:12:16Z</time>
      </trkpt>
      <trkpt lat="47.28784" lon="1.80971">
        <ele>97</ele>
        <time>2018-04-18T10:12:20Z</time>
      </trkpt>
      <trkpt lat="47.28784" lon="1.8096">
        <ele>97</ele>
        <time>2018-04-18T10:12:24Z</time>
      </trkpt>
      <trkpt lat="47.28788" lon="1.80932">
        <ele>97</ele>
        <time>2018-04-18T10:12:30Z</time>
      </trkpt>
      <trkpt lat="47.28788" lon="1.80925">
        <ele>97</ele>
        <time>2018-04-18T10:12:32Z</time>
      </trkpt>
      <trkpt lat="47.28788" lon="1.80921">
        <ele>97</ele>
        <time>2018-04-18T10:12:33Z</time>
      </trkpt>
      <trkpt lat="47.28788" lon="1.80918">
        <ele>97</ele>
        <time>2018-04-18T10:12:34Z</time>
      </trkpt>
      <trkpt lat="47.28789" lon="1.80913">
        <ele>96</ele>
        <time>2018-04-18T10:12:35Z</time>
      </trkpt>
      <trkpt lat="47.28793" lon="1.80875">
        <ele>96</ele>
        <time>2018-04-18T10:12:43Z</time>
      </trkpt>
      <trkpt lat="47.28794" lon="1.80863">
        <ele>96</ele>
        <time>2018-04-18T10:12:45Z</time>
      </trkpt>
      <trkpt lat="47.28795" lon="1.80846">
        <ele>96</ele>
        <time>2018-04-18T10:12:48Z</time>
      </trkpt>
      <trkpt lat="47.28798" lon="1.80818">
        <ele>95</ele>
        <time>2018-04-18T10:12:54Z</time>
      </trkpt>
      <trkpt lat="47.28806" lon="1.80765">
        <ele>95</ele>
        <time>2018-04-18T10:13:05Z</time>
      </trkpt>
      <trkpt lat="47.28808" lon="1.80748">
        <ele>93</ele>
        <time>2018-04-18T10:13:08Z</time>
      </trkpt>
      <trkpt lat="47.28811" lon="1.80727">
        <ele>93</ele>
        <time>2018-04-18T10:13:12Z</time>
      </trkpt>
      <trkpt lat="47.28819" lon="1.80678">
        <ele>93</ele>
        <time>2018-04-18T10:13:22Z</time>
      </trkpt>
      <trkpt lat="47.28822" lon="1.80643">
        <ele>93</ele>
        <time>2018-04-18T10:13:33Z</time>
      </trkpt>
      <trkpt lat="47.28827" lon="1.80584">
        <ele>95</ele>
        <time>2018-04-18T10:13:48Z</time>
      </trkpt>
      <trkpt lat="47.28827" lon="1.8058">
        <ele>95</ele>
        <time>2018-04-18T10:13:49Z</time>
      </trkpt>
      <trkpt lat="47.28828" lon="1.80576">
        <ele>95</ele>
        <time>2018-04-18T10:13:50Z</time>
      </trkpt>
      <trkpt lat="47.28832" lon="1.8055">
        <ele>94</ele>
        <time>2018-04-18T10:13:57Z</time>
      </trkpt>
      <trkpt lat="47.28837" lon="1.80496">
        <ele>97</ele>
        <time>2018-04-18T10:14:11Z</time>
      </trkpt>
      <trkpt lat="47.28841" lon="1.80485">
        <ele>97</ele>
        <time>2018-04-18T10:14:14Z</time>
      </trkpt>
      <trkpt lat="47.28845" lon="1.80466">
        <ele>98</ele>
        <time>2018-04-18T10:14:19Z</time>
      </trkpt>
      <trkpt lat="47.28851" lon="1.80449">
        <ele>98</ele>
        <time>2018-04-18T10:14:24Z</time>
      </trkpt>
      <trkpt lat="47.28861" lon="1.80408">
        <ele>97</ele>
        <time>2018-04-18T10:14:35Z</time>
      </trkpt>
      <trkpt lat="47.28864" lon="1.80395">
        <ele>98</ele>
        <time>2018-04-18T10:14:38Z</time>
      </trkpt>
      <trkpt lat="47.28875" lon="1.80357">
        <ele>99</ele>
        <time>2018-04-18T10:14:48Z</time>
      </trkpt>
      <trkpt lat="47.28886" lon="1.80279">
        <ele>99</ele>
        <time>2018-04-18T10:15:03Z</time>
      </trkpt>
      <trkpt lat="47.28893" lon="1.80231">
        <ele>98</ele>
        <time>2018-04-18T10:15:12Z</time>
      </trkpt>
      <trkpt lat="47.2891" lon="1.8015">
        <ele>97</ele>
        <time>2018-04-18T10:15:27Z</time>
      </trkpt>
      <trkpt lat="47.28923" lon="1.80079">
        <ele>98</ele>
        <time>2018-04-18T10:15:38Z</time>
      </trkpt>
      <trkpt lat="47.28939" lon="1.80001">
        <ele>99</ele>
        <time>2018-04-18T10:15:51Z</time>
      </trkpt>
      <trkpt lat="47.28943" lon="1.79984">
        <ele>98</ele>
        <time>2018-04-18T10:15:54Z</time>
      </trkpt>
      <trkpt lat="47.28958" lon="1.7991">
        <ele>97</ele>
        <time>2018-04-18T10:16:08Z</time>
      </trkpt>
      <trkpt lat="47.28974" lon="1.79836">
        <ele>98</ele>
        <time>2018-04-18T10:16:23Z</time>
      </trkpt>
      <trkpt lat="47.28977" lon="1.79829">
        <ele>97</ele>
        <time>2018-04-18T10:16:25Z</time>
      </trkpt>
      <trkpt lat="47.28983" lon="1.79794">
        <ele>97</ele>
        <time>2018-04-18T10:16:32Z</time>
      </trkpt>
      <trkpt lat="47.28997" lon="1.79717">
        <ele>96</ele>
        <time>2018-04-18T10:16:49Z</time>
      </trkpt>
      <trkpt lat="47.29015" lon="1.79641">
        <ele>98</ele>
        <time>2018-04-18T10:17:04Z</time>
      </trkpt>
      <trkpt lat="47.29017" lon="1.79618">
        <ele>98</ele>
        <time>2018-04-18T10:17:08Z</time>
      </trkpt>
      <trkpt lat="47.29021" lon="1.79595">
        <ele>97</ele>
        <time>2018-04-18T10:17:12Z</time>
      </trkpt>
      <trkpt lat="47.29038" lon="1.79518">
        <ele>95</ele>
        <time>2018-04-18T10:17:25Z</time>
      </trkpt>
      <trkpt lat="47.29042" lon="1.79494">
        <ele>94</ele>
        <time>2018-04-18T10:17:29Z</time>
      </trkpt>
      <trkpt lat="47.29044" lon="1.79483">
        <ele>94</ele>
        <time>2018-04-18T10:17:31Z</time>
      </trkpt>
      <trkpt lat="47.29049" lon="1.7945">
        <ele>94</ele>
        <time>2018-04-18T10:17:43Z</time>
      </trkpt>
      <trkpt lat="47.29049" lon="1.79449">
        <ele>94</ele>
        <time>2018-04-18T10:17:44Z</time>
      </trkpt>
      <trkpt lat="47.29049" lon="1.7944">
        <ele>94</ele>
        <time>2018-04-18T10:17:51Z</time>
      </trkpt>
      <trkpt lat="47.29055" lon="1.79415">
        <ele>94</ele>
        <time>2018-04-18T10:18:10Z</time>
      </trkpt>
      <trkpt lat="47.29073" lon="1.79335">
        <ele>95</ele>
        <time>2018-04-18T10:18:39Z</time>
      </trkpt>
      <trkpt lat="47.29077" lon="1.79304">
        <ele>94</ele>
        <time>2018-04-18T10:18:48Z</time>
      </trkpt>
      <trkpt lat="47.29083" lon="1.79285">
        <ele>94</ele>
        <time>2018-04-18T10:18:54Z</time>
      </trkpt>
      <trkpt lat="47.29087" lon="1.79268">
        <ele>96</ele>
        <time>2018-04-18T10:18:59Z</time>
      </trkpt>
      <trkpt lat="47.29089" lon="1.79261">
        <ele>96</ele>
        <time>2018-04-18T10:19:01Z</time>
      </trkpt>
      <trkpt lat="47.29098" lon="1.79216">
        <ele>96</ele>
        <time>2018-04-18T10:19:13Z</time>
      </trkpt>
      <trkpt lat="47.29098" lon="1.79212">
        <ele>96</ele>
        <time>2018-04-18T10:19:14Z</time>
      </trkpt>
      <trkpt lat="47.291" lon="1.79204">
        <ele>95</ele>
        <time>2018-04-18T10:19:16Z</time>
      </trkpt>
      <trkpt lat="47.29114" lon="1.79128">
        <ele>94</ele>
        <time>2018-04-18T10:19:34Z</time>
      </trkpt>
      <trkpt lat="47.29116" lon="1.7912">
        <ele>94</ele>
        <time>2018-04-18T10:19:36Z</time>
      </trkpt>
      <trkpt lat="47.29119" lon="1.79112">
        <ele>94</ele>
        <time>2018-04-18T10:19:38Z</time>
      </trkpt>
      <trkpt lat="47.2915" lon="1.79058">
        <ele>94</ele>
        <time>2018-04-18T10:19:53Z</time>
      </trkpt>
      <trkpt lat="47.29178" lon="1.79006">
        <ele>96</ele>
        <time>2018-04-18T10:20:08Z</time>
      </trkpt>
      <trkpt lat="47.29193" lon="1.78928">
        <ele>97</ele>
        <time>2018-04-18T10:20:25Z</time>
      </trkpt>
      <trkpt lat="47.29191" lon="1.7888">
        <ele>96</ele>
        <time>2018-04-18T10:20:34Z</time>
      </trkpt>
      <trkpt lat="47.29199" lon="1.78799">
        <ele>95</ele>
        <time>2018-04-18T10:20:47Z</time>
      </trkpt>
      <trkpt lat="47.292" lon="1.78781">
        <ele>95</ele>
        <time>2018-04-18T10:20:50Z</time>
      </trkpt>
      <trkpt lat="47.29203" lon="1.78713">
        <ele>94</ele>
        <time>2018-04-18T10:21:02Z</time>
      </trkpt>
      <trkpt lat="47.2921" lon="1.78644">
        <ele>93</ele>
        <time>2018-04-18T10:21:14Z</time>
      </trkpt>
      <trkpt lat="47.29221" lon="1.78566">
        <ele>93</ele>
        <time>2018-04-18T10:21:29Z</time>
      </trkpt>
      <trkpt lat="47.29228" lon="1.78554">
        <ele>93</ele>
        <time>2018-04-18T10:21:33Z</time>
      </trkpt>
      <trkpt lat="47.29234" lon="1.78546">
        <ele>93</ele>
        <time>2018-04-18T10:21:39Z</time>
      </trkpt>
      <trkpt lat="47.29236" lon="1.78502">
        <ele>93</ele>
        <time>2018-04-18T10:21:48Z</time>
      </trkpt>
      <trkpt lat="47.29241" lon="1.78467">
        <ele>92</ele>
        <time>2018-04-18T10:21:54Z</time>
      </trkpt>
      <trkpt lat="47.29246" lon="1.78438">
        <ele>93</ele>
        <time>2018-04-18T10:21:59Z</time>
      </trkpt>
      <trkpt lat="47.29263" lon="1.78357">
        <ele>97</ele>
        <time>2018-04-18T10:22:14Z</time>
      </trkpt>
      <trkpt lat="47.29278" lon="1.78283">
        <ele>97</ele>
        <time>2018-04-18T10:22:27Z</time>
      </trkpt>
      <trkpt lat="47.29293" lon="1.78206">
        <ele>96</ele>
        <time>2018-04-18T10:22:39Z</time>
      </trkpt>
      <trkpt lat="47.29296" lon="1.78192">
        <ele>96</ele>
        <time>2018-04-18T10:22:41Z</time>
      </trkpt>
      <trkpt lat="47.29299" lon="1.78177">
        <ele>96</ele>
        <time>2018-04-18T10:22:43Z</time>
      </trkpt>
      <trkpt lat="47.29314" lon="1.78099">
        <ele>96</ele>
        <time>2018-04-18T10:22:55Z</time>
      </trkpt>
      <trkpt lat="47.29323" lon="1.78057">
        <ele>95</ele>
        <time>2018-04-18T10:23:01Z</time>
      </trkpt>
      <trkpt lat="47.29334" lon="1.7799">
        <ele>97</ele>
        <time>2018-04-18T10:23:12Z</time>
      </trkpt>
      <trkpt lat="47.29345" lon="1.77938">
        <ele>98</ele>
        <time>2018-04-18T10:23:20Z</time>
      </trkpt>
      <trkpt lat="47.29361" lon="1.77859">
        <ele>99</ele>
        <time>2018-04-18T10:23:32Z</time>
      </trkpt>
      <trkpt lat="47.29362" lon="1.77853">
        <ele>99</ele>
        <time>2018-04-18T10:23:33Z</time>
      </trkpt>
      <trkpt lat="47.29378" lon="1.77776">
        <ele>100</ele>
        <time>2018-04-18T10:23:45Z</time>
      </trkpt>
      <trkpt lat="47.2939" lon="1.77713">
        <ele>100</ele>
        <time>2018-04-18T10:23:59Z</time>
      </trkpt>
      <trkpt lat="47.29404" lon="1.77635">
        <ele>99</ele>
        <time>2018-04-18T10:24:14Z</time>
      </trkpt>
      <trkpt lat="47.29412" lon="1.77598">
        <ele>100</ele>
        <time>2018-04-18T10:24:22Z</time>
      </trkpt>
      <trkpt lat="47.29365" lon="1.77592">
        <ele>97</ele>
        <time>2018-04-18T10:24:34Z</time>
      </trkpt>
      <trkpt lat="47.29352" lon="1.77589">
        <ele>96</ele>
        <time>2018-04-18T10:24:39Z</time>
      </trkpt>
      <trkpt lat="47.29351" lon="1.77564">
        <ele>96</ele>
        <time>2018-04-18T10:24:50Z</time>
      </trkpt>
      <trkpt lat="47.29354" lon="1.77589">
        <ele>96</ele>
        <time>2018-04-18T10:25:10Z</time>
      </trkpt>
      <trkpt lat="47.29354" lon="1.77589">
        <ele>96</ele>
        <time>2018-04-18T10:25:16Z</time>
      </trkpt>
      <trkpt lat="47.29354" lon="1.77589">
        <ele>96</ele>
        <time>2018-04-18T10:25:25Z</time>
      </trkpt>
      <trkpt lat="47.29354" lon="1.77587">
        <ele>96</ele>
        <time>2018-04-18T10:25:36Z</time>
      </trkpt>
      <trkpt lat="47.29354" lon="1.7758">
        <ele>96</ele>
        <time>2018-04-18T10:25:40Z</time>
      </trkpt>
      <trkpt lat="47.29352" lon="1.77549">
        <ele>96</ele>
        <time>2018-04-18T10:25:48Z</time>
      </trkpt>
      <trkpt lat="47.29352" lon="1.77543">
        <ele>96</ele>
        <time>2018-04-18T10:25:49Z</time>
      </trkpt>
      <trkpt lat="47.29352" lon="1.77537">
        <ele>96</ele>
        <time>2018-04-18T10:25:50Z</time>
      </trkpt>
      <trkpt lat="47.29351" lon="1.77512">
        <ele>96</ele>
        <time>2018-04-18T10:25:54Z</time>
      </trkpt>
      <trkpt lat="47.2935" lon="1.77501">
        <ele>96</ele>
        <time>2018-04-18T10:25:56Z</time>
      </trkpt>
      <trkpt lat="47.29349" lon="1.7747">
        <ele>96</ele>
        <time>2018-04-18T10:26:02Z</time>
      </trkpt>
      <trkpt lat="47.29348" lon="1.77416">
        <ele>96</ele>
        <time>2018-04-18T10:26:12Z</time>
      </trkpt>
      <trkpt lat="47.29348" lon="1.77392">
        <ele>96</ele>
        <time>2018-04-18T10:26:17Z</time>
      </trkpt>
      <trkpt lat="47.29345" lon="1.77309">
        <ele>96</ele>
        <time>2018-04-18T10:26:33Z</time>
      </trkpt>
      <trkpt lat="47.29345" lon="1.77242">
        <ele>96</ele>
        <time>2018-04-18T10:26:46Z</time>
      </trkpt>
      <trkpt lat="47.29351" lon="1.77209">
        <ele>96</ele>
        <time>2018-04-18T10:26:52Z</time>
      </trkpt>
      <trkpt lat="47.29351" lon="1.77205">
        <ele>96</ele>
        <time>2018-04-18T10:26:53Z</time>
      </trkpt>
      <trkpt lat="47.29352" lon="1.77198">
        <ele>96</ele>
        <time>2018-04-18T10:26:56Z</time>
      </trkpt>
      <trkpt lat="47.29351" lon="1.77195">
        <ele>96</ele>
        <time>2018-04-18T10:26:57Z</time>
      </trkpt>
      <trkpt lat="47.2935" lon="1.77192">
        <ele>96</ele>
        <time>2018-04-18T10:26:59Z</time>
      </trkpt>
      <trkpt lat="47.29349" lon="1.77191">
        <ele>96</ele>
        <time>2018-04-18T10:27:00Z</time>
      </trkpt>
      <trkpt lat="47.29343" lon="1.7719">
        <ele>95</ele>
        <time>2018-04-18T10:27:03Z</time>
      </trkpt>
      <trkpt lat="47.29333" lon="1.77193">
        <ele>92</ele>
        <time>2018-04-18T10:27:10Z</time>
      </trkpt>
      <trkpt lat="47.29334" lon="1.77193">
        <ele>95</ele>
        <time>2018-04-18T10:46:15Z</time>
      </trkpt>
      <trkpt lat="47.29334" lon="1.77193">
        <ele>95</ele>
        <time>2018-04-18T10:46:15Z</time>
      </trkpt>
      <trkpt lat="47.29265" lon="1.77194">
        <ele>90</ele>
        <time>2018-04-18T10:46:57Z</time>
      </trkpt>
      <trkpt lat="47.29267" lon="1.77194">
        <ele>90</ele>
        <time>2018-04-18T10:47:24Z</time>
      </trkpt>
      <trkpt lat="47.2926" lon="1.77192">
        <ele>90</ele>
        <time>2018-04-18T10:47:32Z</time>
      </trkpt>
      <trkpt lat="47.29244" lon="1.77185">
        <ele>87</ele>
        <time>2018-04-18T10:47:42Z</time>
      </trkpt>
      <trkpt lat="47.29227" lon="1.77179">
        <ele>87</ele>
        <time>2018-04-18T10:47:49Z</time>
      </trkpt>
      <trkpt lat="47.29226" lon="1.77171">
        <ele>87</ele>
        <time>2018-04-18T10:47:52Z</time>
      </trkpt>
      <trkpt lat="47.29226" lon="1.77165">
        <ele>87</ele>
        <time>2018-04-18T10:47:54Z</time>
      </trkpt>
      <trkpt lat="47.29226" lon="1.77161">
        <ele>87</ele>
        <time>2018-04-18T10:47:55Z</time>
      </trkpt>
      <trkpt lat="47.29226" lon="1.77155">
        <ele>87</ele>
        <time>2018-04-18T10:47:56Z</time>
      </trkpt>
      <trkpt lat="47.29227" lon="1.77139">
        <ele>87</ele>
        <time>2018-04-18T10:47:59Z</time>
      </trkpt>
      <trkpt lat="47.29228" lon="1.7712">
        <ele>87</ele>
        <time>2018-04-18T10:48:01Z</time>
      </trkpt>
      <trkpt lat="47.2923" lon="1.7709">
        <ele>87</ele>
        <time>2018-04-18T10:48:07Z</time>
      </trkpt>
      <trkpt lat="47.29231" lon="1.77063">
        <ele>87</ele>
        <time>2018-04-18T10:48:12Z</time>
      </trkpt>
      <trkpt lat="47.2924" lon="1.76981">
        <ele>88</ele>
        <time>2018-04-18T10:48:29Z</time>
      </trkpt>
      <trkpt lat="47.29242" lon="1.76945">
        <ele>88</ele>
        <time>2018-04-18T10:49:09Z</time>
      </trkpt>
      <trkpt lat="47.29242" lon="1.76945">
        <ele>88</ele>
        <time>2018-04-18T10:49:13Z</time>
      </trkpt>
      <trkpt lat="47.29243" lon="1.76945">
        <ele>88</ele>
        <time>2018-04-18T10:49:16Z</time>
      </trkpt>
      <trkpt lat="47.29243" lon="1.76945">
        <ele>88</ele>
        <time>2018-04-18T10:49:30Z</time>
      </trkpt>
      <trkpt lat="47.29243" lon="1.76945">
        <ele>88</ele>
        <time>2018-04-18T10:49:33Z</time>
      </trkpt>
      <trkpt lat="47.29243" lon="1.76945">
        <ele>88</ele>
        <time>2018-04-18T10:49:36Z</time>
      </trkpt>
      <trkpt lat="47.29243" lon="1.76945">
        <ele>88</ele>
        <time>2018-04-18T10:49:37Z</time>
      </trkpt>
      <trkpt lat="47.29243" lon="1.76946">
        <ele>88</ele>
        <time>2018-04-18T10:49:55Z</time>
      </trkpt>
      <trkpt lat="47.29243" lon="1.76949">
        <ele>88</ele>
        <time>2018-04-18T10:50:05Z</time>
      </trkpt>
      <trkpt lat="47.29243" lon="1.76949">
        <ele>88</ele>
        <time>2018-04-18T10:50:07Z</time>
      </trkpt>
      <trkpt lat="47.29243" lon="1.76949">
        <ele>88</ele>
        <time>2018-04-18T10:50:10Z</time>
      </trkpt>
      <trkpt lat="47.29243" lon="1.76949">
        <ele>88</ele>
        <time>2018-04-18T10:50:13Z</time>
      </trkpt>
      <trkpt lat="47.29243" lon="1.76948">
        <ele>88</ele>
        <time>2018-04-18T10:50:14Z</time>
      </trkpt>
      <trkpt lat="47.29243" lon="1.76943">
        <ele>88</ele>
        <time>2018-04-18T10:50:17Z</time>
      </trkpt>
      <trkpt lat="47.29243" lon="1.76942">
        <ele>88</ele>
        <time>2018-04-18T10:50:18Z</time>
      </trkpt>
      <trkpt lat="47.29242" lon="1.76941">
        <ele>88</ele>
        <time>2018-04-18T10:50:19Z</time>
      </trkpt>
      <trkpt lat="47.29241" lon="1.76941">
        <ele>88</ele>
        <time>2018-04-18T10:50:20Z</time>
      </trkpt>
      <trkpt lat="47.29235" lon="1.76941">
        <ele>88</ele>
        <time>2018-04-18T10:50:23Z</time>
      </trkpt>
      <trkpt lat="47.2922" lon="1.76944">
        <ele>87</ele>
        <time>2018-04-18T10:50:28Z</time>
      </trkpt>
      <trkpt lat="47.2921" lon="1.76945">
        <ele>87</ele>
        <time>2018-04-18T10:50:31Z</time>
      </trkpt>
      <trkpt lat="47.29155" lon="1.76945">
        <ele>86</ele>
        <time>2018-04-18T10:50:55Z</time>
      </trkpt>
      <trkpt lat="47.29163" lon="1.76887">
        <ele>87</ele>
        <time>2018-04-18T10:51:07Z</time>
      </trkpt>
      <trkpt lat="47.29172" lon="1.76842">
        <ele>87</ele>
        <time>2018-04-18T10:51:19Z</time>
      </trkpt>
      <trkpt lat="47.29187" lon="1.76838">
        <ele>87</ele>
        <time>2018-04-18T10:51:30Z</time>
      </trkpt>
      <trkpt lat="47.29193" lon="1.76824">
        <ele>87</ele>
        <time>2018-04-18T10:51:35Z</time>
      </trkpt>
      <trkpt lat="47.29203" lon="1.76806">
        <ele>87</ele>
        <time>2018-04-18T10:51:41Z</time>
      </trkpt>
      <trkpt lat="47.29206" lon="1.76794">
        <ele>87</ele>
        <time>2018-04-18T10:51:44Z</time>
      </trkpt>
      <trkpt lat="47.29208" lon="1.76784">
        <ele>87</ele>
        <time>2018-04-18T10:51:46Z</time>
      </trkpt>
      <trkpt lat="47.29208" lon="1.7678">
        <ele>87</ele>
        <time>2018-04-18T10:51:47Z</time>
      </trkpt>
      <trkpt lat="47.29209" lon="1.76765">
        <ele>88</ele>
        <time>2018-04-18T10:52:09Z</time>
      </trkpt>
      <trkpt lat="47.29212" lon="1.76743">
        <ele>88</ele>
        <time>2018-04-18T10:52:20Z</time>
      </trkpt>
      <trkpt lat="47.29212" lon="1.76714">
        <ele>88</ele>
        <time>2018-04-18T10:52:27Z</time>
      </trkpt>
      <trkpt lat="47.29211" lon="1.76687">
        <ele>88</ele>
        <time>2018-04-18T10:52:34Z</time>
      </trkpt>
      <trkpt lat="47.29211" lon="1.76683">
        <ele>88</ele>
        <time>2018-04-18T10:52:35Z</time>
      </trkpt>
      <trkpt lat="47.29211" lon="1.7668">
        <ele>88</ele>
        <time>2018-04-18T10:52:36Z</time>
      </trkpt>
      <trkpt lat="47.29211" lon="1.76676">
        <ele>88</ele>
        <time>2018-04-18T10:52:37Z</time>
      </trkpt>
      <trkpt lat="47.2921" lon="1.76661">
        <ele>87</ele>
        <time>2018-04-18T10:52:41Z</time>
      </trkpt>
      <trkpt lat="47.29206" lon="1.76579">
        <ele>86</ele>
        <time>2018-04-18T10:53:03Z</time>
      </trkpt>
      <trkpt lat="47.29205" lon="1.76557">
        <ele>86</ele>
        <time>2018-04-18T10:53:09Z</time>
      </trkpt>
      <trkpt lat="47.29203" lon="1.76524">
        <ele>86</ele>
        <time>2018-04-18T10:53:17Z</time>
      </trkpt>
      <trkpt lat="47.29195" lon="1.76449">
        <ele>87</ele>
        <time>2018-04-18T10:53:36Z</time>
      </trkpt>
      <trkpt lat="47.29188" lon="1.7641">
        <ele>88</ele>
        <time>2018-04-18T10:53:46Z</time>
      </trkpt>
      <trkpt lat="47.29173" lon="1.76331">
        <ele>88</ele>
        <time>2018-04-18T10:54:06Z</time>
      </trkpt>
      <trkpt lat="47.29168" lon="1.76309">
        <ele>88</ele>
        <time>2018-04-18T10:54:11Z</time>
      </trkpt>
      <trkpt lat="47.29156" lon="1.76257">
        <ele>87</ele>
        <time>2018-04-18T10:54:23Z</time>
      </trkpt>
      <trkpt lat="47.29141" lon="1.76189">
        <ele>88</ele>
        <time>2018-04-18T10:54:38Z</time>
      </trkpt>
      <trkpt lat="47.29133" lon="1.76159">
        <ele>90</ele>
        <time>2018-04-18T10:54:46Z</time>
      </trkpt>
      <trkpt lat="47.29114" lon="1.76083">
        <ele>92</ele>
        <time>2018-04-18T10:55:04Z</time>
      </trkpt>
      <trkpt lat="47.2909" lon="1.76011">
        <ele>90</ele>
        <time>2018-04-18T10:55:22Z</time>
      </trkpt>
      <trkpt lat="47.29083" lon="1.75926">
        <ele>89</ele>
        <time>2018-04-18T10:55:38Z</time>
      </trkpt>
      <trkpt lat="47.29074" lon="1.75893">
        <ele>89</ele>
        <time>2018-04-18T10:55:45Z</time>
      </trkpt>
      <trkpt lat="47.29056" lon="1.75817">
        <ele>91</ele>
        <time>2018-04-18T10:56:01Z</time>
      </trkpt>
      <trkpt lat="47.29042" lon="1.75778">
        <ele>90</ele>
        <time>2018-04-18T10:56:10Z</time>
      </trkpt>
      <trkpt lat="47.29037" lon="1.7575">
        <ele>91</ele>
        <time>2018-04-18T10:56:16Z</time>
      </trkpt>
      <trkpt lat="47.29027" lon="1.75671">
        <ele>91</ele>
        <time>2018-04-18T10:56:32Z</time>
      </trkpt>
      <trkpt lat="47.29024" lon="1.75646">
        <ele>91</ele>
        <time>2018-04-18T10:56:37Z</time>
      </trkpt>
      <trkpt lat="47.29014" lon="1.75572">
        <ele>91</ele>
        <time>2018-04-18T10:56:53Z</time>
      </trkpt>
      <trkpt lat="47.29013" lon="1.75567">
        <ele>91</ele>
        <time>2018-04-18T10:56:54Z</time>
      </trkpt>
      <trkpt lat="47.29" lon="1.7549">
        <ele>89</ele>
        <time>2018-04-18T10:57:10Z</time>
      </trkpt>
      <trkpt lat="47.2899" lon="1.75425">
        <ele>88</ele>
        <time>2018-04-18T10:57:24Z</time>
      </trkpt>
      <trkpt lat="47.2898" lon="1.7537">
        <ele>88</ele>
        <time>2018-04-18T10:57:36Z</time>
      </trkpt>
      <trkpt lat="47.28976" lon="1.75343">
        <ele>89</ele>
        <time>2018-04-18T10:57:43Z</time>
      </trkpt>
      <trkpt lat="47.28973" lon="1.7532">
        <ele>89</ele>
        <time>2018-04-18T10:57:52Z</time>
      </trkpt>
      <trkpt lat="47.28973" lon="1.75319">
        <ele>89</ele>
        <time>2018-04-18T10:57:53Z</time>
      </trkpt>
      <trkpt lat="47.28974" lon="1.7532">
        <ele>89</ele>
        <time>2018-04-18T10:58:02Z</time>
      </trkpt>
      <trkpt lat="47.28974" lon="1.75319">
        <ele>89</ele>
        <time>2018-04-18T10:58:09Z</time>
      </trkpt>
      <trkpt lat="47.28973" lon="1.75319">
        <ele>89</ele>
        <time>2018-04-18T10:58:15Z</time>
      </trkpt>
      <trkpt lat="47.28973" lon="1.75321">
        <ele>89</ele>
        <time>2018-04-18T10:58:51Z</time>
      </trkpt>
      <trkpt lat="47.28973" lon="1.75321">
        <ele>89</ele>
        <time>2018-04-18T10:58:52Z</time>
      </trkpt>
      <trkpt lat="47.28973" lon="1.75321">
        <ele>89</ele>
        <time>2018-04-18T10:58:53Z</time>
      </trkpt>
      <trkpt lat="47.28973" lon="1.75321">
        <ele>89</ele>
        <time>2018-04-18T10:58:54Z</time>
      </trkpt>
      <trkpt lat="47.28973" lon="1.75321">
        <ele>89</ele>
        <time>2018-04-18T10:58:55Z</time>
      </trkpt>
      <trkpt lat="47.28973" lon="1.75321">
        <ele>89</ele>
        <time>2018-04-18T10:58:56Z</time>
      </trkpt>
      <trkpt lat="47.28973" lon="1.75321">
        <ele>89</ele>
        <time>2018-04-18T10:58:59Z</time>
      </trkpt>
      <trkpt lat="47.28971" lon="1.75314">
        <ele>89</ele>
        <time>2018-04-18T10:59:25Z</time>
      </trkpt>
      <trkpt lat="47.28966" lon="1.7528">
        <ele>89</ele>
        <time>2018-04-18T10:59:39Z</time>
      </trkpt>
      <trkpt lat="47.28968" lon="1.75279">
        <ele>89</ele>
        <time>2018-04-18T10:59:44Z</time>
      </trkpt>
      <trkpt lat="47.28968" lon="1.7528">
        <ele>89</ele>
        <time>2018-04-18T10:59:46Z</time>
      </trkpt>
      <trkpt lat="47.28967" lon="1.75281">
        <ele>89</ele>
        <time>2018-04-18T10:59:48Z</time>
      </trkpt>
      <trkpt lat="47.28967" lon="1.75281">
        <ele>89</ele>
        <time>2018-04-18T10:59:50Z</time>
      </trkpt>
      <trkpt lat="47.28967" lon="1.75281">
        <ele>89</ele>
        <time>2018-04-18T10:59:53Z</time>
      </trkpt>
      <trkpt lat="47.28967" lon="1.75281">
        <ele>89</ele>
        <time>2018-04-18T10:59:55Z</time>
      </trkpt>
      <trkpt lat="47.28967" lon="1.75281">
        <ele>89</ele>
        <time>2018-04-18T10:59:57Z</time>
      </trkpt>
      <trkpt lat="47.28966" lon="1.75281">
        <ele>89</ele>
        <time>2018-04-18T10:59:59Z</time>
      </trkpt>
      <trkpt lat="47.28966" lon="1.7528">
        <ele>89</ele>
        <time>2018-04-18T11:00:01Z</time>
      </trkpt>
      <trkpt lat="47.28965" lon="1.75272">
        <ele>89</ele>
        <time>2018-04-18T11:00:05Z</time>
      </trkpt>
      <trkpt lat="47.28964" lon="1.75264">
        <ele>89</ele>
        <time>2018-04-18T11:00:08Z</time>
      </trkpt>
      <trkpt lat="47.2896" lon="1.75223">
        <ele>89</ele>
        <time>2018-04-18T11:00:19Z</time>
      </trkpt>
      <trkpt lat="47.28956" lon="1.75203">
        <ele>88</ele>
        <time>2018-04-18T11:00:25Z</time>
      </trkpt>
      <trkpt lat="47.28955" lon="1.75193">
        <ele>88</ele>
        <time>2018-04-18T11:00:28Z</time>
      </trkpt>
      <trkpt lat="47.28954" lon="1.75185">
        <ele>88</ele>
        <time>2018-04-18T11:00:30Z</time>
      </trkpt>
      <trkpt lat="47.28952" lon="1.75178">
        <ele>88</ele>
        <time>2018-04-18T11:00:32Z</time>
      </trkpt>
      <trkpt lat="47.28949" lon="1.75163">
        <ele>89</ele>
        <time>2018-04-18T11:00:36Z</time>
      </trkpt>
      <trkpt lat="47.28944" lon="1.75132">
        <ele>89</ele>
        <time>2018-04-18T11:00:44Z</time>
      </trkpt>
      <trkpt lat="47.28943" lon="1.75125">
        <ele>89</ele>
        <time>2018-04-18T11:00:46Z</time>
      </trkpt>
      <trkpt lat="47.28932" lon="1.75069">
        <ele>90</ele>
        <time>2018-04-18T11:01:02Z</time>
      </trkpt>
      <trkpt lat="47.28931" lon="1.75054">
        <ele>90</ele>
        <time>2018-04-18T11:01:06Z</time>
      </trkpt>
      <trkpt lat="47.28929" lon="1.75045">
        <ele>91</ele>
        <time>2018-04-18T11:01:09Z</time>
      </trkpt>
      <trkpt lat="47.28922" lon="1.7502">
        <ele>90</ele>
        <time>2018-04-18T11:01:17Z</time>
      </trkpt>
      <trkpt lat="47.28918" lon="1.75006">
        <ele>90</ele>
        <time>2018-04-18T11:01:21Z</time>
      </trkpt>
      <trkpt lat="47.28913" lon="1.74989">
        <ele>88</ele>
        <time>2018-04-18T11:01:26Z</time>
      </trkpt>
      <trkpt lat="47.28912" lon="1.74981">
        <ele>88</ele>
        <time>2018-04-18T11:01:28Z</time>
      </trkpt>
      <trkpt lat="47.28912" lon="1.74974">
        <ele>88</ele>
        <time>2018-04-18T11:01:30Z</time>
      </trkpt>
      <trkpt lat="47.28906" lon="1.74935">
        <ele>88</ele>
        <time>2018-04-18T11:01:41Z</time>
      </trkpt>
      <trkpt lat="47.28905" lon="1.74931">
        <ele>88</ele>
        <time>2018-04-18T11:01:42Z</time>
      </trkpt>
      <trkpt lat="47.28899" lon="1.74896">
        <ele>89</ele>
        <time>2018-04-18T11:01:52Z</time>
      </trkpt>
      <trkpt lat="47.28894" lon="1.7486">
        <ele>89</ele>
        <time>2018-04-18T11:02:02Z</time>
      </trkpt>
      <trkpt lat="47.28881" lon="1.74782">
        <ele>90</ele>
        <time>2018-04-18T11:02:23Z</time>
      </trkpt>
      <trkpt lat="47.28878" lon="1.74768">
        <ele>90</ele>
        <time>2018-04-18T11:02:27Z</time>
      </trkpt>
      <trkpt lat="47.28875" lon="1.74749">
        <ele>91</ele>
        <time>2018-04-18T11:02:32Z</time>
      </trkpt>
      <trkpt lat="47.28875" lon="1.74741">
        <ele>91</ele>
        <time>2018-04-18T11:02:34Z</time>
      </trkpt>
      <trkpt lat="47.28868" lon="1.74678">
        <ele>92</ele>
        <time>2018-04-18T11:02:54Z</time>
      </trkpt>
      <trkpt lat="47.28866" lon="1.74661">
        <ele>92</ele>
        <time>2018-04-18T11:03:03Z</time>
      </trkpt>
      <trkpt lat="47.28865" lon="1.74656">
        <ele>92</ele>
        <time>2018-04-18T11:03:07Z</time>
      </trkpt>
      <trkpt lat="47.28863" lon="1.74593">
        <ele>91</ele>
        <time>2018-04-18T11:03:23Z</time>
      </trkpt>
      <trkpt lat="47.28862" lon="1.74589">
        <ele>91</ele>
        <time>2018-04-18T11:03:24Z</time>
      </trkpt>
      <trkpt lat="47.28861" lon="1.74585">
        <ele>91</ele>
        <time>2018-04-18T11:03:25Z</time>
      </trkpt>
      <trkpt lat="47.28852" lon="1.74535">
        <ele>89</ele>
        <time>2018-04-18T11:03:38Z</time>
      </trkpt>
      <trkpt lat="47.28837" lon="1.74479">
        <ele>88</ele>
        <time>2018-04-18T11:03:52Z</time>
      </trkpt>
      <trkpt lat="47.28835" lon="1.74472">
        <ele>88</ele>
        <time>2018-04-18T11:03:54Z</time>
      </trkpt>
      <trkpt lat="47.28834" lon="1.74468">
        <ele>88</ele>
        <time>2018-04-18T11:03:55Z</time>
      </trkpt>
      <trkpt lat="47.28833" lon="1.74465">
        <ele>86</ele>
        <time>2018-04-18T11:03:56Z</time>
      </trkpt>
      <trkpt lat="47.28832" lon="1.74461">
        <ele>86</ele>
        <time>2018-04-18T11:03:57Z</time>
      </trkpt>
      <trkpt lat="47.28828" lon="1.74451">
        <ele>86</ele>
        <time>2018-04-18T11:04:00Z</time>
      </trkpt>
      <trkpt lat="47.28817" lon="1.74421">
        <ele>87</ele>
        <time>2018-04-18T11:04:09Z</time>
      </trkpt>
      <trkpt lat="47.28813" lon="1.74411">
        <ele>88</ele>
        <time>2018-04-18T11:04:12Z</time>
      </trkpt>
      <trkpt lat="47.2881" lon="1.74401">
        <ele>88</ele>
        <time>2018-04-18T11:04:15Z</time>
      </trkpt>
      <trkpt lat="47.28788" lon="1.74344">
        <ele>88</ele>
        <time>2018-04-18T11:04:33Z</time>
      </trkpt>
      <trkpt lat="47.28771" lon="1.74295">
        <ele>90</ele>
        <time>2018-04-18T11:04:48Z</time>
      </trkpt>
      <trkpt lat="47.28763" lon="1.74277">
        <ele>90</ele>
        <time>2018-04-18T11:04:54Z</time>
      </trkpt>
      <trkpt lat="47.28746" lon="1.74233">
        <ele>89</ele>
        <time>2018-04-18T11:05:08Z</time>
      </trkpt>
      <trkpt lat="47.28721" lon="1.7416">
        <ele>91</ele>
        <time>2018-04-18T11:05:30Z</time>
      </trkpt>
      <trkpt lat="47.28713" lon="1.74129">
        <ele>91</ele>
        <time>2018-04-18T11:05:39Z</time>
      </trkpt>
      <trkpt lat="47.28712" lon="1.74122">
        <ele>91</ele>
        <time>2018-04-18T11:05:41Z</time>
      </trkpt>
      <trkpt lat="47.28708" lon="1.74101">
        <ele>91</ele>
        <time>2018-04-18T11:05:47Z</time>
      </trkpt>
      <trkpt lat="47.28705" lon="1.74087">
        <ele>91</ele>
        <time>2018-04-18T11:05:51Z</time>
      </trkpt>
      <trkpt lat="47.28703" lon="1.7408">
        <ele>91</ele>
        <time>2018-04-18T11:05:53Z</time>
      </trkpt>
      <trkpt lat="47.28688" lon="1.74004">
        <ele>90</ele>
        <time>2018-04-18T11:06:15Z</time>
      </trkpt>
      <trkpt lat="47.2867" lon="1.73927">
        <ele>89</ele>
        <time>2018-04-18T11:06:37Z</time>
      </trkpt>
      <trkpt lat="47.28654" lon="1.73849">
        <ele>88</ele>
        <time>2018-04-18T11:07:01Z</time>
      </trkpt>
      <trkpt lat="47.28641" lon="1.73785">
        <ele>88</ele>
        <time>2018-04-18T11:07:19Z</time>
      </trkpt>
      <trkpt lat="47.28638" lon="1.73771">
        <ele>89</ele>
        <time>2018-04-18T11:07:23Z</time>
      </trkpt>
      <trkpt lat="47.2863" lon="1.73742">
        <ele>89</ele>
        <time>2018-04-18T11:08:03Z</time>
      </trkpt>
      <trkpt lat="47.28618" lon="1.73699">
        <ele>89</ele>
        <time>2018-04-18T11:08:19Z</time>
      </trkpt>
      <trkpt lat="47.28618" lon="1.73695">
        <ele>89</ele>
        <time>2018-04-18T11:08:20Z</time>
      </trkpt>
      <trkpt lat="47.28618" lon="1.73692">
        <ele>89</ele>
        <time>2018-04-18T11:08:21Z</time>
      </trkpt>
      <trkpt lat="47.28616" lon="1.73683">
        <ele>89</ele>
        <time>2018-04-18T11:08:23Z</time>
      </trkpt>
      <trkpt lat="47.28612" lon="1.73669">
        <ele>89</ele>
        <time>2018-04-18T11:08:27Z</time>
      </trkpt>
      <trkpt lat="47.28611" lon="1.73666">
        <ele>90</ele>
        <time>2018-04-18T11:08:28Z</time>
      </trkpt>
      <trkpt lat="47.28609" lon="1.73659">
        <ele>90</ele>
        <time>2018-04-18T11:08:30Z</time>
      </trkpt>
      <trkpt lat="47.28607" lon="1.73577">
        <ele>92</ele>
        <time>2018-04-18T11:08:52Z</time>
      </trkpt>
      <trkpt lat="47.28593" lon="1.73509">
        <ele>91</ele>
        <time>2018-04-18T11:09:08Z</time>
      </trkpt>
      <trkpt lat="47.28568" lon="1.73464">
        <ele>88</ele>
        <time>2018-04-18T11:09:21Z</time>
      </trkpt>
      <trkpt lat="47.28555" lon="1.73428">
        <ele>88</ele>
        <time>2018-04-18T11:09:30Z</time>
      </trkpt>
      <trkpt lat="47.28554" lon="1.73418">
        <ele>88</ele>
        <time>2018-04-18T11:09:33Z</time>
      </trkpt>
      <trkpt lat="47.28553" lon="1.73411">
        <ele>89</ele>
        <time>2018-04-18T11:09:35Z</time>
      </trkpt>
      <trkpt lat="47.28548" lon="1.73396">
        <ele>89</ele>
        <time>2018-04-18T11:09:52Z</time>
      </trkpt>
      <trkpt lat="47.28539" lon="1.73314">
        <ele>89</ele>
        <time>2018-04-18T11:10:13Z</time>
      </trkpt>
      <trkpt lat="47.28539" lon="1.73301">
        <ele>89</ele>
        <time>2018-04-18T11:10:15Z</time>
      </trkpt>
      <trkpt lat="47.28558" lon="1.73253">
        <ele>90</ele>
        <time>2018-04-18T11:10:43Z</time>
      </trkpt>
      <trkpt lat="47.28558" lon="1.73255">
        <ele>90</ele>
        <time>2018-04-18T11:10:46Z</time>
      </trkpt>
      <trkpt lat="47.28558" lon="1.73255">
        <ele>90</ele>
        <time>2018-04-18T11:10:47Z</time>
      </trkpt>
      <trkpt lat="47.28558" lon="1.73255">
        <ele>90</ele>
        <time>2018-04-18T11:10:48Z</time>
      </trkpt>
      <trkpt lat="47.28558" lon="1.73256">
        <ele>90</ele>
        <time>2018-04-18T11:10:50Z</time>
      </trkpt>
      <trkpt lat="47.28557" lon="1.73257">
        <ele>90</ele>
        <time>2018-04-18T11:10:54Z</time>
      </trkpt>
      <trkpt lat="47.28565" lon="1.73256">
        <ele>90</ele>
        <time>2018-04-18T11:11:14Z</time>
      </trkpt>
      <trkpt lat="47.28573" lon="1.73254">
        <ele>91</ele>
        <time>2018-04-18T11:11:18Z</time>
      </trkpt>
      <trkpt lat="47.28591" lon="1.73247">
        <ele>92</ele>
        <time>2018-04-18T11:11:27Z</time>
      </trkpt>
      <trkpt lat="47.28592" lon="1.73245">
        <ele>92</ele>
        <time>2018-04-18T11:11:28Z</time>
      </trkpt>
      <trkpt lat="47.28591" lon="1.7324">
        <ele>92</ele>
        <time>2018-04-18T11:11:30Z</time>
      </trkpt>
      <trkpt lat="47.28581" lon="1.73218">
        <ele>90</ele>
        <time>2018-04-18T11:11:37Z</time>
      </trkpt>
      <trkpt lat="47.28574" lon="1.73191">
        <ele>90</ele>
        <time>2018-04-18T11:11:46Z</time>
      </trkpt>
      <trkpt lat="47.28571" lon="1.73174">
        <ele>91</ele>
        <time>2018-04-18T11:11:52Z</time>
      </trkpt>
      <trkpt lat="47.28564" lon="1.7315">
        <ele>92</ele>
        <time>2018-04-18T11:11:59Z</time>
      </trkpt>
      <trkpt lat="47.28558" lon="1.73128">
        <ele>92</ele>
        <time>2018-04-18T11:12:05Z</time>
      </trkpt>
      <trkpt lat="47.28554" lon="1.73107">
        <ele>92</ele>
        <time>2018-04-18T11:12:10Z</time>
      </trkpt>
      <trkpt lat="47.28552" lon="1.73098">
        <ele>92</ele>
        <time>2018-04-18T11:12:12Z</time>
      </trkpt>
      <trkpt lat="47.28532" lon="1.7302">
        <ele>93</ele>
        <time>2018-04-18T11:12:30Z</time>
      </trkpt>
      <trkpt lat="47.28528" lon="1.73002">
        <ele>93</ele>
        <time>2018-04-18T11:12:34Z</time>
      </trkpt>
      <trkpt lat="47.28516" lon="1.72946">
        <ele>94</ele>
        <time>2018-04-18T11:12:47Z</time>
      </trkpt>
      <trkpt lat="47.28511" lon="1.72917">
        <ele>95</ele>
        <time>2018-04-18T11:12:53Z</time>
      </trkpt>
      <trkpt lat="47.28507" lon="1.72881">
        <ele>95</ele>
        <time>2018-04-18T11:13:01Z</time>
      </trkpt>
      <trkpt lat="47.28507" lon="1.72866">
        <ele>95</ele>
        <time>2018-04-18T11:13:09Z</time>
      </trkpt>
      <trkpt lat="47.28501" lon="1.72851">
        <ele>95</ele>
        <time>2018-04-18T11:13:16Z</time>
      </trkpt>
      <trkpt lat="47.28499" lon="1.72845">
        <ele>95</ele>
        <time>2018-04-18T11:13:18Z</time>
      </trkpt>
      <trkpt lat="47.28496" lon="1.72839">
        <ele>95</ele>
        <time>2018-04-18T11:13:20Z</time>
      </trkpt>
      <trkpt lat="47.28495" lon="1.72836">
        <ele>95</ele>
        <time>2018-04-18T11:13:21Z</time>
      </trkpt>
      <trkpt lat="47.28493" lon="1.72831">
        <ele>95</ele>
        <time>2018-04-18T11:13:23Z</time>
      </trkpt>
      <trkpt lat="47.28474" lon="1.72777">
        <ele>94</ele>
        <time>2018-04-18T11:13:42Z</time>
      </trkpt>
      <trkpt lat="47.28445" lon="1.72708">
        <ele>94</ele>
        <time>2018-04-18T11:13:57Z</time>
      </trkpt>
      <trkpt lat="47.2842" lon="1.72638">
        <ele>95</ele>
        <time>2018-04-18T11:14:13Z</time>
      </trkpt>
      <trkpt lat="47.28407" lon="1.72593">
        <ele>93</ele>
        <time>2018-04-18T11:14:23Z</time>
      </trkpt>
      <trkpt lat="47.28387" lon="1.72515">
        <ele>93</ele>
        <time>2018-04-18T11:14:38Z</time>
      </trkpt>
      <trkpt lat="47.28384" lon="1.72499">
        <ele>93</ele>
        <time>2018-04-18T11:14:41Z</time>
      </trkpt>
      <trkpt lat="47.28381" lon="1.72488">
        <ele>93</ele>
        <time>2018-04-18T11:14:43Z</time>
      </trkpt>
      <trkpt lat="47.28378" lon="1.72479">
        <ele>93</ele>
        <time>2018-04-18T11:14:45Z</time>
      </trkpt>
      <trkpt lat="47.28351" lon="1.72409">
        <ele>92</ele>
        <time>2018-04-18T11:15:00Z</time>
      </trkpt>
      <trkpt lat="47.2832" lon="1.72343">
        <ele>90</ele>
        <time>2018-04-18T11:15:14Z</time>
      </trkpt>
      <trkpt lat="47.28302" lon="1.72311">
        <ele>90</ele>
        <time>2018-04-18T11:15:21Z</time>
      </trkpt>
      <trkpt lat="47.28299" lon="1.72306">
        <ele>90</ele>
        <time>2018-04-18T11:15:22Z</time>
      </trkpt>
      <trkpt lat="47.28296" lon="1.723">
        <ele>90</ele>
        <time>2018-04-18T11:15:23Z</time>
      </trkpt>
      <trkpt lat="47.28261" lon="1.72237">
        <ele>89</ele>
        <time>2018-04-18T11:15:37Z</time>
      </trkpt>
      <trkpt lat="47.28253" lon="1.72212">
        <ele>90</ele>
        <time>2018-04-18T11:15:43Z</time>
      </trkpt>
      <trkpt lat="47.28244" lon="1.72187">
        <ele>88</ele>
        <time>2018-04-18T11:15:51Z</time>
      </trkpt>
      <trkpt lat="47.28231" lon="1.72145">
        <ele>89</ele>
        <time>2018-04-18T11:15:59Z</time>
      </trkpt>
      <trkpt lat="47.28218" lon="1.72121">
        <ele>89</ele>
        <time>2018-04-18T11:16:03Z</time>
      </trkpt>
      <trkpt lat="47.28177" lon="1.72066">
        <ele>90</ele>
        <time>2018-04-18T11:16:15Z</time>
      </trkpt>
      <trkpt lat="47.28152" lon="1.72035">
        <ele>89</ele>
        <time>2018-04-18T11:16:22Z</time>
      </trkpt>
      <trkpt lat="47.28109" lon="1.71984">
        <ele>91</ele>
        <time>2018-04-18T11:16:38Z</time>
      </trkpt>
      <trkpt lat="47.28104" lon="1.71978">
        <ele>90</ele>
        <time>2018-04-18T11:16:43Z</time>
      </trkpt>
      <trkpt lat="47.28102" lon="1.71979">
        <ele>90</ele>
        <time>2018-04-18T11:16:51Z</time>
      </trkpt>
      <trkpt lat="47.28073" lon="1.71921">
        <ele>90</ele>
        <time>2018-04-18T11:17:16Z</time>
      </trkpt>
      <trkpt lat="47.2807" lon="1.71917">
        <ele>89</ele>
        <time>2018-04-18T11:17:17Z</time>
      </trkpt>
      <trkpt lat="47.28067" lon="1.71912">
        <ele>91</ele>
        <time>2018-04-18T11:17:18Z</time>
      </trkpt>
      <trkpt lat="47.28053" lon="1.71906">
        <ele>90</ele>
        <time>2018-04-18T11:17:22Z</time>
      </trkpt>
      <trkpt lat="47.28049" lon="1.71905">
        <ele>90</ele>
        <time>2018-04-18T11:17:23Z</time>
      </trkpt>
      <trkpt lat="47.2804" lon="1.71901">
        <ele>90</ele>
        <time>2018-04-18T11:17:25Z</time>
      </trkpt>
      <trkpt lat="47.28023" lon="1.71887">
        <ele>90</ele>
        <time>2018-04-18T11:17:29Z</time>
      </trkpt>
      <trkpt lat="47.28008" lon="1.71867">
        <ele>91</ele>
        <time>2018-04-18T11:17:34Z</time>
      </trkpt>
      <trkpt lat="47.28005" lon="1.71863">
        <ele>91</ele>
        <time>2018-04-18T11:17:35Z</time>
      </trkpt>
      <trkpt lat="47.27996" lon="1.71852">
        <ele>91</ele>
        <time>2018-04-18T11:17:38Z</time>
      </trkpt>
      <trkpt lat="47.27969" lon="1.71814">
        <ele>94</ele>
        <time>2018-04-18T11:17:48Z</time>
      </trkpt>
      <trkpt lat="47.27926" lon="1.71759">
        <ele>95</ele>
        <time>2018-04-18T11:18:02Z</time>
      </trkpt>
      <trkpt lat="47.27898" lon="1.71717">
        <ele>92</ele>
        <time>2018-04-18T11:18:11Z</time>
      </trkpt>
      <trkpt lat="47.2787" lon="1.71678">
        <ele>90</ele>
        <time>2018-04-18T11:18:19Z</time>
      </trkpt>
      <trkpt lat="47.27862" lon="1.71655">
        <ele>90</ele>
        <time>2018-04-18T11:18:25Z</time>
      </trkpt>
      <trkpt lat="47.27868" lon="1.71646">
        <ele>90</ele>
        <time>2018-04-18T11:18:29Z</time>
      </trkpt>
      <trkpt lat="47.27872" lon="1.71643">
        <ele>90</ele>
        <time>2018-04-18T11:18:31Z</time>
      </trkpt>
      <trkpt lat="47.27898" lon="1.71613">
        <ele>91</ele>
        <time>2018-04-18T11:18:47Z</time>
      </trkpt>
      <trkpt lat="47.27903" lon="1.71606">
        <ele>92</ele>
        <time>2018-04-18T11:18:51Z</time>
      </trkpt>
      <trkpt lat="47.27905" lon="1.71602">
        <ele>92</ele>
        <time>2018-04-18T11:18:53Z</time>
      </trkpt>
      <trkpt lat="47.27908" lon="1.71598">
        <ele>92</ele>
        <time>2018-04-18T11:18:55Z</time>
      </trkpt>
      <trkpt lat="47.2791" lon="1.71595">
        <ele>92</ele>
        <time>2018-04-18T11:18:57Z</time>
      </trkpt>
      <trkpt lat="47.27915" lon="1.71588">
        <ele>93</ele>
        <time>2018-04-18T11:19:00Z</time>
      </trkpt>
      <trkpt lat="47.27949" lon="1.71541">
        <ele>94</ele>
        <time>2018-04-18T11:19:17Z</time>
      </trkpt>
      <trkpt lat="47.27987" lon="1.7148">
        <ele>95</ele>
        <time>2018-04-18T11:19:34Z</time>
      </trkpt>
      <trkpt lat="47.27988" lon="1.71471">
        <ele>95</ele>
        <time>2018-04-18T11:19:37Z</time>
      </trkpt>
      <trkpt lat="47.27954" lon="1.7142">
        <ele>96</ele>
        <time>2018-04-18T11:19:50Z</time>
      </trkpt>
      <trkpt lat="47.27913" lon="1.71363">
        <ele>98</ele>
        <time>2018-04-18T11:20:05Z</time>
      </trkpt>
      <trkpt lat="47.2787" lon="1.71313">
        <ele>98</ele>
        <time>2018-04-18T11:20:18Z</time>
      </trkpt>
      <trkpt lat="47.27866" lon="1.7131">
        <ele>98</ele>
        <time>2018-04-18T11:20:19Z</time>
      </trkpt>
      <trkpt lat="47.2784" lon="1.71301">
        <ele>98</ele>
        <time>2018-04-18T11:20:25Z</time>
      </trkpt>
      <trkpt lat="47.27836" lon="1.713">
        <ele>98</ele>
        <time>2018-04-18T11:20:26Z</time>
      </trkpt>
      <trkpt lat="47.27813" lon="1.71282">
        <ele>96</ele>
        <time>2018-04-18T11:20:32Z</time>
      </trkpt>
      <trkpt lat="47.27801" lon="1.71262">
        <ele>96</ele>
        <time>2018-04-18T11:20:36Z</time>
      </trkpt>
      <trkpt lat="47.27781" lon="1.71207">
        <ele>96</ele>
        <time>2018-04-18T11:20:46Z</time>
      </trkpt>
      <trkpt lat="47.27779" lon="1.71201">
        <ele>96</ele>
        <time>2018-04-18T11:20:47Z</time>
      </trkpt>
      <trkpt lat="47.27777" lon="1.71195">
        <ele>96</ele>
        <time>2018-04-18T11:20:48Z</time>
      </trkpt>
      <trkpt lat="47.27775" lon="1.71189">
        <ele>96</ele>
        <time>2018-04-18T11:20:49Z</time>
      </trkpt>
      <trkpt lat="47.27773" lon="1.71184">
        <ele>96</ele>
        <time>2018-04-18T11:20:50Z</time>
      </trkpt>
      <trkpt lat="47.2777" lon="1.71178">
        <ele>96</ele>
        <time>2018-04-18T11:20:51Z</time>
      </trkpt>
      <trkpt lat="47.27747" lon="1.71129">
        <ele>95</ele>
        <time>2018-04-18T11:21:00Z</time>
      </trkpt>
      <trkpt lat="47.27708" lon="1.71073">
        <ele>95</ele>
        <time>2018-04-18T11:21:11Z</time>
      </trkpt>
      <trkpt lat="47.27694" lon="1.71054">
        <ele>95</ele>
        <time>2018-04-18T11:21:15Z</time>
      </trkpt>
      <trkpt lat="47.27678" lon="1.7103">
        <ele>95</ele>
        <time>2018-04-18T11:21:20Z</time>
      </trkpt>
      <trkpt lat="47.27643" lon="1.70967">
        <ele>93</ele>
        <time>2018-04-18T11:21:31Z</time>
      </trkpt>
      <trkpt lat="47.27632" lon="1.70937">
        <ele>93</ele>
        <time>2018-04-18T11:21:36Z</time>
      </trkpt>
      <trkpt lat="47.27627" lon="1.70918">
        <ele>93</ele>
        <time>2018-04-18T11:21:39Z</time>
      </trkpt>
      <trkpt lat="47.27613" lon="1.70854">
        <ele>94</ele>
        <time>2018-04-18T11:21:50Z</time>
      </trkpt>
      <trkpt lat="47.27609" lon="1.70834">
        <ele>94</ele>
        <time>2018-04-18T11:21:53Z</time>
      </trkpt>
      <trkpt lat="47.27593" lon="1.70754">
        <ele>95</ele>
        <time>2018-04-18T11:22:05Z</time>
      </trkpt>
      <trkpt lat="47.27584" lon="1.70694">
        <ele>96</ele>
        <time>2018-04-18T11:22:41Z</time>
      </trkpt>
      <trkpt lat="47.27584" lon="1.70694">
        <ele>96</ele>
        <time>2018-04-18T11:22:42Z</time>
      </trkpt>
      <trkpt lat="47.27584" lon="1.70698">
        <ele>96</ele>
        <time>2018-04-18T11:22:57Z</time>
      </trkpt>
      <trkpt lat="47.27584" lon="1.70698">
        <ele>96</ele>
        <time>2018-04-18T11:23:07Z</time>
      </trkpt>
      <trkpt lat="47.27585" lon="1.70702">
        <ele>96</ele>
        <time>2018-04-18T11:23:10Z</time>
      </trkpt>
      <trkpt lat="47.27586" lon="1.70705">
        <ele>96</ele>
        <time>2018-04-18T11:23:19Z</time>
      </trkpt>
      <trkpt lat="47.27584" lon="1.70702">
        <ele>96</ele>
        <time>2018-04-18T11:23:21Z</time>
      </trkpt>
      <trkpt lat="47.27579" lon="1.70686">
        <ele>96</ele>
        <time>2018-04-18T11:23:27Z</time>
      </trkpt>
      <trkpt lat="47.27575" lon="1.70674">
        <ele>96</ele>
        <time>2018-04-18T11:23:30Z</time>
      </trkpt>
      <trkpt lat="47.27573" lon="1.7067">
        <ele>96</ele>
        <time>2018-04-18T11:23:31Z</time>
      </trkpt>
      <trkpt lat="47.27558" lon="1.70627">
        <ele>96</ele>
        <time>2018-04-18T11:23:39Z</time>
      </trkpt>
      <trkpt lat="47.2755" lon="1.70607">
        <ele>96</ele>
        <time>2018-04-18T11:23:43Z</time>
      </trkpt>
      <trkpt lat="47.27541" lon="1.7058">
        <ele>96</ele>
        <time>2018-04-18T11:23:48Z</time>
      </trkpt>
      <trkpt lat="47.27531" lon="1.70548">
        <ele>95</ele>
        <time>2018-04-18T11:23:54Z</time>
      </trkpt>
      <trkpt lat="47.27526" lon="1.70533">
        <ele>95</ele>
        <time>2018-04-18T11:23:57Z</time>
      </trkpt>
      <trkpt lat="47.27523" lon="1.70522">
        <ele>95</ele>
        <time>2018-04-18T11:23:59Z</time>
      </trkpt>
      <trkpt lat="47.2752" lon="1.70507">
        <ele>95</ele>
        <time>2018-04-18T11:24:06Z</time>
      </trkpt>
      <trkpt lat="47.27521" lon="1.70507">
        <ele>95</ele>
        <time>2018-04-18T11:24:07Z</time>
      </trkpt>
      <trkpt lat="47.27521" lon="1.70507">
        <ele>95</ele>
        <time>2018-04-18T11:24:09Z</time>
      </trkpt>
      <trkpt lat="47.27521" lon="1.70507">
        <ele>95</ele>
        <time>2018-04-18T11:24:10Z</time>
      </trkpt>
      <trkpt lat="47.27521" lon="1.70507">
        <ele>95</ele>
        <time>2018-04-18T11:24:11Z</time>
      </trkpt>
      <trkpt lat="47.27521" lon="1.70507">
        <ele>95</ele>
        <time>2018-04-18T11:24:12Z</time>
      </trkpt>
      <trkpt lat="47.27521" lon="1.70507">
        <ele>95</ele>
        <time>2018-04-18T11:24:13Z</time>
      </trkpt>
      <trkpt lat="47.27521" lon="1.70507">
        <ele>95</ele>
        <time>2018-04-18T11:24:14Z</time>
      </trkpt>
      <trkpt lat="47.27521" lon="1.70507">
        <ele>95</ele>
        <time>2018-04-18T11:24:15Z</time>
      </trkpt>
      <trkpt lat="47.27515" lon="1.70509">
        <ele>95</ele>
        <time>2018-04-18T11:24:24Z</time>
      </trkpt>
      <trkpt lat="47.27504" lon="1.70514">
        <ele>95</ele>
        <time>2018-04-18T11:24:32Z</time>
      </trkpt>
      <trkpt lat="47.27455" lon="1.70529">
        <ele>93</ele>
        <time>2018-04-18T11:24:43Z</time>
      </trkpt>
      <trkpt lat="47.27424" lon="1.70538">
        <ele>93</ele>
        <time>2018-04-18T11:24:48Z</time>
      </trkpt>
      <trkpt lat="47.2737" lon="1.70533">
        <ele>89</ele>
        <time>2018-04-18T11:24:55Z</time>
      </trkpt>
      <trkpt lat="47.27361" lon="1.70531">
        <ele>88</ele>
        <time>2018-04-18T11:24:56Z</time>
      </trkpt>
      <trkpt lat="47.27347" lon="1.70527">
        <ele>88</ele>
        <time>2018-04-18T11:24:58Z</time>
      </trkpt>
      <trkpt lat="47.27341" lon="1.70527">
        <ele>88</ele>
        <time>2018-04-18T11:24:59Z</time>
      </trkpt>
      <trkpt lat="47.27319" lon="1.7053">
        <ele>85</ele>
        <time>2018-04-18T11:25:07Z</time>
      </trkpt>
      <trkpt lat="47.2732" lon="1.7053">
        <ele>85</ele>
        <time>2018-04-18T11:25:13Z</time>
      </trkpt>
      <trkpt lat="47.27299" lon="1.70536">
        <ele>84</ele>
        <time>2018-04-18T11:25:22Z</time>
      </trkpt>
      <trkpt lat="47.27284" lon="1.7053">
        <ele>84</ele>
        <time>2018-04-18T11:25:25Z</time>
      </trkpt>
      <trkpt lat="47.27264" lon="1.70512">
        <ele>83</ele>
        <time>2018-04-18T11:25:44Z</time>
      </trkpt>
      <trkpt lat="47.27212" lon="1.70479">
        <ele>82</ele>
        <time>2018-04-18T11:26:01Z</time>
      </trkpt>
      <trkpt lat="47.2716" lon="1.70447">
        <ele>81</ele>
        <time>2018-04-18T11:26:15Z</time>
      </trkpt>
      <trkpt lat="47.27134" lon="1.70431">
        <ele>81</ele>
        <time>2018-04-18T11:26:22Z</time>
      </trkpt>
      <trkpt lat="47.27127" lon="1.70424">
        <ele>82</ele>
        <time>2018-04-18T11:26:24Z</time>
      </trkpt>
      <trkpt lat="47.27125" lon="1.70419">
        <ele>82</ele>
        <time>2018-04-18T11:26:25Z</time>
      </trkpt>
      <trkpt lat="47.27099" lon="1.70347">
        <ele>83</ele>
        <time>2018-04-18T11:26:39Z</time>
      </trkpt>
      <trkpt lat="47.27074" lon="1.70274">
        <ele>83</ele>
        <time>2018-04-18T11:26:51Z</time>
      </trkpt>
      <trkpt lat="47.2705" lon="1.70199">
        <ele>82</ele>
        <time>2018-04-18T11:27:03Z</time>
      </trkpt>
      <trkpt lat="47.27025" lon="1.70125">
        <ele>82</ele>
        <time>2018-04-18T11:27:15Z</time>
      </trkpt>
      <trkpt lat="47.27003" lon="1.70054">
        <ele>82</ele>
        <time>2018-04-18T11:27:26Z</time>
      </trkpt>
      <trkpt lat="47.27001" lon="1.70047">
        <ele>82</ele>
        <time>2018-04-18T11:27:27Z</time>
      </trkpt>
      <trkpt lat="47.26995" lon="1.70028">
        <ele>82</ele>
        <time>2018-04-18T11:27:30Z</time>
      </trkpt>
      <trkpt lat="47.26993" lon="1.70021">
        <ele>82</ele>
        <time>2018-04-18T11:27:31Z</time>
      </trkpt>
      <trkpt lat="47.26969" lon="1.69945">
        <ele>82</ele>
        <time>2018-04-18T11:27:42Z</time>
      </trkpt>
      <trkpt lat="47.2696" lon="1.69916">
        <ele>82</ele>
        <time>2018-04-18T11:27:46Z</time>
      </trkpt>
      <trkpt lat="47.2695" lon="1.69879">
        <ele>81</ele>
        <time>2018-04-18T11:27:51Z</time>
      </trkpt>
      <trkpt lat="47.26942" lon="1.69857">
        <ele>82</ele>
        <time>2018-04-18T11:27:54Z</time>
      </trkpt>
      <trkpt lat="47.26917" lon="1.69787">
        <ele>81</ele>
        <time>2018-04-18T11:28:04Z</time>
      </trkpt>
      <trkpt lat="47.26908" lon="1.69759">
        <ele>82</ele>
        <time>2018-04-18T11:28:08Z</time>
      </trkpt>
      <trkpt lat="47.26884" lon="1.69688">
        <ele>82</ele>
        <time>2018-04-18T11:28:18Z</time>
      </trkpt>
      <trkpt lat="47.26865" lon="1.69631">
        <ele>82</ele>
        <time>2018-04-18T11:28:26Z</time>
      </trkpt>
      <trkpt lat="47.26856" lon="1.69581">
        <ele>83</ele>
        <time>2018-04-18T11:28:33Z</time>
      </trkpt>
      <trkpt lat="47.26849" lon="1.69536">
        <ele>84</ele>
        <time>2018-04-18T11:28:39Z</time>
      </trkpt>
      <trkpt lat="47.26844" lon="1.69452">
        <ele>85</ele>
        <time>2018-04-18T11:28:50Z</time>
      </trkpt>
      <trkpt lat="47.26844" lon="1.69427">
        <ele>85</ele>
        <time>2018-04-18T11:28:53Z</time>
      </trkpt>
      <trkpt lat="47.26843" lon="1.69406">
        <ele>84</ele>
        <time>2018-04-18T11:28:56Z</time>
      </trkpt>
      <trkpt lat="47.26838" lon="1.69386">
        <ele>84</ele>
        <time>2018-04-18T11:28:59Z</time>
      </trkpt>
      <trkpt lat="47.26831" lon="1.69375">
        <ele>84</ele>
        <time>2018-04-18T11:29:01Z</time>
      </trkpt>
      <trkpt lat="47.2679" lon="1.69321">
        <ele>84</ele>
        <time>2018-04-18T11:29:11Z</time>
      </trkpt>
      <trkpt lat="47.26783" lon="1.69309">
        <ele>84</ele>
        <time>2018-04-18T11:29:13Z</time>
      </trkpt>
      <trkpt lat="47.26768" lon="1.69275">
        <ele>84</ele>
        <time>2018-04-18T11:29:18Z</time>
      </trkpt>
      <trkpt lat="47.26749" lon="1.69216">
        <ele>83</ele>
        <time>2018-04-18T11:29:26Z</time>
      </trkpt>
      <trkpt lat="47.26742" lon="1.69194">
        <ele>83</ele>
        <time>2018-04-18T11:29:29Z</time>
      </trkpt>
      <trkpt lat="47.26724" lon="1.69118">
        <ele>83</ele>
        <time>2018-04-18T11:29:39Z</time>
      </trkpt>
      <trkpt lat="47.26711" lon="1.69034">
        <ele>84</ele>
        <time>2018-04-18T11:29:49Z</time>
      </trkpt>
      <trkpt lat="47.26698" lon="1.68956">
        <ele>84</ele>
        <time>2018-04-18T11:29:58Z</time>
      </trkpt>
      <trkpt lat="47.2668" lon="1.68877">
        <ele>85</ele>
        <time>2018-04-18T11:30:08Z</time>
      </trkpt>
      <trkpt lat="47.26668" lon="1.68835">
        <ele>84</ele>
        <time>2018-04-18T11:30:15Z</time>
      </trkpt>
      <trkpt lat="47.26665" lon="1.68829">
        <ele>84</ele>
        <time>2018-04-18T11:30:16Z</time>
      </trkpt>
      <trkpt lat="47.26656" lon="1.68811">
        <ele>83</ele>
        <time>2018-04-18T11:30:19Z</time>
      </trkpt>
      <trkpt lat="47.26625" lon="1.68753">
        <ele>83</ele>
        <time>2018-04-18T11:30:29Z</time>
      </trkpt>
      <trkpt lat="47.26604" lon="1.68702">
        <ele>83</ele>
        <time>2018-04-18T11:30:37Z</time>
      </trkpt>
      <trkpt lat="47.26595" lon="1.68678">
        <ele>83</ele>
        <time>2018-04-18T11:30:41Z</time>
      </trkpt>
      <trkpt lat="47.2657" lon="1.68606">
        <ele>83</ele>
        <time>2018-04-18T11:30:55Z</time>
      </trkpt>
      <trkpt lat="47.26555" lon="1.6856">
        <ele>83</ele>
        <time>2018-04-18T11:31:03Z</time>
      </trkpt>
      <trkpt lat="47.26532" lon="1.68487">
        <ele>81</ele>
        <time>2018-04-18T11:31:14Z</time>
      </trkpt>
      <trkpt lat="47.26505" lon="1.68416">
        <ele>81</ele>
        <time>2018-04-18T11:31:25Z</time>
      </trkpt>
      <trkpt lat="47.26473" lon="1.68344">
        <ele>80</ele>
        <time>2018-04-18T11:31:37Z</time>
      </trkpt>
      <trkpt lat="47.26442" lon="1.6828">
        <ele>80</ele>
        <time>2018-04-18T11:31:49Z</time>
      </trkpt>
      <trkpt lat="47.26422" lon="1.68214">
        <ele>81</ele>
        <time>2018-04-18T11:32:07Z</time>
      </trkpt>
      <trkpt lat="47.26404" lon="1.68132">
        <ele>81</ele>
        <time>2018-04-18T11:32:19Z</time>
      </trkpt>
      <trkpt lat="47.26392" lon="1.6805">
        <ele>82</ele>
        <time>2018-04-18T11:32:31Z</time>
      </trkpt>
      <trkpt lat="47.26385" lon="1.67966">
        <ele>83</ele>
        <time>2018-04-18T11:32:43Z</time>
      </trkpt>
      <trkpt lat="47.26384" lon="1.67885">
        <ele>83</ele>
        <time>2018-04-18T11:32:54Z</time>
      </trkpt>
      <trkpt lat="47.26381" lon="1.67805">
        <ele>83</ele>
        <time>2018-04-18T11:33:05Z</time>
      </trkpt>
      <trkpt lat="47.26379" lon="1.6773">
        <ele>83</ele>
        <time>2018-04-18T11:33:15Z</time>
      </trkpt>
      <trkpt lat="47.2637" lon="1.67648">
        <ele>81</ele>
        <time>2018-04-18T11:33:26Z</time>
      </trkpt>
      <trkpt lat="47.2636" lon="1.67569">
        <ele>81</ele>
        <time>2018-04-18T11:33:36Z</time>
      </trkpt>
      <trkpt lat="47.26345" lon="1.67493">
        <ele>82</ele>
        <time>2018-04-18T11:33:46Z</time>
      </trkpt>
      <trkpt lat="47.26329" lon="1.67441">
        <ele>82</ele>
        <time>2018-04-18T11:33:53Z</time>
      </trkpt>
      <trkpt lat="47.26317" lon="1.67364">
        <ele>82</ele>
        <time>2018-04-18T11:34:03Z</time>
      </trkpt>
      <trkpt lat="47.26308" lon="1.67283">
        <ele>81</ele>
        <time>2018-04-18T11:34:14Z</time>
      </trkpt>
      <trkpt lat="47.26302" lon="1.67198">
        <ele>81</ele>
        <time>2018-04-18T11:34:25Z</time>
      </trkpt>
      <trkpt lat="47.26302" lon="1.67165">
        <ele>80</ele>
        <time>2018-04-18T11:34:29Z</time>
      </trkpt>
      <trkpt lat="47.26297" lon="1.6708">
        <ele>80</ele>
        <time>2018-04-18T11:34:40Z</time>
      </trkpt>
      <trkpt lat="47.26294" lon="1.67001">
        <ele>80</ele>
        <time>2018-04-18T11:34:50Z</time>
      </trkpt>
      <trkpt lat="47.26293" lon="1.6695">
        <ele>81</ele>
        <time>2018-04-18T11:34:57Z</time>
      </trkpt>
      <trkpt lat="47.26301" lon="1.66892">
        <ele>81</ele>
        <time>2018-04-18T11:35:06Z</time>
      </trkpt>
      <trkpt lat="47.26303" lon="1.66882">
        <ele>81</ele>
        <time>2018-04-18T11:35:08Z</time>
      </trkpt>
      <trkpt lat="47.26305" lon="1.66865">
        <ele>81</ele>
        <time>2018-04-18T11:35:14Z</time>
      </trkpt>
      <trkpt lat="47.26269" lon="1.66873">
        <ele>81</ele>
        <time>2018-04-18T11:35:25Z</time>
      </trkpt>
      <trkpt lat="47.26262" lon="1.66866">
        <ele>81</ele>
        <time>2018-04-18T11:35:27Z</time>
      </trkpt>
      <trkpt lat="47.26258" lon="1.66855">
        <ele>81</ele>
        <time>2018-04-18T11:35:29Z</time>
      </trkpt>
      <trkpt lat="47.26248" lon="1.66804">
        <ele>81</ele>
        <time>2018-04-18T11:35:37Z</time>
      </trkpt>
      <trkpt lat="47.26244" lon="1.66787">
        <ele>81</ele>
        <time>2018-04-18T11:35:40Z</time>
      </trkpt>
      <trkpt lat="47.26242" lon="1.66782">
        <ele>81</ele>
        <time>2018-04-18T11:35:41Z</time>
      </trkpt>
      <trkpt lat="47.26227" lon="1.66705">
        <ele>81</ele>
        <time>2018-04-18T11:35:55Z</time>
      </trkpt>
      <trkpt lat="47.26211" lon="1.66662">
        <ele>81</ele>
        <time>2018-04-18T11:36:03Z</time>
      </trkpt>
      <trkpt lat="47.26206" lon="1.66653">
        <ele>82</ele>
        <time>2018-04-18T11:36:05Z</time>
      </trkpt>
      <trkpt lat="47.26167" lon="1.66593">
        <ele>82</ele>
        <time>2018-04-18T11:36:18Z</time>
      </trkpt>
      <trkpt lat="47.26143" lon="1.66518">
        <ele>82</ele>
        <time>2018-04-18T11:36:30Z</time>
      </trkpt>
      <trkpt lat="47.26138" lon="1.66492">
        <ele>82</ele>
        <time>2018-04-18T11:36:34Z</time>
      </trkpt>
      <trkpt lat="47.26135" lon="1.6648">
        <ele>81</ele>
        <time>2018-04-18T11:36:36Z</time>
      </trkpt>
      <trkpt lat="47.26133" lon="1.66461">
        <ele>81</ele>
        <time>2018-04-18T11:36:39Z</time>
      </trkpt>
      <trkpt lat="47.2613" lon="1.66405">
        <ele>80</ele>
        <time>2018-04-18T11:36:47Z</time>
      </trkpt>
      <trkpt lat="47.26136" lon="1.6636">
        <ele>80</ele>
        <time>2018-04-18T11:36:54Z</time>
      </trkpt>
      <trkpt lat="47.2614" lon="1.66347">
        <ele>80</ele>
        <time>2018-04-18T11:36:56Z</time>
      </trkpt>
      <trkpt lat="47.26147" lon="1.66334">
        <ele>80</ele>
        <time>2018-04-18T11:36:58Z</time>
      </trkpt>
      <trkpt lat="47.26179" lon="1.66266">
        <ele>81</ele>
        <time>2018-04-18T11:37:11Z</time>
      </trkpt>
      <trkpt lat="47.2619" lon="1.66183">
        <ele>82</ele>
        <time>2018-04-18T11:37:25Z</time>
      </trkpt>
      <trkpt lat="47.26188" lon="1.66158">
        <ele>81</ele>
        <time>2018-04-18T11:37:30Z</time>
      </trkpt>
      <trkpt lat="47.26184" lon="1.66138">
        <ele>81</ele>
        <time>2018-04-18T11:37:33Z</time>
      </trkpt>
      <trkpt lat="47.26165" lon="1.66057">
        <ele>78</ele>
        <time>2018-04-18T11:37:45Z</time>
      </trkpt>
      <trkpt lat="47.2616" lon="1.66016">
        <ele>78</ele>
        <time>2018-04-18T11:37:51Z</time>
      </trkpt>
      <trkpt lat="47.26159" lon="1.65997">
        <ele>78</ele>
        <time>2018-04-18T11:37:54Z</time>
      </trkpt>
      <trkpt lat="47.26174" lon="1.6592">
        <ele>79</ele>
        <time>2018-04-18T11:38:06Z</time>
      </trkpt>
      <trkpt lat="47.26176" lon="1.65906">
        <ele>80</ele>
        <time>2018-04-18T11:38:08Z</time>
      </trkpt>
      <trkpt lat="47.26178" lon="1.65892">
        <ele>80</ele>
        <time>2018-04-18T11:38:10Z</time>
      </trkpt>
      <trkpt lat="47.26181" lon="1.65879">
        <ele>80</ele>
        <time>2018-04-18T11:38:12Z</time>
      </trkpt>
      <trkpt lat="47.2619" lon="1.65816">
        <ele>81</ele>
        <time>2018-04-18T11:38:22Z</time>
      </trkpt>
      <trkpt lat="47.26196" lon="1.6578">
        <ele>81</ele>
        <time>2018-04-18T11:38:33Z</time>
      </trkpt>
      <trkpt lat="47.26196" lon="1.65781">
        <ele>81</ele>
        <time>2018-04-18T11:38:57Z</time>
      </trkpt>
      <trkpt lat="47.26196" lon="1.65782">
        <ele>81</ele>
        <time>2018-04-18T11:39:11Z</time>
      </trkpt>
      <trkpt lat="47.26196" lon="1.65782">
        <ele>81</ele>
        <time>2018-04-18T11:39:20Z</time>
      </trkpt>
      <trkpt lat="47.26197" lon="1.65781">
        <ele>81</ele>
        <time>2018-04-18T11:39:29Z</time>
      </trkpt>
      <trkpt lat="47.26198" lon="1.6578">
        <ele>81</ele>
        <time>2018-04-18T11:39:38Z</time>
      </trkpt>
      <trkpt lat="47.26198" lon="1.65779">
        <ele>81</ele>
        <time>2018-04-18T11:39:44Z</time>
      </trkpt>
      <trkpt lat="47.26197" lon="1.6578">
        <ele>81</ele>
        <time>2018-04-18T11:39:57Z</time>
      </trkpt>
      <trkpt lat="47.26197" lon="1.6578">
        <ele>81</ele>
        <time>2018-04-18T11:40:02Z</time>
      </trkpt>
      <trkpt lat="47.26197" lon="1.6578">
        <ele>81</ele>
        <time>2018-04-18T11:40:12Z</time>
      </trkpt>
      <trkpt lat="47.26197" lon="1.65779">
        <ele>81</ele>
        <time>2018-04-18T11:40:40Z</time>
      </trkpt>
      <trkpt lat="47.26197" lon="1.6578">
        <ele>81</ele>
        <time>2018-04-18T11:40:49Z</time>
      </trkpt>
      <trkpt lat="47.26197" lon="1.6578">
        <ele>81</ele>
        <time>2018-04-18T11:40:52Z</time>
      </trkpt>
      <trkpt lat="47.26197" lon="1.6578">
        <ele>81</ele>
        <time>2018-04-18T11:40:53Z</time>
      </trkpt>
      <trkpt lat="47.26197" lon="1.6578">
        <ele>81</ele>
        <time>2018-04-18T11:40:55Z</time>
      </trkpt>
      <trkpt lat="47.26197" lon="1.65779">
        <ele>81</ele>
        <time>2018-04-18T11:40:56Z</time>
      </trkpt>
      <trkpt lat="47.26197" lon="1.65779">
        <ele>81</ele>
        <time>2018-04-18T11:40:57Z</time>
      </trkpt>
      <trkpt lat="47.26197" lon="1.65779">
        <ele>81</ele>
        <time>2018-04-18T11:40:58Z</time>
      </trkpt>
      <trkpt lat="47.26197" lon="1.65777">
        <ele>81</ele>
        <time>2018-04-18T11:40:59Z</time>
      </trkpt>
      <trkpt lat="47.26197" lon="1.65774">
        <ele>81</ele>
        <time>2018-04-18T11:41:00Z</time>
      </trkpt>
      <trkpt lat="47.26196" lon="1.65772">
        <ele>81</ele>
        <time>2018-04-18T11:41:01Z</time>
      </trkpt>
      <trkpt lat="47.26191" lon="1.65766">
        <ele>81</ele>
        <time>2018-04-18T11:41:03Z</time>
      </trkpt>
      <trkpt lat="47.26184" lon="1.65762">
        <ele>81</ele>
        <time>2018-04-18T11:41:05Z</time>
      </trkpt>
      <trkpt lat="47.26176" lon="1.65758">
        <ele>81</ele>
        <time>2018-04-18T11:41:07Z</time>
      </trkpt>
      <trkpt lat="47.26167" lon="1.65754">
        <ele>81</ele>
        <time>2018-04-18T11:41:09Z</time>
      </trkpt>
      <trkpt lat="47.26149" lon="1.65744">
        <ele>81</ele>
        <time>2018-04-18T11:41:13Z</time>
      </trkpt>
      <trkpt lat="47.26135" lon="1.65736">
        <ele>80</ele>
        <time>2018-04-18T11:41:16Z</time>
      </trkpt>
      <trkpt lat="47.26126" lon="1.65732">
        <ele>80</ele>
        <time>2018-04-18T11:41:18Z</time>
      </trkpt>
      <trkpt lat="47.26104" lon="1.65719">
        <ele>80</ele>
        <time>2018-04-18T11:41:24Z</time>
      </trkpt>
      <trkpt lat="47.26096" lon="1.65715">
        <ele>80</ele>
        <time>2018-04-18T11:41:26Z</time>
      </trkpt>
      <trkpt lat="47.26089" lon="1.65711">
        <ele>80</ele>
        <time>2018-04-18T11:41:28Z</time>
      </trkpt>
      <trkpt lat="47.26079" lon="1.65706">
        <ele>80</ele>
        <time>2018-04-18T11:41:31Z</time>
      </trkpt>
      <trkpt lat="47.26062" lon="1.65697">
        <ele>80</ele>
        <time>2018-04-18T11:41:36Z</time>
      </trkpt>
      <trkpt lat="47.26034" lon="1.65682">
        <ele>80</ele>
        <time>2018-04-18T11:41:44Z</time>
      </trkpt>
      <trkpt lat="47.25993" lon="1.6566">
        <ele>80</ele>
        <time>2018-04-18T11:41:55Z</time>
      </trkpt>
      <trkpt lat="47.25983" lon="1.65654">
        <ele>80</ele>
        <time>2018-04-18T11:41:58Z</time>
      </trkpt>
      <trkpt lat="47.25975" lon="1.65649">
        <ele>80</ele>
        <time>2018-04-18T11:42:01Z</time>
      </trkpt>
      <trkpt lat="47.25962" lon="1.65644">
        <ele>80</ele>
        <time>2018-04-18T11:42:28Z</time>
      </trkpt>
      <trkpt lat="47.25957" lon="1.65649">
        <ele>80</ele>
        <time>2018-04-18T11:42:37Z</time>
      </trkpt>
      <trkpt lat="47.25953" lon="1.65683">
        <ele>80</ele>
        <time>2018-04-18T11:42:49Z</time>
      </trkpt>
      <trkpt lat="47.25949" lon="1.6571">
        <ele>80</ele>
        <time>2018-04-18T11:42:55Z</time>
      </trkpt>
      <trkpt lat="47.25948" lon="1.65714">
        <ele>80</ele>
        <time>2018-04-18T11:42:56Z</time>
      </trkpt>
      <trkpt lat="47.25947" lon="1.65722">
        <ele>80</ele>
        <time>2018-04-18T11:42:58Z</time>
      </trkpt>
      <trkpt lat="47.2594" lon="1.65758">
        <ele>80</ele>
        <time>2018-04-18T11:43:05Z</time>
      </trkpt>
      <trkpt lat="47.25934" lon="1.65778">
        <ele>80</ele>
        <time>2018-04-18T11:43:09Z</time>
      </trkpt>
      <trkpt lat="47.2593" lon="1.65792">
        <ele>80</ele>
        <time>2018-04-18T11:43:12Z</time>
      </trkpt>
      <trkpt lat="47.25925" lon="1.6581">
        <ele>79</ele>
        <time>2018-04-18T11:43:16Z</time>
      </trkpt>
      <trkpt lat="47.25921" lon="1.65821">
        <ele>79</ele>
        <time>2018-04-18T11:43:19Z</time>
      </trkpt>
      <trkpt lat="47.25913" lon="1.65838">
        <ele>79</ele>
        <time>2018-04-18T11:43:25Z</time>
      </trkpt>
      <trkpt lat="47.25912" lon="1.65839">
        <ele>79</ele>
        <time>2018-04-18T11:43:26Z</time>
      </trkpt>
      <trkpt lat="47.25912" lon="1.6584">
        <ele>79</ele>
        <time>2018-04-18T11:43:27Z</time>
      </trkpt>
      <trkpt lat="47.25912" lon="1.6584">
        <ele>79</ele>
        <time>2018-04-18T11:43:28Z</time>
      </trkpt>
      <trkpt lat="47.25912" lon="1.6584">
        <ele>79</ele>
        <time>2018-04-18T11:43:29Z</time>
      </trkpt>
      <trkpt lat="47.25911" lon="1.6584">
        <ele>79</ele>
        <time>2018-04-18T11:43:37Z</time>
      </trkpt>
      <trkpt lat="47.25911" lon="1.6584">
        <ele>79</ele>
        <time>2018-04-18T11:43:38Z</time>
      </trkpt>
      <trkpt lat="47.25904" lon="1.6584">
        <ele>79</ele>
        <time>2018-04-18T11:43:46Z</time>
      </trkpt>
      <trkpt lat="47.25905" lon="1.65845">
        <ele>79</ele>
        <time>2018-04-18T11:44:01Z</time>
      </trkpt>
      <trkpt lat="47.25917" lon="1.65834">
        <ele>79</ele>
        <time>2018-04-18T11:44:08Z</time>
      </trkpt>
      <trkpt lat="47.25929" lon="1.65802">
        <ele>79</ele>
        <time>2018-04-18T11:44:16Z</time>
      </trkpt>
      <trkpt lat="47.25935" lon="1.65783">
        <ele>80</ele>
        <time>2018-04-18T11:44:20Z</time>
      </trkpt>
      <trkpt lat="47.25954" lon="1.65702">
        <ele>80</ele>
        <time>2018-04-18T11:44:34Z</time>
      </trkpt>
      <trkpt lat="47.25956" lon="1.65686">
        <ele>80</ele>
        <time>2018-04-18T11:44:37Z</time>
      </trkpt>
      <trkpt lat="47.25961" lon="1.65669">
        <ele>80</ele>
        <time>2018-04-18T11:44:48Z</time>
      </trkpt>
      <trkpt lat="47.25962" lon="1.6567">
        <ele>80</ele>
        <time>2018-04-18T11:44:54Z</time>
      </trkpt>
      <trkpt lat="47.25963" lon="1.6567">
        <ele>80</ele>
        <time>2018-04-18T11:44:56Z</time>
      </trkpt>
      <trkpt lat="47.25962" lon="1.65671">
        <ele>80</ele>
        <time>2018-04-18T11:45:05Z</time>
      </trkpt>
      <trkpt lat="47.25962" lon="1.65671">
        <ele>80</ele>
        <time>2018-04-18T11:45:06Z</time>
      </trkpt>
      <trkpt lat="47.25962" lon="1.65671">
        <ele>80</ele>
        <time>2018-04-18T11:45:07Z</time>
      </trkpt>
      <trkpt lat="47.25962" lon="1.65671">
        <ele>80</ele>
        <time>2018-04-18T11:45:51Z</time>
      </trkpt>
      <trkpt lat="47.25964" lon="1.65673">
        <ele>80</ele>
        <time>2018-04-18T11:45:56Z</time>
      </trkpt>
      <trkpt lat="47.25969" lon="1.65679">
        <ele>80</ele>
        <time>2018-04-18T11:46:01Z</time>
      </trkpt>
      <trkpt lat="47.25972" lon="1.6568">
        <ele>80</ele>
        <time>2018-04-18T11:46:03Z</time>
      </trkpt>
      <trkpt lat="47.25973" lon="1.65681">
        <ele>80</ele>
        <time>2018-04-18T11:46:04Z</time>
      </trkpt>
      <trkpt lat="47.25983" lon="1.65689">
        <ele>80</ele>
        <time>2018-04-18T11:46:11Z</time>
      </trkpt>
      <trkpt lat="47.25985" lon="1.65688">
        <ele>80</ele>
        <time>2018-04-18T11:46:12Z</time>
      </trkpt>
      <trkpt lat="47.25986" lon="1.65687">
        <ele>80</ele>
        <time>2018-04-18T11:46:13Z</time>
      </trkpt>
      <trkpt lat="47.25989" lon="1.65682">
        <ele>81</ele>
        <time>2018-04-18T11:46:16Z</time>
      </trkpt>
      <trkpt lat="47.25993" lon="1.65681">
        <ele>81</ele>
        <time>2018-04-18T11:46:18Z</time>
      </trkpt>
      <trkpt lat="47.25995" lon="1.65682">
        <ele>81</ele>
        <time>2018-04-18T11:46:19Z</time>
      </trkpt>
      <trkpt lat="47.25999" lon="1.6568">
        <ele>81</ele>
        <time>2018-04-18T11:46:21Z</time>
      </trkpt>
      <trkpt lat="47.26009" lon="1.65662">
        <ele>80</ele>
        <time>2018-04-18T11:46:27Z</time>
      </trkpt>
      <trkpt lat="47.26009" lon="1.65656">
        <ele>80</ele>
        <time>2018-04-18T11:46:29Z</time>
      </trkpt>
      <trkpt lat="47.26002" lon="1.65632">
        <ele>80</ele>
        <time>2018-04-18T11:46:36Z</time>
      </trkpt>
      <trkpt lat="47.26001" lon="1.65625">
        <ele>79</ele>
        <time>2018-04-18T11:46:38Z</time>
      </trkpt>
      <trkpt lat="47.25995" lon="1.65594">
        <ele>79</ele>
        <time>2018-04-18T11:46:52Z</time>
      </trkpt>
      <trkpt lat="47.25997" lon="1.65588">
        <ele>78</ele>
        <time>2018-04-18T11:46:55Z</time>
      </trkpt>
      <trkpt lat="47.25997" lon="1.65587">
        <ele>78</ele>
        <time>2018-04-18T11:46:56Z</time>
      </trkpt>
      <trkpt lat="47.25997" lon="1.6558">
        <ele>78</ele>
        <time>2018-04-18T11:47:11Z</time>
      </trkpt>
      <trkpt lat="47.25997" lon="1.6558">
        <ele>78</ele>
        <time>2018-04-18T11:47:18Z</time>
      </trkpt>
      <trkpt lat="47.25998" lon="1.65579">
        <ele>78</ele>
        <time>2018-04-18T11:47:24Z</time>
      </trkpt>
      <trkpt lat="47.25994" lon="1.65578">
        <ele>78</ele>
        <time>2018-04-18T11:47:27Z</time>
      </trkpt>
      <trkpt lat="47.25977" lon="1.65592">
        <ele>79</ele>
        <time>2018-04-18T11:47:37Z</time>
      </trkpt>
      <trkpt lat="47.25976" lon="1.65604">
        <ele>79</ele>
        <time>2018-04-18T11:47:43Z</time>
      </trkpt>
      <trkpt lat="47.25975" lon="1.65609">
        <ele>79</ele>
        <time>2018-04-18T11:47:46Z</time>
      </trkpt>
      <trkpt lat="47.25974" lon="1.65613">
        <ele>79</ele>
        <time>2018-04-18T11:47:56Z</time>
      </trkpt>
      <trkpt lat="47.25971" lon="1.65614">
        <ele>79</ele>
        <time>2018-04-18T11:48:09Z</time>
      </trkpt>
      <trkpt lat="47.25972" lon="1.65614">
        <ele>79</ele>
        <time>2018-04-18T11:48:44Z</time>
      </trkpt>
      <trkpt lat="47.25973" lon="1.65613">
        <ele>79</ele>
        <time>2018-04-18T11:48:47Z</time>
      </trkpt>
      <trkpt lat="47.25973" lon="1.65613">
        <ele>79</ele>
        <time>2018-04-18T11:48:49Z</time>
      </trkpt>
      <trkpt lat="47.25975" lon="1.65613">
        <ele>79</ele>
        <time>2018-04-18T11:49:14Z</time>
      </trkpt>
      <trkpt lat="47.25975" lon="1.65613">
        <ele>79</ele>
        <time>2018-04-18T11:49:15Z</time>
      </trkpt>
      <trkpt lat="47.25976" lon="1.65614">
        <ele>79</ele>
        <time>2018-04-18T11:49:32Z</time>
      </trkpt>
      <trkpt lat="47.25977" lon="1.65612">
        <ele>79</ele>
        <time>2018-04-18T11:49:58Z</time>
      </trkpt>
      <trkpt lat="47.25977" lon="1.65612">
        <ele>79</ele>
        <time>2018-04-18T11:50:02Z</time>
      </trkpt>
      <trkpt lat="47.25978" lon="1.65612">
        <ele>79</ele>
        <time>2018-04-18T11:50:06Z</time>
      </trkpt>
      <trkpt lat="47.25978" lon="1.65612">
        <ele>79</ele>
        <time>2018-04-18T11:50:07Z</time>
      </trkpt>
      <trkpt lat="47.25978" lon="1.65612">
        <ele>79</ele>
        <time>2018-04-18T11:50:08Z</time>
      </trkpt>
      <trkpt lat="47.25978" lon="1.65611">
        <ele>79</ele>
        <time>2018-04-18T11:50:11Z</time>
      </trkpt>
      <trkpt lat="47.25977" lon="1.65611">
        <ele>79</ele>
        <time>2018-04-18T11:50:13Z</time>
      </trkpt>
      <trkpt lat="47.25976" lon="1.6561">
        <ele>79</ele>
        <time>2018-04-18T11:50:15Z</time>
      </trkpt>
      <trkpt lat="47.25975" lon="1.65609">
        <ele>79</ele>
        <time>2018-04-18T11:50:16Z</time>
      </trkpt>
      <trkpt lat="47.25974" lon="1.65609">
        <ele>79</ele>
        <time>2018-04-18T11:50:17Z</time>
      </trkpt>
      <trkpt lat="47.25974" lon="1.65609">
        <ele>79</ele>
        <time>2018-04-18T11:50:18Z</time>
      </trkpt>
      <trkpt lat="47.25973" lon="1.65614">
        <ele>79</ele>
        <time>2018-04-18T11:51:01Z</time>
      </trkpt>
      <trkpt lat="47.25974" lon="1.65615">
        <ele>79</ele>
        <time>2018-04-18T11:51:17Z</time>
      </trkpt>
      <trkpt lat="47.25974" lon="1.65615">
        <ele>79</ele>
        <time>2018-04-18T11:51:18Z</time>
      </trkpt>
      <trkpt lat="47.25974" lon="1.65615">
        <ele>79</ele>
        <time>2018-04-18T11:51:19Z</time>
      </trkpt>
      <trkpt lat="47.25974" lon="1.65614">
        <ele>79</ele>
        <time>2018-04-18T11:51:20Z</time>
      </trkpt>
      <trkpt lat="47.25974" lon="1.65615">
        <ele>79</ele>
        <time>2018-04-18T11:51:21Z</time>
      </trkpt>
      <trkpt lat="47.25974" lon="1.65615">
        <ele>79</ele>
        <time>2018-04-18T11:51:23Z</time>
      </trkpt>
      <trkpt lat="47.25974" lon="1.65615">
        <ele>79</ele>
        <time>2018-04-18T11:51:24Z</time>
      </trkpt>
      <trkpt lat="47.25974" lon="1.65615">
        <ele>79</ele>
        <time>2018-04-18T11:51:25Z</time>
      </trkpt>
      <trkpt lat="47.25974" lon="1.65615">
        <ele>79</ele>
        <time>2018-04-18T11:51:33Z</time>
      </trkpt>
      <trkpt lat="47.25974" lon="1.65615">
        <ele>79</ele>
        <time>2018-04-18T11:51:35Z</time>
      </trkpt>
      <trkpt lat="47.25975" lon="1.65615">
        <ele>79</ele>
        <time>2018-04-18T11:51:52Z</time>
      </trkpt>
      <trkpt lat="47.25974" lon="1.65615">
        <ele>79</ele>
        <time>2018-04-18T11:51:54Z</time>
      </trkpt>
      <trkpt lat="47.25974" lon="1.65614">
        <ele>79</ele>
        <time>2018-04-18T11:52:00Z</time>
      </trkpt>
      <trkpt lat="47.25974" lon="1.65614">
        <ele>79</ele>
        <time>2018-04-18T11:52:02Z</time>
      </trkpt>
      <trkpt lat="47.25974" lon="1.65615">
        <ele>79</ele>
        <time>2018-04-18T11:52:04Z</time>
      </trkpt>
      <trkpt lat="47.25974" lon="1.65615">
        <ele>79</ele>
        <time>2018-04-18T11:52:06Z</time>
      </trkpt>
      <trkpt lat="47.25973" lon="1.65615">
        <ele>79</ele>
        <time>2018-04-18T11:52:09Z</time>
      </trkpt>
      <trkpt lat="47.25973" lon="1.65615">
        <ele>79</ele>
        <time>2018-04-18T11:52:11Z</time>
      </trkpt>
      <trkpt lat="47.25973" lon="1.65615">
        <ele>79</ele>
        <time>2018-04-18T11:52:12Z</time>
      </trkpt>
      <trkpt lat="47.25973" lon="1.65615">
        <ele>79</ele>
        <time>2018-04-18T11:52:13Z</time>
      </trkpt>
      <trkpt lat="47.25973" lon="1.65616">
        <ele>79</ele>
        <time>2018-04-18T11:52:18Z</time>
      </trkpt>
      <trkpt lat="47.25974" lon="1.65615">
        <ele>79</ele>
        <time>2018-04-18T11:52:32Z</time>
      </trkpt>
      <trkpt lat="47.25974" lon="1.65615">
        <ele>79</ele>
        <time>2018-04-18T11:52:33Z</time>
      </trkpt>
      <trkpt lat="47.25974" lon="1.65615">
        <ele>79</ele>
        <time>2018-04-18T11:52:34Z</time>
      </trkpt>
      <trkpt lat="47.25975" lon="1.65615">
        <ele>79</ele>
        <time>2018-04-18T11:52:35Z</time>
      </trkpt>
      <trkpt lat="47.25975" lon="1.65614">
        <ele>79</ele>
        <time>2018-04-18T11:52:43Z</time>
      </trkpt>
      <trkpt lat="47.25975" lon="1.65614">
        <ele>79</ele>
        <time>2018-04-18T11:52:46Z</time>
      </trkpt>
      <trkpt lat="47.25975" lon="1.65615">
        <ele>79</ele>
        <time>2018-04-18T11:52:51Z</time>
      </trkpt>
      <trkpt lat="47.25975" lon="1.65615">
        <ele>79</ele>
        <time>2018-04-18T11:52:54Z</time>
      </trkpt>
      <trkpt lat="47.25975" lon="1.65615">
        <ele>79</ele>
        <time>2018-04-18T11:52:55Z</time>
      </trkpt>
      <trkpt lat="47.25975" lon="1.65615">
        <ele>79</ele>
        <time>2018-04-18T11:52:56Z</time>
      </trkpt>
      <trkpt lat="47.25974" lon="1.65615">
        <ele>79</ele>
        <time>2018-04-18T11:53:22Z</time>
      </trkpt>
      <trkpt lat="47.25974" lon="1.65615">
        <ele>79</ele>
        <time>2018-04-18T11:53:27Z</time>
      </trkpt>
      <trkpt lat="47.25976" lon="1.65617">
        <ele>79</ele>
        <time>2018-04-18T11:53:55Z</time>
      </trkpt>
      <trkpt lat="47.25976" lon="1.65618">
        <ele>79</ele>
        <time>2018-04-18T11:54:06Z</time>
      </trkpt>
      <trkpt lat="47.25977" lon="1.65618">
        <ele>79</ele>
        <time>2018-04-18T11:54:13Z</time>
      </trkpt>
      <trkpt lat="47.25978" lon="1.65618">
        <ele>79</ele>
        <time>2018-04-18T11:54:17Z</time>
      </trkpt>
      <trkpt lat="47.25977" lon="1.65618">
        <ele>79</ele>
        <time>2018-04-18T11:54:19Z</time>
      </trkpt>
      <trkpt lat="47.25977" lon="1.65618">
        <ele>79</ele>
        <time>2018-04-18T11:54:24Z</time>
      </trkpt>
      <trkpt lat="47.25977" lon="1.65618">
        <ele>79</ele>
        <time>2018-04-18T11:54:26Z</time>
      </trkpt>
      <trkpt lat="47.25978" lon="1.65618">
        <ele>79</ele>
        <time>2018-04-18T11:54:27Z</time>
      </trkpt>
      <trkpt lat="47.25977" lon="1.65617">
        <ele>79</ele>
        <time>2018-04-18T11:54:37Z</time>
      </trkpt>
      <trkpt lat="47.25977" lon="1.65617">
        <ele>79</ele>
        <time>2018-04-18T11:54:38Z</time>
      </trkpt>
      <trkpt lat="47.25977" lon="1.65617">
        <ele>79</ele>
        <time>2018-04-18T11:54:40Z</time>
      </trkpt>
      <trkpt lat="47.25977" lon="1.65617">
        <ele>79</ele>
        <time>2018-04-18T11:54:44Z</time>
      </trkpt>
      <trkpt lat="47.25977" lon="1.65617">
        <ele>79</ele>
        <time>2018-04-18T11:54:50Z</time>
      </trkpt>
      <trkpt lat="47.25976" lon="1.65618">
        <ele>79</ele>
        <time>2018-04-18T11:54:53Z</time>
      </trkpt>
      <trkpt lat="47.25976" lon="1.65619">
        <ele>79</ele>
        <time>2018-04-18T11:54:58Z</time>
      </trkpt>
      <trkpt lat="47.25977" lon="1.65622">
        <ele>79</ele>
        <time>2018-04-18T11:55:28Z</time>
      </trkpt>
      <trkpt lat="47.25977" lon="1.65622">
        <ele>79</ele>
        <time>2018-04-18T11:55:41Z</time>
      </trkpt>
      <trkpt lat="47.25979" lon="1.65619">
        <ele>79</ele>
        <time>2018-04-18T11:55:56Z</time>
      </trkpt>
      <trkpt lat="47.25977" lon="1.65618">
        <ele>79</ele>
        <time>2018-04-18T11:55:59Z</time>
      </trkpt>
      <trkpt lat="47.25976" lon="1.65617">
        <ele>79</ele>
        <time>2018-04-18T11:56:00Z</time>
      </trkpt>
      <trkpt lat="47.25977" lon="1.65617">
        <ele>79</ele>
        <time>2018-04-18T11:56:02Z</time>
      </trkpt>
      <trkpt lat="47.25977" lon="1.65617">
        <ele>79</ele>
        <time>2018-04-18T11:56:05Z</time>
      </trkpt>
      <trkpt lat="47.25977" lon="1.65615">
        <ele>79</ele>
        <time>2018-04-18T11:56:13Z</time>
      </trkpt>
      <trkpt lat="47.25977" lon="1.65615">
        <ele>79</ele>
        <time>2018-04-18T11:56:14Z</time>
      </trkpt>
      <trkpt lat="47.25977" lon="1.65614">
        <ele>79</ele>
        <time>2018-04-18T11:56:15Z</time>
      </trkpt>
      <trkpt lat="47.25977" lon="1.65614">
        <ele>79</ele>
        <time>2018-04-18T11:56:17Z</time>
      </trkpt>
      <trkpt lat="47.25977" lon="1.65614">
        <ele>79</ele>
        <time>2018-04-18T11:56:18Z</time>
      </trkpt>
      <trkpt lat="47.25977" lon="1.65614">
        <ele>79</ele>
        <time>2018-04-18T11:56:21Z</time>
      </trkpt>
      <trkpt lat="47.25978" lon="1.65605">
        <ele>79</ele>
        <time>2018-04-18T11:56:35Z</time>
      </trkpt>
      <trkpt lat="47.25979" lon="1.65603">
        <ele>79</ele>
        <time>2018-04-18T11:56:36Z</time>
      </trkpt>
      <trkpt lat="47.25987" lon="1.65581">
        <ele>79</ele>
        <time>2018-04-18T11:56:45Z</time>
      </trkpt>
      <trkpt lat="47.25999" lon="1.65579">
        <ele>78</ele>
        <time>2018-04-18T11:56:52Z</time>
      </trkpt>
      <trkpt lat="47.26" lon="1.65571">
        <ele>79</ele>
        <time>2018-04-18T11:56:56Z</time>
      </trkpt>
      <trkpt lat="47.26001" lon="1.65568">
        <ele>78</ele>
        <time>2018-04-18T11:56:57Z</time>
      </trkpt>
      <trkpt lat="47.26001" lon="1.65565">
        <ele>78</ele>
        <time>2018-04-18T11:56:58Z</time>
      </trkpt>
      <trkpt lat="47.26005" lon="1.65485">
        <ele>79</ele>
        <time>2018-04-18T11:57:19Z</time>
      </trkpt>
      <trkpt lat="47.26006" lon="1.65463">
        <ele>79</ele>
        <time>2018-04-18T11:57:25Z</time>
      </trkpt>
      <trkpt lat="47.26006" lon="1.65442">
        <ele>80</ele>
        <time>2018-04-18T11:57:34Z</time>
      </trkpt>
      <trkpt lat="47.25968" lon="1.65424">
        <ele>80</ele>
        <time>2018-04-18T11:57:52Z</time>
      </trkpt>
      <trkpt lat="47.25984" lon="1.65347">
        <ele>79</ele>
        <time>2018-04-18T11:58:12Z</time>
      </trkpt>
      <trkpt lat="47.26" lon="1.65266">
        <ele>80</ele>
        <time>2018-04-18T11:58:32Z</time>
      </trkpt>
      <trkpt lat="47.26026" lon="1.65196">
        <ele>81</ele>
        <time>2018-04-18T11:58:47Z</time>
      </trkpt>
      <trkpt lat="47.26066" lon="1.65135">
        <ele>82</ele>
        <time>2018-04-18T11:59:05Z</time>
      </trkpt>
      <trkpt lat="47.26068" lon="1.65132">
        <ele>82</ele>
        <time>2018-04-18T11:59:06Z</time>
      </trkpt>
      <trkpt lat="47.26081" lon="1.65105">
        <ele>83</ele>
        <time>2018-04-18T11:59:17Z</time>
      </trkpt>
      <trkpt lat="47.26091" lon="1.65067">
        <ele>83</ele>
        <time>2018-04-18T11:59:27Z</time>
      </trkpt>
      <trkpt lat="47.26092" lon="1.65065">
        <ele>83</ele>
        <time>2018-04-18T11:59:28Z</time>
      </trkpt>
      <trkpt lat="47.26111" lon="1.65013">
        <ele>82</ele>
        <time>2018-04-18T11:59:41Z</time>
      </trkpt>
      <trkpt lat="47.26118" lon="1.64985">
        <ele>80</ele>
        <time>2018-04-18T11:59:48Z</time>
      </trkpt>
      <trkpt lat="47.26113" lon="1.64971">
        <ele>80</ele>
        <time>2018-04-18T11:59:55Z</time>
      </trkpt>
      <trkpt lat="47.26115" lon="1.64966">
        <ele>80</ele>
        <time>2018-04-18T12:03:30Z</time>
      </trkpt>
      <trkpt lat="47.26115" lon="1.64966">
        <ele>80</ele>
        <time>2018-04-18T12:03:30Z</time>
      </trkpt>
      <trkpt lat="47.26116" lon="1.64964">
        <ele>80</ele>
        <time>2018-04-18T12:03:32Z</time>
      </trkpt>
      <trkpt lat="47.26123" lon="1.64951">
        <ele>80</ele>
        <time>2018-04-18T12:03:37Z</time>
      </trkpt>
      <trkpt lat="47.26129" lon="1.64931">
        <ele>80</ele>
        <time>2018-04-18T12:03:43Z</time>
      </trkpt>
      <trkpt lat="47.2613" lon="1.64928">
        <ele>80</ele>
        <time>2018-04-18T12:03:44Z</time>
      </trkpt>
      <trkpt lat="47.26139" lon="1.64917">
        <ele>79</ele>
        <time>2018-04-18T12:03:49Z</time>
      </trkpt>
      <trkpt lat="47.26143" lon="1.64912">
        <ele>80</ele>
        <time>2018-04-18T12:03:52Z</time>
      </trkpt>
      <trkpt lat="47.26119" lon="1.64857">
        <ele>81</ele>
        <time>2018-04-18T12:04:15Z</time>
      </trkpt>
      <trkpt lat="47.26135" lon="1.64811">
        <ele>81</ele>
        <time>2018-04-18T12:04:30Z</time>
      </trkpt>
      <trkpt lat="47.26138" lon="1.64794">
        <ele>81</ele>
        <time>2018-04-18T12:04:35Z</time>
      </trkpt>
      <trkpt lat="47.26139" lon="1.64783">
        <ele>81</ele>
        <time>2018-04-18T12:04:38Z</time>
      </trkpt>
      <trkpt lat="47.26137" lon="1.64707">
        <ele>80</ele>
        <time>2018-04-18T12:04:59Z</time>
      </trkpt>
      <trkpt lat="47.26126" lon="1.64704">
        <ele>80</ele>
        <time>2018-04-18T12:05:06Z</time>
      </trkpt>
      <trkpt lat="47.26125" lon="1.64697">
        <ele>80</ele>
        <time>2018-04-18T12:05:33Z</time>
      </trkpt>
      <trkpt lat="47.26142" lon="1.64622">
        <ele>80</ele>
        <time>2018-04-18T12:05:49Z</time>
      </trkpt>
      <trkpt lat="47.26144" lon="1.64603">
        <ele>80</ele>
        <time>2018-04-18T12:06:08Z</time>
      </trkpt>
      <trkpt lat="47.26144" lon="1.64603">
        <ele>80</ele>
        <time>2018-04-18T12:06:14Z</time>
      </trkpt>
      <trkpt lat="47.26145" lon="1.64603">
        <ele>80</ele>
        <time>2018-04-18T12:06:26Z</time>
      </trkpt>
      <trkpt lat="47.26145" lon="1.64603">
        <ele>80</ele>
        <time>2018-04-18T12:06:43Z</time>
      </trkpt>
      <trkpt lat="47.2615" lon="1.64588">
        <ele>80</ele>
        <time>2018-04-18T12:06:49Z</time>
      </trkpt>
      <trkpt lat="47.26151" lon="1.64584">
        <ele>79</ele>
        <time>2018-04-18T12:06:50Z</time>
      </trkpt>
      <trkpt lat="47.26153" lon="1.64579">
        <ele>79</ele>
        <time>2018-04-18T12:06:51Z</time>
      </trkpt>
      <trkpt lat="47.26154" lon="1.64575">
        <ele>79</ele>
        <time>2018-04-18T12:06:52Z</time>
      </trkpt>
      <trkpt lat="47.26162" lon="1.64555">
        <ele>79</ele>
        <time>2018-04-18T12:06:56Z</time>
      </trkpt>
      <trkpt lat="47.26164" lon="1.64549">
        <ele>79</ele>
        <time>2018-04-18T12:06:57Z</time>
      </trkpt>
      <trkpt lat="47.26169" lon="1.6453">
        <ele>79</ele>
        <time>2018-04-18T12:07:00Z</time>
      </trkpt>
      <trkpt lat="47.26192" lon="1.64464">
        <ele>79</ele>
        <time>2018-04-18T12:07:12Z</time>
      </trkpt>
      <trkpt lat="47.26197" lon="1.64457">
        <ele>79</ele>
        <time>2018-04-18T12:07:14Z</time>
      </trkpt>
      <trkpt lat="47.26238" lon="1.64425">
        <ele>80</ele>
        <time>2018-04-18T12:07:26Z</time>
      </trkpt>
      <trkpt lat="47.26249" lon="1.64416">
        <ele>80</ele>
        <time>2018-04-18T12:07:29Z</time>
      </trkpt>
      <trkpt lat="47.26294" lon="1.64365">
        <ele>80</ele>
        <time>2018-04-18T12:07:40Z</time>
      </trkpt>
      <trkpt lat="47.26325" lon="1.6433">
        <ele>80</ele>
        <time>2018-04-18T12:07:48Z</time>
      </trkpt>
      <trkpt lat="47.26369" lon="1.64282">
        <ele>80</ele>
        <time>2018-04-18T12:08:00Z</time>
      </trkpt>
      <trkpt lat="47.26415" lon="1.64235">
        <ele>81</ele>
        <time>2018-04-18T12:08:12Z</time>
      </trkpt>
      <trkpt lat="47.26463" lon="1.64186">
        <ele>84</ele>
        <time>2018-04-18T12:08:24Z</time>
      </trkpt>
      <trkpt lat="47.26511" lon="1.64135">
        <ele>82</ele>
        <time>2018-04-18T12:08:36Z</time>
      </trkpt>
      <trkpt lat="47.26527" lon="1.6412">
        <ele>81</ele>
        <time>2018-04-18T12:08:40Z</time>
      </trkpt>
      <trkpt lat="47.26572" lon="1.64076">
        <ele>80</ele>
        <time>2018-04-18T12:08:51Z</time>
      </trkpt>
      <trkpt lat="47.26616" lon="1.64028">
        <ele>80</ele>
        <time>2018-04-18T12:09:03Z</time>
      </trkpt>
      <trkpt lat="47.26654" lon="1.63984">
        <ele>80</ele>
        <time>2018-04-18T12:09:14Z</time>
      </trkpt>
      <trkpt lat="47.26699" lon="1.63935">
        <ele>82</ele>
        <time>2018-04-18T12:09:26Z</time>
      </trkpt>
      <trkpt lat="47.2673" lon="1.63898">
        <ele>83</ele>
        <time>2018-04-18T12:09:34Z</time>
      </trkpt>
      <trkpt lat="47.26761" lon="1.63826">
        <ele>84</ele>
        <time>2018-04-18T12:09:46Z</time>
      </trkpt>
      <trkpt lat="47.26786" lon="1.63753">
        <ele>84</ele>
        <time>2018-04-18T12:09:58Z</time>
      </trkpt>
      <trkpt lat="47.26803" lon="1.63671">
        <ele>84</ele>
        <time>2018-04-18T12:10:10Z</time>
      </trkpt>
      <trkpt lat="47.26817" lon="1.63589">
        <ele>83</ele>
        <time>2018-04-18T12:10:21Z</time>
      </trkpt>
      <trkpt lat="47.26833" lon="1.63509">
        <ele>83</ele>
        <time>2018-04-18T12:10:32Z</time>
      </trkpt>
      <trkpt lat="47.26853" lon="1.63431">
        <ele>84</ele>
        <time>2018-04-18T12:10:43Z</time>
      </trkpt>
      <trkpt lat="47.26869" lon="1.63349">
        <ele>82</ele>
        <time>2018-04-18T12:10:54Z</time>
      </trkpt>
      <trkpt lat="47.26885" lon="1.63266">
        <ele>81</ele>
        <time>2018-04-18T12:11:05Z</time>
      </trkpt>
      <trkpt lat="47.26904" lon="1.63188">
        <ele>79</ele>
        <time>2018-04-18T12:11:15Z</time>
      </trkpt>
      <trkpt lat="47.26927" lon="1.63112">
        <ele>78</ele>
        <time>2018-04-18T12:11:25Z</time>
      </trkpt>
      <trkpt lat="47.26947" lon="1.63055">
        <ele>78</ele>
        <time>2018-04-18T12:11:34Z</time>
      </trkpt>
      <trkpt lat="47.26974" lon="1.62984">
        <ele>78</ele>
        <time>2018-04-18T12:11:46Z</time>
      </trkpt>
      <trkpt lat="47.26984" lon="1.6296">
        <ele>78</ele>
        <time>2018-04-18T12:11:50Z</time>
      </trkpt>
      <trkpt lat="47.2701" lon="1.62886">
        <ele>78</ele>
        <time>2018-04-18T12:12:01Z</time>
      </trkpt>
      <trkpt lat="47.27016" lon="1.6286">
        <ele>78</ele>
        <time>2018-04-18T12:12:05Z</time>
      </trkpt>
      <trkpt lat="47.27019" lon="1.62848">
        <ele>78</ele>
        <time>2018-04-18T12:12:07Z</time>
      </trkpt>
      <trkpt lat="47.27035" lon="1.62772">
        <ele>77</ele>
        <time>2018-04-18T12:12:21Z</time>
      </trkpt>
      <trkpt lat="47.27052" lon="1.62695">
        <ele>77</ele>
        <time>2018-04-18T12:12:36Z</time>
      </trkpt>
      <trkpt lat="47.27056" lon="1.62679">
        <ele>77</ele>
        <time>2018-04-18T12:12:39Z</time>
      </trkpt>
      <trkpt lat="47.27072" lon="1.62601">
        <ele>78</ele>
        <time>2018-04-18T12:12:56Z</time>
      </trkpt>
      <trkpt lat="47.27087" lon="1.62526">
        <ele>77</ele>
        <time>2018-04-18T12:13:14Z</time>
      </trkpt>
      <trkpt lat="47.27089" lon="1.62514">
        <ele>76</ele>
        <time>2018-04-18T12:13:16Z</time>
      </trkpt>
      <trkpt lat="47.27095" lon="1.62485">
        <ele>76</ele>
        <time>2018-04-18T12:13:21Z</time>
      </trkpt>
      <trkpt lat="47.27111" lon="1.62405">
        <ele>76</ele>
        <time>2018-04-18T12:13:34Z</time>
      </trkpt>
      <trkpt lat="47.27119" lon="1.62384">
        <ele>76</ele>
        <time>2018-04-18T12:13:39Z</time>
      </trkpt>
      <trkpt lat="47.27126" lon="1.62367">
        <ele>76</ele>
        <time>2018-04-18T12:13:43Z</time>
      </trkpt>
      <trkpt lat="47.27131" lon="1.62349">
        <ele>76</ele>
        <time>2018-04-18T12:13:46Z</time>
      </trkpt>
      <trkpt lat="47.27147" lon="1.62272">
        <ele>77</ele>
        <time>2018-04-18T12:13:59Z</time>
      </trkpt>
      <trkpt lat="47.27163" lon="1.62194">
        <ele>77</ele>
        <time>2018-04-18T12:14:11Z</time>
      </trkpt>
      <trkpt lat="47.27181" lon="1.62114">
        <ele>76</ele>
        <time>2018-04-18T12:14:23Z</time>
      </trkpt>
      <trkpt lat="47.27192" lon="1.62031">
        <ele>75</ele>
        <time>2018-04-18T12:14:37Z</time>
      </trkpt>
      <trkpt lat="47.27191" lon="1.62024">
        <ele>75</ele>
        <time>2018-04-18T12:14:38Z</time>
      </trkpt>
      <trkpt lat="47.27186" lon="1.61994">
        <ele>75</ele>
        <time>2018-04-18T12:14:42Z</time>
      </trkpt>
      <trkpt lat="47.27182" lon="1.61931">
        <ele>74</ele>
        <time>2018-04-18T12:14:50Z</time>
      </trkpt>
      <trkpt lat="47.2718" lon="1.61888">
        <ele>75</ele>
        <time>2018-04-18T12:14:56Z</time>
      </trkpt>
      <trkpt lat="47.27187" lon="1.61836">
        <ele>76</ele>
        <time>2018-04-18T12:15:09Z</time>
      </trkpt>
      <trkpt lat="47.27189" lon="1.61831">
        <ele>76</ele>
        <time>2018-04-18T12:15:10Z</time>
      </trkpt>
      <trkpt lat="47.2719" lon="1.61826">
        <ele>76</ele>
        <time>2018-04-18T12:15:11Z</time>
      </trkpt>
      <trkpt lat="47.27191" lon="1.61822">
        <ele>76</ele>
        <time>2018-04-18T12:15:12Z</time>
      </trkpt>
      <trkpt lat="47.27193" lon="1.61817">
        <ele>77</ele>
        <time>2018-04-18T12:15:13Z</time>
      </trkpt>
      <trkpt lat="47.27195" lon="1.61809">
        <ele>77</ele>
        <time>2018-04-18T12:15:15Z</time>
      </trkpt>
      <trkpt lat="47.27196" lon="1.61806">
        <ele>77</ele>
        <time>2018-04-18T12:15:16Z</time>
      </trkpt>
      <trkpt lat="47.27198" lon="1.61798">
        <ele>77</ele>
        <time>2018-04-18T12:15:19Z</time>
      </trkpt>
      <trkpt lat="47.27199" lon="1.61794">
        <ele>77</ele>
        <time>2018-04-18T12:15:22Z</time>
      </trkpt>
      <trkpt lat="47.27198" lon="1.61795">
        <ele>77</ele>
        <time>2018-04-18T12:15:48Z</time>
      </trkpt>
      <trkpt lat="47.27198" lon="1.61795">
        <ele>77</ele>
        <time>2018-04-18T12:15:52Z</time>
      </trkpt>
      <trkpt lat="47.27198" lon="1.61795">
        <ele>77</ele>
        <time>2018-04-18T12:16:05Z</time>
      </trkpt>
      <trkpt lat="47.27199" lon="1.6179">
        <ele>77</ele>
        <time>2018-04-18T12:16:09Z</time>
      </trkpt>
      <trkpt lat="47.27194" lon="1.61734">
        <ele>78</ele>
        <time>2018-04-18T12:16:18Z</time>
      </trkpt>
      <trkpt lat="47.27193" lon="1.61727">
        <ele>78</ele>
        <time>2018-04-18T12:16:19Z</time>
      </trkpt>
      <trkpt lat="47.27191" lon="1.61695">
        <ele>77</ele>
        <time>2018-04-18T12:16:23Z</time>
      </trkpt>
      <trkpt lat="47.27188" lon="1.61613">
        <ele>78</ele>
        <time>2018-04-18T12:16:35Z</time>
      </trkpt>
      <trkpt lat="47.27187" lon="1.61579">
        <ele>77</ele>
        <time>2018-04-18T12:16:40Z</time>
      </trkpt>
      <trkpt lat="47.27186" lon="1.61494">
        <ele>77</ele>
        <time>2018-04-18T12:16:52Z</time>
      </trkpt>
      <trkpt lat="47.27185" lon="1.61429">
        <ele>77</ele>
        <time>2018-04-18T12:17:01Z</time>
      </trkpt>
      <trkpt lat="47.27186" lon="1.61401">
        <ele>77</ele>
        <time>2018-04-18T12:17:05Z</time>
      </trkpt>
      <trkpt lat="47.27185" lon="1.61336">
        <ele>76</ele>
        <time>2018-04-18T12:17:14Z</time>
      </trkpt>
      <trkpt lat="47.27185" lon="1.61314">
        <ele>76</ele>
        <time>2018-04-18T12:17:17Z</time>
      </trkpt>
      <trkpt lat="47.27184" lon="1.61234">
        <ele>76</ele>
        <time>2018-04-18T12:17:28Z</time>
      </trkpt>
      <trkpt lat="47.27184" lon="1.61155">
        <ele>77</ele>
        <time>2018-04-18T12:17:39Z</time>
      </trkpt>
      <trkpt lat="47.27184" lon="1.61075">
        <ele>76</ele>
        <time>2018-04-18T12:17:51Z</time>
      </trkpt>
      <trkpt lat="47.2718" lon="1.61026">
        <ele>76</ele>
        <time>2018-04-18T12:18:04Z</time>
      </trkpt>
      <trkpt lat="47.27124" lon="1.6102">
        <ele>76</ele>
        <time>2018-04-18T12:18:19Z</time>
      </trkpt>
      <trkpt lat="47.27093" lon="1.61019">
        <ele>76</ele>
        <time>2018-04-18T12:18:26Z</time>
      </trkpt>
      <trkpt lat="47.27038" lon="1.61018">
        <ele>76</ele>
        <time>2018-04-18T12:18:39Z</time>
      </trkpt>
      <trkpt lat="47.27" lon="1.61016">
        <ele>75</ele>
        <time>2018-04-18T12:18:48Z</time>
      </trkpt>
      <trkpt lat="47.26975" lon="1.61015">
        <ele>75</ele>
        <time>2018-04-18T12:18:54Z</time>
      </trkpt>
      <trkpt lat="47.26918" lon="1.61012">
        <ele>75</ele>
        <time>2018-04-18T12:19:07Z</time>
      </trkpt>
      <trkpt lat="47.26888" lon="1.6101">
        <ele>76</ele>
        <time>2018-04-18T12:19:14Z</time>
      </trkpt>
      <trkpt lat="47.26869" lon="1.6101">
        <ele>76</ele>
        <time>2018-04-18T12:19:18Z</time>
      </trkpt>
      <trkpt lat="47.2685" lon="1.61008">
        <ele>76</ele>
        <time>2018-04-18T12:19:22Z</time>
      </trkpt>
      <trkpt lat="47.26836" lon="1.61007">
        <ele>76</ele>
        <time>2018-04-18T12:19:25Z</time>
      </trkpt>
      <trkpt lat="47.26788" lon="1.61004">
        <ele>76</ele>
        <time>2018-04-18T12:19:35Z</time>
      </trkpt>
      <trkpt lat="47.2677" lon="1.61003">
        <ele>76</ele>
        <time>2018-04-18T12:19:39Z</time>
      </trkpt>
      <trkpt lat="47.26757" lon="1.61002">
        <ele>76</ele>
        <time>2018-04-18T12:19:42Z</time>
      </trkpt>
      <trkpt lat="47.26728" lon="1.60955">
        <ele>76</ele>
        <time>2018-04-18T12:19:56Z</time>
      </trkpt>
      <trkpt lat="47.26731" lon="1.60873">
        <ele>76</ele>
        <time>2018-04-18T12:20:08Z</time>
      </trkpt>
      <trkpt lat="47.26731" lon="1.60793">
        <ele>76</ele>
        <time>2018-04-18T12:20:19Z</time>
      </trkpt>
      <trkpt lat="47.26732" lon="1.60711">
        <ele>75</ele>
        <time>2018-04-18T12:20:29Z</time>
      </trkpt>
      <trkpt lat="47.26733" lon="1.6063">
        <ele>75</ele>
        <time>2018-04-18T12:20:39Z</time>
      </trkpt>
      <trkpt lat="47.26733" lon="1.60543">
        <ele>75</ele>
        <time>2018-04-18T12:20:49Z</time>
      </trkpt>
      <trkpt lat="47.26731" lon="1.605">
        <ele>76</ele>
        <time>2018-04-18T12:20:54Z</time>
      </trkpt>
      <trkpt lat="47.26725" lon="1.60413">
        <ele>77</ele>
        <time>2018-04-18T12:21:04Z</time>
      </trkpt>
      <trkpt lat="47.26722" lon="1.60327">
        <ele>76</ele>
        <time>2018-04-18T12:21:14Z</time>
      </trkpt>
      <trkpt lat="47.26724" lon="1.60244">
        <ele>76</ele>
        <time>2018-04-18T12:21:24Z</time>
      </trkpt>
      <trkpt lat="47.2673" lon="1.60159">
        <ele>75</ele>
        <time>2018-04-18T12:21:34Z</time>
      </trkpt>
      <trkpt lat="47.26733" lon="1.60072">
        <ele>75</ele>
        <time>2018-04-18T12:21:44Z</time>
      </trkpt>
      <trkpt lat="47.26734" lon="1.6002">
        <ele>75</ele>
        <time>2018-04-18T12:21:50Z</time>
      </trkpt>
      <trkpt lat="47.26734" lon="1.60003">
        <ele>75</ele>
        <time>2018-04-18T12:21:52Z</time>
      </trkpt>
      <trkpt lat="47.26734" lon="1.59995">
        <ele>75</ele>
        <time>2018-04-18T12:21:53Z</time>
      </trkpt>
      <trkpt lat="47.26734" lon="1.59978">
        <ele>75</ele>
        <time>2018-04-18T12:21:55Z</time>
      </trkpt>
      <trkpt lat="47.26734" lon="1.59898">
        <ele>75</ele>
        <time>2018-04-18T12:22:04Z</time>
      </trkpt>
      <trkpt lat="47.26733" lon="1.59813">
        <ele>76</ele>
        <time>2018-04-18T12:22:13Z</time>
      </trkpt>
      <trkpt lat="47.26731" lon="1.59727">
        <ele>76</ele>
        <time>2018-04-18T12:22:22Z</time>
      </trkpt>
      <trkpt lat="47.26728" lon="1.59643">
        <ele>76</ele>
        <time>2018-04-18T12:22:31Z</time>
      </trkpt>
      <trkpt lat="47.2672" lon="1.5956">
        <ele>76</ele>
        <time>2018-04-18T12:22:40Z</time>
      </trkpt>
      <trkpt lat="47.26708" lon="1.59477">
        <ele>76</ele>
        <time>2018-04-18T12:22:49Z</time>
      </trkpt>
      <trkpt lat="47.26698" lon="1.59435">
        <ele>76</ele>
        <time>2018-04-18T12:22:54Z</time>
      </trkpt>
      <trkpt lat="47.26689" lon="1.5935">
        <ele>76</ele>
        <time>2018-04-18T12:23:03Z</time>
      </trkpt>
      <trkpt lat="47.26696" lon="1.59291">
        <ele>76</ele>
        <time>2018-04-18T12:23:09Z</time>
      </trkpt>
      <trkpt lat="47.26699" lon="1.59282">
        <ele>76</ele>
        <time>2018-04-18T12:23:10Z</time>
      </trkpt>
      <trkpt lat="47.26708" lon="1.59256">
        <ele>76</ele>
        <time>2018-04-18T12:23:13Z</time>
      </trkpt>
      <trkpt lat="47.2671" lon="1.59247">
        <ele>75</ele>
        <time>2018-04-18T12:23:14Z</time>
      </trkpt>
      <trkpt lat="47.26713" lon="1.59238">
        <ele>75</ele>
        <time>2018-04-18T12:23:15Z</time>
      </trkpt>
      <trkpt lat="47.26733" lon="1.59155">
        <ele>75</ele>
        <time>2018-04-18T12:23:24Z</time>
      </trkpt>
      <trkpt lat="47.2675" lon="1.59071">
        <ele>75</ele>
        <time>2018-04-18T12:23:33Z</time>
      </trkpt>
      <trkpt lat="47.26762" lon="1.59013">
        <ele>75</ele>
        <time>2018-04-18T12:23:39Z</time>
      </trkpt>
      <trkpt lat="47.26777" lon="1.58941">
        <ele>75</ele>
        <time>2018-04-18T12:23:47Z</time>
      </trkpt>
      <trkpt lat="47.26791" lon="1.58873">
        <ele>75</ele>
        <time>2018-04-18T12:23:56Z</time>
      </trkpt>
      <trkpt lat="47.26795" lon="1.58852">
        <ele>75</ele>
        <time>2018-04-18T12:23:59Z</time>
      </trkpt>
      <trkpt lat="47.26812" lon="1.58775">
        <ele>76</ele>
        <time>2018-04-18T12:24:09Z</time>
      </trkpt>
      <trkpt lat="47.2683" lon="1.58696">
        <ele>76</ele>
        <time>2018-04-18T12:24:19Z</time>
      </trkpt>
      <trkpt lat="47.26848" lon="1.58614">
        <ele>75</ele>
        <time>2018-04-18T12:24:29Z</time>
      </trkpt>
      <trkpt lat="47.26864" lon="1.58545">
        <ele>74</ele>
        <time>2018-04-18T12:24:37Z</time>
      </trkpt>
      <trkpt lat="47.2688" lon="1.58468">
        <ele>74</ele>
        <time>2018-04-18T12:24:46Z</time>
      </trkpt>
      <trkpt lat="47.26892" lon="1.5839">
        <ele>75</ele>
        <time>2018-04-18T12:24:55Z</time>
      </trkpt>
      <trkpt lat="47.26893" lon="1.58311">
        <ele>75</ele>
        <time>2018-04-18T12:25:04Z</time>
      </trkpt>
      <trkpt lat="47.26891" lon="1.5824">
        <ele>75</ele>
        <time>2018-04-18T12:25:12Z</time>
      </trkpt>
      <trkpt lat="47.26896" lon="1.58155">
        <ele>75</ele>
        <time>2018-04-18T12:25:21Z</time>
      </trkpt>
      <trkpt lat="47.26902" lon="1.58112">
        <ele>75</ele>
        <time>2018-04-18T12:25:26Z</time>
      </trkpt>
      <trkpt lat="47.26914" lon="1.58032">
        <ele>74</ele>
        <time>2018-04-18T12:25:35Z</time>
      </trkpt>
      <trkpt lat="47.26923" lon="1.57946">
        <ele>74</ele>
        <time>2018-04-18T12:25:44Z</time>
      </trkpt>
      <trkpt lat="47.26937" lon="1.57862">
        <ele>74</ele>
        <time>2018-04-18T12:25:53Z</time>
      </trkpt>
      <trkpt lat="47.26954" lon="1.5778">
        <ele>73</ele>
        <time>2018-04-18T12:26:02Z</time>
      </trkpt>
      <trkpt lat="47.26968" lon="1.57696">
        <ele>74</ele>
        <time>2018-04-18T12:26:11Z</time>
      </trkpt>
      <trkpt lat="47.2697" lon="1.57607">
        <ele>74</ele>
        <time>2018-04-18T12:26:20Z</time>
      </trkpt>
      <trkpt lat="47.26976" lon="1.57551">
        <ele>74</ele>
        <time>2018-04-18T12:26:26Z</time>
      </trkpt>
      <trkpt lat="47.26991" lon="1.57499">
        <ele>75</ele>
        <time>2018-04-18T12:26:32Z</time>
      </trkpt>
      <trkpt lat="47.2701" lon="1.57422">
        <ele>75</ele>
        <time>2018-04-18T12:26:41Z</time>
      </trkpt>
      <trkpt lat="47.27017" lon="1.57384">
        <ele>75</ele>
        <time>2018-04-18T12:26:45Z</time>
      </trkpt>
      <trkpt lat="47.27027" lon="1.57347">
        <ele>74</ele>
        <time>2018-04-18T12:26:49Z</time>
      </trkpt>
      <trkpt lat="47.27034" lon="1.57319">
        <ele>74</ele>
        <time>2018-04-18T12:26:52Z</time>
      </trkpt>
      <trkpt lat="47.27042" lon="1.5728">
        <ele>75</ele>
        <time>2018-04-18T12:26:56Z</time>
      </trkpt>
      <trkpt lat="47.27055" lon="1.57211">
        <ele>75</ele>
        <time>2018-04-18T12:27:03Z</time>
      </trkpt>
      <trkpt lat="47.27069" lon="1.57131">
        <ele>76</ele>
        <time>2018-04-18T12:27:11Z</time>
      </trkpt>
      <trkpt lat="47.27071" lon="1.57121">
        <ele>76</ele>
        <time>2018-04-18T12:27:12Z</time>
      </trkpt>
      <trkpt lat="47.27075" lon="1.57092">
        <ele>76</ele>
        <time>2018-04-18T12:27:15Z</time>
      </trkpt>
      <trkpt lat="47.27085" lon="1.57009">
        <ele>75</ele>
        <time>2018-04-18T12:27:24Z</time>
      </trkpt>
      <trkpt lat="47.27088" lon="1.56952">
        <ele>75</ele>
        <time>2018-04-18T12:27:30Z</time>
      </trkpt>
      <trkpt lat="47.27083" lon="1.56895">
        <ele>74</ele>
        <time>2018-04-18T12:27:36Z</time>
      </trkpt>
      <trkpt lat="47.27073" lon="1.56809">
        <ele>74</ele>
        <time>2018-04-18T12:27:45Z</time>
      </trkpt>
      <trkpt lat="47.27071" lon="1.56725">
        <ele>75</ele>
        <time>2018-04-18T12:27:55Z</time>
      </trkpt>
      <trkpt lat="47.27076" lon="1.5665">
        <ele>74</ele>
        <time>2018-04-18T12:28:09Z</time>
      </trkpt>
      <trkpt lat="47.27087" lon="1.56601">
        <ele>74</ele>
        <time>2018-04-18T12:28:24Z</time>
      </trkpt>
      <trkpt lat="47.27094" lon="1.566">
        <ele>74</ele>
        <time>2018-04-18T12:28:32Z</time>
      </trkpt>
      <trkpt lat="47.27094" lon="1.566">
        <ele>74</ele>
        <time>2018-04-18T12:28:41Z</time>
      </trkpt>
      <trkpt lat="47.27093" lon="1.566">
        <ele>74</ele>
        <time>2018-04-18T12:28:48Z</time>
      </trkpt>
      <trkpt lat="47.27093" lon="1.566">
        <ele>74</ele>
        <time>2018-04-18T12:28:50Z</time>
      </trkpt>
      <trkpt lat="47.27093" lon="1.566">
        <ele>74</ele>
        <time>2018-04-18T12:28:51Z</time>
      </trkpt>
      <trkpt lat="47.27093" lon="1.566">
        <ele>74</ele>
        <time>2018-04-18T12:29:03Z</time>
      </trkpt>
      <trkpt lat="47.27093" lon="1.566">
        <ele>74</ele>
        <time>2018-04-18T12:29:26Z</time>
      </trkpt>
      <trkpt lat="47.27093" lon="1.566">
        <ele>74</ele>
        <time>2018-04-18T12:29:37Z</time>
      </trkpt>
      <trkpt lat="47.27093" lon="1.56599">
        <ele>74</ele>
        <time>2018-04-18T12:29:42Z</time>
      </trkpt>
      <trkpt lat="47.27093" lon="1.56599">
        <ele>74</ele>
        <time>2018-04-18T12:29:43Z</time>
      </trkpt>
      <trkpt lat="47.27093" lon="1.56599">
        <ele>74</ele>
        <time>2018-04-18T12:29:44Z</time>
      </trkpt>
      <trkpt lat="47.27093" lon="1.56599">
        <ele>74</ele>
        <time>2018-04-18T12:29:45Z</time>
      </trkpt>
      <trkpt lat="47.27093" lon="1.56599">
        <ele>74</ele>
        <time>2018-04-18T12:29:46Z</time>
      </trkpt>
      <trkpt lat="47.27093" lon="1.56599">
        <ele>74</ele>
        <time>2018-04-18T12:30:07Z</time>
      </trkpt>
      <trkpt lat="47.27089" lon="1.56541">
        <ele>75</ele>
        <time>2018-04-18T12:30:20Z</time>
      </trkpt>
      <trkpt lat="47.2709" lon="1.56459">
        <ele>76</ele>
        <time>2018-04-18T12:30:33Z</time>
      </trkpt>
      <trkpt lat="47.2711" lon="1.56381">
        <ele>77</ele>
        <time>2018-04-18T12:30:46Z</time>
      </trkpt>
      <trkpt lat="47.2714" lon="1.56309">
        <ele>77</ele>
        <time>2018-04-18T12:30:58Z</time>
      </trkpt>
      <trkpt lat="47.27172" lon="1.56234">
        <ele>75</ele>
        <time>2018-04-18T12:31:10Z</time>
      </trkpt>
      <trkpt lat="47.27196" lon="1.56162">
        <ele>75</ele>
        <time>2018-04-18T12:31:23Z</time>
      </trkpt>
      <trkpt lat="47.2722" lon="1.56085">
        <ele>75</ele>
        <time>2018-04-18T12:31:35Z</time>
      </trkpt>
      <trkpt lat="47.27242" lon="1.56008">
        <ele>74</ele>
        <time>2018-04-18T12:31:47Z</time>
      </trkpt>
      <trkpt lat="47.27244" lon="1.56001">
        <ele>74</ele>
        <time>2018-04-18T12:31:48Z</time>
      </trkpt>
      <trkpt lat="47.2725" lon="1.55989">
        <ele>74</ele>
        <time>2018-04-18T12:31:50Z</time>
      </trkpt>
      <trkpt lat="47.27257" lon="1.55981">
        <ele>74</ele>
        <time>2018-04-18T12:31:52Z</time>
      </trkpt>
      <trkpt lat="47.27268" lon="1.55974">
        <ele>74</ele>
        <time>2018-04-18T12:31:55Z</time>
      </trkpt>
      <trkpt lat="47.27318" lon="1.55987">
        <ele>74</ele>
        <time>2018-04-18T12:32:10Z</time>
      </trkpt>
      <trkpt lat="47.27326" lon="1.55991">
        <ele>74</ele>
        <time>2018-04-18T12:32:12Z</time>
      </trkpt>
      <trkpt lat="47.27336" lon="1.55991">
        <ele>74</ele>
        <time>2018-04-18T12:32:14Z</time>
      </trkpt>
      <trkpt lat="47.27345" lon="1.55986">
        <ele>75</ele>
        <time>2018-04-18T12:32:16Z</time>
      </trkpt>
      <trkpt lat="47.27352" lon="1.55976">
        <ele>75</ele>
        <time>2018-04-18T12:32:18Z</time>
      </trkpt>
      <trkpt lat="47.27357" lon="1.55964">
        <ele>75</ele>
        <time>2018-04-18T12:32:20Z</time>
      </trkpt>
      <trkpt lat="47.27358" lon="1.5595">
        <ele>75</ele>
        <time>2018-04-18T12:32:22Z</time>
      </trkpt>
      <trkpt lat="47.27356" lon="1.55936">
        <ele>75</ele>
        <time>2018-04-18T12:32:24Z</time>
      </trkpt>
      <trkpt lat="47.27351" lon="1.55924">
        <ele>75</ele>
        <time>2018-04-18T12:32:26Z</time>
      </trkpt>
      <trkpt lat="47.27342" lon="1.55909">
        <ele>75</ele>
        <time>2018-04-18T12:32:29Z</time>
      </trkpt>
      <trkpt lat="47.27339" lon="1.55897">
        <ele>75</ele>
        <time>2018-04-18T12:32:31Z</time>
      </trkpt>
      <trkpt lat="47.27349" lon="1.55814">
        <ele>76</ele>
        <time>2018-04-18T12:32:44Z</time>
      </trkpt>
      <trkpt lat="47.2735" lon="1.55809">
        <ele>76</ele>
        <time>2018-04-18T12:32:45Z</time>
      </trkpt>
      <trkpt lat="47.27352" lon="1.55796">
        <ele>76</ele>
        <time>2018-04-18T12:33:52Z</time>
      </trkpt>
      <trkpt lat="47.27352" lon="1.55796">
        <ele>76</ele>
        <time>2018-04-18T12:34:01Z</time>
      </trkpt>
      <trkpt lat="47.27352" lon="1.55796">
        <ele>76</ele>
        <time>2018-04-18T12:34:12Z</time>
      </trkpt>
      <trkpt lat="47.27352" lon="1.55795">
        <ele>76</ele>
        <time>2018-04-18T12:34:21Z</time>
      </trkpt>
      <trkpt lat="47.27352" lon="1.55794">
        <ele>76</ele>
        <time>2018-04-18T12:34:27Z</time>
      </trkpt>
      <trkpt lat="47.27352" lon="1.55795">
        <ele>76</ele>
        <time>2018-04-18T12:34:44Z</time>
      </trkpt>
      <trkpt lat="47.27364" lon="1.55716">
        <ele>76</ele>
        <time>2018-04-18T12:35:12Z</time>
      </trkpt>
      <trkpt lat="47.27379" lon="1.55641">
        <ele>77</ele>
        <time>2018-04-18T12:35:28Z</time>
      </trkpt>
      <trkpt lat="47.27431" lon="1.55618">
        <ele>78</ele>
        <time>2018-04-18T12:35:50Z</time>
      </trkpt>
      <trkpt lat="47.27457" lon="1.556">
        <ele>78</ele>
        <time>2018-04-18T12:35:59Z</time>
      </trkpt>
      <trkpt lat="47.27473" lon="1.55577">
        <ele>78</ele>
        <time>2018-04-18T12:36:05Z</time>
      </trkpt>
      <trkpt lat="47.27475" lon="1.55573">
        <ele>78</ele>
        <time>2018-04-18T12:36:06Z</time>
      </trkpt>
      <trkpt lat="47.27476" lon="1.55569">
        <ele>78</ele>
        <time>2018-04-18T12:36:07Z</time>
      </trkpt>
      <trkpt lat="47.2748" lon="1.55562">
        <ele>78</ele>
        <time>2018-04-18T12:36:09Z</time>
      </trkpt>
      <trkpt lat="47.27507" lon="1.55536">
        <ele>78</ele>
        <time>2018-04-18T12:36:19Z</time>
      </trkpt>
      <trkpt lat="47.27517" lon="1.55527">
        <ele>78</ele>
        <time>2018-04-18T12:36:22Z</time>
      </trkpt>
      <trkpt lat="47.2753" lon="1.55513">
        <ele>78</ele>
        <time>2018-04-18T12:36:26Z</time>
      </trkpt>
      <trkpt lat="47.27536" lon="1.55505">
        <ele>78</ele>
        <time>2018-04-18T12:36:28Z</time>
      </trkpt>
      <trkpt lat="47.27546" lon="1.55492">
        <ele>78</ele>
        <time>2018-04-18T12:36:32Z</time>
      </trkpt>
      <trkpt lat="47.27551" lon="1.55479">
        <ele>78</ele>
        <time>2018-04-18T12:36:35Z</time>
      </trkpt>
      <trkpt lat="47.27541" lon="1.55396">
        <ele>78</ele>
        <time>2018-04-18T12:36:50Z</time>
      </trkpt>
      <trkpt lat="47.27531" lon="1.5536">
        <ele>78</ele>
        <time>2018-04-18T12:36:58Z</time>
      </trkpt>
      <trkpt lat="47.27526" lon="1.55357">
        <ele>78</ele>
        <time>2018-04-18T12:37:00Z</time>
      </trkpt>
      <trkpt lat="47.27507" lon="1.55362">
        <ele>79</ele>
        <time>2018-04-18T12:37:08Z</time>
      </trkpt>
      <trkpt lat="47.27462" lon="1.55376">
        <ele>78</ele>
        <time>2018-04-18T12:37:28Z</time>
      </trkpt>
      <trkpt lat="47.27454" lon="1.55375">
        <ele>78</ele>
        <time>2018-04-18T12:37:33Z</time>
      </trkpt>
      <trkpt lat="47.27453" lon="1.55379">
        <ele>78</ele>
        <time>2018-04-18T12:37:35Z</time>
      </trkpt>
      <trkpt lat="47.27507" lon="1.55361">
        <ele>79</ele>
        <time>2018-04-18T12:37:55Z</time>
      </trkpt>
      <trkpt lat="47.27506" lon="1.55281">
        <ele>79</ele>
        <time>2018-04-18T12:38:11Z</time>
      </trkpt>
      <trkpt lat="47.27497" lon="1.55199">
        <ele>78</ele>
        <time>2018-04-18T12:38:28Z</time>
      </trkpt>
      <trkpt lat="47.27495" lon="1.55145">
        <ele>78</ele>
        <time>2018-04-18T12:38:38Z</time>
      </trkpt>
      <trkpt lat="47.27494" lon="1.55122">
        <ele>77</ele>
        <time>2018-04-18T12:38:42Z</time>
      </trkpt>
      <trkpt lat="47.27495" lon="1.55106">
        <ele>77</ele>
        <time>2018-04-18T12:38:45Z</time>
      </trkpt>
      <trkpt lat="47.27499" lon="1.55091">
        <ele>77</ele>
        <time>2018-04-18T12:38:48Z</time>
      </trkpt>
      <trkpt lat="47.27504" lon="1.55077">
        <ele>77</ele>
        <time>2018-04-18T12:38:51Z</time>
      </trkpt>
      <trkpt lat="47.27519" lon="1.55067">
        <ele>76</ele>
        <time>2018-04-18T12:38:55Z</time>
      </trkpt>
      <trkpt lat="47.27538" lon="1.55053">
        <ele>76</ele>
        <time>2018-04-18T12:39:00Z</time>
      </trkpt>
      <trkpt lat="47.27562" lon="1.55034">
        <ele>75</ele>
        <time>2018-04-18T12:39:16Z</time>
      </trkpt>
      <trkpt lat="47.27564" lon="1.5503">
        <ele>75</ele>
        <time>2018-04-18T12:39:21Z</time>
      </trkpt>
      <trkpt lat="47.2756" lon="1.55">
        <ele>74</ele>
        <time>2018-04-18T12:39:26Z</time>
      </trkpt>
      <trkpt lat="47.27562" lon="1.54985">
        <ele>74</ele>
        <time>2018-04-18T12:39:28Z</time>
      </trkpt>
      <trkpt lat="47.27576" lon="1.54985">
        <ele>73</ele>
        <time>2018-04-18T12:39:31Z</time>
      </trkpt>
      <trkpt lat="47.27596" lon="1.55013">
        <ele>72</ele>
        <time>2018-04-18T12:39:37Z</time>
      </trkpt>
      <trkpt lat="47.27623" lon="1.55066">
        <ele>73</ele>
        <time>2018-04-18T12:39:47Z</time>
      </trkpt>
      <trkpt lat="47.2763" lon="1.55081">
        <ele>73</ele>
        <time>2018-04-18T12:39:50Z</time>
      </trkpt>
      <trkpt lat="47.27634" lon="1.55091">
        <ele>74</ele>
        <time>2018-04-18T12:39:52Z</time>
      </trkpt>
      <trkpt lat="47.27637" lon="1.55102">
        <ele>74</ele>
        <time>2018-04-18T12:39:54Z</time>
      </trkpt>
      <trkpt lat="47.2764" lon="1.5512">
        <ele>75</ele>
        <time>2018-04-18T12:39:57Z</time>
      </trkpt>
      <trkpt lat="47.27645" lon="1.55152">
        <ele>75</ele>
        <time>2018-04-18T12:40:02Z</time>
      </trkpt>
      <trkpt lat="47.27647" lon="1.55158">
        <ele>75</ele>
        <time>2018-04-18T12:40:03Z</time>
      </trkpt>
      <trkpt lat="47.2765" lon="1.55163">
        <ele>75</ele>
        <time>2018-04-18T12:40:04Z</time>
      </trkpt>
      <trkpt lat="47.27668" lon="1.55203">
        <ele>75</ele>
        <time>2018-04-18T12:40:11Z</time>
      </trkpt>
      <trkpt lat="47.27674" lon="1.55225">
        <ele>75</ele>
        <time>2018-04-18T12:40:15Z</time>
      </trkpt>
      <trkpt lat="47.27679" lon="1.55246">
        <ele>76</ele>
        <time>2018-04-18T12:40:20Z</time>
      </trkpt>
      <trkpt lat="47.27687" lon="1.55312">
        <ele>76</ele>
        <time>2018-04-18T12:40:39Z</time>
      </trkpt>
      <trkpt lat="47.27687" lon="1.5532">
        <ele>76</ele>
        <time>2018-04-18T12:40:42Z</time>
      </trkpt>
      <trkpt lat="47.27682" lon="1.55318">
        <ele>76</ele>
        <time>2018-04-18T12:40:45Z</time>
      </trkpt>
      <trkpt lat="47.27667" lon="1.5525">
        <ele>76</ele>
        <time>2018-04-18T12:40:59Z</time>
      </trkpt>
      <trkpt lat="47.27665" lon="1.5524">
        <ele>76</ele>
        <time>2018-04-18T12:41:01Z</time>
      </trkpt>
      <trkpt lat="47.27664" lon="1.55235">
        <ele>76</ele>
        <time>2018-04-18T12:41:02Z</time>
      </trkpt>
      <trkpt lat="47.27663" lon="1.5523">
        <ele>76</ele>
        <time>2018-04-18T12:41:03Z</time>
      </trkpt>
      <trkpt lat="47.27662" lon="1.55225">
        <ele>76</ele>
        <time>2018-04-18T12:41:04Z</time>
      </trkpt>
      <trkpt lat="47.27657" lon="1.55202">
        <ele>76</ele>
        <time>2018-04-18T12:41:09Z</time>
      </trkpt>
      <trkpt lat="47.27643" lon="1.55145">
        <ele>75</ele>
        <time>2018-04-18T12:41:23Z</time>
      </trkpt>
      <trkpt lat="47.27658" lon="1.5513">
        <ele>74</ele>
        <time>2018-04-18T12:41:29Z</time>
      </trkpt>
      <trkpt lat="47.27674" lon="1.55121">
        <ele>74</ele>
        <time>2018-04-18T12:41:34Z</time>
      </trkpt>
      <trkpt lat="47.27695" lon="1.5511">
        <ele>74</ele>
        <time>2018-04-18T12:41:40Z</time>
      </trkpt>
      <trkpt lat="47.27718" lon="1.55096">
        <ele>74</ele>
        <time>2018-04-18T12:41:47Z</time>
      </trkpt>
      <trkpt lat="47.2774" lon="1.55083">
        <ele>75</ele>
        <time>2018-04-18T12:41:54Z</time>
      </trkpt>
      <trkpt lat="47.27754" lon="1.55076">
        <ele>76</ele>
        <time>2018-04-18T12:41:59Z</time>
      </trkpt>
      <trkpt lat="47.27771" lon="1.55071">
        <ele>77</ele>
        <time>2018-04-18T12:42:05Z</time>
      </trkpt>
      <trkpt lat="47.2779" lon="1.55073">
        <ele>78</ele>
        <time>2018-04-18T12:42:12Z</time>
      </trkpt>
      <trkpt lat="47.27792" lon="1.55073">
        <ele>78</ele>
        <time>2018-04-18T12:42:13Z</time>
      </trkpt>
      <trkpt lat="47.27793" lon="1.55073">
        <ele>78</ele>
        <time>2018-04-18T12:42:14Z</time>
      </trkpt>
      <trkpt lat="47.27795" lon="1.55074">
        <ele>78</ele>
        <time>2018-04-18T12:42:15Z</time>
      </trkpt>
      <trkpt lat="47.27796" lon="1.55075">
        <ele>78</ele>
        <time>2018-04-18T12:42:16Z</time>
      </trkpt>
      <trkpt lat="47.27799" lon="1.55079">
        <ele>78</ele>
        <time>2018-04-18T12:42:19Z</time>
      </trkpt>
      <trkpt lat="47.27799" lon="1.5508">
        <ele>78</ele>
        <time>2018-04-18T12:42:20Z</time>
      </trkpt>
      <trkpt lat="47.27799" lon="1.55082">
        <ele>78</ele>
        <time>2018-04-18T12:42:21Z</time>
      </trkpt>
      <trkpt lat="47.27752" lon="1.5507">
        <ele>76</ele>
        <time>2018-04-18T12:42:40Z</time>
      </trkpt>
      <trkpt lat="47.27746" lon="1.55043">
        <ele>74</ele>
        <time>2018-04-18T12:42:45Z</time>
      </trkpt>
      <trkpt lat="47.27745" lon="1.5504">
        <ele>74</ele>
        <time>2018-04-18T12:42:46Z</time>
      </trkpt>
      <trkpt lat="47.27744" lon="1.55036">
        <ele>74</ele>
        <time>2018-04-18T12:42:47Z</time>
      </trkpt>
      <trkpt lat="47.27742" lon="1.55029">
        <ele>75</ele>
        <time>2018-04-18T12:42:49Z</time>
      </trkpt>
      <trkpt lat="47.27742" lon="1.55024">
        <ele>75</ele>
        <time>2018-04-18T12:42:50Z</time>
      </trkpt>
      <trkpt lat="47.27741" lon="1.5502">
        <ele>75</ele>
        <time>2018-04-18T12:42:51Z</time>
      </trkpt>
      <trkpt lat="47.27737" lon="1.55004">
        <ele>75</ele>
        <time>2018-04-18T12:42:55Z</time>
      </trkpt>
      <trkpt lat="47.27736" lon="1.55">
        <ele>76</ele>
        <time>2018-04-18T12:42:56Z</time>
      </trkpt>
      <trkpt lat="47.27735" lon="1.54996">
        <ele>76</ele>
        <time>2018-04-18T12:42:57Z</time>
      </trkpt>
      <trkpt lat="47.27725" lon="1.54965">
        <ele>75</ele>
        <time>2018-04-18T12:43:06Z</time>
      </trkpt>
      <trkpt lat="47.27724" lon="1.54962">
        <ele>75</ele>
        <time>2018-04-18T12:43:07Z</time>
      </trkpt>
      <trkpt lat="47.27724" lon="1.54958">
        <ele>75</ele>
        <time>2018-04-18T12:43:08Z</time>
      </trkpt>
      <trkpt lat="47.27723" lon="1.54955">
        <ele>75</ele>
        <time>2018-04-18T12:43:09Z</time>
      </trkpt>
      <trkpt lat="47.27721" lon="1.54952">
        <ele>75</ele>
        <time>2018-04-18T12:43:10Z</time>
      </trkpt>
      <trkpt lat="47.2772" lon="1.54949">
        <ele>75</ele>
        <time>2018-04-18T12:43:11Z</time>
      </trkpt>
      <trkpt lat="47.27719" lon="1.54946">
        <ele>75</ele>
        <time>2018-04-18T12:43:12Z</time>
      </trkpt>
      <trkpt lat="47.27718" lon="1.54942">
        <ele>75</ele>
        <time>2018-04-18T12:43:13Z</time>
      </trkpt>
      <trkpt lat="47.27717" lon="1.54938">
        <ele>75</ele>
        <time>2018-04-18T12:43:14Z</time>
      </trkpt>
      <trkpt lat="47.27716" lon="1.54934">
        <ele>75</ele>
        <time>2018-04-18T12:43:15Z</time>
      </trkpt>
      <trkpt lat="47.27713" lon="1.54927">
        <ele>75</ele>
        <time>2018-04-18T12:43:17Z</time>
      </trkpt>
      <trkpt lat="47.27712" lon="1.54923">
        <ele>75</ele>
        <time>2018-04-18T12:43:18Z</time>
      </trkpt>
      <trkpt lat="47.27711" lon="1.54919">
        <ele>75</ele>
        <time>2018-04-18T12:43:19Z</time>
      </trkpt>
      <trkpt lat="47.27709" lon="1.54916">
        <ele>77</ele>
        <time>2018-04-18T12:43:20Z</time>
      </trkpt>
      <trkpt lat="47.27706" lon="1.54905">
        <ele>76</ele>
        <time>2018-04-18T12:43:23Z</time>
      </trkpt>
      <trkpt lat="47.27701" lon="1.54895">
        <ele>76</ele>
        <time>2018-04-18T12:43:26Z</time>
      </trkpt>
      <trkpt lat="47.27695" lon="1.54882">
        <ele>76</ele>
        <time>2018-04-18T12:43:30Z</time>
      </trkpt>
      <trkpt lat="47.2767" lon="1.54839">
        <ele>75</ele>
        <time>2018-04-18T12:43:43Z</time>
      </trkpt>
      <trkpt lat="47.27666" lon="1.54834">
        <ele>75</ele>
        <time>2018-04-18T12:43:45Z</time>
      </trkpt>
      <trkpt lat="47.27629" lon="1.54793">
        <ele>74</ele>
        <time>2018-04-18T12:43:59Z</time>
      </trkpt>
      <trkpt lat="47.27587" lon="1.54741">
        <ele>75</ele>
        <time>2018-04-18T12:44:15Z</time>
      </trkpt>
      <trkpt lat="47.27544" lon="1.54694">
        <ele>77</ele>
        <time>2018-04-18T12:44:36Z</time>
      </trkpt>
      <trkpt lat="47.27532" lon="1.54634">
        <ele>79</ele>
        <time>2018-04-18T12:45:06Z</time>
      </trkpt>
      <trkpt lat="47.27553" lon="1.54573">
        <ele>78</ele>
        <time>2018-04-18T12:45:23Z</time>
      </trkpt>
      <trkpt lat="47.27558" lon="1.5456">
        <ele>78</ele>
        <time>2018-04-18T12:45:26Z</time>
      </trkpt>
      <trkpt lat="47.27559" lon="1.54556">
        <ele>79</ele>
        <time>2018-04-18T12:45:27Z</time>
      </trkpt>
      <trkpt lat="47.27561" lon="1.54552">
        <ele>79</ele>
        <time>2018-04-18T12:45:28Z</time>
      </trkpt>
      <trkpt lat="47.27562" lon="1.54547">
        <ele>79</ele>
        <time>2018-04-18T12:45:29Z</time>
      </trkpt>
      <trkpt lat="47.27584" lon="1.54505">
        <ele>80</ele>
        <time>2018-04-18T12:45:42Z</time>
      </trkpt>
      <trkpt lat="47.27595" lon="1.5449">
        <ele>80</ele>
        <time>2018-04-18T12:45:49Z</time>
      </trkpt>
      <trkpt lat="47.27599" lon="1.54486">
        <ele>80</ele>
        <time>2018-04-18T12:45:53Z</time>
      </trkpt>
      <trkpt lat="47.27612" lon="1.54504">
        <ele>79</ele>
        <time>2018-04-18T12:46:01Z</time>
      </trkpt>
      <trkpt lat="47.27633" lon="1.54547">
        <ele>79</ele>
        <time>2018-04-18T12:46:12Z</time>
      </trkpt>
      <trkpt lat="47.27639" lon="1.54541">
        <ele>79</ele>
        <time>2018-04-18T12:46:15Z</time>
      </trkpt>
      <trkpt lat="47.27642" lon="1.54516">
        <ele>79</ele>
        <time>2018-04-18T12:46:20Z</time>
      </trkpt>
      <trkpt lat="47.27642" lon="1.54506">
        <ele>79</ele>
        <time>2018-04-18T12:46:22Z</time>
      </trkpt>
      <trkpt lat="47.27642" lon="1.54502">
        <ele>79</ele>
        <time>2018-04-18T12:46:23Z</time>
      </trkpt>
      <trkpt lat="47.27644" lon="1.54494">
        <ele>80</ele>
        <time>2018-04-18T12:46:25Z</time>
      </trkpt>
      <trkpt lat="47.27679" lon="1.54452">
        <ele>80</ele>
        <time>2018-04-18T12:46:43Z</time>
      </trkpt>
      <trkpt lat="47.2769" lon="1.54443">
        <ele>80</ele>
        <time>2018-04-18T12:47:00Z</time>
      </trkpt>
    </trkseg>
  </trk>
</gpx>